<?xml version="1.0" encoding="UTF-8" standalone="no" ?>
<gpx xmlns="http://www.topografix.com/GPX/1/1" xmlns:xsi="http://www.w3.org/2001/XMLSchema-instance" xsi:schemaLocation="http://www.topografix.com/GPX/1/1 http://www.topografix.com/GPX/1/1/gpx.xsd" version="1.1" creator="VisuGPX - https://www.visugpx.com">
  <metadata>
    <name>Champagnat Cyclisme sur route</name>
  </metadata>
  <trk>
    <name><![CDATA[Champagnat Cyclisme sur route_1]]></name>
    <trkseg>
      <trkpt lat="46.48267" lon="5.36833">
        <ele>269.2</ele>
        <time>2022-05-04T12:04:43Z</time>
      </trkpt>
      <trkpt lat="46.48258" lon="5.36822">
        <ele>268.8</ele>
        <time>2022-05-04T12:04:44Z</time>
      </trkpt>
      <trkpt lat="46.48246" lon="5.3681">
        <ele>268.4</ele>
        <time>2022-05-04T12:04:45Z</time>
      </trkpt>
      <trkpt lat="46.48236" lon="5.36801">
        <ele>267.2</ele>
        <time>2022-05-04T12:04:46Z</time>
      </trkpt>
      <trkpt lat="46.48217" lon="5.36786">
        <ele>265.8</ele>
        <time>2022-05-04T12:04:48Z</time>
      </trkpt>
      <trkpt lat="46.48196" lon="5.36769">
        <ele>264.6</ele>
        <time>2022-05-04T12:04:50Z</time>
      </trkpt>
      <trkpt lat="46.48175" lon="5.36752">
        <ele>263.4</ele>
        <time>2022-05-04T12:04:52Z</time>
      </trkpt>
      <trkpt lat="46.48154" lon="5.36735">
        <ele>262</ele>
        <time>2022-05-04T12:04:54Z</time>
      </trkpt>
      <trkpt lat="46.48131" lon="5.36718">
        <ele>260.8</ele>
        <time>2022-05-04T12:04:56Z</time>
      </trkpt>
      <trkpt lat="46.48122" lon="5.36711">
        <ele>260</ele>
        <time>2022-05-04T12:04:57Z</time>
      </trkpt>
      <trkpt lat="46.48114" lon="5.36705">
        <ele>259.4</ele>
        <time>2022-05-04T12:04:58Z</time>
      </trkpt>
      <trkpt lat="46.4811" lon="5.36697">
        <ele>258.6</ele>
        <time>2022-05-04T12:04:59Z</time>
      </trkpt>
      <trkpt lat="46.48109" lon="5.36688">
        <ele>257.6</ele>
        <time>2022-05-04T12:05:00Z</time>
      </trkpt>
      <trkpt lat="46.4811" lon="5.36679">
        <ele>257.2</ele>
        <time>2022-05-04T12:05:01Z</time>
      </trkpt>
      <trkpt lat="46.48115" lon="5.36671">
        <ele>256.4</ele>
        <time>2022-05-04T12:05:02Z</time>
      </trkpt>
      <trkpt lat="46.48129" lon="5.36659">
        <ele>255.6</ele>
        <time>2022-05-04T12:05:04Z</time>
      </trkpt>
      <trkpt lat="46.48135" lon="5.36654">
        <ele>255.2</ele>
        <time>2022-05-04T12:05:05Z</time>
      </trkpt>
      <trkpt lat="46.48142" lon="5.36649">
        <ele>254.4</ele>
        <time>2022-05-04T12:05:06Z</time>
      </trkpt>
      <trkpt lat="46.48149" lon="5.36642">
        <ele>253.8</ele>
        <time>2022-05-04T12:05:07Z</time>
      </trkpt>
      <trkpt lat="46.48163" lon="5.36628">
        <ele>253</ele>
        <time>2022-05-04T12:05:09Z</time>
      </trkpt>
      <trkpt lat="46.48178" lon="5.36615">
        <ele>252.8</ele>
        <time>2022-05-04T12:05:11Z</time>
      </trkpt>
      <trkpt lat="46.48194" lon="5.36608">
        <ele>252.8</ele>
        <time>2022-05-04T12:05:13Z</time>
      </trkpt>
      <trkpt lat="46.48209" lon="5.36601">
        <ele>252.6</ele>
        <time>2022-05-04T12:05:15Z</time>
      </trkpt>
      <trkpt lat="46.48215" lon="5.36594">
        <ele>252.4</ele>
        <time>2022-05-04T12:05:16Z</time>
      </trkpt>
      <trkpt lat="46.4822" lon="5.36585">
        <ele>252.2</ele>
        <time>2022-05-04T12:05:17Z</time>
      </trkpt>
      <trkpt lat="46.48227" lon="5.36565">
        <ele>252.2</ele>
        <time>2022-05-04T12:05:19Z</time>
      </trkpt>
      <trkpt lat="46.48245" lon="5.36543">
        <ele>251.8</ele>
        <time>2022-05-04T12:05:22Z</time>
      </trkpt>
      <trkpt lat="46.48251" lon="5.36535">
        <ele>251.8</ele>
        <time>2022-05-04T12:05:23Z</time>
      </trkpt>
      <trkpt lat="46.48277" lon="5.36507">
        <ele>251</ele>
        <time>2022-05-04T12:05:27Z</time>
      </trkpt>
      <trkpt lat="46.48283" lon="5.36499">
        <ele>250.8</ele>
        <time>2022-05-04T12:05:28Z</time>
      </trkpt>
      <trkpt lat="46.48317" lon="5.36462">
        <ele>249.8</ele>
        <time>2022-05-04T12:05:33Z</time>
      </trkpt>
      <trkpt lat="46.48324" lon="5.36454">
        <ele>249.6</ele>
        <time>2022-05-04T12:05:34Z</time>
      </trkpt>
      <trkpt lat="46.48357" lon="5.36418">
        <ele>248.2</ele>
        <time>2022-05-04T12:05:39Z</time>
      </trkpt>
      <trkpt lat="46.48371" lon="5.36404">
        <ele>247.6</ele>
        <time>2022-05-04T12:05:41Z</time>
      </trkpt>
      <trkpt lat="46.48384" lon="5.3639">
        <ele>247</ele>
        <time>2022-05-04T12:05:43Z</time>
      </trkpt>
      <trkpt lat="46.48412" lon="5.36365">
        <ele>246.4</ele>
        <time>2022-05-04T12:05:47Z</time>
      </trkpt>
      <trkpt lat="46.4842" lon="5.36361">
        <ele>246.4</ele>
        <time>2022-05-04T12:05:48Z</time>
      </trkpt>
      <trkpt lat="46.48458" lon="5.36349">
        <ele>246.8</ele>
        <time>2022-05-04T12:05:53Z</time>
      </trkpt>
      <trkpt lat="46.4851" lon="5.36339">
        <ele>245.8</ele>
        <time>2022-05-04T12:06:00Z</time>
      </trkpt>
      <trkpt lat="46.48517" lon="5.36338">
        <ele>245.4</ele>
        <time>2022-05-04T12:06:01Z</time>
      </trkpt>
      <trkpt lat="46.48545" lon="5.36333">
        <ele>244.8</ele>
        <time>2022-05-04T12:06:05Z</time>
      </trkpt>
      <trkpt lat="46.48599" lon="5.36324">
        <ele>244</ele>
        <time>2022-05-04T12:06:12Z</time>
      </trkpt>
      <trkpt lat="46.48623" lon="5.36315">
        <ele>243.4</ele>
        <time>2022-05-04T12:06:15Z</time>
      </trkpt>
      <trkpt lat="46.48629" lon="5.36307">
        <ele>243.2</ele>
        <time>2022-05-04T12:06:16Z</time>
      </trkpt>
      <trkpt lat="46.48634" lon="5.36296">
        <ele>243</ele>
        <time>2022-05-04T12:06:17Z</time>
      </trkpt>
      <trkpt lat="46.48637" lon="5.36284">
        <ele>242.4</ele>
        <time>2022-05-04T12:06:18Z</time>
      </trkpt>
      <trkpt lat="46.48639" lon="5.3627">
        <ele>242.2</ele>
        <time>2022-05-04T12:06:19Z</time>
      </trkpt>
      <trkpt lat="46.48641" lon="5.36243">
        <ele>241.2</ele>
        <time>2022-05-04T12:06:21Z</time>
      </trkpt>
      <trkpt lat="46.48644" lon="5.36201">
        <ele>240</ele>
        <time>2022-05-04T12:06:24Z</time>
      </trkpt>
      <trkpt lat="46.48645" lon="5.36187">
        <ele>239.8</ele>
        <time>2022-05-04T12:06:25Z</time>
      </trkpt>
      <trkpt lat="46.48647" lon="5.36147">
        <ele>239</ele>
        <time>2022-05-04T12:06:28Z</time>
      </trkpt>
      <trkpt lat="46.48654" lon="5.36109">
        <ele>238.2</ele>
        <time>2022-05-04T12:06:31Z</time>
      </trkpt>
      <trkpt lat="46.4866" lon="5.36084">
        <ele>237.8</ele>
        <time>2022-05-04T12:06:33Z</time>
      </trkpt>
      <trkpt lat="46.48671" lon="5.3603">
        <ele>237.8</ele>
        <time>2022-05-04T12:06:38Z</time>
      </trkpt>
      <trkpt lat="46.48678" lon="5.35985">
        <ele>238.2</ele>
        <time>2022-05-04T12:06:43Z</time>
      </trkpt>
      <trkpt lat="46.4868" lon="5.35977">
        <ele>238.4</ele>
        <time>2022-05-04T12:06:44Z</time>
      </trkpt>
      <trkpt lat="46.48682" lon="5.35968">
        <ele>238.6</ele>
        <time>2022-05-04T12:06:45Z</time>
      </trkpt>
      <trkpt lat="46.48686" lon="5.35939">
        <ele>238.8</ele>
        <time>2022-05-04T12:06:48Z</time>
      </trkpt>
      <trkpt lat="46.48696" lon="5.35898">
        <ele>239</ele>
        <time>2022-05-04T12:06:52Z</time>
      </trkpt>
      <trkpt lat="46.48719" lon="5.35848">
        <ele>238.6</ele>
        <time>2022-05-04T12:06:57Z</time>
      </trkpt>
      <trkpt lat="46.48723" lon="5.35838">
        <ele>238.4</ele>
        <time>2022-05-04T12:06:58Z</time>
      </trkpt>
      <trkpt lat="46.48735" lon="5.35806">
        <ele>238</ele>
        <time>2022-05-04T12:07:01Z</time>
      </trkpt>
      <trkpt lat="46.48756" lon="5.35756">
        <ele>236.8</ele>
        <time>2022-05-04T12:07:06Z</time>
      </trkpt>
      <trkpt lat="46.48761" lon="5.35746">
        <ele>236.8</ele>
        <time>2022-05-04T12:07:07Z</time>
      </trkpt>
      <trkpt lat="46.48783" lon="5.35698">
        <ele>236.2</ele>
        <time>2022-05-04T12:07:12Z</time>
      </trkpt>
      <trkpt lat="46.488" lon="5.35652">
        <ele>235.8</ele>
        <time>2022-05-04T12:07:17Z</time>
      </trkpt>
      <trkpt lat="46.48804" lon="5.35643">
        <ele>235.8</ele>
        <time>2022-05-04T12:07:18Z</time>
      </trkpt>
      <trkpt lat="46.48811" lon="5.35625">
        <ele>235.8</ele>
        <time>2022-05-04T12:07:20Z</time>
      </trkpt>
      <trkpt lat="46.48818" lon="5.35606">
        <ele>235.8</ele>
        <time>2022-05-04T12:07:22Z</time>
      </trkpt>
      <trkpt lat="46.48835" lon="5.35573">
        <ele>235.8</ele>
        <time>2022-05-04T12:07:26Z</time>
      </trkpt>
      <trkpt lat="46.48848" lon="5.35547">
        <ele>235.8</ele>
        <time>2022-05-04T12:07:29Z</time>
      </trkpt>
      <trkpt lat="46.48864" lon="5.35513">
        <ele>236.2</ele>
        <time>2022-05-04T12:07:33Z</time>
      </trkpt>
      <trkpt lat="46.48886" lon="5.35462">
        <ele>236</ele>
        <time>2022-05-04T12:07:39Z</time>
      </trkpt>
      <trkpt lat="46.48909" lon="5.3541">
        <ele>235.6</ele>
        <time>2022-05-04T12:07:45Z</time>
      </trkpt>
      <trkpt lat="46.48923" lon="5.35373">
        <ele>235.6</ele>
        <time>2022-05-04T12:07:49Z</time>
      </trkpt>
      <trkpt lat="46.48932" lon="5.35355">
        <ele>235.4</ele>
        <time>2022-05-04T12:07:51Z</time>
      </trkpt>
      <trkpt lat="46.48948" lon="5.35318">
        <ele>235</ele>
        <time>2022-05-04T12:07:55Z</time>
      </trkpt>
      <trkpt lat="46.48959" lon="5.35292">
        <ele>235</ele>
        <time>2022-05-04T12:07:58Z</time>
      </trkpt>
      <trkpt lat="46.48963" lon="5.35284">
        <ele>235</ele>
        <time>2022-05-04T12:07:59Z</time>
      </trkpt>
      <trkpt lat="46.48983" lon="5.35234">
        <ele>235</ele>
        <time>2022-05-04T12:08:05Z</time>
      </trkpt>
      <trkpt lat="46.49002" lon="5.35197">
        <ele>235</ele>
        <time>2022-05-04T12:08:10Z</time>
      </trkpt>
      <trkpt lat="46.49006" lon="5.3519">
        <ele>235.4</ele>
        <time>2022-05-04T12:08:11Z</time>
      </trkpt>
      <trkpt lat="46.49022" lon="5.35153">
        <ele>236</ele>
        <time>2022-05-04T12:08:16Z</time>
      </trkpt>
      <trkpt lat="46.49025" lon="5.35146">
        <ele>236.2</ele>
        <time>2022-05-04T12:08:17Z</time>
      </trkpt>
      <trkpt lat="46.49042" lon="5.35097">
        <ele>236.8</ele>
        <time>2022-05-04T12:08:23Z</time>
      </trkpt>
      <trkpt lat="46.49044" lon="5.35087">
        <ele>237</ele>
        <time>2022-05-04T12:08:24Z</time>
      </trkpt>
      <trkpt lat="46.49049" lon="5.3506">
        <ele>237</ele>
        <time>2022-05-04T12:08:27Z</time>
      </trkpt>
      <trkpt lat="46.49055" lon="5.35031">
        <ele>237</ele>
        <time>2022-05-04T12:08:30Z</time>
      </trkpt>
      <trkpt lat="46.49057" lon="5.35021">
        <ele>237</ele>
        <time>2022-05-04T12:08:31Z</time>
      </trkpt>
      <trkpt lat="46.49061" lon="5.35001">
        <ele>236.8</ele>
        <time>2022-05-04T12:08:33Z</time>
      </trkpt>
      <trkpt lat="46.49072" lon="5.34936">
        <ele>235.8</ele>
        <time>2022-05-04T12:08:39Z</time>
      </trkpt>
      <trkpt lat="46.49079" lon="5.34892">
        <ele>235</ele>
        <time>2022-05-04T12:08:43Z</time>
      </trkpt>
      <trkpt lat="46.49086" lon="5.34858">
        <ele>234.4</ele>
        <time>2022-05-04T12:08:46Z</time>
      </trkpt>
      <trkpt lat="46.49094" lon="5.34812">
        <ele>233.8</ele>
        <time>2022-05-04T12:08:50Z</time>
      </trkpt>
      <trkpt lat="46.49106" lon="5.34755">
        <ele>232.8</ele>
        <time>2022-05-04T12:08:55Z</time>
      </trkpt>
      <trkpt lat="46.49122" lon="5.34672">
        <ele>232</ele>
        <time>2022-05-04T12:09:02Z</time>
      </trkpt>
      <trkpt lat="46.49124" lon="5.3466">
        <ele>231.8</ele>
        <time>2022-05-04T12:09:03Z</time>
      </trkpt>
      <trkpt lat="46.49127" lon="5.34649">
        <ele>231.8</ele>
        <time>2022-05-04T12:09:04Z</time>
      </trkpt>
      <trkpt lat="46.49133" lon="5.34618">
        <ele>231.4</ele>
        <time>2022-05-04T12:09:07Z</time>
      </trkpt>
      <trkpt lat="46.49135" lon="5.34608">
        <ele>231.4</ele>
        <time>2022-05-04T12:09:08Z</time>
      </trkpt>
      <trkpt lat="46.49137" lon="5.3459">
        <ele>231.6</ele>
        <time>2022-05-04T12:09:10Z</time>
      </trkpt>
      <trkpt lat="46.49145" lon="5.34545">
        <ele>232.6</ele>
        <time>2022-05-04T12:09:15Z</time>
      </trkpt>
      <trkpt lat="46.49158" lon="5.34483">
        <ele>232</ele>
        <time>2022-05-04T12:09:21Z</time>
      </trkpt>
      <trkpt lat="46.49173" lon="5.3441">
        <ele>231.4</ele>
        <time>2022-05-04T12:09:28Z</time>
      </trkpt>
      <trkpt lat="46.49182" lon="5.34365">
        <ele>231.4</ele>
        <time>2022-05-04T12:09:33Z</time>
      </trkpt>
      <trkpt lat="46.49193" lon="5.34307">
        <ele>232.4</ele>
        <time>2022-05-04T12:09:40Z</time>
      </trkpt>
      <trkpt lat="46.49203" lon="5.34257">
        <ele>232.2</ele>
        <time>2022-05-04T12:09:45Z</time>
      </trkpt>
      <trkpt lat="46.49217" lon="5.34181">
        <ele>231.4</ele>
        <time>2022-05-04T12:09:52Z</time>
      </trkpt>
      <trkpt lat="46.49219" lon="5.3417">
        <ele>231.2</ele>
        <time>2022-05-04T12:09:53Z</time>
      </trkpt>
      <trkpt lat="46.49231" lon="5.34111">
        <ele>231</ele>
        <time>2022-05-04T12:09:59Z</time>
      </trkpt>
      <trkpt lat="46.49232" lon="5.34102">
        <ele>231</ele>
        <time>2022-05-04T12:10:00Z</time>
      </trkpt>
      <trkpt lat="46.49236" lon="5.34086">
        <ele>231.4</ele>
        <time>2022-05-04T12:10:02Z</time>
      </trkpt>
      <trkpt lat="46.4924" lon="5.34072">
        <ele>232</ele>
        <time>2022-05-04T12:10:04Z</time>
      </trkpt>
      <trkpt lat="46.49244" lon="5.34049">
        <ele>232.8</ele>
        <time>2022-05-04T12:10:07Z</time>
      </trkpt>
      <trkpt lat="46.49249" lon="5.34016">
        <ele>233.8</ele>
        <time>2022-05-04T12:10:11Z</time>
      </trkpt>
      <trkpt lat="46.4925" lon="5.34008">
        <ele>233.8</ele>
        <time>2022-05-04T12:10:12Z</time>
      </trkpt>
      <trkpt lat="46.49257" lon="5.33971">
        <ele>234.2</ele>
        <time>2022-05-04T12:10:16Z</time>
      </trkpt>
      <trkpt lat="46.49269" lon="5.33905">
        <ele>234.4</ele>
        <time>2022-05-04T12:10:23Z</time>
      </trkpt>
      <trkpt lat="46.49277" lon="5.33867">
        <ele>234.4</ele>
        <time>2022-05-04T12:10:27Z</time>
      </trkpt>
      <trkpt lat="46.4928" lon="5.33848">
        <ele>234.6</ele>
        <time>2022-05-04T12:10:29Z</time>
      </trkpt>
      <trkpt lat="46.49288" lon="5.33809">
        <ele>234.6</ele>
        <time>2022-05-04T12:10:33Z</time>
      </trkpt>
      <trkpt lat="46.493" lon="5.33749">
        <ele>234.6</ele>
        <time>2022-05-04T12:10:39Z</time>
      </trkpt>
      <trkpt lat="46.49302" lon="5.33728">
        <ele>234.4</ele>
        <time>2022-05-04T12:10:41Z</time>
      </trkpt>
      <trkpt lat="46.49304" lon="5.33685">
        <ele>234.2</ele>
        <time>2022-05-04T12:10:45Z</time>
      </trkpt>
      <trkpt lat="46.49311" lon="5.33602">
        <ele>233.4</ele>
        <time>2022-05-04T12:10:53Z</time>
      </trkpt>
      <trkpt lat="46.4932" lon="5.33554">
        <ele>233.2</ele>
        <time>2022-05-04T12:10:58Z</time>
      </trkpt>
      <trkpt lat="46.49318" lon="5.33507">
        <ele>233</ele>
        <time>2022-05-04T12:11:03Z</time>
      </trkpt>
      <trkpt lat="46.49307" lon="5.33432">
        <ele>232.6</ele>
        <time>2022-05-04T12:11:11Z</time>
      </trkpt>
      <trkpt lat="46.49295" lon="5.33375">
        <ele>232.4</ele>
        <time>2022-05-04T12:11:17Z</time>
      </trkpt>
      <trkpt lat="46.49283" lon="5.33313">
        <ele>232</ele>
        <time>2022-05-04T12:11:23Z</time>
      </trkpt>
      <trkpt lat="46.49279" lon="5.33291">
        <ele>231.8</ele>
        <time>2022-05-04T12:11:25Z</time>
      </trkpt>
      <trkpt lat="46.49265" lon="5.33229">
        <ele>231.2</ele>
        <time>2022-05-04T12:11:31Z</time>
      </trkpt>
      <trkpt lat="46.49253" lon="5.33203">
        <ele>230.8</ele>
        <time>2022-05-04T12:11:34Z</time>
      </trkpt>
      <trkpt lat="46.49248" lon="5.33195">
        <ele>230.8</ele>
        <time>2022-05-04T12:11:35Z</time>
      </trkpt>
      <trkpt lat="46.49235" lon="5.33183">
        <ele>230.4</ele>
        <time>2022-05-04T12:11:37Z</time>
      </trkpt>
      <trkpt lat="46.49221" lon="5.33173">
        <ele>230</ele>
        <time>2022-05-04T12:11:39Z</time>
      </trkpt>
      <trkpt lat="46.49214" lon="5.33167">
        <ele>229.8</ele>
        <time>2022-05-04T12:11:40Z</time>
      </trkpt>
      <trkpt lat="46.49179" lon="5.33138">
        <ele>229.2</ele>
        <time>2022-05-04T12:11:45Z</time>
      </trkpt>
      <trkpt lat="46.49167" lon="5.33123">
        <ele>228.8</ele>
        <time>2022-05-04T12:11:47Z</time>
      </trkpt>
      <trkpt lat="46.49157" lon="5.33105">
        <ele>228.8</ele>
        <time>2022-05-04T12:11:49Z</time>
      </trkpt>
      <trkpt lat="46.49142" lon="5.33057">
        <ele>228.4</ele>
        <time>2022-05-04T12:11:54Z</time>
      </trkpt>
      <trkpt lat="46.4913" lon="5.32986">
        <ele>228</ele>
        <time>2022-05-04T12:12:01Z</time>
      </trkpt>
      <trkpt lat="46.49126" lon="5.3294">
        <ele>227.6</ele>
        <time>2022-05-04T12:12:05Z</time>
      </trkpt>
      <trkpt lat="46.49125" lon="5.32928">
        <ele>227.4</ele>
        <time>2022-05-04T12:12:06Z</time>
      </trkpt>
      <trkpt lat="46.49126" lon="5.32906">
        <ele>227.2</ele>
        <time>2022-05-04T12:12:08Z</time>
      </trkpt>
      <trkpt lat="46.4913" lon="5.32885">
        <ele>226.8</ele>
        <time>2022-05-04T12:12:10Z</time>
      </trkpt>
      <trkpt lat="46.49132" lon="5.32876">
        <ele>226.8</ele>
        <time>2022-05-04T12:12:11Z</time>
      </trkpt>
      <trkpt lat="46.4914" lon="5.32848">
        <ele>226.6</ele>
        <time>2022-05-04T12:12:14Z</time>
      </trkpt>
      <trkpt lat="46.49144" lon="5.32827">
        <ele>226.4</ele>
        <time>2022-05-04T12:12:16Z</time>
      </trkpt>
      <trkpt lat="46.49144" lon="5.32788">
        <ele>226.4</ele>
        <time>2022-05-04T12:12:20Z</time>
      </trkpt>
      <trkpt lat="46.49129" lon="5.32723">
        <ele>226.4</ele>
        <time>2022-05-04T12:12:27Z</time>
      </trkpt>
      <trkpt lat="46.49125" lon="5.32715">
        <ele>226.4</ele>
        <time>2022-05-04T12:12:28Z</time>
      </trkpt>
      <trkpt lat="46.49115" lon="5.327">
        <ele>226.4</ele>
        <time>2022-05-04T12:12:30Z</time>
      </trkpt>
      <trkpt lat="46.49101" lon="5.32693">
        <ele>226.2</ele>
        <time>2022-05-04T12:12:32Z</time>
      </trkpt>
      <trkpt lat="46.49094" lon="5.32693">
        <ele>226</ele>
        <time>2022-05-04T12:12:33Z</time>
      </trkpt>
      <trkpt lat="46.49052" lon="5.32703">
        <ele>225.6</ele>
        <time>2022-05-04T12:12:38Z</time>
      </trkpt>
      <trkpt lat="46.49016" lon="5.32709">
        <ele>224.4</ele>
        <time>2022-05-04T12:12:42Z</time>
      </trkpt>
      <trkpt lat="46.48997" lon="5.3271">
        <ele>223.2</ele>
        <time>2022-05-04T12:12:44Z</time>
      </trkpt>
      <trkpt lat="46.48978" lon="5.32709">
        <ele>222.6</ele>
        <time>2022-05-04T12:12:46Z</time>
      </trkpt>
      <trkpt lat="46.48959" lon="5.32701">
        <ele>221.8</ele>
        <time>2022-05-04T12:12:48Z</time>
      </trkpt>
      <trkpt lat="46.48942" lon="5.32685">
        <ele>219.8</ele>
        <time>2022-05-04T12:12:50Z</time>
      </trkpt>
      <trkpt lat="46.48934" lon="5.32674">
        <ele>219.4</ele>
        <time>2022-05-04T12:12:51Z</time>
      </trkpt>
      <trkpt lat="46.48927" lon="5.32662">
        <ele>218.8</ele>
        <time>2022-05-04T12:12:52Z</time>
      </trkpt>
      <trkpt lat="46.48921" lon="5.32648">
        <ele>218.6</ele>
        <time>2022-05-04T12:12:53Z</time>
      </trkpt>
      <trkpt lat="46.48918" lon="5.32634">
        <ele>218</ele>
        <time>2022-05-04T12:12:54Z</time>
      </trkpt>
      <trkpt lat="46.48918" lon="5.32619">
        <ele>217.2</ele>
        <time>2022-05-04T12:12:55Z</time>
      </trkpt>
      <trkpt lat="46.48922" lon="5.32605">
        <ele>216.8</ele>
        <time>2022-05-04T12:12:56Z</time>
      </trkpt>
      <trkpt lat="46.48928" lon="5.32593">
        <ele>215.8</ele>
        <time>2022-05-04T12:12:57Z</time>
      </trkpt>
      <trkpt lat="46.48941" lon="5.3257">
        <ele>214</ele>
        <time>2022-05-04T12:12:59Z</time>
      </trkpt>
      <trkpt lat="46.48948" lon="5.32559">
        <ele>213.6</ele>
        <time>2022-05-04T12:13:00Z</time>
      </trkpt>
      <trkpt lat="46.48954" lon="5.32545">
        <ele>212.8</ele>
        <time>2022-05-04T12:13:01Z</time>
      </trkpt>
      <trkpt lat="46.48956" lon="5.32531">
        <ele>212.4</ele>
        <time>2022-05-04T12:13:02Z</time>
      </trkpt>
      <trkpt lat="46.48956" lon="5.32517">
        <ele>211.6</ele>
        <time>2022-05-04T12:13:03Z</time>
      </trkpt>
      <trkpt lat="46.48953" lon="5.32505">
        <ele>211.2</ele>
        <time>2022-05-04T12:13:04Z</time>
      </trkpt>
      <trkpt lat="46.48942" lon="5.32471">
        <ele>210.6</ele>
        <time>2022-05-04T12:13:07Z</time>
      </trkpt>
      <trkpt lat="46.48934" lon="5.32448">
        <ele>210.2</ele>
        <time>2022-05-04T12:13:09Z</time>
      </trkpt>
      <trkpt lat="46.48919" lon="5.32388">
        <ele>209.8</ele>
        <time>2022-05-04T12:13:14Z</time>
      </trkpt>
      <trkpt lat="46.4891" lon="5.32356">
        <ele>210</ele>
        <time>2022-05-04T12:13:17Z</time>
      </trkpt>
      <trkpt lat="46.48902" lon="5.32336">
        <ele>210</ele>
        <time>2022-05-04T12:13:19Z</time>
      </trkpt>
      <trkpt lat="46.48884" lon="5.32307">
        <ele>210.2</ele>
        <time>2022-05-04T12:13:23Z</time>
      </trkpt>
      <trkpt lat="46.48862" lon="5.32276">
        <ele>212</ele>
        <time>2022-05-04T12:13:29Z</time>
      </trkpt>
      <trkpt lat="46.4885" lon="5.32257">
        <ele>213.4</ele>
        <time>2022-05-04T12:13:33Z</time>
      </trkpt>
      <trkpt lat="46.48847" lon="5.32252">
        <ele>213.8</ele>
        <time>2022-05-04T12:13:34Z</time>
      </trkpt>
      <trkpt lat="46.48842" lon="5.32243">
        <ele>214.6</ele>
        <time>2022-05-04T12:13:36Z</time>
      </trkpt>
      <trkpt lat="46.48837" lon="5.32232">
        <ele>215.2</ele>
        <time>2022-05-04T12:13:38Z</time>
      </trkpt>
      <trkpt lat="46.48833" lon="5.32218">
        <ele>216</ele>
        <time>2022-05-04T12:13:40Z</time>
      </trkpt>
      <trkpt lat="46.48826" lon="5.32163">
        <ele>216.2</ele>
        <time>2022-05-04T12:13:46Z</time>
      </trkpt>
      <trkpt lat="46.48826" lon="5.32143">
        <ele>216</ele>
        <time>2022-05-04T12:13:48Z</time>
      </trkpt>
      <trkpt lat="46.48828" lon="5.32121">
        <ele>215.8</ele>
        <time>2022-05-04T12:13:50Z</time>
      </trkpt>
      <trkpt lat="46.48838" lon="5.32068">
        <ele>214.6</ele>
        <time>2022-05-04T12:13:55Z</time>
      </trkpt>
      <trkpt lat="46.48842" lon="5.32047">
        <ele>214.2</ele>
        <time>2022-05-04T12:13:57Z</time>
      </trkpt>
      <trkpt lat="46.48849" lon="5.31994">
        <ele>213.4</ele>
        <time>2022-05-04T12:14:02Z</time>
      </trkpt>
      <trkpt lat="46.48849" lon="5.31973">
        <ele>213.2</ele>
        <time>2022-05-04T12:14:04Z</time>
      </trkpt>
      <trkpt lat="46.48846" lon="5.31929">
        <ele>212.2</ele>
        <time>2022-05-04T12:14:08Z</time>
      </trkpt>
      <trkpt lat="46.48844" lon="5.31906">
        <ele>211.6</ele>
        <time>2022-05-04T12:14:10Z</time>
      </trkpt>
      <trkpt lat="46.4884" lon="5.31884">
        <ele>211.2</ele>
        <time>2022-05-04T12:14:12Z</time>
      </trkpt>
      <trkpt lat="46.48836" lon="5.31874">
        <ele>211</ele>
        <time>2022-05-04T12:14:13Z</time>
      </trkpt>
      <trkpt lat="46.48831" lon="5.31865">
        <ele>211</ele>
        <time>2022-05-04T12:14:14Z</time>
      </trkpt>
      <trkpt lat="46.48818" lon="5.31852">
        <ele>210.6</ele>
        <time>2022-05-04T12:14:16Z</time>
      </trkpt>
      <trkpt lat="46.48811" lon="5.31849">
        <ele>210.6</ele>
        <time>2022-05-04T12:14:17Z</time>
      </trkpt>
      <trkpt lat="46.48796" lon="5.3184">
        <ele>210.4</ele>
        <time>2022-05-04T12:14:19Z</time>
      </trkpt>
      <trkpt lat="46.48785" lon="5.31825">
        <ele>210.4</ele>
        <time>2022-05-04T12:14:21Z</time>
      </trkpt>
      <trkpt lat="46.48782" lon="5.31804">
        <ele>210.2</ele>
        <time>2022-05-04T12:14:23Z</time>
      </trkpt>
      <trkpt lat="46.48781" lon="5.31793">
        <ele>210.2</ele>
        <time>2022-05-04T12:14:24Z</time>
      </trkpt>
      <trkpt lat="46.48777" lon="5.31732">
        <ele>210</ele>
        <time>2022-05-04T12:14:30Z</time>
      </trkpt>
      <trkpt lat="46.48775" lon="5.31723">
        <ele>210</ele>
        <time>2022-05-04T12:14:31Z</time>
      </trkpt>
      <trkpt lat="46.48773" lon="5.31715">
        <ele>210</ele>
        <time>2022-05-04T12:14:32Z</time>
      </trkpt>
      <trkpt lat="46.48766" lon="5.31702">
        <ele>210.4</ele>
        <time>2022-05-04T12:14:34Z</time>
      </trkpt>
      <trkpt lat="46.48757" lon="5.31693">
        <ele>210.6</ele>
        <time>2022-05-04T12:14:36Z</time>
      </trkpt>
      <trkpt lat="46.48749" lon="5.31685">
        <ele>211</ele>
        <time>2022-05-04T12:14:38Z</time>
      </trkpt>
      <trkpt lat="46.48734" lon="5.31668">
        <ele>211.2</ele>
        <time>2022-05-04T12:14:41Z</time>
      </trkpt>
      <trkpt lat="46.48729" lon="5.31663">
        <ele>211.2</ele>
        <time>2022-05-04T12:14:42Z</time>
      </trkpt>
      <trkpt lat="46.4872" lon="5.31651">
        <ele>211.6</ele>
        <time>2022-05-04T12:14:44Z</time>
      </trkpt>
      <trkpt lat="46.48711" lon="5.31642">
        <ele>211.4</ele>
        <time>2022-05-04T12:14:46Z</time>
      </trkpt>
      <trkpt lat="46.48702" lon="5.31631">
        <ele>211.4</ele>
        <time>2022-05-04T12:14:48Z</time>
      </trkpt>
      <trkpt lat="46.48697" lon="5.31625">
        <ele>211.4</ele>
        <time>2022-05-04T12:14:49Z</time>
      </trkpt>
      <trkpt lat="46.48676" lon="5.31597">
        <ele>211.6</ele>
        <time>2022-05-04T12:14:53Z</time>
      </trkpt>
      <trkpt lat="46.4865" lon="5.31558">
        <ele>211.6</ele>
        <time>2022-05-04T12:14:58Z</time>
      </trkpt>
      <trkpt lat="46.48641" lon="5.31547">
        <ele>211.8</ele>
        <time>2022-05-04T12:15:00Z</time>
      </trkpt>
      <trkpt lat="46.48637" lon="5.31542">
        <ele>211.6</ele>
        <time>2022-05-04T12:15:01Z</time>
      </trkpt>
      <trkpt lat="46.48614" lon="5.31508">
        <ele>211.6</ele>
        <time>2022-05-04T12:15:06Z</time>
      </trkpt>
      <trkpt lat="46.4861" lon="5.3149">
        <ele>211.6</ele>
        <time>2022-05-04T12:15:08Z</time>
      </trkpt>
      <trkpt lat="46.4861" lon="5.31465">
        <ele>211.4</ele>
        <time>2022-05-04T12:15:10Z</time>
      </trkpt>
      <trkpt lat="46.48609" lon="5.31455">
        <ele>211.4</ele>
        <time>2022-05-04T12:15:11Z</time>
      </trkpt>
      <trkpt lat="46.48607" lon="5.31431">
        <ele>211.2</ele>
        <time>2022-05-04T12:15:13Z</time>
      </trkpt>
      <trkpt lat="46.48606" lon="5.31423">
        <ele>211.2</ele>
        <time>2022-05-04T12:15:14Z</time>
      </trkpt>
      <trkpt lat="46.48604" lon="5.31415">
        <ele>211.2</ele>
        <time>2022-05-04T12:15:15Z</time>
      </trkpt>
      <trkpt lat="46.48598" lon="5.31404">
        <ele>211.2</ele>
        <time>2022-05-04T12:15:17Z</time>
      </trkpt>
      <trkpt lat="46.48595" lon="5.314">
        <ele>211.2</ele>
        <time>2022-05-04T12:15:18Z</time>
      </trkpt>
      <trkpt lat="46.48572" lon="5.31374">
        <ele>211.8</ele>
        <time>2022-05-04T12:15:24Z</time>
      </trkpt>
      <trkpt lat="46.48569" lon="5.31369">
        <ele>212.2</ele>
        <time>2022-05-04T12:15:25Z</time>
      </trkpt>
      <trkpt lat="46.48565" lon="5.31359">
        <ele>212.6</ele>
        <time>2022-05-04T12:15:27Z</time>
      </trkpt>
      <trkpt lat="46.48562" lon="5.31349">
        <ele>213</ele>
        <time>2022-05-04T12:15:29Z</time>
      </trkpt>
      <trkpt lat="46.48562" lon="5.31343">
        <ele>213.2</ele>
        <time>2022-05-04T12:15:30Z</time>
      </trkpt>
      <trkpt lat="46.48559" lon="5.31321">
        <ele>214.6</ele>
        <time>2022-05-04T12:15:34Z</time>
      </trkpt>
      <trkpt lat="46.48556" lon="5.31301">
        <ele>215</ele>
        <time>2022-05-04T12:15:37Z</time>
      </trkpt>
      <trkpt lat="46.48554" lon="5.31259">
        <ele>216</ele>
        <time>2022-05-04T12:15:43Z</time>
      </trkpt>
      <trkpt lat="46.48554" lon="5.31252">
        <ele>216.2</ele>
        <time>2022-05-04T12:15:44Z</time>
      </trkpt>
      <trkpt lat="46.48557" lon="5.31238">
        <ele>216.8</ele>
        <time>2022-05-04T12:15:46Z</time>
      </trkpt>
      <trkpt lat="46.48558" lon="5.31231">
        <ele>217</ele>
        <time>2022-05-04T12:15:47Z</time>
      </trkpt>
      <trkpt lat="46.48563" lon="5.31219">
        <ele>217.4</ele>
        <time>2022-05-04T12:15:49Z</time>
      </trkpt>
      <trkpt lat="46.48581" lon="5.3118">
        <ele>218</ele>
        <time>2022-05-04T12:15:56Z</time>
      </trkpt>
      <trkpt lat="46.48584" lon="5.31175">
        <ele>218</ele>
        <time>2022-05-04T12:15:57Z</time>
      </trkpt>
      <trkpt lat="46.48601" lon="5.31141">
        <ele>219.2</ele>
        <time>2022-05-04T12:16:03Z</time>
      </trkpt>
      <trkpt lat="46.48606" lon="5.31131">
        <ele>219.4</ele>
        <time>2022-05-04T12:16:05Z</time>
      </trkpt>
      <trkpt lat="46.48622" lon="5.31098">
        <ele>220.4</ele>
        <time>2022-05-04T12:16:11Z</time>
      </trkpt>
      <trkpt lat="46.48635" lon="5.3107">
        <ele>221</ele>
        <time>2022-05-04T12:16:16Z</time>
      </trkpt>
      <trkpt lat="46.4864" lon="5.31059">
        <ele>221.4</ele>
        <time>2022-05-04T12:16:18Z</time>
      </trkpt>
      <trkpt lat="46.48651" lon="5.31038">
        <ele>221.8</ele>
        <time>2022-05-04T12:16:22Z</time>
      </trkpt>
      <trkpt lat="46.48661" lon="5.31016">
        <ele>222.4</ele>
        <time>2022-05-04T12:16:26Z</time>
      </trkpt>
      <trkpt lat="46.48664" lon="5.31011">
        <ele>222.8</ele>
        <time>2022-05-04T12:16:27Z</time>
      </trkpt>
      <trkpt lat="46.48672" lon="5.30995">
        <ele>223</ele>
        <time>2022-05-04T12:16:30Z</time>
      </trkpt>
      <trkpt lat="46.4868" lon="5.30977">
        <ele>223.2</ele>
        <time>2022-05-04T12:16:33Z</time>
      </trkpt>
      <trkpt lat="46.48705" lon="5.30928">
        <ele>223.4</ele>
        <time>2022-05-04T12:16:40Z</time>
      </trkpt>
      <trkpt lat="46.4871" lon="5.30921">
        <ele>223.2</ele>
        <time>2022-05-04T12:16:41Z</time>
      </trkpt>
      <trkpt lat="46.4872" lon="5.30906">
        <ele>222.8</ele>
        <time>2022-05-04T12:16:43Z</time>
      </trkpt>
      <trkpt lat="46.48724" lon="5.30897">
        <ele>222.6</ele>
        <time>2022-05-04T12:16:44Z</time>
      </trkpt>
      <trkpt lat="46.48725" lon="5.30886">
        <ele>222.4</ele>
        <time>2022-05-04T12:16:45Z</time>
      </trkpt>
      <trkpt lat="46.48723" lon="5.30876">
        <ele>222.2</ele>
        <time>2022-05-04T12:16:46Z</time>
      </trkpt>
      <trkpt lat="46.4872" lon="5.30866">
        <ele>222.2</ele>
        <time>2022-05-04T12:16:47Z</time>
      </trkpt>
      <trkpt lat="46.48715" lon="5.30857">
        <ele>221.4</ele>
        <time>2022-05-04T12:16:48Z</time>
      </trkpt>
      <trkpt lat="46.48708" lon="5.30849">
        <ele>221</ele>
        <time>2022-05-04T12:16:49Z</time>
      </trkpt>
      <trkpt lat="46.48694" lon="5.30838">
        <ele>220.6</ele>
        <time>2022-05-04T12:16:51Z</time>
      </trkpt>
      <trkpt lat="46.48687" lon="5.30834">
        <ele>220.4</ele>
        <time>2022-05-04T12:16:52Z</time>
      </trkpt>
      <trkpt lat="46.48679" lon="5.30829">
        <ele>220</ele>
        <time>2022-05-04T12:16:53Z</time>
      </trkpt>
      <trkpt lat="46.48647" lon="5.3081">
        <ele>219.2</ele>
        <time>2022-05-04T12:16:57Z</time>
      </trkpt>
      <trkpt lat="46.48624" lon="5.30795">
        <ele>218.8</ele>
        <time>2022-05-04T12:17:00Z</time>
      </trkpt>
      <trkpt lat="46.48609" lon="5.30784">
        <ele>218.8</ele>
        <time>2022-05-04T12:17:02Z</time>
      </trkpt>
      <trkpt lat="46.48586" lon="5.30763">
        <ele>218.6</ele>
        <time>2022-05-04T12:17:06Z</time>
      </trkpt>
      <trkpt lat="46.48566" lon="5.30743">
        <ele>218.8</ele>
        <time>2022-05-04T12:17:10Z</time>
      </trkpt>
      <trkpt lat="46.48559" lon="5.30731">
        <ele>219.2</ele>
        <time>2022-05-04T12:17:12Z</time>
      </trkpt>
      <trkpt lat="46.48551" lon="5.30711">
        <ele>219.6</ele>
        <time>2022-05-04T12:17:15Z</time>
      </trkpt>
      <trkpt lat="46.48548" lon="5.30697">
        <ele>220</ele>
        <time>2022-05-04T12:17:17Z</time>
      </trkpt>
      <trkpt lat="46.48546" lon="5.30691">
        <ele>220.4</ele>
        <time>2022-05-04T12:17:18Z</time>
      </trkpt>
      <trkpt lat="46.48545" lon="5.30684">
        <ele>220.4</ele>
        <time>2022-05-04T12:17:19Z</time>
      </trkpt>
      <trkpt lat="46.48544" lon="5.3067">
        <ele>221</ele>
        <time>2022-05-04T12:17:21Z</time>
      </trkpt>
      <trkpt lat="46.48544" lon="5.30664">
        <ele>221.2</ele>
        <time>2022-05-04T12:17:22Z</time>
      </trkpt>
      <trkpt lat="46.48544" lon="5.30657">
        <ele>221.4</ele>
        <time>2022-05-04T12:17:23Z</time>
      </trkpt>
      <trkpt lat="46.48548" lon="5.30633">
        <ele>222.2</ele>
        <time>2022-05-04T12:17:27Z</time>
      </trkpt>
      <trkpt lat="46.48549" lon="5.30621">
        <ele>222.4</ele>
        <time>2022-05-04T12:17:29Z</time>
      </trkpt>
      <trkpt lat="46.48552" lon="5.30596">
        <ele>223.4</ele>
        <time>2022-05-04T12:17:33Z</time>
      </trkpt>
      <trkpt lat="46.48553" lon="5.30577">
        <ele>224.2</ele>
        <time>2022-05-04T12:17:36Z</time>
      </trkpt>
      <trkpt lat="46.48554" lon="5.30559">
        <ele>224.6</ele>
        <time>2022-05-04T12:17:39Z</time>
      </trkpt>
      <trkpt lat="46.48556" lon="5.30547">
        <ele>225</ele>
        <time>2022-05-04T12:17:41Z</time>
      </trkpt>
      <trkpt lat="46.48558" lon="5.30533">
        <ele>225.4</ele>
        <time>2022-05-04T12:17:43Z</time>
      </trkpt>
      <trkpt lat="46.48559" lon="5.30526">
        <ele>225.8</ele>
        <time>2022-05-04T12:17:44Z</time>
      </trkpt>
      <trkpt lat="46.4856" lon="5.30505">
        <ele>226</ele>
        <time>2022-05-04T12:17:47Z</time>
      </trkpt>
      <trkpt lat="46.48558" lon="5.30499">
        <ele>226.2</ele>
        <time>2022-05-04T12:17:48Z</time>
      </trkpt>
      <trkpt lat="46.48555" lon="5.30494">
        <ele>226.2</ele>
        <time>2022-05-04T12:17:49Z</time>
      </trkpt>
      <trkpt lat="46.48545" lon="5.30494">
        <ele>226.4</ele>
        <time>2022-05-04T12:17:51Z</time>
      </trkpt>
      <trkpt lat="46.48517" lon="5.30513">
        <ele>226.6</ele>
        <time>2022-05-04T12:17:57Z</time>
      </trkpt>
      <trkpt lat="46.48493" lon="5.30536">
        <ele>226.6</ele>
        <time>2022-05-04T12:18:02Z</time>
      </trkpt>
      <trkpt lat="46.48445" lon="5.30581">
        <ele>226.8</ele>
        <time>2022-05-04T12:18:11Z</time>
      </trkpt>
      <trkpt lat="46.48404" lon="5.3062">
        <ele>226.4</ele>
        <time>2022-05-04T12:18:18Z</time>
      </trkpt>
      <trkpt lat="46.48354" lon="5.30668">
        <ele>226</ele>
        <time>2022-05-04T12:18:26Z</time>
      </trkpt>
      <trkpt lat="46.4832" lon="5.30693">
        <ele>225.8</ele>
        <time>2022-05-04T12:18:31Z</time>
      </trkpt>
      <trkpt lat="46.48313" lon="5.30695">
        <ele>225.8</ele>
        <time>2022-05-04T12:18:32Z</time>
      </trkpt>
      <trkpt lat="46.48285" lon="5.30697">
        <ele>225.4</ele>
        <time>2022-05-04T12:18:36Z</time>
      </trkpt>
      <trkpt lat="46.48277" lon="5.30696">
        <ele>225.4</ele>
        <time>2022-05-04T12:18:37Z</time>
      </trkpt>
      <trkpt lat="46.48233" lon="5.30685">
        <ele>225.8</ele>
        <time>2022-05-04T12:18:44Z</time>
      </trkpt>
      <trkpt lat="46.48209" lon="5.30686">
        <ele>226.2</ele>
        <time>2022-05-04T12:18:48Z</time>
      </trkpt>
      <trkpt lat="46.48204" lon="5.30687">
        <ele>226.4</ele>
        <time>2022-05-04T12:18:49Z</time>
      </trkpt>
      <trkpt lat="46.48172" lon="5.30701">
        <ele>227</ele>
        <time>2022-05-04T12:18:55Z</time>
      </trkpt>
      <trkpt lat="46.48167" lon="5.30704">
        <ele>227.2</ele>
        <time>2022-05-04T12:18:56Z</time>
      </trkpt>
      <trkpt lat="46.48135" lon="5.30722">
        <ele>228.2</ele>
        <time>2022-05-04T12:19:02Z</time>
      </trkpt>
      <trkpt lat="46.48117" lon="5.30731">
        <ele>228.6</ele>
        <time>2022-05-04T12:19:05Z</time>
      </trkpt>
      <trkpt lat="46.48077" lon="5.30753">
        <ele>229.2</ele>
        <time>2022-05-04T12:19:12Z</time>
      </trkpt>
      <trkpt lat="46.48071" lon="5.30756">
        <ele>229.4</ele>
        <time>2022-05-04T12:19:13Z</time>
      </trkpt>
      <trkpt lat="46.48027" lon="5.30781">
        <ele>229.8</ele>
        <time>2022-05-04T12:19:20Z</time>
      </trkpt>
      <trkpt lat="46.47977" lon="5.30809">
        <ele>229</ele>
        <time>2022-05-04T12:19:27Z</time>
      </trkpt>
      <trkpt lat="46.47938" lon="5.30817">
        <ele>228.4</ele>
        <time>2022-05-04T12:19:32Z</time>
      </trkpt>
      <trkpt lat="46.4793" lon="5.30816">
        <ele>228.2</ele>
        <time>2022-05-04T12:19:33Z</time>
      </trkpt>
      <trkpt lat="46.47912" lon="5.30811">
        <ele>228.4</ele>
        <time>2022-05-04T12:19:36Z</time>
      </trkpt>
      <trkpt lat="46.47881" lon="5.308">
        <ele>229.6</ele>
        <time>2022-05-04T12:19:42Z</time>
      </trkpt>
      <trkpt lat="46.47871" lon="5.30798">
        <ele>230.2</ele>
        <time>2022-05-04T12:19:44Z</time>
      </trkpt>
      <trkpt lat="46.47863" lon="5.30798">
        <ele>230.8</ele>
        <time>2022-05-04T12:19:46Z</time>
      </trkpt>
      <trkpt lat="46.47854" lon="5.30799">
        <ele>231.4</ele>
        <time>2022-05-04T12:19:48Z</time>
      </trkpt>
      <trkpt lat="46.47841" lon="5.30803">
        <ele>232.4</ele>
        <time>2022-05-04T12:19:51Z</time>
      </trkpt>
      <trkpt lat="46.47833" lon="5.30808">
        <ele>232.8</ele>
        <time>2022-05-04T12:19:53Z</time>
      </trkpt>
      <trkpt lat="46.47829" lon="5.30811">
        <ele>233.2</ele>
        <time>2022-05-04T12:19:54Z</time>
      </trkpt>
      <trkpt lat="46.47821" lon="5.30818">
        <ele>233.8</ele>
        <time>2022-05-04T12:19:56Z</time>
      </trkpt>
      <trkpt lat="46.47815" lon="5.30827">
        <ele>234</ele>
        <time>2022-05-04T12:19:58Z</time>
      </trkpt>
      <trkpt lat="46.47808" lon="5.30837">
        <ele>234.4</ele>
        <time>2022-05-04T12:20:00Z</time>
      </trkpt>
      <trkpt lat="46.47804" lon="5.30843">
        <ele>234.8</ele>
        <time>2022-05-04T12:20:01Z</time>
      </trkpt>
      <trkpt lat="46.47801" lon="5.30849">
        <ele>234.8</ele>
        <time>2022-05-04T12:20:02Z</time>
      </trkpt>
      <trkpt lat="46.47794" lon="5.30862">
        <ele>235.2</ele>
        <time>2022-05-04T12:20:04Z</time>
      </trkpt>
      <trkpt lat="46.4779" lon="5.30867">
        <ele>235.2</ele>
        <time>2022-05-04T12:20:05Z</time>
      </trkpt>
      <trkpt lat="46.47765" lon="5.30894">
        <ele>235.2</ele>
        <time>2022-05-04T12:20:10Z</time>
      </trkpt>
      <trkpt lat="46.47752" lon="5.30902">
        <ele>235</ele>
        <time>2022-05-04T12:20:12Z</time>
      </trkpt>
      <trkpt lat="46.47735" lon="5.30905">
        <ele>234.8</ele>
        <time>2022-05-04T12:20:14Z</time>
      </trkpt>
      <trkpt lat="46.47717" lon="5.30903">
        <ele>234.4</ele>
        <time>2022-05-04T12:20:16Z</time>
      </trkpt>
      <trkpt lat="46.47698" lon="5.30897">
        <ele>233.8</ele>
        <time>2022-05-04T12:20:18Z</time>
      </trkpt>
      <trkpt lat="46.47679" lon="5.3089">
        <ele>232.8</ele>
        <time>2022-05-04T12:20:20Z</time>
      </trkpt>
      <trkpt lat="46.4767" lon="5.30888">
        <ele>232.2</ele>
        <time>2022-05-04T12:20:21Z</time>
      </trkpt>
      <trkpt lat="46.47651" lon="5.30889">
        <ele>231.8</ele>
        <time>2022-05-04T12:20:23Z</time>
      </trkpt>
      <trkpt lat="46.47642" lon="5.30891">
        <ele>231.4</ele>
        <time>2022-05-04T12:20:24Z</time>
      </trkpt>
      <trkpt lat="46.47604" lon="5.30908">
        <ele>230.2</ele>
        <time>2022-05-04T12:20:28Z</time>
      </trkpt>
      <trkpt lat="46.47557" lon="5.3093">
        <ele>229</ele>
        <time>2022-05-04T12:20:33Z</time>
      </trkpt>
      <trkpt lat="46.47538" lon="5.3094">
        <ele>228.6</ele>
        <time>2022-05-04T12:20:35Z</time>
      </trkpt>
      <trkpt lat="46.47493" lon="5.30969">
        <ele>227.6</ele>
        <time>2022-05-04T12:20:40Z</time>
      </trkpt>
      <trkpt lat="46.47468" lon="5.30986">
        <ele>227.4</ele>
        <time>2022-05-04T12:20:43Z</time>
      </trkpt>
      <trkpt lat="46.47422" lon="5.31016">
        <ele>227.2</ele>
        <time>2022-05-04T12:20:49Z</time>
      </trkpt>
      <trkpt lat="46.47386" lon="5.31039">
        <ele>228</ele>
        <time>2022-05-04T12:20:55Z</time>
      </trkpt>
      <trkpt lat="46.47352" lon="5.31063">
        <ele>229</ele>
        <time>2022-05-04T12:21:01Z</time>
      </trkpt>
      <trkpt lat="46.47347" lon="5.31068">
        <ele>229.2</ele>
        <time>2022-05-04T12:21:02Z</time>
      </trkpt>
      <trkpt lat="46.47333" lon="5.31082">
        <ele>230</ele>
        <time>2022-05-04T12:21:05Z</time>
      </trkpt>
      <trkpt lat="46.47324" lon="5.31092">
        <ele>230.4</ele>
        <time>2022-05-04T12:21:07Z</time>
      </trkpt>
      <trkpt lat="46.4732" lon="5.31098">
        <ele>230.4</ele>
        <time>2022-05-04T12:21:08Z</time>
      </trkpt>
      <trkpt lat="46.47301" lon="5.31123">
        <ele>231.4</ele>
        <time>2022-05-04T12:21:12Z</time>
      </trkpt>
      <trkpt lat="46.47284" lon="5.31146">
        <ele>232.4</ele>
        <time>2022-05-04T12:21:16Z</time>
      </trkpt>
      <trkpt lat="46.47279" lon="5.31153">
        <ele>232.6</ele>
        <time>2022-05-04T12:21:17Z</time>
      </trkpt>
      <trkpt lat="46.47265" lon="5.31173">
        <ele>233</ele>
        <time>2022-05-04T12:21:21Z</time>
      </trkpt>
      <trkpt lat="46.47239" lon="5.31221">
        <ele>233.4</ele>
        <time>2022-05-04T12:21:28Z</time>
      </trkpt>
      <trkpt lat="46.47233" lon="5.3123">
        <ele>233.4</ele>
        <time>2022-05-04T12:21:29Z</time>
      </trkpt>
      <trkpt lat="46.4722" lon="5.3125">
        <ele>233.4</ele>
        <time>2022-05-04T12:21:32Z</time>
      </trkpt>
      <trkpt lat="46.47215" lon="5.31256">
        <ele>233.4</ele>
        <time>2022-05-04T12:21:33Z</time>
      </trkpt>
      <trkpt lat="46.47192" lon="5.31289">
        <ele>234</ele>
        <time>2022-05-04T12:21:37Z</time>
      </trkpt>
      <trkpt lat="46.47162" lon="5.31327">
        <ele>234.2</ele>
        <time>2022-05-04T12:21:43Z</time>
      </trkpt>
      <trkpt lat="46.47151" lon="5.31344">
        <ele>234.4</ele>
        <time>2022-05-04T12:21:45Z</time>
      </trkpt>
      <trkpt lat="46.47132" lon="5.31369">
        <ele>234.6</ele>
        <time>2022-05-04T12:21:49Z</time>
      </trkpt>
      <trkpt lat="46.47109" lon="5.314">
        <ele>234.6</ele>
        <time>2022-05-04T12:21:54Z</time>
      </trkpt>
      <trkpt lat="46.47104" lon="5.31406">
        <ele>234.6</ele>
        <time>2022-05-04T12:21:55Z</time>
      </trkpt>
      <trkpt lat="46.47079" lon="5.3144">
        <ele>234.4</ele>
        <time>2022-05-04T12:22:01Z</time>
      </trkpt>
      <trkpt lat="46.47075" lon="5.31445">
        <ele>234.6</ele>
        <time>2022-05-04T12:22:02Z</time>
      </trkpt>
      <trkpt lat="46.47056" lon="5.31466">
        <ele>234.6</ele>
        <time>2022-05-04T12:22:05Z</time>
      </trkpt>
      <trkpt lat="46.47012" lon="5.31523">
        <ele>234.6</ele>
        <time>2022-05-04T12:22:14Z</time>
      </trkpt>
      <trkpt lat="46.46999" lon="5.31539">
        <ele>234.8</ele>
        <time>2022-05-04T12:22:17Z</time>
      </trkpt>
      <trkpt lat="46.46974" lon="5.31573">
        <ele>235</ele>
        <time>2022-05-04T12:22:23Z</time>
      </trkpt>
      <trkpt lat="46.46955" lon="5.31599">
        <ele>235.4</ele>
        <time>2022-05-04T12:22:28Z</time>
      </trkpt>
      <trkpt lat="46.46952" lon="5.31602">
        <ele>235.6</ele>
        <time>2022-05-04T12:22:29Z</time>
      </trkpt>
      <trkpt lat="46.4695" lon="5.31605">
        <ele>235.8</ele>
        <time>2022-05-04T12:22:30Z</time>
      </trkpt>
      <trkpt lat="46.46945" lon="5.31614">
        <ele>236</ele>
        <time>2022-05-04T12:22:32Z</time>
      </trkpt>
      <trkpt lat="46.46938" lon="5.31622">
        <ele>236.2</ele>
        <time>2022-05-04T12:22:33Z</time>
      </trkpt>
      <trkpt lat="46.46921" lon="5.31646">
        <ele>236.4</ele>
        <time>2022-05-04T12:22:36Z</time>
      </trkpt>
      <trkpt lat="46.46912" lon="5.31656">
        <ele>236.6</ele>
        <time>2022-05-04T12:22:38Z</time>
      </trkpt>
      <trkpt lat="46.46906" lon="5.31662">
        <ele>236.6</ele>
        <time>2022-05-04T12:22:39Z</time>
      </trkpt>
      <trkpt lat="46.46871" lon="5.31701">
        <ele>236.8</ele>
        <time>2022-05-04T12:22:44Z</time>
      </trkpt>
      <trkpt lat="46.46835" lon="5.31745">
        <ele>236.4</ele>
        <time>2022-05-04T12:22:50Z</time>
      </trkpt>
      <trkpt lat="46.46788" lon="5.31801">
        <ele>235.4</ele>
        <time>2022-05-04T12:22:58Z</time>
      </trkpt>
      <trkpt lat="46.46783" lon="5.31808">
        <ele>235.4</ele>
        <time>2022-05-04T12:22:59Z</time>
      </trkpt>
      <trkpt lat="46.46737" lon="5.31861">
        <ele>235</ele>
        <time>2022-05-04T12:23:07Z</time>
      </trkpt>
      <trkpt lat="46.46724" lon="5.31872">
        <ele>234.8</ele>
        <time>2022-05-04T12:23:09Z</time>
      </trkpt>
      <trkpt lat="46.46673" lon="5.31913">
        <ele>234.8</ele>
        <time>2022-05-04T12:23:17Z</time>
      </trkpt>
      <trkpt lat="46.46655" lon="5.31929">
        <ele>235</ele>
        <time>2022-05-04T12:23:20Z</time>
      </trkpt>
      <trkpt lat="46.46625" lon="5.31967">
        <ele>235.6</ele>
        <time>2022-05-04T12:23:26Z</time>
      </trkpt>
      <trkpt lat="46.4662" lon="5.31975">
        <ele>235.8</ele>
        <time>2022-05-04T12:23:27Z</time>
      </trkpt>
      <trkpt lat="46.46604" lon="5.32008">
        <ele>236</ele>
        <time>2022-05-04T12:23:31Z</time>
      </trkpt>
      <trkpt lat="46.46566" lon="5.32074">
        <ele>236.4</ele>
        <time>2022-05-04T12:23:39Z</time>
      </trkpt>
      <trkpt lat="46.46529" lon="5.32141">
        <ele>236.4</ele>
        <time>2022-05-04T12:23:47Z</time>
      </trkpt>
      <trkpt lat="46.46524" lon="5.32151">
        <ele>236.4</ele>
        <time>2022-05-04T12:23:48Z</time>
      </trkpt>
      <trkpt lat="46.46489" lon="5.32214">
        <ele>236.6</ele>
        <time>2022-05-04T12:23:56Z</time>
      </trkpt>
      <trkpt lat="46.46476" lon="5.32238">
        <ele>236.6</ele>
        <time>2022-05-04T12:23:59Z</time>
      </trkpt>
      <trkpt lat="46.46441" lon="5.32301">
        <ele>236.8</ele>
        <time>2022-05-04T12:24:07Z</time>
      </trkpt>
      <trkpt lat="46.46407" lon="5.32363">
        <ele>236.8</ele>
        <time>2022-05-04T12:24:15Z</time>
      </trkpt>
      <trkpt lat="46.46376" lon="5.32429">
        <ele>237</ele>
        <time>2022-05-04T12:24:23Z</time>
      </trkpt>
      <trkpt lat="46.46349" lon="5.32503">
        <ele>236.6</ele>
        <time>2022-05-04T12:24:31Z</time>
      </trkpt>
      <trkpt lat="46.46345" lon="5.32513">
        <ele>236.4</ele>
        <time>2022-05-04T12:24:32Z</time>
      </trkpt>
      <trkpt lat="46.46327" lon="5.32563">
        <ele>236.2</ele>
        <time>2022-05-04T12:24:37Z</time>
      </trkpt>
      <trkpt lat="46.46323" lon="5.32582">
        <ele>236.2</ele>
        <time>2022-05-04T12:24:39Z</time>
      </trkpt>
      <trkpt lat="46.46317" lon="5.32638">
        <ele>236</ele>
        <time>2022-05-04T12:24:44Z</time>
      </trkpt>
      <trkpt lat="46.46318" lon="5.32693">
        <ele>235.6</ele>
        <time>2022-05-04T12:24:49Z</time>
      </trkpt>
      <trkpt lat="46.46318" lon="5.32714">
        <ele>235.6</ele>
        <time>2022-05-04T12:24:51Z</time>
      </trkpt>
      <trkpt lat="46.46315" lon="5.32766">
        <ele>235.6</ele>
        <time>2022-05-04T12:24:56Z</time>
      </trkpt>
      <trkpt lat="46.46306" lon="5.32794">
        <ele>235.8</ele>
        <time>2022-05-04T12:24:59Z</time>
      </trkpt>
      <trkpt lat="46.46302" lon="5.32802">
        <ele>236</ele>
        <time>2022-05-04T12:25:00Z</time>
      </trkpt>
      <trkpt lat="46.46298" lon="5.3281">
        <ele>236</ele>
        <time>2022-05-04T12:25:01Z</time>
      </trkpt>
      <trkpt lat="46.46278" lon="5.32837">
        <ele>236.2</ele>
        <time>2022-05-04T12:25:05Z</time>
      </trkpt>
      <trkpt lat="46.46257" lon="5.32864">
        <ele>237</ele>
        <time>2022-05-04T12:25:09Z</time>
      </trkpt>
      <trkpt lat="46.46242" lon="5.32887">
        <ele>237.2</ele>
        <time>2022-05-04T12:25:12Z</time>
      </trkpt>
      <trkpt lat="46.46205" lon="5.32942">
        <ele>237</ele>
        <time>2022-05-04T12:25:19Z</time>
      </trkpt>
      <trkpt lat="46.46199" lon="5.32948">
        <ele>237</ele>
        <time>2022-05-04T12:25:20Z</time>
      </trkpt>
      <trkpt lat="46.46192" lon="5.32955">
        <ele>237</ele>
        <time>2022-05-04T12:25:21Z</time>
      </trkpt>
      <trkpt lat="46.4618" lon="5.32964">
        <ele>236.8</ele>
        <time>2022-05-04T12:25:23Z</time>
      </trkpt>
      <trkpt lat="46.46167" lon="5.32972">
        <ele>236.8</ele>
        <time>2022-05-04T12:25:25Z</time>
      </trkpt>
      <trkpt lat="46.4613" lon="5.32995">
        <ele>237</ele>
        <time>2022-05-04T12:25:31Z</time>
      </trkpt>
      <trkpt lat="46.46095" lon="5.33018">
        <ele>237.8</ele>
        <time>2022-05-04T12:25:37Z</time>
      </trkpt>
      <trkpt lat="46.46071" lon="5.33038">
        <ele>238</ele>
        <time>2022-05-04T12:25:41Z</time>
      </trkpt>
      <trkpt lat="46.46059" lon="5.33048">
        <ele>238.2</ele>
        <time>2022-05-04T12:25:43Z</time>
      </trkpt>
      <trkpt lat="46.4601" lon="5.33093">
        <ele>239.2</ele>
        <time>2022-05-04T12:25:51Z</time>
      </trkpt>
      <trkpt lat="46.45998" lon="5.33106">
        <ele>239.2</ele>
        <time>2022-05-04T12:25:53Z</time>
      </trkpt>
      <trkpt lat="46.45957" lon="5.33148">
        <ele>238.8</ele>
        <time>2022-05-04T12:26:00Z</time>
      </trkpt>
      <trkpt lat="46.45913" lon="5.33195">
        <ele>239.4</ele>
        <time>2022-05-04T12:26:08Z</time>
      </trkpt>
      <trkpt lat="46.45908" lon="5.33201">
        <ele>239.6</ele>
        <time>2022-05-04T12:26:09Z</time>
      </trkpt>
      <trkpt lat="46.45865" lon="5.33249">
        <ele>240</ele>
        <time>2022-05-04T12:26:17Z</time>
      </trkpt>
      <trkpt lat="46.45842" lon="5.33286">
        <ele>240.2</ele>
        <time>2022-05-04T12:26:22Z</time>
      </trkpt>
      <trkpt lat="46.45834" lon="5.33302">
        <ele>240.4</ele>
        <time>2022-05-04T12:26:24Z</time>
      </trkpt>
      <trkpt lat="46.45801" lon="5.33365">
        <ele>240.8</ele>
        <time>2022-05-04T12:26:32Z</time>
      </trkpt>
      <trkpt lat="46.45793" lon="5.33381">
        <ele>240.8</ele>
        <time>2022-05-04T12:26:34Z</time>
      </trkpt>
      <trkpt lat="46.4576" lon="5.33453">
        <ele>241.2</ele>
        <time>2022-05-04T12:26:43Z</time>
      </trkpt>
      <trkpt lat="46.45756" lon="5.33461">
        <ele>241.4</ele>
        <time>2022-05-04T12:26:44Z</time>
      </trkpt>
      <trkpt lat="46.45739" lon="5.33501">
        <ele>242</ele>
        <time>2022-05-04T12:26:49Z</time>
      </trkpt>
      <trkpt lat="46.45727" lon="5.33533">
        <ele>242.4</ele>
        <time>2022-05-04T12:26:53Z</time>
      </trkpt>
      <trkpt lat="46.45723" lon="5.3354">
        <ele>242.4</ele>
        <time>2022-05-04T12:26:54Z</time>
      </trkpt>
      <trkpt lat="46.45719" lon="5.33547">
        <ele>242.6</ele>
        <time>2022-05-04T12:26:55Z</time>
      </trkpt>
      <trkpt lat="46.4571" lon="5.33568">
        <ele>242.8</ele>
        <time>2022-05-04T12:26:58Z</time>
      </trkpt>
      <trkpt lat="46.45697" lon="5.33602">
        <ele>243.6</ele>
        <time>2022-05-04T12:27:03Z</time>
      </trkpt>
      <trkpt lat="46.45694" lon="5.3361">
        <ele>243.6</ele>
        <time>2022-05-04T12:27:04Z</time>
      </trkpt>
      <trkpt lat="46.45674" lon="5.3366">
        <ele>244.6</ele>
        <time>2022-05-04T12:27:11Z</time>
      </trkpt>
      <trkpt lat="46.45659" lon="5.33696">
        <ele>245.6</ele>
        <time>2022-05-04T12:27:16Z</time>
      </trkpt>
      <trkpt lat="46.45653" lon="5.3371">
        <ele>245.8</ele>
        <time>2022-05-04T12:27:18Z</time>
      </trkpt>
      <trkpt lat="46.45633" lon="5.33761">
        <ele>246.4</ele>
        <time>2022-05-04T12:27:25Z</time>
      </trkpt>
      <trkpt lat="46.45621" lon="5.33787">
        <ele>246.6</ele>
        <time>2022-05-04T12:27:29Z</time>
      </trkpt>
      <trkpt lat="46.45613" lon="5.33806">
        <ele>247</ele>
        <time>2022-05-04T12:27:32Z</time>
      </trkpt>
      <trkpt lat="46.45605" lon="5.33826">
        <ele>248</ele>
        <time>2022-05-04T12:27:35Z</time>
      </trkpt>
      <trkpt lat="46.45597" lon="5.33845">
        <ele>248.2</ele>
        <time>2022-05-04T12:27:38Z</time>
      </trkpt>
      <trkpt lat="46.45589" lon="5.33865">
        <ele>248.6</ele>
        <time>2022-05-04T12:27:41Z</time>
      </trkpt>
      <trkpt lat="46.45582" lon="5.33882">
        <ele>249</ele>
        <time>2022-05-04T12:27:44Z</time>
      </trkpt>
      <trkpt lat="46.4558" lon="5.33888">
        <ele>249.2</ele>
        <time>2022-05-04T12:27:45Z</time>
      </trkpt>
      <trkpt lat="46.45572" lon="5.33907">
        <ele>249.4</ele>
        <time>2022-05-04T12:27:48Z</time>
      </trkpt>
      <trkpt lat="46.45564" lon="5.33925">
        <ele>249.8</ele>
        <time>2022-05-04T12:27:51Z</time>
      </trkpt>
      <trkpt lat="46.45561" lon="5.3393">
        <ele>249.8</ele>
        <time>2022-05-04T12:27:52Z</time>
      </trkpt>
      <trkpt lat="46.45555" lon="5.3394">
        <ele>250.2</ele>
        <time>2022-05-04T12:27:54Z</time>
      </trkpt>
      <trkpt lat="46.45549" lon="5.33951">
        <ele>250.6</ele>
        <time>2022-05-04T12:27:56Z</time>
      </trkpt>
      <trkpt lat="46.45542" lon="5.33962">
        <ele>251.2</ele>
        <time>2022-05-04T12:27:58Z</time>
      </trkpt>
      <trkpt lat="46.45522" lon="5.33988">
        <ele>252.2</ele>
        <time>2022-05-04T12:28:03Z</time>
      </trkpt>
      <trkpt lat="46.45518" lon="5.33992">
        <ele>252.4</ele>
        <time>2022-05-04T12:28:04Z</time>
      </trkpt>
      <trkpt lat="46.45506" lon="5.34004">
        <ele>253.4</ele>
        <time>2022-05-04T12:28:07Z</time>
      </trkpt>
      <trkpt lat="46.45489" lon="5.34016">
        <ele>254</ele>
        <time>2022-05-04T12:28:11Z</time>
      </trkpt>
      <trkpt lat="46.45477" lon="5.34024">
        <ele>254.8</ele>
        <time>2022-05-04T12:28:14Z</time>
      </trkpt>
      <trkpt lat="46.45473" lon="5.34026">
        <ele>255</ele>
        <time>2022-05-04T12:28:15Z</time>
      </trkpt>
      <trkpt lat="46.45466" lon="5.3403">
        <ele>255.6</ele>
        <time>2022-05-04T12:28:17Z</time>
      </trkpt>
      <trkpt lat="46.45462" lon="5.34032">
        <ele>255.8</ele>
        <time>2022-05-04T12:28:18Z</time>
      </trkpt>
      <trkpt lat="46.45445" lon="5.34037">
        <ele>256.4</ele>
        <time>2022-05-04T12:28:23Z</time>
      </trkpt>
      <trkpt lat="46.45442" lon="5.34038">
        <ele>256.8</ele>
        <time>2022-05-04T12:28:24Z</time>
      </trkpt>
      <trkpt lat="46.45425" lon="5.34041">
        <ele>257.6</ele>
        <time>2022-05-04T12:28:28Z</time>
      </trkpt>
      <trkpt lat="46.45413" lon="5.34044">
        <ele>258</ele>
        <time>2022-05-04T12:28:30Z</time>
      </trkpt>
      <trkpt lat="46.45385" lon="5.34051">
        <ele>259</ele>
        <time>2022-05-04T12:28:35Z</time>
      </trkpt>
      <trkpt lat="46.45379" lon="5.34052">
        <ele>259.2</ele>
        <time>2022-05-04T12:28:36Z</time>
      </trkpt>
      <trkpt lat="46.45368" lon="5.34053">
        <ele>259.4</ele>
        <time>2022-05-04T12:28:38Z</time>
      </trkpt>
      <trkpt lat="46.45358" lon="5.34056">
        <ele>259.4</ele>
        <time>2022-05-04T12:28:40Z</time>
      </trkpt>
      <trkpt lat="46.45347" lon="5.34057">
        <ele>259.8</ele>
        <time>2022-05-04T12:28:42Z</time>
      </trkpt>
      <trkpt lat="46.45337" lon="5.34062">
        <ele>260.2</ele>
        <time>2022-05-04T12:28:44Z</time>
      </trkpt>
      <trkpt lat="46.45326" lon="5.34064">
        <ele>260.4</ele>
        <time>2022-05-04T12:28:46Z</time>
      </trkpt>
      <trkpt lat="46.4532" lon="5.34067">
        <ele>260.6</ele>
        <time>2022-05-04T12:28:47Z</time>
      </trkpt>
      <trkpt lat="46.45299" lon="5.34073">
        <ele>261.2</ele>
        <time>2022-05-04T12:28:51Z</time>
      </trkpt>
      <trkpt lat="46.45288" lon="5.34072">
        <ele>261.4</ele>
        <time>2022-05-04T12:28:53Z</time>
      </trkpt>
      <trkpt lat="46.45246" lon="5.3408">
        <ele>262.2</ele>
        <time>2022-05-04T12:29:01Z</time>
      </trkpt>
      <trkpt lat="46.45241" lon="5.3408">
        <ele>262.2</ele>
        <time>2022-05-04T12:29:02Z</time>
      </trkpt>
      <trkpt lat="46.45193" lon="5.3409">
        <ele>262.8</ele>
        <time>2022-05-04T12:29:11Z</time>
      </trkpt>
      <trkpt lat="46.45183" lon="5.34092">
        <ele>263.4</ele>
        <time>2022-05-04T12:29:13Z</time>
      </trkpt>
      <trkpt lat="46.4513" lon="5.34103">
        <ele>264.4</ele>
        <time>2022-05-04T12:29:23Z</time>
      </trkpt>
      <trkpt lat="46.45114" lon="5.34106">
        <ele>264.4</ele>
        <time>2022-05-04T12:29:26Z</time>
      </trkpt>
      <trkpt lat="46.45084" lon="5.34113">
        <ele>264.4</ele>
        <time>2022-05-04T12:29:31Z</time>
      </trkpt>
      <trkpt lat="46.45043" lon="5.34118">
        <ele>264.2</ele>
        <time>2022-05-04T12:29:37Z</time>
      </trkpt>
      <trkpt lat="46.44995" lon="5.34115">
        <ele>263.2</ele>
        <time>2022-05-04T12:29:43Z</time>
      </trkpt>
      <trkpt lat="46.44963" lon="5.34106">
        <ele>262</ele>
        <time>2022-05-04T12:29:47Z</time>
      </trkpt>
      <trkpt lat="46.44939" lon="5.34099">
        <ele>261.4</ele>
        <time>2022-05-04T12:29:50Z</time>
      </trkpt>
      <trkpt lat="46.44931" lon="5.34097">
        <ele>261</ele>
        <time>2022-05-04T12:29:51Z</time>
      </trkpt>
      <trkpt lat="46.44906" lon="5.3409">
        <ele>260</ele>
        <time>2022-05-04T12:29:54Z</time>
      </trkpt>
      <trkpt lat="46.44873" lon="5.34086">
        <ele>259</ele>
        <time>2022-05-04T12:29:58Z</time>
      </trkpt>
      <trkpt lat="46.44864" lon="5.34087">
        <ele>258.8</ele>
        <time>2022-05-04T12:29:59Z</time>
      </trkpt>
      <trkpt lat="46.44856" lon="5.3409">
        <ele>258.6</ele>
        <time>2022-05-04T12:30:00Z</time>
      </trkpt>
      <trkpt lat="46.4484" lon="5.34097">
        <ele>257.6</ele>
        <time>2022-05-04T12:30:02Z</time>
      </trkpt>
      <trkpt lat="46.44818" lon="5.34118">
        <ele>256.2</ele>
        <time>2022-05-04T12:30:05Z</time>
      </trkpt>
      <trkpt lat="46.44812" lon="5.34125">
        <ele>255.8</ele>
        <time>2022-05-04T12:30:06Z</time>
      </trkpt>
      <trkpt lat="46.44807" lon="5.3413">
        <ele>255.6</ele>
        <time>2022-05-04T12:30:07Z</time>
      </trkpt>
      <trkpt lat="46.44801" lon="5.3413">
        <ele>255.4</ele>
        <time>2022-05-04T12:30:08Z</time>
      </trkpt>
      <trkpt lat="46.44796" lon="5.34128">
        <ele>255.2</ele>
        <time>2022-05-04T12:30:09Z</time>
      </trkpt>
      <trkpt lat="46.44795" lon="5.34122">
        <ele>255</ele>
        <time>2022-05-04T12:30:10Z</time>
      </trkpt>
      <trkpt lat="46.44795" lon="5.34115">
        <ele>254.6</ele>
        <time>2022-05-04T12:30:11Z</time>
      </trkpt>
      <trkpt lat="46.44791" lon="5.34065">
        <ele>254</ele>
        <time>2022-05-04T12:30:18Z</time>
      </trkpt>
      <trkpt lat="46.44783" lon="5.34012">
        <ele>256</ele>
        <time>2022-05-04T12:30:26Z</time>
      </trkpt>
      <trkpt lat="46.44778" lon="5.33982">
        <ele>257.2</ele>
        <time>2022-05-04T12:30:31Z</time>
      </trkpt>
      <trkpt lat="46.44776" lon="5.33969">
        <ele>257.8</ele>
        <time>2022-05-04T12:30:33Z</time>
      </trkpt>
      <trkpt lat="46.44774" lon="5.33956">
        <ele>258.4</ele>
        <time>2022-05-04T12:30:35Z</time>
      </trkpt>
      <trkpt lat="46.44772" lon="5.33924">
        <ele>259.6</ele>
        <time>2022-05-04T12:30:40Z</time>
      </trkpt>
      <trkpt lat="46.44772" lon="5.3391">
        <ele>259.8</ele>
        <time>2022-05-04T12:30:42Z</time>
      </trkpt>
      <trkpt lat="46.44771" lon="5.33895">
        <ele>259.8</ele>
        <time>2022-05-04T12:30:44Z</time>
      </trkpt>
      <trkpt lat="46.44772" lon="5.33888">
        <ele>260</ele>
        <time>2022-05-04T12:30:45Z</time>
      </trkpt>
      <trkpt lat="46.44775" lon="5.33874">
        <ele>260</ele>
        <time>2022-05-04T12:30:47Z</time>
      </trkpt>
      <trkpt lat="46.4478" lon="5.33851">
        <ele>259.6</ele>
        <time>2022-05-04T12:30:51Z</time>
      </trkpt>
      <trkpt lat="46.44781" lon="5.33847">
        <ele>259.2</ele>
        <time>2022-05-04T12:30:54Z</time>
      </trkpt>
      <trkpt lat="46.44781" lon="5.33847">
        <ele>259</ele>
        <time>2022-05-04T12:30:56Z</time>
      </trkpt>
      <trkpt lat="46.44781" lon="5.33849">
        <ele>258.2</ele>
        <time>2022-05-04T12:31:46Z</time>
      </trkpt>
      <trkpt lat="46.44779" lon="5.33852">
        <ele>258.2</ele>
        <time>2022-05-04T12:31:48Z</time>
      </trkpt>
      <trkpt lat="46.44774" lon="5.33872">
        <ele>258.2</ele>
        <time>2022-05-04T12:31:52Z</time>
      </trkpt>
      <trkpt lat="46.44769" lon="5.33882">
        <ele>258.4</ele>
        <time>2022-05-04T12:31:54Z</time>
      </trkpt>
      <trkpt lat="46.44765" lon="5.33884">
        <ele>258.4</ele>
        <time>2022-05-04T12:31:55Z</time>
      </trkpt>
      <trkpt lat="46.4476" lon="5.33884">
        <ele>258.4</ele>
        <time>2022-05-04T12:31:56Z</time>
      </trkpt>
      <trkpt lat="46.44748" lon="5.33878">
        <ele>258.4</ele>
        <time>2022-05-04T12:31:58Z</time>
      </trkpt>
      <trkpt lat="46.44734" lon="5.33871">
        <ele>258.4</ele>
        <time>2022-05-04T12:32:00Z</time>
      </trkpt>
      <trkpt lat="46.44718" lon="5.33865">
        <ele>258.4</ele>
        <time>2022-05-04T12:32:02Z</time>
      </trkpt>
      <trkpt lat="46.44681" lon="5.33847">
        <ele>257.8</ele>
        <time>2022-05-04T12:32:07Z</time>
      </trkpt>
      <trkpt lat="46.44675" lon="5.33843">
        <ele>257.6</ele>
        <time>2022-05-04T12:32:08Z</time>
      </trkpt>
      <trkpt lat="46.44663" lon="5.3383">
        <ele>257.6</ele>
        <time>2022-05-04T12:32:10Z</time>
      </trkpt>
      <trkpt lat="46.44658" lon="5.33822">
        <ele>257.6</ele>
        <time>2022-05-04T12:32:11Z</time>
      </trkpt>
      <trkpt lat="46.44654" lon="5.33813">
        <ele>257.6</ele>
        <time>2022-05-04T12:32:12Z</time>
      </trkpt>
      <trkpt lat="46.44643" lon="5.33783">
        <ele>257.2</ele>
        <time>2022-05-04T12:32:15Z</time>
      </trkpt>
      <trkpt lat="46.44639" lon="5.33773">
        <ele>257.4</ele>
        <time>2022-05-04T12:32:16Z</time>
      </trkpt>
      <trkpt lat="46.44617" lon="5.33715">
        <ele>256.4</ele>
        <time>2022-05-04T12:32:21Z</time>
      </trkpt>
      <trkpt lat="46.44613" lon="5.33703">
        <ele>256</ele>
        <time>2022-05-04T12:32:22Z</time>
      </trkpt>
      <trkpt lat="46.44603" lon="5.33678">
        <ele>255.2</ele>
        <time>2022-05-04T12:32:24Z</time>
      </trkpt>
      <trkpt lat="46.44598" lon="5.33665">
        <ele>253.8</ele>
        <time>2022-05-04T12:32:25Z</time>
      </trkpt>
      <trkpt lat="46.44588" lon="5.33638">
        <ele>252.8</ele>
        <time>2022-05-04T12:32:27Z</time>
      </trkpt>
      <trkpt lat="46.44578" lon="5.33612">
        <ele>251.8</ele>
        <time>2022-05-04T12:32:29Z</time>
      </trkpt>
      <trkpt lat="46.44573" lon="5.33598">
        <ele>251.6</ele>
        <time>2022-05-04T12:32:30Z</time>
      </trkpt>
      <trkpt lat="46.44568" lon="5.33585">
        <ele>250.4</ele>
        <time>2022-05-04T12:32:31Z</time>
      </trkpt>
      <trkpt lat="46.44559" lon="5.3356">
        <ele>249.4</ele>
        <time>2022-05-04T12:32:33Z</time>
      </trkpt>
      <trkpt lat="46.44542" lon="5.33513">
        <ele>248.2</ele>
        <time>2022-05-04T12:32:37Z</time>
      </trkpt>
      <trkpt lat="46.44512" lon="5.33437">
        <ele>247.4</ele>
        <time>2022-05-04T12:32:44Z</time>
      </trkpt>
      <trkpt lat="46.44508" lon="5.33426">
        <ele>247.4</ele>
        <time>2022-05-04T12:32:45Z</time>
      </trkpt>
      <trkpt lat="46.44492" lon="5.33385">
        <ele>247.2</ele>
        <time>2022-05-04T12:32:49Z</time>
      </trkpt>
      <trkpt lat="46.44478" lon="5.33358">
        <ele>247.2</ele>
        <time>2022-05-04T12:32:52Z</time>
      </trkpt>
      <trkpt lat="46.44468" lon="5.33343">
        <ele>247.2</ele>
        <time>2022-05-04T12:32:54Z</time>
      </trkpt>
      <trkpt lat="46.44456" lon="5.33331">
        <ele>247.2</ele>
        <time>2022-05-04T12:32:56Z</time>
      </trkpt>
      <trkpt lat="46.44409" lon="5.33281">
        <ele>247.2</ele>
        <time>2022-05-04T12:33:04Z</time>
      </trkpt>
      <trkpt lat="46.4436" lon="5.33228">
        <ele>246.6</ele>
        <time>2022-05-04T12:33:12Z</time>
      </trkpt>
      <trkpt lat="46.44354" lon="5.3322">
        <ele>246.4</ele>
        <time>2022-05-04T12:33:13Z</time>
      </trkpt>
      <trkpt lat="46.44326" lon="5.33193">
        <ele>245.8</ele>
        <time>2022-05-04T12:33:17Z</time>
      </trkpt>
      <trkpt lat="46.44318" lon="5.33188">
        <ele>245.6</ele>
        <time>2022-05-04T12:33:18Z</time>
      </trkpt>
      <trkpt lat="46.4431" lon="5.33185">
        <ele>245.2</ele>
        <time>2022-05-04T12:33:19Z</time>
      </trkpt>
      <trkpt lat="46.44283" lon="5.3318">
        <ele>244</ele>
        <time>2022-05-04T12:33:22Z</time>
      </trkpt>
      <trkpt lat="46.44242" lon="5.33182">
        <ele>242.8</ele>
        <time>2022-05-04T12:33:27Z</time>
      </trkpt>
      <trkpt lat="46.44234" lon="5.33182">
        <ele>242.8</ele>
        <time>2022-05-04T12:33:28Z</time>
      </trkpt>
      <trkpt lat="46.44226" lon="5.33184">
        <ele>242.6</ele>
        <time>2022-05-04T12:33:29Z</time>
      </trkpt>
      <trkpt lat="46.44211" lon="5.33189">
        <ele>242.6</ele>
        <time>2022-05-04T12:33:31Z</time>
      </trkpt>
      <trkpt lat="46.44204" lon="5.33193">
        <ele>242.6</ele>
        <time>2022-05-04T12:33:32Z</time>
      </trkpt>
      <trkpt lat="46.44174" lon="5.33217">
        <ele>242.6</ele>
        <time>2022-05-04T12:33:37Z</time>
      </trkpt>
      <trkpt lat="46.44154" lon="5.33232">
        <ele>238.6</ele>
        <time>2022-05-04T12:33:41Z</time>
      </trkpt>
      <trkpt lat="46.4415" lon="5.33233">
        <ele>242.8</ele>
        <time>2022-05-04T12:33:42Z</time>
      </trkpt>
      <trkpt lat="46.44143" lon="5.33232">
        <ele>243.2</ele>
        <time>2022-05-04T12:33:45Z</time>
      </trkpt>
      <trkpt lat="46.44142" lon="5.33232">
        <ele>243.4</ele>
        <time>2022-05-04T12:33:47Z</time>
      </trkpt>
      <trkpt lat="46.44138" lon="5.33228">
        <ele>243.6</ele>
        <time>2022-05-04T12:33:57Z</time>
      </trkpt>
      <trkpt lat="46.44129" lon="5.33207">
        <ele>243.4</ele>
        <time>2022-05-04T12:34:01Z</time>
      </trkpt>
      <trkpt lat="46.44126" lon="5.332">
        <ele>243.4</ele>
        <time>2022-05-04T12:34:02Z</time>
      </trkpt>
      <trkpt lat="46.44116" lon="5.33189">
        <ele>243.4</ele>
        <time>2022-05-04T12:34:04Z</time>
      </trkpt>
      <trkpt lat="46.44104" lon="5.33188">
        <ele>243.2</ele>
        <time>2022-05-04T12:34:06Z</time>
      </trkpt>
      <trkpt lat="46.44075" lon="5.33207">
        <ele>243.4</ele>
        <time>2022-05-04T12:34:11Z</time>
      </trkpt>
      <trkpt lat="46.44058" lon="5.33219">
        <ele>244</ele>
        <time>2022-05-04T12:34:14Z</time>
      </trkpt>
      <trkpt lat="46.44026" lon="5.33241">
        <ele>244.6</ele>
        <time>2022-05-04T12:34:19Z</time>
      </trkpt>
      <trkpt lat="46.44003" lon="5.3325">
        <ele>244.6</ele>
        <time>2022-05-04T12:34:22Z</time>
      </trkpt>
      <trkpt lat="46.43995" lon="5.33251">
        <ele>244.4</ele>
        <time>2022-05-04T12:34:23Z</time>
      </trkpt>
      <trkpt lat="46.43948" lon="5.33249">
        <ele>243.6</ele>
        <time>2022-05-04T12:34:29Z</time>
      </trkpt>
      <trkpt lat="46.43898" lon="5.3324">
        <ele>243.6</ele>
        <time>2022-05-04T12:34:36Z</time>
      </trkpt>
      <trkpt lat="46.4385" lon="5.33239">
        <ele>243.6</ele>
        <time>2022-05-04T12:34:43Z</time>
      </trkpt>
      <trkpt lat="46.43805" lon="5.33241">
        <ele>243.8</ele>
        <time>2022-05-04T12:34:50Z</time>
      </trkpt>
      <trkpt lat="46.43756" lon="5.33247">
        <ele>244.4</ele>
        <time>2022-05-04T12:34:58Z</time>
      </trkpt>
      <trkpt lat="46.4373" lon="5.33264">
        <ele>244.4</ele>
        <time>2022-05-04T12:35:02Z</time>
      </trkpt>
      <trkpt lat="46.43697" lon="5.33299">
        <ele>243.4</ele>
        <time>2022-05-04T12:35:07Z</time>
      </trkpt>
      <trkpt lat="46.43681" lon="5.33311">
        <ele>242.8</ele>
        <time>2022-05-04T12:35:09Z</time>
      </trkpt>
      <trkpt lat="46.43663" lon="5.3332">
        <ele>242.2</ele>
        <time>2022-05-04T12:35:11Z</time>
      </trkpt>
      <trkpt lat="46.43635" lon="5.3333">
        <ele>241.4</ele>
        <time>2022-05-04T12:35:13Z</time>
      </trkpt>
      <trkpt lat="46.43617" lon="5.33329">
        <ele>240.4</ele>
        <time>2022-05-04T12:35:15Z</time>
      </trkpt>
      <trkpt lat="46.43609" lon="5.33325">
        <ele>239.4</ele>
        <time>2022-05-04T12:35:16Z</time>
      </trkpt>
      <trkpt lat="46.43603" lon="5.33321">
        <ele>239.2</ele>
        <time>2022-05-04T12:35:17Z</time>
      </trkpt>
      <trkpt lat="46.43596" lon="5.33319">
        <ele>238.8</ele>
        <time>2022-05-04T12:35:18Z</time>
      </trkpt>
      <trkpt lat="46.4359" lon="5.3332">
        <ele>238.4</ele>
        <time>2022-05-04T12:35:19Z</time>
      </trkpt>
      <trkpt lat="46.43585" lon="5.33325">
        <ele>237.6</ele>
        <time>2022-05-04T12:35:20Z</time>
      </trkpt>
      <trkpt lat="46.43582" lon="5.33334">
        <ele>237</ele>
        <time>2022-05-04T12:35:21Z</time>
      </trkpt>
      <trkpt lat="46.43576" lon="5.33355">
        <ele>236.4</ele>
        <time>2022-05-04T12:35:23Z</time>
      </trkpt>
      <trkpt lat="46.43566" lon="5.33374">
        <ele>235.8</ele>
        <time>2022-05-04T12:35:25Z</time>
      </trkpt>
      <trkpt lat="46.43548" lon="5.33383">
        <ele>235.6</ele>
        <time>2022-05-04T12:35:27Z</time>
      </trkpt>
      <trkpt lat="46.43538" lon="5.33383">
        <ele>235.4</ele>
        <time>2022-05-04T12:35:28Z</time>
      </trkpt>
      <trkpt lat="46.43529" lon="5.33381">
        <ele>235</ele>
        <time>2022-05-04T12:35:29Z</time>
      </trkpt>
      <trkpt lat="46.4352" lon="5.33377">
        <ele>234.2</ele>
        <time>2022-05-04T12:35:30Z</time>
      </trkpt>
      <trkpt lat="46.43512" lon="5.33372">
        <ele>233.8</ele>
        <time>2022-05-04T12:35:31Z</time>
      </trkpt>
      <trkpt lat="46.43504" lon="5.33368">
        <ele>233</ele>
        <time>2022-05-04T12:35:32Z</time>
      </trkpt>
      <trkpt lat="46.43477" lon="5.33351">
        <ele>232.6</ele>
        <time>2022-05-04T12:35:36Z</time>
      </trkpt>
      <trkpt lat="46.43447" lon="5.33323">
        <ele>234</ele>
        <time>2022-05-04T12:35:42Z</time>
      </trkpt>
      <trkpt lat="46.43439" lon="5.33315">
        <ele>234.8</ele>
        <time>2022-05-04T12:35:44Z</time>
      </trkpt>
      <trkpt lat="46.4343" lon="5.33301">
        <ele>235.8</ele>
        <time>2022-05-04T12:35:47Z</time>
      </trkpt>
      <trkpt lat="46.43427" lon="5.33296">
        <ele>236.4</ele>
        <time>2022-05-04T12:35:48Z</time>
      </trkpt>
      <trkpt lat="46.43421" lon="5.33286">
        <ele>237.8</ele>
        <time>2022-05-04T12:35:50Z</time>
      </trkpt>
      <trkpt lat="46.4342" lon="5.33282">
        <ele>238.4</ele>
        <time>2022-05-04T12:35:51Z</time>
      </trkpt>
      <trkpt lat="46.43419" lon="5.33277">
        <ele>238.6</ele>
        <time>2022-05-04T12:35:52Z</time>
      </trkpt>
      <trkpt lat="46.43418" lon="5.33271">
        <ele>239.2</ele>
        <time>2022-05-04T12:35:53Z</time>
      </trkpt>
      <trkpt lat="46.43413" lon="5.33248">
        <ele>240.2</ele>
        <time>2022-05-04T12:35:57Z</time>
      </trkpt>
      <trkpt lat="46.43407" lon="5.33237">
        <ele>241</ele>
        <time>2022-05-04T12:35:59Z</time>
      </trkpt>
      <trkpt lat="46.43403" lon="5.33232">
        <ele>241.6</ele>
        <time>2022-05-04T12:36:00Z</time>
      </trkpt>
      <trkpt lat="46.43398" lon="5.33229">
        <ele>241.8</ele>
        <time>2022-05-04T12:36:01Z</time>
      </trkpt>
      <trkpt lat="46.43387" lon="5.33223">
        <ele>242.4</ele>
        <time>2022-05-04T12:36:03Z</time>
      </trkpt>
      <trkpt lat="46.43381" lon="5.3322">
        <ele>242.8</ele>
        <time>2022-05-04T12:36:04Z</time>
      </trkpt>
      <trkpt lat="46.43347" lon="5.33207">
        <ele>243.6</ele>
        <time>2022-05-04T12:36:10Z</time>
      </trkpt>
      <trkpt lat="46.43341" lon="5.33205">
        <ele>243.8</ele>
        <time>2022-05-04T12:36:11Z</time>
      </trkpt>
      <trkpt lat="46.43283" lon="5.33191">
        <ele>244.4</ele>
        <time>2022-05-04T12:36:21Z</time>
      </trkpt>
      <trkpt lat="46.43277" lon="5.3319">
        <ele>244.4</ele>
        <time>2022-05-04T12:36:22Z</time>
      </trkpt>
      <trkpt lat="46.43219" lon="5.33178">
        <ele>244.4</ele>
        <time>2022-05-04T12:36:31Z</time>
      </trkpt>
      <trkpt lat="46.43166" lon="5.33163">
        <ele>244.4</ele>
        <time>2022-05-04T12:36:39Z</time>
      </trkpt>
      <trkpt lat="46.43119" lon="5.33137">
        <ele>244.4</ele>
        <time>2022-05-04T12:36:46Z</time>
      </trkpt>
      <trkpt lat="46.43106" lon="5.33125">
        <ele>244.4</ele>
        <time>2022-05-04T12:36:48Z</time>
      </trkpt>
      <trkpt lat="46.4309" lon="5.33101">
        <ele>244.2</ele>
        <time>2022-05-04T12:36:51Z</time>
      </trkpt>
      <trkpt lat="46.43055" lon="5.33037">
        <ele>243.2</ele>
        <time>2022-05-04T12:36:58Z</time>
      </trkpt>
      <trkpt lat="46.43051" lon="5.33026">
        <ele>243.2</ele>
        <time>2022-05-04T12:36:59Z</time>
      </trkpt>
      <trkpt lat="46.43047" lon="5.33015">
        <ele>242.8</ele>
        <time>2022-05-04T12:37:00Z</time>
      </trkpt>
      <trkpt lat="46.43038" lon="5.32979">
        <ele>241.8</ele>
        <time>2022-05-04T12:37:03Z</time>
      </trkpt>
      <trkpt lat="46.43035" lon="5.32967">
        <ele>241.8</ele>
        <time>2022-05-04T12:37:04Z</time>
      </trkpt>
      <trkpt lat="46.4302" lon="5.32923">
        <ele>241</ele>
        <time>2022-05-04T12:37:08Z</time>
      </trkpt>
      <trkpt lat="46.43011" lon="5.32901">
        <ele>240.6</ele>
        <time>2022-05-04T12:37:10Z</time>
      </trkpt>
      <trkpt lat="46.42989" lon="5.32849">
        <ele>239.6</ele>
        <time>2022-05-04T12:37:15Z</time>
      </trkpt>
      <trkpt lat="46.4298" lon="5.32828">
        <ele>239.2</ele>
        <time>2022-05-04T12:37:17Z</time>
      </trkpt>
      <trkpt lat="46.42968" lon="5.32797">
        <ele>238.6</ele>
        <time>2022-05-04T12:37:20Z</time>
      </trkpt>
      <trkpt lat="46.42948" lon="5.32748">
        <ele>237.6</ele>
        <time>2022-05-04T12:37:25Z</time>
      </trkpt>
      <trkpt lat="46.42928" lon="5.32699">
        <ele>236.2</ele>
        <time>2022-05-04T12:37:30Z</time>
      </trkpt>
      <trkpt lat="46.4292" lon="5.32677">
        <ele>235.6</ele>
        <time>2022-05-04T12:37:32Z</time>
      </trkpt>
      <trkpt lat="46.42917" lon="5.32664">
        <ele>235.2</ele>
        <time>2022-05-04T12:37:33Z</time>
      </trkpt>
      <trkpt lat="46.42899" lon="5.326">
        <ele>233.8</ele>
        <time>2022-05-04T12:37:38Z</time>
      </trkpt>
      <trkpt lat="46.42895" lon="5.32587">
        <ele>233.2</ele>
        <time>2022-05-04T12:37:39Z</time>
      </trkpt>
      <trkpt lat="46.42892" lon="5.32573">
        <ele>232.6</ele>
        <time>2022-05-04T12:37:40Z</time>
      </trkpt>
      <trkpt lat="46.42888" lon="5.32559">
        <ele>232.2</ele>
        <time>2022-05-04T12:37:41Z</time>
      </trkpt>
      <trkpt lat="46.4288" lon="5.32531">
        <ele>231.4</ele>
        <time>2022-05-04T12:37:43Z</time>
      </trkpt>
      <trkpt lat="46.42866" lon="5.3249">
        <ele>229.8</ele>
        <time>2022-05-04T12:37:46Z</time>
      </trkpt>
      <trkpt lat="46.42848" lon="5.32452">
        <ele>228</ele>
        <time>2022-05-04T12:37:49Z</time>
      </trkpt>
      <trkpt lat="46.42835" lon="5.32428">
        <ele>226.8</ele>
        <time>2022-05-04T12:37:51Z</time>
      </trkpt>
      <trkpt lat="46.42815" lon="5.32395">
        <ele>225.4</ele>
        <time>2022-05-04T12:37:54Z</time>
      </trkpt>
      <trkpt lat="46.42808" lon="5.32383">
        <ele>225</ele>
        <time>2022-05-04T12:37:55Z</time>
      </trkpt>
      <trkpt lat="46.42803" lon="5.32371">
        <ele>224.4</ele>
        <time>2022-05-04T12:37:56Z</time>
      </trkpt>
      <trkpt lat="46.42799" lon="5.32358">
        <ele>224.2</ele>
        <time>2022-05-04T12:37:57Z</time>
      </trkpt>
      <trkpt lat="46.4279" lon="5.32318">
        <ele>222.8</ele>
        <time>2022-05-04T12:38:00Z</time>
      </trkpt>
      <trkpt lat="46.42782" lon="5.32282">
        <ele>222</ele>
        <time>2022-05-04T12:38:03Z</time>
      </trkpt>
      <trkpt lat="46.42776" lon="5.32259">
        <ele>221.6</ele>
        <time>2022-05-04T12:38:05Z</time>
      </trkpt>
      <trkpt lat="46.42764" lon="5.32205">
        <ele>221.4</ele>
        <time>2022-05-04T12:38:10Z</time>
      </trkpt>
      <trkpt lat="46.4276" lon="5.32195">
        <ele>221.4</ele>
        <time>2022-05-04T12:38:11Z</time>
      </trkpt>
      <trkpt lat="46.42756" lon="5.32187">
        <ele>221.2</ele>
        <time>2022-05-04T12:38:12Z</time>
      </trkpt>
      <trkpt lat="46.42743" lon="5.32181">
        <ele>221.4</ele>
        <time>2022-05-04T12:38:14Z</time>
      </trkpt>
      <trkpt lat="46.42731" lon="5.32191">
        <ele>221.2</ele>
        <time>2022-05-04T12:38:16Z</time>
      </trkpt>
      <trkpt lat="46.42725" lon="5.32211">
        <ele>221.2</ele>
        <time>2022-05-04T12:38:18Z</time>
      </trkpt>
      <trkpt lat="46.42723" lon="5.32222">
        <ele>221.2</ele>
        <time>2022-05-04T12:38:19Z</time>
      </trkpt>
      <trkpt lat="46.42713" lon="5.32267">
        <ele>220.8</ele>
        <time>2022-05-04T12:38:23Z</time>
      </trkpt>
      <trkpt lat="46.42707" lon="5.32288">
        <ele>220.8</ele>
        <time>2022-05-04T12:38:25Z</time>
      </trkpt>
      <trkpt lat="46.42695" lon="5.32354">
        <ele>220.2</ele>
        <time>2022-05-04T12:38:31Z</time>
      </trkpt>
      <trkpt lat="46.42679" lon="5.32438">
        <ele>220.6</ele>
        <time>2022-05-04T12:38:39Z</time>
      </trkpt>
      <trkpt lat="46.42671" lon="5.32481">
        <ele>220.6</ele>
        <time>2022-05-04T12:38:43Z</time>
      </trkpt>
      <trkpt lat="46.4266" lon="5.32567">
        <ele>220.8</ele>
        <time>2022-05-04T12:38:51Z</time>
      </trkpt>
      <trkpt lat="46.42652" lon="5.32654">
        <ele>221.4</ele>
        <time>2022-05-04T12:38:59Z</time>
      </trkpt>
      <trkpt lat="46.42647" lon="5.3274">
        <ele>221.6</ele>
        <time>2022-05-04T12:39:07Z</time>
      </trkpt>
      <trkpt lat="46.4265" lon="5.32761">
        <ele>221.8</ele>
        <time>2022-05-04T12:39:09Z</time>
      </trkpt>
      <trkpt lat="46.42656" lon="5.32781">
        <ele>221.8</ele>
        <time>2022-05-04T12:39:11Z</time>
      </trkpt>
      <trkpt lat="46.42678" lon="5.32834">
        <ele>222</ele>
        <time>2022-05-04T12:39:17Z</time>
      </trkpt>
      <trkpt lat="46.42681" lon="5.32844">
        <ele>222.2</ele>
        <time>2022-05-04T12:39:18Z</time>
      </trkpt>
      <trkpt lat="46.4268" lon="5.32854">
        <ele>222.2</ele>
        <time>2022-05-04T12:39:19Z</time>
      </trkpt>
      <trkpt lat="46.42678" lon="5.32863">
        <ele>222.2</ele>
        <time>2022-05-04T12:39:20Z</time>
      </trkpt>
      <trkpt lat="46.42673" lon="5.32871">
        <ele>222</ele>
        <time>2022-05-04T12:39:21Z</time>
      </trkpt>
      <trkpt lat="46.42668" lon="5.32875">
        <ele>222</ele>
        <time>2022-05-04T12:39:22Z</time>
      </trkpt>
      <trkpt lat="46.42662" lon="5.32876">
        <ele>222</ele>
        <time>2022-05-04T12:39:23Z</time>
      </trkpt>
      <trkpt lat="46.42641" lon="5.32874">
        <ele>222</ele>
        <time>2022-05-04T12:39:26Z</time>
      </trkpt>
      <trkpt lat="46.42629" lon="5.32879">
        <ele>222</ele>
        <time>2022-05-04T12:39:28Z</time>
      </trkpt>
      <trkpt lat="46.4261" lon="5.32903">
        <ele>222.4</ele>
        <time>2022-05-04T12:39:32Z</time>
      </trkpt>
      <trkpt lat="46.42591" lon="5.32948">
        <ele>223</ele>
        <time>2022-05-04T12:39:37Z</time>
      </trkpt>
      <trkpt lat="46.4259" lon="5.32955">
        <ele>223.2</ele>
        <time>2022-05-04T12:39:38Z</time>
      </trkpt>
      <trkpt lat="46.42588" lon="5.32963">
        <ele>223.4</ele>
        <time>2022-05-04T12:39:39Z</time>
      </trkpt>
      <trkpt lat="46.42587" lon="5.3298">
        <ele>223.6</ele>
        <time>2022-05-04T12:39:41Z</time>
      </trkpt>
      <trkpt lat="46.42586" lon="5.33026">
        <ele>224.2</ele>
        <time>2022-05-04T12:39:46Z</time>
      </trkpt>
      <trkpt lat="46.42586" lon="5.33035">
        <ele>224.4</ele>
        <time>2022-05-04T12:39:47Z</time>
      </trkpt>
      <trkpt lat="46.42588" lon="5.33045">
        <ele>224.4</ele>
        <time>2022-05-04T12:39:48Z</time>
      </trkpt>
      <trkpt lat="46.42594" lon="5.33062">
        <ele>224.8</ele>
        <time>2022-05-04T12:39:50Z</time>
      </trkpt>
      <trkpt lat="46.42602" lon="5.33077">
        <ele>224.8</ele>
        <time>2022-05-04T12:39:52Z</time>
      </trkpt>
      <trkpt lat="46.4264" lon="5.33142">
        <ele>225.4</ele>
        <time>2022-05-04T12:40:01Z</time>
      </trkpt>
      <trkpt lat="46.42677" lon="5.33204">
        <ele>225.4</ele>
        <time>2022-05-04T12:40:09Z</time>
      </trkpt>
      <trkpt lat="46.42683" lon="5.3321">
        <ele>225.2</ele>
        <time>2022-05-04T12:40:10Z</time>
      </trkpt>
      <trkpt lat="46.42689" lon="5.33215">
        <ele>225</ele>
        <time>2022-05-04T12:40:11Z</time>
      </trkpt>
      <trkpt lat="46.42716" lon="5.33233">
        <ele>224.8</ele>
        <time>2022-05-04T12:40:15Z</time>
      </trkpt>
      <trkpt lat="46.42723" lon="5.33239">
        <ele>224.6</ele>
        <time>2022-05-04T12:40:16Z</time>
      </trkpt>
      <trkpt lat="46.42772" lon="5.33281">
        <ele>224.6</ele>
        <time>2022-05-04T12:40:24Z</time>
      </trkpt>
      <trkpt lat="46.42804" lon="5.33305">
        <ele>224.2</ele>
        <time>2022-05-04T12:40:29Z</time>
      </trkpt>
      <trkpt lat="46.42815" lon="5.33319">
        <ele>224.2</ele>
        <time>2022-05-04T12:40:31Z</time>
      </trkpt>
      <trkpt lat="46.42838" lon="5.33357">
        <ele>224.2</ele>
        <time>2022-05-04T12:40:36Z</time>
      </trkpt>
      <trkpt lat="46.42843" lon="5.33364">
        <ele>224.2</ele>
        <time>2022-05-04T12:40:37Z</time>
      </trkpt>
      <trkpt lat="46.42852" lon="5.33379">
        <ele>224.2</ele>
        <time>2022-05-04T12:40:39Z</time>
      </trkpt>
      <trkpt lat="46.42856" lon="5.33398">
        <ele>224.2</ele>
        <time>2022-05-04T12:40:41Z</time>
      </trkpt>
      <trkpt lat="46.42854" lon="5.33417">
        <ele>224.2</ele>
        <time>2022-05-04T12:40:43Z</time>
      </trkpt>
      <trkpt lat="46.42852" lon="5.33427">
        <ele>224.2</ele>
        <time>2022-05-04T12:40:44Z</time>
      </trkpt>
      <trkpt lat="46.42832" lon="5.33495">
        <ele>224.4</ele>
        <time>2022-05-04T12:40:52Z</time>
      </trkpt>
      <trkpt lat="46.4283" lon="5.33503">
        <ele>224.6</ele>
        <time>2022-05-04T12:40:53Z</time>
      </trkpt>
      <trkpt lat="46.4283" lon="5.3352">
        <ele>225.2</ele>
        <time>2022-05-04T12:40:55Z</time>
      </trkpt>
      <trkpt lat="46.42831" lon="5.33537">
        <ele>225.6</ele>
        <time>2022-05-04T12:40:57Z</time>
      </trkpt>
      <trkpt lat="46.42837" lon="5.33563">
        <ele>225.8</ele>
        <time>2022-05-04T12:41:00Z</time>
      </trkpt>
      <trkpt lat="46.42848" lon="5.3361">
        <ele>226.6</ele>
        <time>2022-05-04T12:41:06Z</time>
      </trkpt>
      <trkpt lat="46.42849" lon="5.33619">
        <ele>226.8</ele>
        <time>2022-05-04T12:41:07Z</time>
      </trkpt>
      <trkpt lat="46.42854" lon="5.33668">
        <ele>227.8</ele>
        <time>2022-05-04T12:41:13Z</time>
      </trkpt>
      <trkpt lat="46.42855" lon="5.33676">
        <ele>227.8</ele>
        <time>2022-05-04T12:41:14Z</time>
      </trkpt>
      <trkpt lat="46.42856" lon="5.33683">
        <ele>228</ele>
        <time>2022-05-04T12:41:15Z</time>
      </trkpt>
      <trkpt lat="46.42858" lon="5.33689">
        <ele>228.4</ele>
        <time>2022-05-04T12:41:16Z</time>
      </trkpt>
      <trkpt lat="46.42864" lon="5.33698">
        <ele>229</ele>
        <time>2022-05-04T12:41:18Z</time>
      </trkpt>
      <trkpt lat="46.42868" lon="5.33702">
        <ele>229</ele>
        <time>2022-05-04T12:41:19Z</time>
      </trkpt>
      <trkpt lat="46.42884" lon="5.33717">
        <ele>230.2</ele>
        <time>2022-05-04T12:41:23Z</time>
      </trkpt>
      <trkpt lat="46.42888" lon="5.33721">
        <ele>230.4</ele>
        <time>2022-05-04T12:41:24Z</time>
      </trkpt>
      <trkpt lat="46.42895" lon="5.33731">
        <ele>230.8</ele>
        <time>2022-05-04T12:41:26Z</time>
      </trkpt>
      <trkpt lat="46.42898" lon="5.33737">
        <ele>231</ele>
        <time>2022-05-04T12:41:27Z</time>
      </trkpt>
      <trkpt lat="46.429" lon="5.3375">
        <ele>231.2</ele>
        <time>2022-05-04T12:41:29Z</time>
      </trkpt>
      <trkpt lat="46.429" lon="5.33757">
        <ele>231.2</ele>
        <time>2022-05-04T12:41:30Z</time>
      </trkpt>
      <trkpt lat="46.42897" lon="5.33794">
        <ele>232.2</ele>
        <time>2022-05-04T12:41:36Z</time>
      </trkpt>
      <trkpt lat="46.42894" lon="5.33818">
        <ele>233.4</ele>
        <time>2022-05-04T12:41:40Z</time>
      </trkpt>
      <trkpt lat="46.42892" lon="5.33829">
        <ele>233.8</ele>
        <time>2022-05-04T12:41:42Z</time>
      </trkpt>
      <trkpt lat="46.42887" lon="5.33838">
        <ele>234.2</ele>
        <time>2022-05-04T12:41:44Z</time>
      </trkpt>
      <trkpt lat="46.42883" lon="5.33839">
        <ele>234.6</ele>
        <time>2022-05-04T12:41:45Z</time>
      </trkpt>
      <trkpt lat="46.42879" lon="5.33839">
        <ele>234.8</ele>
        <time>2022-05-04T12:41:46Z</time>
      </trkpt>
      <trkpt lat="46.42869" lon="5.33838">
        <ele>235.4</ele>
        <time>2022-05-04T12:41:48Z</time>
      </trkpt>
      <trkpt lat="46.42858" lon="5.33837">
        <ele>235.6</ele>
        <time>2022-05-04T12:41:50Z</time>
      </trkpt>
      <trkpt lat="46.42829" lon="5.33836">
        <ele>235.8</ele>
        <time>2022-05-04T12:41:55Z</time>
      </trkpt>
      <trkpt lat="46.42784" lon="5.33829">
        <ele>235.8</ele>
        <time>2022-05-04T12:42:03Z</time>
      </trkpt>
      <trkpt lat="46.42761" lon="5.33819">
        <ele>236.6</ele>
        <time>2022-05-04T12:42:08Z</time>
      </trkpt>
      <trkpt lat="46.42757" lon="5.33816">
        <ele>237</ele>
        <time>2022-05-04T12:42:09Z</time>
      </trkpt>
      <trkpt lat="46.42737" lon="5.33805">
        <ele>237.8</ele>
        <time>2022-05-04T12:42:14Z</time>
      </trkpt>
      <trkpt lat="46.4272" lon="5.33797">
        <ele>239</ele>
        <time>2022-05-04T12:42:18Z</time>
      </trkpt>
      <trkpt lat="46.42716" lon="5.33796">
        <ele>239.4</ele>
        <time>2022-05-04T12:42:19Z</time>
      </trkpt>
      <trkpt lat="46.42702" lon="5.33794">
        <ele>240.2</ele>
        <time>2022-05-04T12:42:22Z</time>
      </trkpt>
      <trkpt lat="46.42687" lon="5.33792">
        <ele>240.6</ele>
        <time>2022-05-04T12:42:25Z</time>
      </trkpt>
      <trkpt lat="46.42669" lon="5.33793">
        <ele>241.4</ele>
        <time>2022-05-04T12:42:29Z</time>
      </trkpt>
      <trkpt lat="46.42649" lon="5.33795">
        <ele>242</ele>
        <time>2022-05-04T12:42:33Z</time>
      </trkpt>
      <trkpt lat="46.42608" lon="5.338">
        <ele>242.2</ele>
        <time>2022-05-04T12:42:41Z</time>
      </trkpt>
      <trkpt lat="46.42581" lon="5.33794">
        <ele>242.4</ele>
        <time>2022-05-04T12:42:46Z</time>
      </trkpt>
      <trkpt lat="46.42576" lon="5.33792">
        <ele>242.6</ele>
        <time>2022-05-04T12:42:47Z</time>
      </trkpt>
      <trkpt lat="46.42549" lon="5.33776">
        <ele>243.6</ele>
        <time>2022-05-04T12:42:53Z</time>
      </trkpt>
      <trkpt lat="46.42545" lon="5.33774">
        <ele>243.6</ele>
        <time>2022-05-04T12:42:54Z</time>
      </trkpt>
      <trkpt lat="46.42532" lon="5.33766">
        <ele>244.2</ele>
        <time>2022-05-04T12:42:57Z</time>
      </trkpt>
      <trkpt lat="46.42522" lon="5.33757">
        <ele>244.6</ele>
        <time>2022-05-04T12:43:00Z</time>
      </trkpt>
      <trkpt lat="46.42508" lon="5.33748">
        <ele>245.6</ele>
        <time>2022-05-04T12:43:04Z</time>
      </trkpt>
      <trkpt lat="46.42498" lon="5.33741">
        <ele>246.4</ele>
        <time>2022-05-04T12:43:07Z</time>
      </trkpt>
      <trkpt lat="46.42494" lon="5.33739">
        <ele>246.6</ele>
        <time>2022-05-04T12:43:08Z</time>
      </trkpt>
      <trkpt lat="46.42481" lon="5.33728">
        <ele>247.8</ele>
        <time>2022-05-04T12:43:12Z</time>
      </trkpt>
      <trkpt lat="46.42466" lon="5.33714">
        <ele>248.6</ele>
        <time>2022-05-04T12:43:16Z</time>
      </trkpt>
      <trkpt lat="46.42462" lon="5.33711">
        <ele>248.8</ele>
        <time>2022-05-04T12:43:17Z</time>
      </trkpt>
      <trkpt lat="46.42435" lon="5.33691">
        <ele>249.8</ele>
        <time>2022-05-04T12:43:23Z</time>
      </trkpt>
      <trkpt lat="46.42397" lon="5.33675">
        <ele>250.4</ele>
        <time>2022-05-04T12:43:31Z</time>
      </trkpt>
      <trkpt lat="46.42392" lon="5.33674">
        <ele>250.6</ele>
        <time>2022-05-04T12:43:32Z</time>
      </trkpt>
      <trkpt lat="46.42387" lon="5.33674">
        <ele>250.6</ele>
        <time>2022-05-04T12:43:33Z</time>
      </trkpt>
      <trkpt lat="46.42369" lon="5.33681">
        <ele>251</ele>
        <time>2022-05-04T12:43:37Z</time>
      </trkpt>
      <trkpt lat="46.42343" lon="5.33698">
        <ele>252</ele>
        <time>2022-05-04T12:43:44Z</time>
      </trkpt>
      <trkpt lat="46.42335" lon="5.33703">
        <ele>252.4</ele>
        <time>2022-05-04T12:43:46Z</time>
      </trkpt>
      <trkpt lat="46.42327" lon="5.33712">
        <ele>253</ele>
        <time>2022-05-04T12:43:49Z</time>
      </trkpt>
      <trkpt lat="46.42324" lon="5.33715">
        <ele>253.2</ele>
        <time>2022-05-04T12:43:50Z</time>
      </trkpt>
      <trkpt lat="46.42311" lon="5.3373">
        <ele>254.6</ele>
        <time>2022-05-04T12:43:55Z</time>
      </trkpt>
      <trkpt lat="46.42308" lon="5.33734">
        <ele>254.6</ele>
        <time>2022-05-04T12:43:56Z</time>
      </trkpt>
      <trkpt lat="46.42298" lon="5.3375">
        <ele>255.8</ele>
        <time>2022-05-04T12:44:00Z</time>
      </trkpt>
      <trkpt lat="46.42295" lon="5.33755">
        <ele>256</ele>
        <time>2022-05-04T12:44:01Z</time>
      </trkpt>
      <trkpt lat="46.42287" lon="5.33769">
        <ele>257</ele>
        <time>2022-05-04T12:44:04Z</time>
      </trkpt>
      <trkpt lat="46.42279" lon="5.33784">
        <ele>257.4</ele>
        <time>2022-05-04T12:44:07Z</time>
      </trkpt>
      <trkpt lat="46.42271" lon="5.33799">
        <ele>258</ele>
        <time>2022-05-04T12:44:10Z</time>
      </trkpt>
      <trkpt lat="46.42259" lon="5.3382">
        <ele>258.8</ele>
        <time>2022-05-04T12:44:14Z</time>
      </trkpt>
      <trkpt lat="46.42248" lon="5.3384">
        <ele>259.2</ele>
        <time>2022-05-04T12:44:18Z</time>
      </trkpt>
      <trkpt lat="46.42231" lon="5.33875">
        <ele>260.4</ele>
        <time>2022-05-04T12:44:25Z</time>
      </trkpt>
      <trkpt lat="46.42213" lon="5.33908">
        <ele>261.4</ele>
        <time>2022-05-04T12:44:32Z</time>
      </trkpt>
      <trkpt lat="46.42211" lon="5.33912">
        <ele>261.6</ele>
        <time>2022-05-04T12:44:33Z</time>
      </trkpt>
      <trkpt lat="46.42196" lon="5.3393">
        <ele>262.6</ele>
        <time>2022-05-04T12:44:38Z</time>
      </trkpt>
      <trkpt lat="46.42189" lon="5.33934">
        <ele>263</ele>
        <time>2022-05-04T12:44:40Z</time>
      </trkpt>
      <trkpt lat="46.42173" lon="5.33937">
        <ele>263.8</ele>
        <time>2022-05-04T12:44:44Z</time>
      </trkpt>
      <trkpt lat="46.42165" lon="5.33936">
        <ele>264.4</ele>
        <time>2022-05-04T12:44:46Z</time>
      </trkpt>
      <trkpt lat="46.42153" lon="5.33932">
        <ele>265</ele>
        <time>2022-05-04T12:44:49Z</time>
      </trkpt>
      <trkpt lat="46.42138" lon="5.33924">
        <ele>266.2</ele>
        <time>2022-05-04T12:44:53Z</time>
      </trkpt>
      <trkpt lat="46.42133" lon="5.33922">
        <ele>266.6</ele>
        <time>2022-05-04T12:44:54Z</time>
      </trkpt>
      <trkpt lat="46.42129" lon="5.33919">
        <ele>267</ele>
        <time>2022-05-04T12:44:55Z</time>
      </trkpt>
      <trkpt lat="46.42114" lon="5.33913">
        <ele>267.4</ele>
        <time>2022-05-04T12:44:58Z</time>
      </trkpt>
      <trkpt lat="46.42109" lon="5.3391">
        <ele>267.4</ele>
        <time>2022-05-04T12:44:59Z</time>
      </trkpt>
      <trkpt lat="46.42076" lon="5.339">
        <ele>267.6</ele>
        <time>2022-05-04T12:45:05Z</time>
      </trkpt>
      <trkpt lat="46.42026" lon="5.33901">
        <ele>267.2</ele>
        <time>2022-05-04T12:45:13Z</time>
      </trkpt>
      <trkpt lat="46.42004" lon="5.33899">
        <ele>267</ele>
        <time>2022-05-04T12:45:16Z</time>
      </trkpt>
      <trkpt lat="46.41996" lon="5.33896">
        <ele>266.8</ele>
        <time>2022-05-04T12:45:17Z</time>
      </trkpt>
      <trkpt lat="46.41964" lon="5.33875">
        <ele>266.2</ele>
        <time>2022-05-04T12:45:21Z</time>
      </trkpt>
      <trkpt lat="46.41945" lon="5.3387">
        <ele>265.8</ele>
        <time>2022-05-04T12:45:23Z</time>
      </trkpt>
      <trkpt lat="46.41935" lon="5.33869">
        <ele>265.6</ele>
        <time>2022-05-04T12:45:24Z</time>
      </trkpt>
      <trkpt lat="46.41925" lon="5.3387">
        <ele>265</ele>
        <time>2022-05-04T12:45:25Z</time>
      </trkpt>
      <trkpt lat="46.41905" lon="5.33875">
        <ele>263.8</ele>
        <time>2022-05-04T12:45:27Z</time>
      </trkpt>
      <trkpt lat="46.41895" lon="5.33877">
        <ele>263.4</ele>
        <time>2022-05-04T12:45:28Z</time>
      </trkpt>
      <trkpt lat="46.41876" lon="5.3388">
        <ele>262.6</ele>
        <time>2022-05-04T12:45:30Z</time>
      </trkpt>
      <trkpt lat="46.41858" lon="5.33879">
        <ele>262.2</ele>
        <time>2022-05-04T12:45:32Z</time>
      </trkpt>
      <trkpt lat="46.41834" lon="5.33879">
        <ele>261.6</ele>
        <time>2022-05-04T12:45:35Z</time>
      </trkpt>
      <trkpt lat="46.4182" lon="5.33876">
        <ele>261.4</ele>
        <time>2022-05-04T12:45:37Z</time>
      </trkpt>
      <trkpt lat="46.4179" lon="5.33866">
        <ele>262</ele>
        <time>2022-05-04T12:45:42Z</time>
      </trkpt>
      <trkpt lat="46.4178" lon="5.33862">
        <ele>262.6</ele>
        <time>2022-05-04T12:45:44Z</time>
      </trkpt>
      <trkpt lat="46.4176" lon="5.33857">
        <ele>264</ele>
        <time>2022-05-04T12:45:48Z</time>
      </trkpt>
      <trkpt lat="46.41741" lon="5.33859">
        <ele>265</ele>
        <time>2022-05-04T12:45:52Z</time>
      </trkpt>
      <trkpt lat="46.41732" lon="5.33862">
        <ele>265.6</ele>
        <time>2022-05-04T12:45:54Z</time>
      </trkpt>
      <trkpt lat="46.41727" lon="5.33864">
        <ele>266</ele>
        <time>2022-05-04T12:45:55Z</time>
      </trkpt>
      <trkpt lat="46.41715" lon="5.33869">
        <ele>267.2</ele>
        <time>2022-05-04T12:45:58Z</time>
      </trkpt>
      <trkpt lat="46.4171" lon="5.3387">
        <ele>267.6</ele>
        <time>2022-05-04T12:45:59Z</time>
      </trkpt>
      <trkpt lat="46.41701" lon="5.33874">
        <ele>268.2</ele>
        <time>2022-05-04T12:46:01Z</time>
      </trkpt>
      <trkpt lat="46.41697" lon="5.33875">
        <ele>268.4</ele>
        <time>2022-05-04T12:46:02Z</time>
      </trkpt>
      <trkpt lat="46.41679" lon="5.33878">
        <ele>269.4</ele>
        <time>2022-05-04T12:46:06Z</time>
      </trkpt>
      <trkpt lat="46.41664" lon="5.33879">
        <ele>270.6</ele>
        <time>2022-05-04T12:46:09Z</time>
      </trkpt>
      <trkpt lat="46.4165" lon="5.33877">
        <ele>271.6</ele>
        <time>2022-05-04T12:46:12Z</time>
      </trkpt>
      <trkpt lat="46.41645" lon="5.33878">
        <ele>271.8</ele>
        <time>2022-05-04T12:46:13Z</time>
      </trkpt>
      <trkpt lat="46.41635" lon="5.33878">
        <ele>272.2</ele>
        <time>2022-05-04T12:46:15Z</time>
      </trkpt>
      <trkpt lat="46.41631" lon="5.33879">
        <ele>272.4</ele>
        <time>2022-05-04T12:46:16Z</time>
      </trkpt>
      <trkpt lat="46.41621" lon="5.33881">
        <ele>273</ele>
        <time>2022-05-04T12:46:18Z</time>
      </trkpt>
      <trkpt lat="46.41592" lon="5.33884">
        <ele>274</ele>
        <time>2022-05-04T12:46:24Z</time>
      </trkpt>
      <trkpt lat="46.41556" lon="5.33878">
        <ele>274.6</ele>
        <time>2022-05-04T12:46:31Z</time>
      </trkpt>
      <trkpt lat="46.41517" lon="5.33871">
        <ele>274.4</ele>
        <time>2022-05-04T12:46:37Z</time>
      </trkpt>
      <trkpt lat="46.41489" lon="5.33859">
        <ele>274.2</ele>
        <time>2022-05-04T12:46:41Z</time>
      </trkpt>
      <trkpt lat="46.41443" lon="5.3383">
        <ele>273.2</ele>
        <time>2022-05-04T12:46:47Z</time>
      </trkpt>
      <trkpt lat="46.41435" lon="5.33827">
        <ele>273</ele>
        <time>2022-05-04T12:46:48Z</time>
      </trkpt>
      <trkpt lat="46.41398" lon="5.33816">
        <ele>271.8</ele>
        <time>2022-05-04T12:46:52Z</time>
      </trkpt>
      <trkpt lat="46.41379" lon="5.33811">
        <ele>271</ele>
        <time>2022-05-04T12:46:54Z</time>
      </trkpt>
      <trkpt lat="46.41369" lon="5.33808">
        <ele>270.8</ele>
        <time>2022-05-04T12:46:55Z</time>
      </trkpt>
      <trkpt lat="46.4134" lon="5.338">
        <ele>269.4</ele>
        <time>2022-05-04T12:46:58Z</time>
      </trkpt>
      <trkpt lat="46.4133" lon="5.33797">
        <ele>269.2</ele>
        <time>2022-05-04T12:46:59Z</time>
      </trkpt>
      <trkpt lat="46.4132" lon="5.33791">
        <ele>268.6</ele>
        <time>2022-05-04T12:47:00Z</time>
      </trkpt>
      <trkpt lat="46.4131" lon="5.33784">
        <ele>268.2</ele>
        <time>2022-05-04T12:47:01Z</time>
      </trkpt>
      <trkpt lat="46.41293" lon="5.33765">
        <ele>267.4</ele>
        <time>2022-05-04T12:47:03Z</time>
      </trkpt>
      <trkpt lat="46.41284" lon="5.33754">
        <ele>267</ele>
        <time>2022-05-04T12:47:04Z</time>
      </trkpt>
      <trkpt lat="46.41257" lon="5.33727">
        <ele>265.6</ele>
        <time>2022-05-04T12:47:07Z</time>
      </trkpt>
      <trkpt lat="46.41248" lon="5.33719">
        <ele>265.2</ele>
        <time>2022-05-04T12:47:08Z</time>
      </trkpt>
      <trkpt lat="46.4123" lon="5.33702">
        <ele>264.4</ele>
        <time>2022-05-04T12:47:10Z</time>
      </trkpt>
      <trkpt lat="46.41194" lon="5.33669">
        <ele>263.4</ele>
        <time>2022-05-04T12:47:14Z</time>
      </trkpt>
      <trkpt lat="46.41167" lon="5.33644">
        <ele>262.4</ele>
        <time>2022-05-04T12:47:17Z</time>
      </trkpt>
      <trkpt lat="46.41159" lon="5.33636">
        <ele>262.2</ele>
        <time>2022-05-04T12:47:18Z</time>
      </trkpt>
      <trkpt lat="46.41123" lon="5.33607">
        <ele>261</ele>
        <time>2022-05-04T12:47:22Z</time>
      </trkpt>
      <trkpt lat="46.41115" lon="5.33601">
        <ele>260.8</ele>
        <time>2022-05-04T12:47:23Z</time>
      </trkpt>
      <trkpt lat="46.41074" lon="5.33577">
        <ele>260.8</ele>
        <time>2022-05-04T12:47:28Z</time>
      </trkpt>
      <trkpt lat="46.41031" lon="5.3356">
        <ele>261.4</ele>
        <time>2022-05-04T12:47:34Z</time>
      </trkpt>
      <trkpt lat="46.41005" lon="5.33552">
        <ele>262.4</ele>
        <time>2022-05-04T12:47:38Z</time>
      </trkpt>
      <trkpt lat="46.4098" lon="5.33544">
        <ele>262.8</ele>
        <time>2022-05-04T12:47:42Z</time>
      </trkpt>
      <trkpt lat="46.40961" lon="5.33538">
        <ele>263.8</ele>
        <time>2022-05-04T12:47:45Z</time>
      </trkpt>
      <trkpt lat="46.40928" lon="5.33531">
        <ele>264.6</ele>
        <time>2022-05-04T12:47:50Z</time>
      </trkpt>
      <trkpt lat="46.40915" lon="5.33528">
        <ele>264.8</ele>
        <time>2022-05-04T12:47:52Z</time>
      </trkpt>
      <trkpt lat="46.40866" lon="5.33515">
        <ele>265.6</ele>
        <time>2022-05-04T12:47:59Z</time>
      </trkpt>
      <trkpt lat="46.40808" lon="5.335">
        <ele>265</ele>
        <time>2022-05-04T12:48:06Z</time>
      </trkpt>
      <trkpt lat="46.40774" lon="5.3349">
        <ele>263.4</ele>
        <time>2022-05-04T12:48:10Z</time>
      </trkpt>
      <trkpt lat="46.40757" lon="5.33481">
        <ele>262.8</ele>
        <time>2022-05-04T12:48:12Z</time>
      </trkpt>
      <trkpt lat="46.40741" lon="5.33472">
        <ele>262.2</ele>
        <time>2022-05-04T12:48:14Z</time>
      </trkpt>
      <trkpt lat="46.40716" lon="5.33458">
        <ele>261</ele>
        <time>2022-05-04T12:48:17Z</time>
      </trkpt>
      <trkpt lat="46.40699" lon="5.33447">
        <ele>260.4</ele>
        <time>2022-05-04T12:48:19Z</time>
      </trkpt>
      <trkpt lat="46.40683" lon="5.33436">
        <ele>259.8</ele>
        <time>2022-05-04T12:48:21Z</time>
      </trkpt>
      <trkpt lat="46.40657" lon="5.33421">
        <ele>258.6</ele>
        <time>2022-05-04T12:48:24Z</time>
      </trkpt>
      <trkpt lat="46.40639" lon="5.3341">
        <ele>258</ele>
        <time>2022-05-04T12:48:26Z</time>
      </trkpt>
      <trkpt lat="46.4062" lon="5.33399">
        <ele>257.6</ele>
        <time>2022-05-04T12:48:28Z</time>
      </trkpt>
      <trkpt lat="46.40591" lon="5.33381">
        <ele>256.6</ele>
        <time>2022-05-04T12:48:31Z</time>
      </trkpt>
      <trkpt lat="46.40582" lon="5.33375">
        <ele>256.2</ele>
        <time>2022-05-04T12:48:32Z</time>
      </trkpt>
      <trkpt lat="46.40562" lon="5.33364">
        <ele>255.4</ele>
        <time>2022-05-04T12:48:34Z</time>
      </trkpt>
      <trkpt lat="46.40533" lon="5.33346">
        <ele>254.2</ele>
        <time>2022-05-04T12:48:37Z</time>
      </trkpt>
      <trkpt lat="46.40523" lon="5.33339">
        <ele>253.6</ele>
        <time>2022-05-04T12:48:38Z</time>
      </trkpt>
      <trkpt lat="46.40514" lon="5.33331">
        <ele>253.4</ele>
        <time>2022-05-04T12:48:39Z</time>
      </trkpt>
      <trkpt lat="46.40506" lon="5.33321">
        <ele>253</ele>
        <time>2022-05-04T12:48:40Z</time>
      </trkpt>
      <trkpt lat="46.40489" lon="5.33305">
        <ele>252.2</ele>
        <time>2022-05-04T12:48:42Z</time>
      </trkpt>
      <trkpt lat="46.40479" lon="5.33299">
        <ele>251.8</ele>
        <time>2022-05-04T12:48:43Z</time>
      </trkpt>
      <trkpt lat="46.40451" lon="5.33285">
        <ele>250.8</ele>
        <time>2022-05-04T12:48:46Z</time>
      </trkpt>
      <trkpt lat="46.40433" lon="5.33274">
        <ele>250.2</ele>
        <time>2022-05-04T12:48:48Z</time>
      </trkpt>
      <trkpt lat="46.40418" lon="5.33259">
        <ele>250</ele>
        <time>2022-05-04T12:48:50Z</time>
      </trkpt>
      <trkpt lat="46.4041" lon="5.33252">
        <ele>249.8</ele>
        <time>2022-05-04T12:48:51Z</time>
      </trkpt>
      <trkpt lat="46.40384" lon="5.33223">
        <ele>249.6</ele>
        <time>2022-05-04T12:48:55Z</time>
      </trkpt>
      <trkpt lat="46.40369" lon="5.33204">
        <ele>249.6</ele>
        <time>2022-05-04T12:48:58Z</time>
      </trkpt>
      <trkpt lat="46.40361" lon="5.33194">
        <ele>249.8</ele>
        <time>2022-05-04T12:49:00Z</time>
      </trkpt>
      <trkpt lat="46.40351" lon="5.33181">
        <ele>250</ele>
        <time>2022-05-04T12:49:03Z</time>
      </trkpt>
      <trkpt lat="46.40344" lon="5.33169">
        <ele>250.4</ele>
        <time>2022-05-04T12:49:05Z</time>
      </trkpt>
      <trkpt lat="46.40323" lon="5.33138">
        <ele>250.8</ele>
        <time>2022-05-04T12:49:10Z</time>
      </trkpt>
      <trkpt lat="46.40315" lon="5.33125">
        <ele>251.2</ele>
        <time>2022-05-04T12:49:12Z</time>
      </trkpt>
      <trkpt lat="46.40288" lon="5.33084">
        <ele>251.8</ele>
        <time>2022-05-04T12:49:18Z</time>
      </trkpt>
      <trkpt lat="46.40269" lon="5.33058">
        <ele>252.4</ele>
        <time>2022-05-04T12:49:22Z</time>
      </trkpt>
      <trkpt lat="46.40235" lon="5.33009">
        <ele>252.6</ele>
        <time>2022-05-04T12:49:29Z</time>
      </trkpt>
      <trkpt lat="46.40225" lon="5.32994">
        <ele>252.8</ele>
        <time>2022-05-04T12:49:31Z</time>
      </trkpt>
      <trkpt lat="46.402" lon="5.32953">
        <ele>252.2</ele>
        <time>2022-05-04T12:49:36Z</time>
      </trkpt>
      <trkpt lat="46.40166" lon="5.32889">
        <ele>251.6</ele>
        <time>2022-05-04T12:49:44Z</time>
      </trkpt>
      <trkpt lat="46.40158" lon="5.32872">
        <ele>251.8</ele>
        <time>2022-05-04T12:49:46Z</time>
      </trkpt>
      <trkpt lat="46.40128" lon="5.32804">
        <ele>252.4</ele>
        <time>2022-05-04T12:49:54Z</time>
      </trkpt>
      <trkpt lat="46.40117" lon="5.32778">
        <ele>252.2</ele>
        <time>2022-05-04T12:49:57Z</time>
      </trkpt>
      <trkpt lat="46.40105" lon="5.32753">
        <ele>252.2</ele>
        <time>2022-05-04T12:50:00Z</time>
      </trkpt>
      <trkpt lat="46.40095" lon="5.32726">
        <ele>252</ele>
        <time>2022-05-04T12:50:03Z</time>
      </trkpt>
      <trkpt lat="46.40075" lon="5.32662">
        <ele>251.2</ele>
        <time>2022-05-04T12:50:10Z</time>
      </trkpt>
      <trkpt lat="46.4007" lon="5.32643">
        <ele>251.2</ele>
        <time>2022-05-04T12:50:12Z</time>
      </trkpt>
      <trkpt lat="46.40067" lon="5.32634">
        <ele>251</ele>
        <time>2022-05-04T12:50:13Z</time>
      </trkpt>
      <trkpt lat="46.40062" lon="5.32627">
        <ele>251</ele>
        <time>2022-05-04T12:50:14Z</time>
      </trkpt>
      <trkpt lat="46.4005" lon="5.32623">
        <ele>251</ele>
        <time>2022-05-04T12:50:16Z</time>
      </trkpt>
      <trkpt lat="46.40023" lon="5.32636">
        <ele>250.6</ele>
        <time>2022-05-04T12:50:20Z</time>
      </trkpt>
      <trkpt lat="46.39966" lon="5.32666">
        <ele>250.6</ele>
        <time>2022-05-04T12:50:28Z</time>
      </trkpt>
      <trkpt lat="46.39934" lon="5.3268">
        <ele>250</ele>
        <time>2022-05-04T12:50:32Z</time>
      </trkpt>
      <trkpt lat="46.39902" lon="5.32695">
        <ele>249.8</ele>
        <time>2022-05-04T12:50:36Z</time>
      </trkpt>
      <trkpt lat="46.3986" lon="5.32715">
        <ele>248.8</ele>
        <time>2022-05-04T12:50:41Z</time>
      </trkpt>
      <trkpt lat="46.39834" lon="5.32726">
        <ele>248.2</ele>
        <time>2022-05-04T12:50:44Z</time>
      </trkpt>
      <trkpt lat="46.39808" lon="5.32738">
        <ele>247.6</ele>
        <time>2022-05-04T12:50:47Z</time>
      </trkpt>
      <trkpt lat="46.39781" lon="5.32751">
        <ele>246.6</ele>
        <time>2022-05-04T12:50:50Z</time>
      </trkpt>
      <trkpt lat="46.39773" lon="5.32755">
        <ele>246.4</ele>
        <time>2022-05-04T12:50:51Z</time>
      </trkpt>
      <trkpt lat="46.39726" lon="5.32781">
        <ele>245.6</ele>
        <time>2022-05-04T12:50:56Z</time>
      </trkpt>
      <trkpt lat="46.39707" lon="5.32792">
        <ele>245</ele>
        <time>2022-05-04T12:50:58Z</time>
      </trkpt>
      <trkpt lat="46.39698" lon="5.32796">
        <ele>244.4</ele>
        <time>2022-05-04T12:50:59Z</time>
      </trkpt>
      <trkpt lat="46.39668" lon="5.32813">
        <ele>242.8</ele>
        <time>2022-05-04T12:51:02Z</time>
      </trkpt>
      <trkpt lat="46.39647" lon="5.32822">
        <ele>242.2</ele>
        <time>2022-05-04T12:51:04Z</time>
      </trkpt>
      <trkpt lat="46.39626" lon="5.32827">
        <ele>241.6</ele>
        <time>2022-05-04T12:51:06Z</time>
      </trkpt>
      <trkpt lat="46.39605" lon="5.32832">
        <ele>240.6</ele>
        <time>2022-05-04T12:51:08Z</time>
      </trkpt>
      <trkpt lat="46.39595" lon="5.32836">
        <ele>239.8</ele>
        <time>2022-05-04T12:51:09Z</time>
      </trkpt>
      <trkpt lat="46.39585" lon="5.3284">
        <ele>239.4</ele>
        <time>2022-05-04T12:51:10Z</time>
      </trkpt>
      <trkpt lat="46.39557" lon="5.32855">
        <ele>238.4</ele>
        <time>2022-05-04T12:51:13Z</time>
      </trkpt>
      <trkpt lat="46.39548" lon="5.32861">
        <ele>238</ele>
        <time>2022-05-04T12:51:14Z</time>
      </trkpt>
      <trkpt lat="46.39531" lon="5.32869">
        <ele>237</ele>
        <time>2022-05-04T12:51:16Z</time>
      </trkpt>
      <trkpt lat="46.39505" lon="5.3288">
        <ele>236.6</ele>
        <time>2022-05-04T12:51:19Z</time>
      </trkpt>
      <trkpt lat="46.39477" lon="5.32892">
        <ele>236</ele>
        <time>2022-05-04T12:51:22Z</time>
      </trkpt>
      <trkpt lat="46.39449" lon="5.32903">
        <ele>235.6</ele>
        <time>2022-05-04T12:51:25Z</time>
      </trkpt>
      <trkpt lat="46.3942" lon="5.32909">
        <ele>235.2</ele>
        <time>2022-05-04T12:51:28Z</time>
      </trkpt>
      <trkpt lat="46.39409" lon="5.3291">
        <ele>234.8</ele>
        <time>2022-05-04T12:51:29Z</time>
      </trkpt>
      <trkpt lat="46.39399" lon="5.32909">
        <ele>234.4</ele>
        <time>2022-05-04T12:51:30Z</time>
      </trkpt>
      <trkpt lat="46.3939" lon="5.32905">
        <ele>234</ele>
        <time>2022-05-04T12:51:31Z</time>
      </trkpt>
      <trkpt lat="46.39375" lon="5.32894">
        <ele>233.2</ele>
        <time>2022-05-04T12:51:33Z</time>
      </trkpt>
      <trkpt lat="46.39369" lon="5.32888">
        <ele>232.2</ele>
        <time>2022-05-04T12:51:34Z</time>
      </trkpt>
      <trkpt lat="46.3936" lon="5.32882">
        <ele>231.2</ele>
        <time>2022-05-04T12:51:36Z</time>
      </trkpt>
      <trkpt lat="46.39353" lon="5.32887">
        <ele>230.6</ele>
        <time>2022-05-04T12:51:38Z</time>
      </trkpt>
      <trkpt lat="46.39351" lon="5.32894">
        <ele>230.2</ele>
        <time>2022-05-04T12:51:39Z</time>
      </trkpt>
      <trkpt lat="46.39349" lon="5.3291">
        <ele>229.8</ele>
        <time>2022-05-04T12:51:41Z</time>
      </trkpt>
      <trkpt lat="46.3935" lon="5.3292">
        <ele>229.6</ele>
        <time>2022-05-04T12:51:42Z</time>
      </trkpt>
      <trkpt lat="46.39351" lon="5.3293">
        <ele>229.2</ele>
        <time>2022-05-04T12:51:43Z</time>
      </trkpt>
      <trkpt lat="46.39354" lon="5.3294">
        <ele>229</ele>
        <time>2022-05-04T12:51:44Z</time>
      </trkpt>
      <trkpt lat="46.39359" lon="5.3296">
        <ele>228.4</ele>
        <time>2022-05-04T12:51:46Z</time>
      </trkpt>
      <trkpt lat="46.39366" lon="5.32999">
        <ele>227.8</ele>
        <time>2022-05-04T12:51:50Z</time>
      </trkpt>
      <trkpt lat="46.39368" lon="5.33021">
        <ele>227.4</ele>
        <time>2022-05-04T12:51:52Z</time>
      </trkpt>
      <trkpt lat="46.39366" lon="5.33042">
        <ele>227</ele>
        <time>2022-05-04T12:51:54Z</time>
      </trkpt>
      <trkpt lat="46.39359" lon="5.33061">
        <ele>227</ele>
        <time>2022-05-04T12:51:56Z</time>
      </trkpt>
      <trkpt lat="46.39355" lon="5.33069">
        <ele>227</ele>
        <time>2022-05-04T12:51:57Z</time>
      </trkpt>
      <trkpt lat="46.39323" lon="5.33112">
        <ele>226.8</ele>
        <time>2022-05-04T12:52:03Z</time>
      </trkpt>
      <trkpt lat="46.39307" lon="5.33133">
        <ele>226.6</ele>
        <time>2022-05-04T12:52:06Z</time>
      </trkpt>
      <trkpt lat="46.39288" lon="5.33161">
        <ele>226.4</ele>
        <time>2022-05-04T12:52:10Z</time>
      </trkpt>
      <trkpt lat="46.39253" lon="5.33219">
        <ele>226.2</ele>
        <time>2022-05-04T12:52:18Z</time>
      </trkpt>
      <trkpt lat="46.39225" lon="5.33261">
        <ele>226.8</ele>
        <time>2022-05-04T12:52:25Z</time>
      </trkpt>
      <trkpt lat="46.39219" lon="5.33272">
        <ele>227.2</ele>
        <time>2022-05-04T12:52:27Z</time>
      </trkpt>
      <trkpt lat="46.39208" lon="5.33287">
        <ele>227.8</ele>
        <time>2022-05-04T12:52:30Z</time>
      </trkpt>
      <trkpt lat="46.39204" lon="5.33292">
        <ele>228</ele>
        <time>2022-05-04T12:52:31Z</time>
      </trkpt>
      <trkpt lat="46.39188" lon="5.33319">
        <ele>229</ele>
        <time>2022-05-04T12:52:36Z</time>
      </trkpt>
      <trkpt lat="46.39182" lon="5.33333">
        <ele>229.4</ele>
        <time>2022-05-04T12:52:38Z</time>
      </trkpt>
      <trkpt lat="46.39171" lon="5.3336">
        <ele>230</ele>
        <time>2022-05-04T12:52:42Z</time>
      </trkpt>
      <trkpt lat="46.39166" lon="5.33373">
        <ele>230.4</ele>
        <time>2022-05-04T12:52:44Z</time>
      </trkpt>
      <trkpt lat="46.3916" lon="5.33388">
        <ele>230.8</ele>
        <time>2022-05-04T12:52:46Z</time>
      </trkpt>
      <trkpt lat="46.39155" lon="5.33403">
        <ele>231.2</ele>
        <time>2022-05-04T12:52:48Z</time>
      </trkpt>
      <trkpt lat="46.3914" lon="5.3344">
        <ele>231.6</ele>
        <time>2022-05-04T12:52:53Z</time>
      </trkpt>
      <trkpt lat="46.39116" lon="5.3349">
        <ele>232.4</ele>
        <time>2022-05-04T12:53:00Z</time>
      </trkpt>
      <trkpt lat="46.3909" lon="5.33537">
        <ele>233</ele>
        <time>2022-05-04T12:53:07Z</time>
      </trkpt>
      <trkpt lat="46.39075" lon="5.33563">
        <ele>233.6</ele>
        <time>2022-05-04T12:53:11Z</time>
      </trkpt>
      <trkpt lat="46.39059" lon="5.33587">
        <ele>234.2</ele>
        <time>2022-05-04T12:53:15Z</time>
      </trkpt>
      <trkpt lat="46.39051" lon="5.336">
        <ele>234.8</ele>
        <time>2022-05-04T12:53:17Z</time>
      </trkpt>
      <trkpt lat="46.39032" lon="5.33624">
        <ele>235.2</ele>
        <time>2022-05-04T12:53:21Z</time>
      </trkpt>
      <trkpt lat="46.39028" lon="5.33631">
        <ele>235.2</ele>
        <time>2022-05-04T12:53:22Z</time>
      </trkpt>
      <trkpt lat="46.39008" lon="5.33664">
        <ele>235.8</ele>
        <time>2022-05-04T12:53:27Z</time>
      </trkpt>
      <trkpt lat="46.38997" lon="5.33683">
        <ele>236.6</ele>
        <time>2022-05-04T12:53:30Z</time>
      </trkpt>
      <trkpt lat="46.38987" lon="5.33701">
        <ele>236.8</ele>
        <time>2022-05-04T12:53:33Z</time>
      </trkpt>
      <trkpt lat="46.38985" lon="5.33707">
        <ele>237</ele>
        <time>2022-05-04T12:53:34Z</time>
      </trkpt>
      <trkpt lat="46.38982" lon="5.33713">
        <ele>237.4</ele>
        <time>2022-05-04T12:53:35Z</time>
      </trkpt>
      <trkpt lat="46.38977" lon="5.33723">
        <ele>238.2</ele>
        <time>2022-05-04T12:53:37Z</time>
      </trkpt>
      <trkpt lat="46.38974" lon="5.33729">
        <ele>238.6</ele>
        <time>2022-05-04T12:53:38Z</time>
      </trkpt>
      <trkpt lat="46.38972" lon="5.33735">
        <ele>238.8</ele>
        <time>2022-05-04T12:53:39Z</time>
      </trkpt>
      <trkpt lat="46.38967" lon="5.33747">
        <ele>239.4</ele>
        <time>2022-05-04T12:53:41Z</time>
      </trkpt>
      <trkpt lat="46.38955" lon="5.33769">
        <ele>240.2</ele>
        <time>2022-05-04T12:53:45Z</time>
      </trkpt>
      <trkpt lat="46.38953" lon="5.33776">
        <ele>240.4</ele>
        <time>2022-05-04T12:53:46Z</time>
      </trkpt>
      <trkpt lat="46.3895" lon="5.33781">
        <ele>240.6</ele>
        <time>2022-05-04T12:53:47Z</time>
      </trkpt>
      <trkpt lat="46.38941" lon="5.33795">
        <ele>241.2</ele>
        <time>2022-05-04T12:53:50Z</time>
      </trkpt>
      <trkpt lat="46.38938" lon="5.338">
        <ele>241.4</ele>
        <time>2022-05-04T12:53:51Z</time>
      </trkpt>
      <trkpt lat="46.38932" lon="5.33809">
        <ele>242</ele>
        <time>2022-05-04T12:53:53Z</time>
      </trkpt>
      <trkpt lat="46.38927" lon="5.33819">
        <ele>242.6</ele>
        <time>2022-05-04T12:53:55Z</time>
      </trkpt>
      <trkpt lat="46.38924" lon="5.33823">
        <ele>242.6</ele>
        <time>2022-05-04T12:53:56Z</time>
      </trkpt>
      <trkpt lat="46.38918" lon="5.33831">
        <ele>243.6</ele>
        <time>2022-05-04T12:53:58Z</time>
      </trkpt>
      <trkpt lat="46.38912" lon="5.33841">
        <ele>244.2</ele>
        <time>2022-05-04T12:54:00Z</time>
      </trkpt>
      <trkpt lat="46.3891" lon="5.33846">
        <ele>244.4</ele>
        <time>2022-05-04T12:54:01Z</time>
      </trkpt>
      <trkpt lat="46.38907" lon="5.3385">
        <ele>244.4</ele>
        <time>2022-05-04T12:54:02Z</time>
      </trkpt>
      <trkpt lat="46.38901" lon="5.33858">
        <ele>244.6</ele>
        <time>2022-05-04T12:54:04Z</time>
      </trkpt>
      <trkpt lat="46.38895" lon="5.33866">
        <ele>244.8</ele>
        <time>2022-05-04T12:54:06Z</time>
      </trkpt>
      <trkpt lat="46.38879" lon="5.3389">
        <ele>245.8</ele>
        <time>2022-05-04T12:54:12Z</time>
      </trkpt>
      <trkpt lat="46.38873" lon="5.33899">
        <ele>246.2</ele>
        <time>2022-05-04T12:54:14Z</time>
      </trkpt>
      <trkpt lat="46.38866" lon="5.33916">
        <ele>247.2</ele>
        <time>2022-05-04T12:54:18Z</time>
      </trkpt>
      <trkpt lat="46.38864" lon="5.3392">
        <ele>247.6</ele>
        <time>2022-05-04T12:54:19Z</time>
      </trkpt>
      <trkpt lat="46.38853" lon="5.33939">
        <ele>248.2</ele>
        <time>2022-05-04T12:54:24Z</time>
      </trkpt>
      <trkpt lat="46.38844" lon="5.33952">
        <ele>249.2</ele>
        <time>2022-05-04T12:54:28Z</time>
      </trkpt>
      <trkpt lat="46.38842" lon="5.33956">
        <ele>249.4</ele>
        <time>2022-05-04T12:54:29Z</time>
      </trkpt>
      <trkpt lat="46.38838" lon="5.33964">
        <ele>249.8</ele>
        <time>2022-05-04T12:54:31Z</time>
      </trkpt>
      <trkpt lat="46.38833" lon="5.33976">
        <ele>250.4</ele>
        <time>2022-05-04T12:54:34Z</time>
      </trkpt>
      <trkpt lat="46.3883" lon="5.33983">
        <ele>250.8</ele>
        <time>2022-05-04T12:54:36Z</time>
      </trkpt>
      <trkpt lat="46.38824" lon="5.33993">
        <ele>251.4</ele>
        <time>2022-05-04T12:54:39Z</time>
      </trkpt>
      <trkpt lat="46.38817" lon="5.34004">
        <ele>252</ele>
        <time>2022-05-04T12:54:42Z</time>
      </trkpt>
      <trkpt lat="46.38809" lon="5.34021">
        <ele>252.6</ele>
        <time>2022-05-04T12:54:46Z</time>
      </trkpt>
      <trkpt lat="46.38801" lon="5.34038">
        <ele>253.2</ele>
        <time>2022-05-04T12:54:50Z</time>
      </trkpt>
      <trkpt lat="46.38788" lon="5.34058">
        <ele>253.6</ele>
        <time>2022-05-04T12:54:55Z</time>
      </trkpt>
      <trkpt lat="46.38783" lon="5.34067">
        <ele>254.2</ele>
        <time>2022-05-04T12:54:57Z</time>
      </trkpt>
      <trkpt lat="46.38778" lon="5.34076">
        <ele>254.4</ele>
        <time>2022-05-04T12:54:59Z</time>
      </trkpt>
      <trkpt lat="46.3877" lon="5.3409">
        <ele>254.8</ele>
        <time>2022-05-04T12:55:02Z</time>
      </trkpt>
      <trkpt lat="46.38757" lon="5.34113">
        <ele>255.6</ele>
        <time>2022-05-04T12:55:07Z</time>
      </trkpt>
      <trkpt lat="46.38751" lon="5.34122">
        <ele>255.8</ele>
        <time>2022-05-04T12:55:09Z</time>
      </trkpt>
      <trkpt lat="46.38741" lon="5.34141">
        <ele>256.6</ele>
        <time>2022-05-04T12:55:14Z</time>
      </trkpt>
      <trkpt lat="46.38739" lon="5.34146">
        <ele>257</ele>
        <time>2022-05-04T12:55:15Z</time>
      </trkpt>
      <trkpt lat="46.38732" lon="5.3416">
        <ele>258.2</ele>
        <time>2022-05-04T12:55:19Z</time>
      </trkpt>
      <trkpt lat="46.3873" lon="5.3417">
        <ele>258.4</ele>
        <time>2022-05-04T12:55:21Z</time>
      </trkpt>
      <trkpt lat="46.38727" lon="5.34179">
        <ele>258.8</ele>
        <time>2022-05-04T12:55:23Z</time>
      </trkpt>
      <trkpt lat="46.38723" lon="5.34188">
        <ele>259.4</ele>
        <time>2022-05-04T12:55:25Z</time>
      </trkpt>
      <trkpt lat="46.38722" lon="5.34192">
        <ele>259.8</ele>
        <time>2022-05-04T12:55:26Z</time>
      </trkpt>
      <trkpt lat="46.38718" lon="5.342">
        <ele>260.8</ele>
        <time>2022-05-04T12:55:28Z</time>
      </trkpt>
      <trkpt lat="46.38706" lon="5.34223">
        <ele>261.8</ele>
        <time>2022-05-04T12:55:33Z</time>
      </trkpt>
      <trkpt lat="46.38692" lon="5.34238">
        <ele>263.2</ele>
        <time>2022-05-04T12:55:38Z</time>
      </trkpt>
      <trkpt lat="46.38683" lon="5.34244">
        <ele>263.8</ele>
        <time>2022-05-04T12:55:41Z</time>
      </trkpt>
      <trkpt lat="46.38674" lon="5.3425">
        <ele>264.6</ele>
        <time>2022-05-04T12:55:44Z</time>
      </trkpt>
      <trkpt lat="46.38652" lon="5.34263">
        <ele>265.6</ele>
        <time>2022-05-04T12:55:51Z</time>
      </trkpt>
      <trkpt lat="46.38641" lon="5.3427">
        <ele>266.6</ele>
        <time>2022-05-04T12:55:55Z</time>
      </trkpt>
      <trkpt lat="46.38629" lon="5.34276">
        <ele>267.4</ele>
        <time>2022-05-04T12:55:59Z</time>
      </trkpt>
      <trkpt lat="46.38626" lon="5.34278">
        <ele>267.6</ele>
        <time>2022-05-04T12:56:00Z</time>
      </trkpt>
      <trkpt lat="46.38612" lon="5.34287">
        <ele>268.6</ele>
        <time>2022-05-04T12:56:05Z</time>
      </trkpt>
      <trkpt lat="46.386" lon="5.34293">
        <ele>269.2</ele>
        <time>2022-05-04T12:56:09Z</time>
      </trkpt>
      <trkpt lat="46.38586" lon="5.343">
        <ele>269.8</ele>
        <time>2022-05-04T12:56:14Z</time>
      </trkpt>
      <trkpt lat="46.38574" lon="5.34305">
        <ele>271</ele>
        <time>2022-05-04T12:56:18Z</time>
      </trkpt>
      <trkpt lat="46.38561" lon="5.34313">
        <ele>271.8</ele>
        <time>2022-05-04T12:56:23Z</time>
      </trkpt>
      <trkpt lat="46.38558" lon="5.34314">
        <ele>272</ele>
        <time>2022-05-04T12:56:24Z</time>
      </trkpt>
      <trkpt lat="46.38555" lon="5.34315">
        <ele>272.2</ele>
        <time>2022-05-04T12:56:25Z</time>
      </trkpt>
      <trkpt lat="46.38547" lon="5.34318">
        <ele>273</ele>
        <time>2022-05-04T12:56:28Z</time>
      </trkpt>
      <trkpt lat="46.38541" lon="5.34321">
        <ele>273.4</ele>
        <time>2022-05-04T12:56:30Z</time>
      </trkpt>
      <trkpt lat="46.38533" lon="5.34325">
        <ele>274</ele>
        <time>2022-05-04T12:56:33Z</time>
      </trkpt>
      <trkpt lat="46.38518" lon="5.34333">
        <ele>275.2</ele>
        <time>2022-05-04T12:56:38Z</time>
      </trkpt>
      <trkpt lat="46.38504" lon="5.34341">
        <ele>276.8</ele>
        <time>2022-05-04T12:56:43Z</time>
      </trkpt>
      <trkpt lat="46.38495" lon="5.34348">
        <ele>277.6</ele>
        <time>2022-05-04T12:56:46Z</time>
      </trkpt>
      <trkpt lat="46.38492" lon="5.34351">
        <ele>277.8</ele>
        <time>2022-05-04T12:56:47Z</time>
      </trkpt>
      <trkpt lat="46.38477" lon="5.34361">
        <ele>278.8</ele>
        <time>2022-05-04T12:56:52Z</time>
      </trkpt>
      <trkpt lat="46.38475" lon="5.34363">
        <ele>279</ele>
        <time>2022-05-04T12:56:53Z</time>
      </trkpt>
      <trkpt lat="46.38456" lon="5.34375">
        <ele>280</ele>
        <time>2022-05-04T12:56:59Z</time>
      </trkpt>
      <trkpt lat="46.38448" lon="5.34382">
        <ele>280.6</ele>
        <time>2022-05-04T12:57:02Z</time>
      </trkpt>
      <trkpt lat="46.38438" lon="5.34397">
        <ele>281.4</ele>
        <time>2022-05-04T12:57:06Z</time>
      </trkpt>
      <trkpt lat="46.38436" lon="5.34407">
        <ele>282</ele>
        <time>2022-05-04T12:57:08Z</time>
      </trkpt>
      <trkpt lat="46.38435" lon="5.34434">
        <ele>282.6</ele>
        <time>2022-05-04T12:57:13Z</time>
      </trkpt>
      <trkpt lat="46.38436" lon="5.34445">
        <ele>282.8</ele>
        <time>2022-05-04T12:57:15Z</time>
      </trkpt>
      <trkpt lat="46.38441" lon="5.34463">
        <ele>283.8</ele>
        <time>2022-05-04T12:57:19Z</time>
      </trkpt>
      <trkpt lat="46.38446" lon="5.34476">
        <ele>284.6</ele>
        <time>2022-05-04T12:57:22Z</time>
      </trkpt>
      <trkpt lat="46.38449" lon="5.34485">
        <ele>285</ele>
        <time>2022-05-04T12:57:24Z</time>
      </trkpt>
      <trkpt lat="46.38457" lon="5.34508">
        <ele>286.4</ele>
        <time>2022-05-04T12:57:29Z</time>
      </trkpt>
      <trkpt lat="46.38461" lon="5.34517">
        <ele>286.8</ele>
        <time>2022-05-04T12:57:31Z</time>
      </trkpt>
      <trkpt lat="46.38466" lon="5.34529">
        <ele>287.6</ele>
        <time>2022-05-04T12:57:34Z</time>
      </trkpt>
      <trkpt lat="46.38475" lon="5.3455">
        <ele>288.6</ele>
        <time>2022-05-04T12:57:39Z</time>
      </trkpt>
      <trkpt lat="46.38479" lon="5.34569">
        <ele>289.4</ele>
        <time>2022-05-04T12:57:44Z</time>
      </trkpt>
      <trkpt lat="46.38479" lon="5.34571">
        <ele>289.6</ele>
        <time>2022-05-04T12:57:45Z</time>
      </trkpt>
      <trkpt lat="46.38478" lon="5.34575">
        <ele>290.6</ele>
        <time>2022-05-04T12:57:47Z</time>
      </trkpt>
      <trkpt lat="46.38477" lon="5.34576">
        <ele>290.6</ele>
        <time>2022-05-04T12:57:48Z</time>
      </trkpt>
      <trkpt lat="46.38476" lon="5.34576">
        <ele>290.8</ele>
        <time>2022-05-04T12:57:49Z</time>
      </trkpt>
      <trkpt lat="46.38462" lon="5.34578">
        <ele>291.6</ele>
        <time>2022-05-04T12:57:55Z</time>
      </trkpt>
      <trkpt lat="46.38454" lon="5.34577">
        <ele>292</ele>
        <time>2022-05-04T12:57:57Z</time>
      </trkpt>
      <trkpt lat="46.38439" lon="5.34579">
        <ele>292.4</ele>
        <time>2022-05-04T12:58:01Z</time>
      </trkpt>
      <trkpt lat="46.38428" lon="5.3458">
        <ele>292.8</ele>
        <time>2022-05-04T12:58:04Z</time>
      </trkpt>
      <trkpt lat="46.38421" lon="5.34585">
        <ele>293.2</ele>
        <time>2022-05-04T12:58:06Z</time>
      </trkpt>
      <trkpt lat="46.38418" lon="5.3459">
        <ele>293.4</ele>
        <time>2022-05-04T12:58:07Z</time>
      </trkpt>
      <trkpt lat="46.38411" lon="5.34609">
        <ele>294.2</ele>
        <time>2022-05-04T12:58:11Z</time>
      </trkpt>
      <trkpt lat="46.38409" lon="5.34618">
        <ele>294.4</ele>
        <time>2022-05-04T12:58:13Z</time>
      </trkpt>
      <trkpt lat="46.38403" lon="5.34634">
        <ele>295.4</ele>
        <time>2022-05-04T12:58:17Z</time>
      </trkpt>
      <trkpt lat="46.38401" lon="5.34642">
        <ele>296</ele>
        <time>2022-05-04T12:58:19Z</time>
      </trkpt>
      <trkpt lat="46.384" lon="5.34646">
        <ele>296.6</ele>
        <time>2022-05-04T12:58:20Z</time>
      </trkpt>
      <trkpt lat="46.38396" lon="5.34654">
        <ele>297.2</ele>
        <time>2022-05-04T12:58:22Z</time>
      </trkpt>
      <trkpt lat="46.38393" lon="5.34656">
        <ele>297.6</ele>
        <time>2022-05-04T12:58:23Z</time>
      </trkpt>
      <trkpt lat="46.3839" lon="5.34659">
        <ele>297.8</ele>
        <time>2022-05-04T12:58:24Z</time>
      </trkpt>
      <trkpt lat="46.38383" lon="5.34663">
        <ele>298.8</ele>
        <time>2022-05-04T12:58:27Z</time>
      </trkpt>
      <trkpt lat="46.3837" lon="5.34669">
        <ele>299.6</ele>
        <time>2022-05-04T12:58:30Z</time>
      </trkpt>
      <trkpt lat="46.38368" lon="5.34668">
        <ele>300</ele>
        <time>2022-05-04T12:58:31Z</time>
      </trkpt>
      <trkpt lat="46.3836" lon="5.34669">
        <ele>300.4</ele>
        <time>2022-05-04T12:58:33Z</time>
      </trkpt>
      <trkpt lat="46.38355" lon="5.34665">
        <ele>300.8</ele>
        <time>2022-05-04T12:58:35Z</time>
      </trkpt>
      <trkpt lat="46.38353" lon="5.34661">
        <ele>301.2</ele>
        <time>2022-05-04T12:58:36Z</time>
      </trkpt>
      <trkpt lat="46.3835" lon="5.34657">
        <ele>301.4</ele>
        <time>2022-05-04T12:58:37Z</time>
      </trkpt>
      <trkpt lat="46.38341" lon="5.34651">
        <ele>301.6</ele>
        <time>2022-05-04T12:58:39Z</time>
      </trkpt>
      <trkpt lat="46.38336" lon="5.34651">
        <ele>301.6</ele>
        <time>2022-05-04T12:58:40Z</time>
      </trkpt>
      <trkpt lat="46.38331" lon="5.34653">
        <ele>301.6</ele>
        <time>2022-05-04T12:58:41Z</time>
      </trkpt>
      <trkpt lat="46.38323" lon="5.34661">
        <ele>301.6</ele>
        <time>2022-05-04T12:58:43Z</time>
      </trkpt>
      <trkpt lat="46.38317" lon="5.34669">
        <ele>301.6</ele>
        <time>2022-05-04T12:58:45Z</time>
      </trkpt>
      <trkpt lat="46.38306" lon="5.34677">
        <ele>301.6</ele>
        <time>2022-05-04T12:58:48Z</time>
      </trkpt>
      <trkpt lat="46.38283" lon="5.34685">
        <ele>302.2</ele>
        <time>2022-05-04T12:58:53Z</time>
      </trkpt>
      <trkpt lat="46.38273" lon="5.34687">
        <ele>302.4</ele>
        <time>2022-05-04T12:58:55Z</time>
      </trkpt>
      <trkpt lat="46.38243" lon="5.34697">
        <ele>303</ele>
        <time>2022-05-04T12:59:01Z</time>
      </trkpt>
      <trkpt lat="46.38237" lon="5.34699">
        <ele>303</ele>
        <time>2022-05-04T12:59:02Z</time>
      </trkpt>
      <trkpt lat="46.38227" lon="5.34701">
        <ele>303.2</ele>
        <time>2022-05-04T12:59:04Z</time>
      </trkpt>
      <trkpt lat="46.38216" lon="5.34703">
        <ele>303.2</ele>
        <time>2022-05-04T12:59:06Z</time>
      </trkpt>
      <trkpt lat="46.38211" lon="5.34705">
        <ele>303.2</ele>
        <time>2022-05-04T12:59:07Z</time>
      </trkpt>
      <trkpt lat="46.38167" lon="5.3472">
        <ele>303</ele>
        <time>2022-05-04T12:59:15Z</time>
      </trkpt>
      <trkpt lat="46.38147" lon="5.34725">
        <ele>302.8</ele>
        <time>2022-05-04T12:59:19Z</time>
      </trkpt>
      <trkpt lat="46.38143" lon="5.34724">
        <ele>302.8</ele>
        <time>2022-05-04T12:59:20Z</time>
      </trkpt>
      <trkpt lat="46.3814" lon="5.3472">
        <ele>302.6</ele>
        <time>2022-05-04T12:59:21Z</time>
      </trkpt>
      <trkpt lat="46.38136" lon="5.34708">
        <ele>302.6</ele>
        <time>2022-05-04T12:59:23Z</time>
      </trkpt>
      <trkpt lat="46.38127" lon="5.34677">
        <ele>302</ele>
        <time>2022-05-04T12:59:27Z</time>
      </trkpt>
      <trkpt lat="46.38112" lon="5.34625">
        <ele>301.2</ele>
        <time>2022-05-04T12:59:33Z</time>
      </trkpt>
      <trkpt lat="46.38106" lon="5.34607">
        <ele>301</ele>
        <time>2022-05-04T12:59:35Z</time>
      </trkpt>
      <trkpt lat="46.38094" lon="5.34572">
        <ele>300.2</ele>
        <time>2022-05-04T12:59:39Z</time>
      </trkpt>
      <trkpt lat="46.3809" lon="5.34565">
        <ele>300.2</ele>
        <time>2022-05-04T12:59:40Z</time>
      </trkpt>
      <trkpt lat="46.38085" lon="5.34559">
        <ele>300</ele>
        <time>2022-05-04T12:59:41Z</time>
      </trkpt>
      <trkpt lat="46.38081" lon="5.34555">
        <ele>299.8</ele>
        <time>2022-05-04T12:59:42Z</time>
      </trkpt>
      <trkpt lat="46.38075" lon="5.34553">
        <ele>299.8</ele>
        <time>2022-05-04T12:59:43Z</time>
      </trkpt>
      <trkpt lat="46.38053" lon="5.34559">
        <ele>299.4</ele>
        <time>2022-05-04T12:59:47Z</time>
      </trkpt>
      <trkpt lat="46.38015" lon="5.34572">
        <ele>299.6</ele>
        <time>2022-05-04T12:59:54Z</time>
      </trkpt>
      <trkpt lat="46.3801" lon="5.34584">
        <ele>299.6</ele>
        <time>2022-05-04T12:59:56Z</time>
      </trkpt>
      <trkpt lat="46.38008" lon="5.34592">
        <ele>299.8</ele>
        <time>2022-05-04T12:59:57Z</time>
      </trkpt>
      <trkpt lat="46.37996" lon="5.3464">
        <ele>299.6</ele>
        <time>2022-05-04T13:00:02Z</time>
      </trkpt>
      <trkpt lat="46.37985" lon="5.34684">
        <ele>298.8</ele>
        <time>2022-05-04T13:00:06Z</time>
      </trkpt>
      <trkpt lat="46.3798" lon="5.34705">
        <ele>298.4</ele>
        <time>2022-05-04T13:00:08Z</time>
      </trkpt>
      <trkpt lat="46.37972" lon="5.34736">
        <ele>297.6</ele>
        <time>2022-05-04T13:00:11Z</time>
      </trkpt>
      <trkpt lat="46.37961" lon="5.34782">
        <ele>297</ele>
        <time>2022-05-04T13:00:16Z</time>
      </trkpt>
      <trkpt lat="46.3795" lon="5.34826">
        <ele>297.4</ele>
        <time>2022-05-04T13:00:22Z</time>
      </trkpt>
      <trkpt lat="46.3794" lon="5.34861">
        <ele>298.8</ele>
        <time>2022-05-04T13:00:28Z</time>
      </trkpt>
      <trkpt lat="46.37938" lon="5.34867">
        <ele>299</ele>
        <time>2022-05-04T13:00:29Z</time>
      </trkpt>
      <trkpt lat="46.37928" lon="5.34885">
        <ele>300.2</ele>
        <time>2022-05-04T13:00:33Z</time>
      </trkpt>
      <trkpt lat="46.37922" lon="5.34894">
        <ele>300.8</ele>
        <time>2022-05-04T13:00:35Z</time>
      </trkpt>
      <trkpt lat="46.37916" lon="5.34901">
        <ele>301.4</ele>
        <time>2022-05-04T13:00:37Z</time>
      </trkpt>
      <trkpt lat="46.3791" lon="5.34908">
        <ele>301.8</ele>
        <time>2022-05-04T13:00:39Z</time>
      </trkpt>
      <trkpt lat="46.379" lon="5.34918">
        <ele>302.6</ele>
        <time>2022-05-04T13:00:42Z</time>
      </trkpt>
      <trkpt lat="46.37898" lon="5.34921">
        <ele>302.6</ele>
        <time>2022-05-04T13:00:43Z</time>
      </trkpt>
      <trkpt lat="46.37889" lon="5.34932">
        <ele>303.6</ele>
        <time>2022-05-04T13:00:46Z</time>
      </trkpt>
      <trkpt lat="46.37879" lon="5.34942">
        <ele>304.6</ele>
        <time>2022-05-04T13:00:49Z</time>
      </trkpt>
      <trkpt lat="46.37873" lon="5.3495">
        <ele>305.2</ele>
        <time>2022-05-04T13:00:51Z</time>
      </trkpt>
      <trkpt lat="46.37867" lon="5.34961">
        <ele>306</ele>
        <time>2022-05-04T13:00:54Z</time>
      </trkpt>
      <trkpt lat="46.37862" lon="5.34969">
        <ele>306.6</ele>
        <time>2022-05-04T13:00:56Z</time>
      </trkpt>
      <trkpt lat="46.37856" lon="5.34982">
        <ele>307.2</ele>
        <time>2022-05-04T13:00:59Z</time>
      </trkpt>
      <trkpt lat="46.37848" lon="5.34999">
        <ele>308.4</ele>
        <time>2022-05-04T13:01:03Z</time>
      </trkpt>
      <trkpt lat="46.37845" lon="5.35008">
        <ele>308.8</ele>
        <time>2022-05-04T13:01:05Z</time>
      </trkpt>
      <trkpt lat="46.37839" lon="5.3503">
        <ele>309.6</ele>
        <time>2022-05-04T13:01:10Z</time>
      </trkpt>
      <trkpt lat="46.3783" lon="5.35057">
        <ele>310.6</ele>
        <time>2022-05-04T13:01:16Z</time>
      </trkpt>
      <trkpt lat="46.37821" lon="5.35078">
        <ele>311.8</ele>
        <time>2022-05-04T13:01:21Z</time>
      </trkpt>
      <trkpt lat="46.37814" lon="5.35101">
        <ele>313</ele>
        <time>2022-05-04T13:01:26Z</time>
      </trkpt>
      <trkpt lat="46.37812" lon="5.3511">
        <ele>313.2</ele>
        <time>2022-05-04T13:01:28Z</time>
      </trkpt>
      <trkpt lat="46.37808" lon="5.35129">
        <ele>314</ele>
        <time>2022-05-04T13:01:32Z</time>
      </trkpt>
      <trkpt lat="46.37803" lon="5.35151">
        <ele>314.8</ele>
        <time>2022-05-04T13:01:37Z</time>
      </trkpt>
      <trkpt lat="46.37801" lon="5.3516">
        <ele>315</ele>
        <time>2022-05-04T13:01:39Z</time>
      </trkpt>
      <trkpt lat="46.37798" lon="5.35178">
        <ele>316</ele>
        <time>2022-05-04T13:01:43Z</time>
      </trkpt>
      <trkpt lat="46.37793" lon="5.35196">
        <ele>317</ele>
        <time>2022-05-04T13:01:47Z</time>
      </trkpt>
      <trkpt lat="46.37791" lon="5.35201">
        <ele>317.2</ele>
        <time>2022-05-04T13:01:48Z</time>
      </trkpt>
      <trkpt lat="46.37781" lon="5.35227">
        <ele>318.2</ele>
        <time>2022-05-04T13:01:54Z</time>
      </trkpt>
      <trkpt lat="46.37779" lon="5.35237">
        <ele>318.8</ele>
        <time>2022-05-04T13:01:56Z</time>
      </trkpt>
      <trkpt lat="46.37777" lon="5.35252">
        <ele>319.4</ele>
        <time>2022-05-04T13:01:59Z</time>
      </trkpt>
      <trkpt lat="46.37778" lon="5.35263">
        <ele>319.6</ele>
        <time>2022-05-04T13:02:01Z</time>
      </trkpt>
      <trkpt lat="46.37783" lon="5.35284">
        <ele>320.4</ele>
        <time>2022-05-04T13:02:05Z</time>
      </trkpt>
      <trkpt lat="46.37791" lon="5.35313">
        <ele>321</ele>
        <time>2022-05-04T13:02:11Z</time>
      </trkpt>
      <trkpt lat="46.37793" lon="5.35324">
        <ele>321.4</ele>
        <time>2022-05-04T13:02:13Z</time>
      </trkpt>
      <trkpt lat="46.37793" lon="5.35345">
        <ele>322.2</ele>
        <time>2022-05-04T13:02:17Z</time>
      </trkpt>
      <trkpt lat="46.3779" lon="5.35361">
        <ele>322.6</ele>
        <time>2022-05-04T13:02:20Z</time>
      </trkpt>
      <trkpt lat="46.37783" lon="5.35379">
        <ele>323.6</ele>
        <time>2022-05-04T13:02:24Z</time>
      </trkpt>
      <trkpt lat="46.37766" lon="5.35392">
        <ele>324.6</ele>
        <time>2022-05-04T13:02:29Z</time>
      </trkpt>
      <trkpt lat="46.37759" lon="5.35392">
        <ele>325</ele>
        <time>2022-05-04T13:02:31Z</time>
      </trkpt>
      <trkpt lat="46.37752" lon="5.35388">
        <ele>325.2</ele>
        <time>2022-05-04T13:02:33Z</time>
      </trkpt>
      <trkpt lat="46.37737" lon="5.35376">
        <ele>326.2</ele>
        <time>2022-05-04T13:02:38Z</time>
      </trkpt>
      <trkpt lat="46.37734" lon="5.35375">
        <ele>326.6</ele>
        <time>2022-05-04T13:02:39Z</time>
      </trkpt>
      <trkpt lat="46.37723" lon="5.35376">
        <ele>327.6</ele>
        <time>2022-05-04T13:02:42Z</time>
      </trkpt>
      <trkpt lat="46.37716" lon="5.3538">
        <ele>327.8</ele>
        <time>2022-05-04T13:02:44Z</time>
      </trkpt>
      <trkpt lat="46.37709" lon="5.35397">
        <ele>328.6</ele>
        <time>2022-05-04T13:02:48Z</time>
      </trkpt>
      <trkpt lat="46.37707" lon="5.35417">
        <ele>329.6</ele>
        <time>2022-05-04T13:02:52Z</time>
      </trkpt>
      <trkpt lat="46.37707" lon="5.35428">
        <ele>330.2</ele>
        <time>2022-05-04T13:02:54Z</time>
      </trkpt>
      <trkpt lat="46.37707" lon="5.35444">
        <ele>330.8</ele>
        <time>2022-05-04T13:02:57Z</time>
      </trkpt>
      <trkpt lat="46.37709" lon="5.35475">
        <ele>331.6</ele>
        <time>2022-05-04T13:03:03Z</time>
      </trkpt>
      <trkpt lat="46.37709" lon="5.3548">
        <ele>331.8</ele>
        <time>2022-05-04T13:03:04Z</time>
      </trkpt>
      <trkpt lat="46.37706" lon="5.35517">
        <ele>333</ele>
        <time>2022-05-04T13:03:11Z</time>
      </trkpt>
      <trkpt lat="46.37693" lon="5.35548">
        <ele>334</ele>
        <time>2022-05-04T13:03:18Z</time>
      </trkpt>
      <trkpt lat="46.3769" lon="5.35552">
        <ele>334.2</ele>
        <time>2022-05-04T13:03:19Z</time>
      </trkpt>
      <trkpt lat="46.37682" lon="5.35564">
        <ele>335.2</ele>
        <time>2022-05-04T13:03:22Z</time>
      </trkpt>
      <trkpt lat="46.37666" lon="5.35578">
        <ele>336.2</ele>
        <time>2022-05-04T13:03:27Z</time>
      </trkpt>
      <trkpt lat="46.37663" lon="5.3558">
        <ele>336.2</ele>
        <time>2022-05-04T13:03:28Z</time>
      </trkpt>
      <trkpt lat="46.37659" lon="5.35582">
        <ele>336.4</ele>
        <time>2022-05-04T13:03:29Z</time>
      </trkpt>
      <trkpt lat="46.37643" lon="5.35588">
        <ele>337.4</ele>
        <time>2022-05-04T13:03:34Z</time>
      </trkpt>
      <trkpt lat="46.37636" lon="5.3559">
        <ele>338</ele>
        <time>2022-05-04T13:03:36Z</time>
      </trkpt>
      <trkpt lat="46.37628" lon="5.35593">
        <ele>338.6</ele>
        <time>2022-05-04T13:03:38Z</time>
      </trkpt>
      <trkpt lat="46.37614" lon="5.35597">
        <ele>339.6</ele>
        <time>2022-05-04T13:03:42Z</time>
      </trkpt>
      <trkpt lat="46.37595" lon="5.35602">
        <ele>340.4</ele>
        <time>2022-05-04T13:03:47Z</time>
      </trkpt>
      <trkpt lat="46.37592" lon="5.35605">
        <ele>340.6</ele>
        <time>2022-05-04T13:03:48Z</time>
      </trkpt>
      <trkpt lat="46.3758" lon="5.35619">
        <ele>341.4</ele>
        <time>2022-05-04T13:03:52Z</time>
      </trkpt>
      <trkpt lat="46.37575" lon="5.35627">
        <ele>342</ele>
        <time>2022-05-04T13:03:54Z</time>
      </trkpt>
      <trkpt lat="46.37564" lon="5.35651">
        <ele>343</ele>
        <time>2022-05-04T13:03:59Z</time>
      </trkpt>
      <trkpt lat="46.37562" lon="5.35655">
        <ele>343.2</ele>
        <time>2022-05-04T13:04:00Z</time>
      </trkpt>
      <trkpt lat="46.3756" lon="5.3566">
        <ele>343.4</ele>
        <time>2022-05-04T13:04:01Z</time>
      </trkpt>
      <trkpt lat="46.37553" lon="5.35675">
        <ele>344</ele>
        <time>2022-05-04T13:04:04Z</time>
      </trkpt>
      <trkpt lat="46.37545" lon="5.35696">
        <ele>345</ele>
        <time>2022-05-04T13:04:08Z</time>
      </trkpt>
      <trkpt lat="46.37539" lon="5.3571">
        <ele>345.6</ele>
        <time>2022-05-04T13:04:11Z</time>
      </trkpt>
      <trkpt lat="46.37533" lon="5.35726">
        <ele>346.2</ele>
        <time>2022-05-04T13:04:14Z</time>
      </trkpt>
      <trkpt lat="46.37524" lon="5.35746">
        <ele>347.2</ele>
        <time>2022-05-04T13:04:18Z</time>
      </trkpt>
      <trkpt lat="46.37518" lon="5.3576">
        <ele>347.8</ele>
        <time>2022-05-04T13:04:21Z</time>
      </trkpt>
      <trkpt lat="46.37516" lon="5.35765">
        <ele>348.2</ele>
        <time>2022-05-04T13:04:22Z</time>
      </trkpt>
      <trkpt lat="46.37502" lon="5.35788">
        <ele>349.4</ele>
        <time>2022-05-04T13:04:27Z</time>
      </trkpt>
      <trkpt lat="46.37498" lon="5.35792">
        <ele>349.4</ele>
        <time>2022-05-04T13:04:28Z</time>
      </trkpt>
      <trkpt lat="46.37477" lon="5.35813">
        <ele>350.6</ele>
        <time>2022-05-04T13:04:34Z</time>
      </trkpt>
      <trkpt lat="46.3747" lon="5.35819">
        <ele>351</ele>
        <time>2022-05-04T13:04:36Z</time>
      </trkpt>
      <trkpt lat="46.37459" lon="5.35827">
        <ele>351.6</ele>
        <time>2022-05-04T13:04:39Z</time>
      </trkpt>
      <trkpt lat="46.37441" lon="5.3584">
        <ele>352.8</ele>
        <time>2022-05-04T13:04:44Z</time>
      </trkpt>
      <trkpt lat="46.37427" lon="5.3585">
        <ele>353.4</ele>
        <time>2022-05-04T13:04:48Z</time>
      </trkpt>
      <trkpt lat="46.3742" lon="5.35855">
        <ele>353.8</ele>
        <time>2022-05-04T13:04:50Z</time>
      </trkpt>
      <trkpt lat="46.37402" lon="5.35867">
        <ele>355</ele>
        <time>2022-05-04T13:04:55Z</time>
      </trkpt>
      <trkpt lat="46.37399" lon="5.35869">
        <ele>355.2</ele>
        <time>2022-05-04T13:04:56Z</time>
      </trkpt>
      <trkpt lat="46.37385" lon="5.35881">
        <ele>356.2</ele>
        <time>2022-05-04T13:05:00Z</time>
      </trkpt>
      <trkpt lat="46.37376" lon="5.35892">
        <ele>357.2</ele>
        <time>2022-05-04T13:05:03Z</time>
      </trkpt>
      <trkpt lat="46.37374" lon="5.35897">
        <ele>357.4</ele>
        <time>2022-05-04T13:05:04Z</time>
      </trkpt>
      <trkpt lat="46.37369" lon="5.35918">
        <ele>358.4</ele>
        <time>2022-05-04T13:05:08Z</time>
      </trkpt>
      <trkpt lat="46.37366" lon="5.35933">
        <ele>359</ele>
        <time>2022-05-04T13:05:11Z</time>
      </trkpt>
      <trkpt lat="46.37364" lon="5.35944">
        <ele>359.6</ele>
        <time>2022-05-04T13:05:13Z</time>
      </trkpt>
      <trkpt lat="46.37355" lon="5.35983">
        <ele>360.8</ele>
        <time>2022-05-04T13:05:20Z</time>
      </trkpt>
      <trkpt lat="46.37354" lon="5.35988">
        <ele>361</ele>
        <time>2022-05-04T13:05:21Z</time>
      </trkpt>
      <trkpt lat="46.37346" lon="5.36011">
        <ele>362</ele>
        <time>2022-05-04T13:05:25Z</time>
      </trkpt>
      <trkpt lat="46.37338" lon="5.36025">
        <ele>362.8</ele>
        <time>2022-05-04T13:05:28Z</time>
      </trkpt>
      <trkpt lat="46.37331" lon="5.36026">
        <ele>363</ele>
        <time>2022-05-04T13:05:30Z</time>
      </trkpt>
      <trkpt lat="46.37329" lon="5.36025">
        <ele>363</ele>
        <time>2022-05-04T13:05:31Z</time>
      </trkpt>
      <trkpt lat="46.37327" lon="5.36023">
        <ele>363.2</ele>
        <time>2022-05-04T13:05:32Z</time>
      </trkpt>
      <trkpt lat="46.3732" lon="5.36013">
        <ele>364</ele>
        <time>2022-05-04T13:05:35Z</time>
      </trkpt>
      <trkpt lat="46.37311" lon="5.36005">
        <ele>365</ele>
        <time>2022-05-04T13:05:38Z</time>
      </trkpt>
      <trkpt lat="46.37295" lon="5.35997">
        <ele>366.4</ele>
        <time>2022-05-04T13:05:42Z</time>
      </trkpt>
      <trkpt lat="46.3729" lon="5.35996">
        <ele>366.8</ele>
        <time>2022-05-04T13:05:43Z</time>
      </trkpt>
      <trkpt lat="46.37286" lon="5.35996">
        <ele>367</ele>
        <time>2022-05-04T13:05:44Z</time>
      </trkpt>
      <trkpt lat="46.37277" lon="5.36">
        <ele>367.6</ele>
        <time>2022-05-04T13:05:46Z</time>
      </trkpt>
      <trkpt lat="46.3727" lon="5.36005">
        <ele>368.2</ele>
        <time>2022-05-04T13:05:48Z</time>
      </trkpt>
      <trkpt lat="46.37266" lon="5.36008">
        <ele>368.6</ele>
        <time>2022-05-04T13:05:49Z</time>
      </trkpt>
      <trkpt lat="46.3725" lon="5.36023">
        <ele>369.6</ele>
        <time>2022-05-04T13:05:54Z</time>
      </trkpt>
      <trkpt lat="46.37247" lon="5.36027">
        <ele>369.8</ele>
        <time>2022-05-04T13:05:55Z</time>
      </trkpt>
      <trkpt lat="46.37234" lon="5.36041">
        <ele>370.6</ele>
        <time>2022-05-04T13:05:59Z</time>
      </trkpt>
      <trkpt lat="46.37231" lon="5.36045">
        <ele>370.8</ele>
        <time>2022-05-04T13:06:00Z</time>
      </trkpt>
      <trkpt lat="46.37214" lon="5.36055">
        <ele>371.6</ele>
        <time>2022-05-04T13:06:05Z</time>
      </trkpt>
      <trkpt lat="46.37207" lon="5.36059">
        <ele>372</ele>
        <time>2022-05-04T13:06:07Z</time>
      </trkpt>
      <trkpt lat="46.37199" lon="5.36065">
        <ele>372.6</ele>
        <time>2022-05-04T13:06:10Z</time>
      </trkpt>
      <trkpt lat="46.37192" lon="5.3607">
        <ele>373.4</ele>
        <time>2022-05-04T13:06:12Z</time>
      </trkpt>
      <trkpt lat="46.37184" lon="5.36081">
        <ele>374</ele>
        <time>2022-05-04T13:06:15Z</time>
      </trkpt>
      <trkpt lat="46.37179" lon="5.3609">
        <ele>374.8</ele>
        <time>2022-05-04T13:06:17Z</time>
      </trkpt>
      <trkpt lat="46.37174" lon="5.36107">
        <ele>376</ele>
        <time>2022-05-04T13:06:21Z</time>
      </trkpt>
      <trkpt lat="46.37173" lon="5.36112">
        <ele>376.2</ele>
        <time>2022-05-04T13:06:22Z</time>
      </trkpt>
      <trkpt lat="46.37172" lon="5.36128">
        <ele>377.2</ele>
        <time>2022-05-04T13:06:25Z</time>
      </trkpt>
      <trkpt lat="46.37173" lon="5.36144">
        <ele>378</ele>
        <time>2022-05-04T13:06:28Z</time>
      </trkpt>
      <trkpt lat="46.37174" lon="5.36155">
        <ele>378.2</ele>
        <time>2022-05-04T13:06:30Z</time>
      </trkpt>
      <trkpt lat="46.37175" lon="5.36168">
        <ele>378.8</ele>
        <time>2022-05-04T13:06:32Z</time>
      </trkpt>
      <trkpt lat="46.37176" lon="5.36179">
        <ele>379.2</ele>
        <time>2022-05-04T13:06:34Z</time>
      </trkpt>
      <trkpt lat="46.37177" lon="5.36184">
        <ele>379.4</ele>
        <time>2022-05-04T13:06:35Z</time>
      </trkpt>
      <trkpt lat="46.37183" lon="5.36213">
        <ele>380.4</ele>
        <time>2022-05-04T13:06:40Z</time>
      </trkpt>
      <trkpt lat="46.37184" lon="5.36219">
        <ele>380.6</ele>
        <time>2022-05-04T13:06:41Z</time>
      </trkpt>
      <trkpt lat="46.37186" lon="5.36225">
        <ele>380.8</ele>
        <time>2022-05-04T13:06:42Z</time>
      </trkpt>
      <trkpt lat="46.3719" lon="5.36242">
        <ele>381.6</ele>
        <time>2022-05-04T13:06:45Z</time>
      </trkpt>
      <trkpt lat="46.37194" lon="5.36259">
        <ele>382.2</ele>
        <time>2022-05-04T13:06:48Z</time>
      </trkpt>
      <trkpt lat="46.37198" lon="5.3627">
        <ele>382.6</ele>
        <time>2022-05-04T13:06:50Z</time>
      </trkpt>
      <trkpt lat="46.37203" lon="5.36284">
        <ele>383.4</ele>
        <time>2022-05-04T13:06:53Z</time>
      </trkpt>
      <trkpt lat="46.37203" lon="5.36289">
        <ele>383.6</ele>
        <time>2022-05-04T13:06:54Z</time>
      </trkpt>
      <trkpt lat="46.37205" lon="5.36294">
        <ele>383.8</ele>
        <time>2022-05-04T13:06:55Z</time>
      </trkpt>
      <trkpt lat="46.37213" lon="5.36312">
        <ele>384.6</ele>
        <time>2022-05-04T13:06:59Z</time>
      </trkpt>
      <trkpt lat="46.37222" lon="5.36322">
        <ele>384.8</ele>
        <time>2022-05-04T13:07:02Z</time>
      </trkpt>
      <trkpt lat="46.37224" lon="5.36326">
        <ele>385</ele>
        <time>2022-05-04T13:07:03Z</time>
      </trkpt>
      <trkpt lat="46.37231" lon="5.36337">
        <ele>386</ele>
        <time>2022-05-04T13:07:06Z</time>
      </trkpt>
      <trkpt lat="46.37233" lon="5.36342">
        <ele>386</ele>
        <time>2022-05-04T13:07:07Z</time>
      </trkpt>
      <trkpt lat="46.37243" lon="5.36356">
        <ele>386.8</ele>
        <time>2022-05-04T13:07:11Z</time>
      </trkpt>
      <trkpt lat="46.37246" lon="5.36361">
        <ele>387.2</ele>
        <time>2022-05-04T13:07:12Z</time>
      </trkpt>
      <trkpt lat="46.37261" lon="5.36384">
        <ele>388.4</ele>
        <time>2022-05-04T13:07:17Z</time>
      </trkpt>
      <trkpt lat="46.37271" lon="5.36403">
        <ele>389.4</ele>
        <time>2022-05-04T13:07:21Z</time>
      </trkpt>
      <trkpt lat="46.37277" lon="5.36427">
        <ele>390</ele>
        <time>2022-05-04T13:07:24Z</time>
      </trkpt>
      <trkpt lat="46.37283" lon="5.36449">
        <ele>390.6</ele>
        <time>2022-05-04T13:07:28Z</time>
      </trkpt>
      <trkpt lat="46.37286" lon="5.36461">
        <ele>391</ele>
        <time>2022-05-04T13:07:30Z</time>
      </trkpt>
      <trkpt lat="46.3729" lon="5.36478">
        <ele>391.6</ele>
        <time>2022-05-04T13:07:33Z</time>
      </trkpt>
      <trkpt lat="46.37288" lon="5.36489">
        <ele>392</ele>
        <time>2022-05-04T13:07:35Z</time>
      </trkpt>
      <trkpt lat="46.37285" lon="5.36493">
        <ele>392.2</ele>
        <time>2022-05-04T13:07:36Z</time>
      </trkpt>
      <trkpt lat="46.37279" lon="5.36499">
        <ele>392.6</ele>
        <time>2022-05-04T13:07:38Z</time>
      </trkpt>
      <trkpt lat="46.37276" lon="5.365">
        <ele>392.6</ele>
        <time>2022-05-04T13:07:39Z</time>
      </trkpt>
      <trkpt lat="46.37267" lon="5.36504">
        <ele>393.8</ele>
        <time>2022-05-04T13:07:42Z</time>
      </trkpt>
      <trkpt lat="46.37265" lon="5.36505">
        <ele>394</ele>
        <time>2022-05-04T13:07:43Z</time>
      </trkpt>
      <trkpt lat="46.37259" lon="5.36507">
        <ele>394.8</ele>
        <time>2022-05-04T13:07:45Z</time>
      </trkpt>
      <trkpt lat="46.37257" lon="5.36509">
        <ele>395.2</ele>
        <time>2022-05-04T13:07:46Z</time>
      </trkpt>
      <trkpt lat="46.37254" lon="5.3651">
        <ele>395.6</ele>
        <time>2022-05-04T13:07:47Z</time>
      </trkpt>
      <trkpt lat="46.37246" lon="5.36512">
        <ele>396</ele>
        <time>2022-05-04T13:07:49Z</time>
      </trkpt>
      <trkpt lat="46.37237" lon="5.36514">
        <ele>396.2</ele>
        <time>2022-05-04T13:07:51Z</time>
      </trkpt>
      <trkpt lat="46.37229" lon="5.36517">
        <ele>396.8</ele>
        <time>2022-05-04T13:07:53Z</time>
      </trkpt>
      <trkpt lat="46.37225" lon="5.36518">
        <ele>397.2</ele>
        <time>2022-05-04T13:07:54Z</time>
      </trkpt>
      <trkpt lat="46.37216" lon="5.36525">
        <ele>397.6</ele>
        <time>2022-05-04T13:07:56Z</time>
      </trkpt>
      <trkpt lat="46.3721" lon="5.36528">
        <ele>398</ele>
        <time>2022-05-04T13:07:57Z</time>
      </trkpt>
      <trkpt lat="46.37189" lon="5.36542">
        <ele>399</ele>
        <time>2022-05-04T13:08:02Z</time>
      </trkpt>
      <trkpt lat="46.37186" lon="5.36544">
        <ele>399.2</ele>
        <time>2022-05-04T13:08:03Z</time>
      </trkpt>
      <trkpt lat="46.3717" lon="5.36557">
        <ele>400.2</ele>
        <time>2022-05-04T13:08:08Z</time>
      </trkpt>
      <trkpt lat="46.37162" lon="5.36568">
        <ele>400.8</ele>
        <time>2022-05-04T13:08:11Z</time>
      </trkpt>
      <trkpt lat="46.37155" lon="5.36582">
        <ele>401.2</ele>
        <time>2022-05-04T13:08:14Z</time>
      </trkpt>
      <trkpt lat="46.37139" lon="5.36604">
        <ele>402.2</ele>
        <time>2022-05-04T13:08:19Z</time>
      </trkpt>
      <trkpt lat="46.37128" lon="5.36626">
        <ele>403</ele>
        <time>2022-05-04T13:08:23Z</time>
      </trkpt>
      <trkpt lat="46.37126" lon="5.36634">
        <ele>403.4</ele>
        <time>2022-05-04T13:08:24Z</time>
      </trkpt>
      <trkpt lat="46.37124" lon="5.3664">
        <ele>403.6</ele>
        <time>2022-05-04T13:08:25Z</time>
      </trkpt>
      <trkpt lat="46.37122" lon="5.36648">
        <ele>404</ele>
        <time>2022-05-04T13:08:27Z</time>
      </trkpt>
      <trkpt lat="46.37117" lon="5.36652">
        <ele>404.6</ele>
        <time>2022-05-04T13:08:29Z</time>
      </trkpt>
      <trkpt lat="46.37111" lon="5.36664">
        <ele>405.4</ele>
        <time>2022-05-04T13:08:32Z</time>
      </trkpt>
      <trkpt lat="46.37106" lon="5.36673">
        <ele>405.6</ele>
        <time>2022-05-04T13:08:34Z</time>
      </trkpt>
      <trkpt lat="46.37097" lon="5.3669">
        <ele>406.2</ele>
        <time>2022-05-04T13:08:38Z</time>
      </trkpt>
      <trkpt lat="46.37095" lon="5.36695">
        <ele>406.6</ele>
        <time>2022-05-04T13:08:39Z</time>
      </trkpt>
      <trkpt lat="46.37087" lon="5.36718">
        <ele>407.4</ele>
        <time>2022-05-04T13:08:44Z</time>
      </trkpt>
      <trkpt lat="46.37084" lon="5.36727">
        <ele>407.8</ele>
        <time>2022-05-04T13:08:46Z</time>
      </trkpt>
      <trkpt lat="46.37078" lon="5.36742">
        <ele>408.2</ele>
        <time>2022-05-04T13:08:49Z</time>
      </trkpt>
      <trkpt lat="46.37072" lon="5.36768">
        <ele>408.8</ele>
        <time>2022-05-04T13:08:54Z</time>
      </trkpt>
      <trkpt lat="46.37067" lon="5.36807">
        <ele>410</ele>
        <time>2022-05-04T13:09:01Z</time>
      </trkpt>
      <trkpt lat="46.37067" lon="5.36812">
        <ele>410.2</ele>
        <time>2022-05-04T13:09:02Z</time>
      </trkpt>
      <trkpt lat="46.37067" lon="5.36818">
        <ele>410.4</ele>
        <time>2022-05-04T13:09:03Z</time>
      </trkpt>
      <trkpt lat="46.37067" lon="5.36836">
        <ele>411.2</ele>
        <time>2022-05-04T13:09:06Z</time>
      </trkpt>
      <trkpt lat="46.37068" lon="5.36866">
        <ele>412.4</ele>
        <time>2022-05-04T13:09:11Z</time>
      </trkpt>
      <trkpt lat="46.37068" lon="5.36871">
        <ele>412.6</ele>
        <time>2022-05-04T13:09:12Z</time>
      </trkpt>
      <trkpt lat="46.37071" lon="5.36888">
        <ele>413.4</ele>
        <time>2022-05-04T13:09:15Z</time>
      </trkpt>
      <trkpt lat="46.37077" lon="5.36907">
        <ele>414.4</ele>
        <time>2022-05-04T13:09:19Z</time>
      </trkpt>
      <trkpt lat="46.37079" lon="5.36912">
        <ele>414.6</ele>
        <time>2022-05-04T13:09:20Z</time>
      </trkpt>
      <trkpt lat="46.37085" lon="5.36927">
        <ele>415.4</ele>
        <time>2022-05-04T13:09:23Z</time>
      </trkpt>
      <trkpt lat="46.3709" lon="5.36937">
        <ele>415.8</ele>
        <time>2022-05-04T13:09:25Z</time>
      </trkpt>
      <trkpt lat="46.37106" lon="5.36967">
        <ele>417</ele>
        <time>2022-05-04T13:09:31Z</time>
      </trkpt>
      <trkpt lat="46.37108" lon="5.36972">
        <ele>417.2</ele>
        <time>2022-05-04T13:09:32Z</time>
      </trkpt>
      <trkpt lat="46.37119" lon="5.36991">
        <ele>418</ele>
        <time>2022-05-04T13:09:36Z</time>
      </trkpt>
      <trkpt lat="46.3713" lon="5.37008">
        <ele>419</ele>
        <time>2022-05-04T13:09:40Z</time>
      </trkpt>
      <trkpt lat="46.37133" lon="5.37012">
        <ele>419.4</ele>
        <time>2022-05-04T13:09:41Z</time>
      </trkpt>
      <trkpt lat="46.37148" lon="5.37032">
        <ele>420.4</ele>
        <time>2022-05-04T13:09:46Z</time>
      </trkpt>
      <trkpt lat="46.3716" lon="5.37046">
        <ele>421.2</ele>
        <time>2022-05-04T13:09:50Z</time>
      </trkpt>
      <trkpt lat="46.37167" lon="5.37053">
        <ele>421.8</ele>
        <time>2022-05-04T13:09:52Z</time>
      </trkpt>
      <trkpt lat="46.37192" lon="5.37074">
        <ele>423</ele>
        <time>2022-05-04T13:09:59Z</time>
      </trkpt>
      <trkpt lat="46.37217" lon="5.37092">
        <ele>424</ele>
        <time>2022-05-04T13:10:06Z</time>
      </trkpt>
      <trkpt lat="46.37235" lon="5.37105">
        <ele>424.8</ele>
        <time>2022-05-04T13:10:11Z</time>
      </trkpt>
      <trkpt lat="46.37242" lon="5.37111">
        <ele>425.2</ele>
        <time>2022-05-04T13:10:13Z</time>
      </trkpt>
      <trkpt lat="46.37264" lon="5.37125">
        <ele>426.4</ele>
        <time>2022-05-04T13:10:19Z</time>
      </trkpt>
      <trkpt lat="46.37271" lon="5.3713">
        <ele>427</ele>
        <time>2022-05-04T13:10:21Z</time>
      </trkpt>
      <trkpt lat="46.37278" lon="5.37135">
        <ele>427.6</ele>
        <time>2022-05-04T13:10:23Z</time>
      </trkpt>
      <trkpt lat="46.37301" lon="5.3715">
        <ele>428.4</ele>
        <time>2022-05-04T13:10:29Z</time>
      </trkpt>
      <trkpt lat="46.37318" lon="5.37164">
        <ele>429.6</ele>
        <time>2022-05-04T13:10:34Z</time>
      </trkpt>
      <trkpt lat="46.37327" lon="5.37174">
        <ele>430.4</ele>
        <time>2022-05-04T13:10:37Z</time>
      </trkpt>
      <trkpt lat="46.37333" lon="5.37182">
        <ele>430.8</ele>
        <time>2022-05-04T13:10:39Z</time>
      </trkpt>
      <trkpt lat="46.37347" lon="5.37203">
        <ele>431.8</ele>
        <time>2022-05-04T13:10:44Z</time>
      </trkpt>
      <trkpt lat="46.37354" lon="5.37216">
        <ele>432.2</ele>
        <time>2022-05-04T13:10:47Z</time>
      </trkpt>
      <trkpt lat="46.37363" lon="5.37229">
        <ele>433</ele>
        <time>2022-05-04T13:10:50Z</time>
      </trkpt>
      <trkpt lat="46.37378" lon="5.37248">
        <ele>434.2</ele>
        <time>2022-05-04T13:10:55Z</time>
      </trkpt>
      <trkpt lat="46.37398" lon="5.37269">
        <ele>435.4</ele>
        <time>2022-05-04T13:11:01Z</time>
      </trkpt>
      <trkpt lat="46.37405" lon="5.37276">
        <ele>436</ele>
        <time>2022-05-04T13:11:03Z</time>
      </trkpt>
      <trkpt lat="46.37412" lon="5.37283">
        <ele>436.6</ele>
        <time>2022-05-04T13:11:05Z</time>
      </trkpt>
      <trkpt lat="46.37425" lon="5.37299">
        <ele>437.4</ele>
        <time>2022-05-04T13:11:09Z</time>
      </trkpt>
      <trkpt lat="46.37429" lon="5.37308">
        <ele>437.8</ele>
        <time>2022-05-04T13:11:11Z</time>
      </trkpt>
      <trkpt lat="46.37443" lon="5.37327">
        <ele>438.8</ele>
        <time>2022-05-04T13:11:16Z</time>
      </trkpt>
      <trkpt lat="46.37446" lon="5.37331">
        <ele>439</ele>
        <time>2022-05-04T13:11:17Z</time>
      </trkpt>
      <trkpt lat="46.37459" lon="5.37348">
        <ele>439.8</ele>
        <time>2022-05-04T13:11:21Z</time>
      </trkpt>
      <trkpt lat="46.3747" lon="5.3736">
        <ele>440.4</ele>
        <time>2022-05-04T13:11:24Z</time>
      </trkpt>
      <trkpt lat="46.37477" lon="5.37369">
        <ele>441</ele>
        <time>2022-05-04T13:11:26Z</time>
      </trkpt>
      <trkpt lat="46.37487" lon="5.37384">
        <ele>441.4</ele>
        <time>2022-05-04T13:11:29Z</time>
      </trkpt>
      <trkpt lat="46.37492" lon="5.37397">
        <ele>441.6</ele>
        <time>2022-05-04T13:11:31Z</time>
      </trkpt>
      <trkpt lat="46.37492" lon="5.37411">
        <ele>441.8</ele>
        <time>2022-05-04T13:11:33Z</time>
      </trkpt>
      <trkpt lat="46.3749" lon="5.37417">
        <ele>442</ele>
        <time>2022-05-04T13:11:34Z</time>
      </trkpt>
      <trkpt lat="46.37487" lon="5.37423">
        <ele>442</ele>
        <time>2022-05-04T13:11:35Z</time>
      </trkpt>
      <trkpt lat="46.37476" lon="5.37438">
        <ele>442.2</ele>
        <time>2022-05-04T13:11:38Z</time>
      </trkpt>
      <trkpt lat="46.37445" lon="5.37469">
        <ele>443.2</ele>
        <time>2022-05-04T13:11:46Z</time>
      </trkpt>
      <trkpt lat="46.37421" lon="5.37496">
        <ele>444.2</ele>
        <time>2022-05-04T13:11:53Z</time>
      </trkpt>
      <trkpt lat="46.37414" lon="5.37503">
        <ele>444.6</ele>
        <time>2022-05-04T13:11:55Z</time>
      </trkpt>
      <trkpt lat="46.37398" lon="5.37522">
        <ele>445.6</ele>
        <time>2022-05-04T13:12:00Z</time>
      </trkpt>
      <trkpt lat="46.37388" lon="5.37533">
        <ele>446.6</ele>
        <time>2022-05-04T13:12:03Z</time>
      </trkpt>
      <trkpt lat="46.37374" lon="5.37548">
        <ele>447.4</ele>
        <time>2022-05-04T13:12:07Z</time>
      </trkpt>
      <trkpt lat="46.37371" lon="5.37552">
        <ele>447.8</ele>
        <time>2022-05-04T13:12:08Z</time>
      </trkpt>
      <trkpt lat="46.37361" lon="5.37564">
        <ele>448.2</ele>
        <time>2022-05-04T13:12:11Z</time>
      </trkpt>
      <trkpt lat="46.37355" lon="5.37571">
        <ele>448.8</ele>
        <time>2022-05-04T13:12:13Z</time>
      </trkpt>
      <trkpt lat="46.37342" lon="5.37586">
        <ele>450.2</ele>
        <time>2022-05-04T13:12:17Z</time>
      </trkpt>
      <trkpt lat="46.37332" lon="5.37602">
        <ele>451.2</ele>
        <time>2022-05-04T13:12:21Z</time>
      </trkpt>
      <trkpt lat="46.37322" lon="5.37617">
        <ele>452.4</ele>
        <time>2022-05-04T13:12:25Z</time>
      </trkpt>
      <trkpt lat="46.37316" lon="5.37629">
        <ele>453.2</ele>
        <time>2022-05-04T13:12:28Z</time>
      </trkpt>
      <trkpt lat="46.37314" lon="5.37632">
        <ele>453.4</ele>
        <time>2022-05-04T13:12:29Z</time>
      </trkpt>
      <trkpt lat="46.37301" lon="5.37657">
        <ele>455</ele>
        <time>2022-05-04T13:12:35Z</time>
      </trkpt>
      <trkpt lat="46.37296" lon="5.37665">
        <ele>455.6</ele>
        <time>2022-05-04T13:12:37Z</time>
      </trkpt>
      <trkpt lat="46.37292" lon="5.37673">
        <ele>456</ele>
        <time>2022-05-04T13:12:39Z</time>
      </trkpt>
      <trkpt lat="46.37277" lon="5.37698">
        <ele>457</ele>
        <time>2022-05-04T13:12:45Z</time>
      </trkpt>
      <trkpt lat="46.37269" lon="5.37711">
        <ele>457.6</ele>
        <time>2022-05-04T13:12:48Z</time>
      </trkpt>
      <trkpt lat="46.37267" lon="5.37717">
        <ele>458</ele>
        <time>2022-05-04T13:12:49Z</time>
      </trkpt>
      <trkpt lat="46.37265" lon="5.37722">
        <ele>458.2</ele>
        <time>2022-05-04T13:12:50Z</time>
      </trkpt>
      <trkpt lat="46.37258" lon="5.37732">
        <ele>459</ele>
        <time>2022-05-04T13:12:52Z</time>
      </trkpt>
      <trkpt lat="46.37255" lon="5.37736">
        <ele>459.2</ele>
        <time>2022-05-04T13:12:53Z</time>
      </trkpt>
      <trkpt lat="46.37234" lon="5.37773">
        <ele>460.2</ele>
        <time>2022-05-04T13:13:00Z</time>
      </trkpt>
      <trkpt lat="46.37219" lon="5.37799">
        <ele>461.2</ele>
        <time>2022-05-04T13:13:05Z</time>
      </trkpt>
      <trkpt lat="46.37216" lon="5.37804">
        <ele>461.6</ele>
        <time>2022-05-04T13:13:06Z</time>
      </trkpt>
      <trkpt lat="46.37214" lon="5.37809">
        <ele>461.6</ele>
        <time>2022-05-04T13:13:07Z</time>
      </trkpt>
      <trkpt lat="46.37211" lon="5.37814">
        <ele>461.8</ele>
        <time>2022-05-04T13:13:08Z</time>
      </trkpt>
      <trkpt lat="46.37198" lon="5.37836">
        <ele>462.2</ele>
        <time>2022-05-04T13:13:12Z</time>
      </trkpt>
      <trkpt lat="46.37195" lon="5.37841">
        <ele>462.4</ele>
        <time>2022-05-04T13:13:13Z</time>
      </trkpt>
      <trkpt lat="46.3718" lon="5.3787">
        <ele>462.8</ele>
        <time>2022-05-04T13:13:18Z</time>
      </trkpt>
      <trkpt lat="46.3717" lon="5.3789">
        <ele>463</ele>
        <time>2022-05-04T13:13:21Z</time>
      </trkpt>
      <trkpt lat="46.37153" lon="5.37925">
        <ele>463.2</ele>
        <time>2022-05-04T13:13:26Z</time>
      </trkpt>
      <trkpt lat="46.37146" lon="5.3794">
        <ele>463.4</ele>
        <time>2022-05-04T13:13:28Z</time>
      </trkpt>
      <trkpt lat="46.37118" lon="5.38001">
        <ele>464</ele>
        <time>2022-05-04T13:13:36Z</time>
      </trkpt>
      <trkpt lat="46.37094" lon="5.38055">
        <ele>464.2</ele>
        <time>2022-05-04T13:13:43Z</time>
      </trkpt>
      <trkpt lat="46.37087" lon="5.38071">
        <ele>464.4</ele>
        <time>2022-05-04T13:13:45Z</time>
      </trkpt>
      <trkpt lat="46.3706" lon="5.38118">
        <ele>465.2</ele>
        <time>2022-05-04T13:13:52Z</time>
      </trkpt>
      <trkpt lat="46.37053" lon="5.38132">
        <ele>465.4</ele>
        <time>2022-05-04T13:13:54Z</time>
      </trkpt>
      <trkpt lat="46.37038" lon="5.38157">
        <ele>466.4</ele>
        <time>2022-05-04T13:13:58Z</time>
      </trkpt>
      <trkpt lat="46.37034" lon="5.38163">
        <ele>466.8</ele>
        <time>2022-05-04T13:13:59Z</time>
      </trkpt>
      <trkpt lat="46.37019" lon="5.38188">
        <ele>467.8</ele>
        <time>2022-05-04T13:14:03Z</time>
      </trkpt>
      <trkpt lat="46.37005" lon="5.38212">
        <ele>468.8</ele>
        <time>2022-05-04T13:14:07Z</time>
      </trkpt>
      <trkpt lat="46.36994" lon="5.38229">
        <ele>469.8</ele>
        <time>2022-05-04T13:14:10Z</time>
      </trkpt>
      <trkpt lat="46.36987" lon="5.38241">
        <ele>470.2</ele>
        <time>2022-05-04T13:14:12Z</time>
      </trkpt>
      <trkpt lat="46.3696" lon="5.38287">
        <ele>471.2</ele>
        <time>2022-05-04T13:14:19Z</time>
      </trkpt>
      <trkpt lat="46.36936" lon="5.38325">
        <ele>472.4</ele>
        <time>2022-05-04T13:14:25Z</time>
      </trkpt>
      <trkpt lat="46.36928" lon="5.38336">
        <ele>473</ele>
        <time>2022-05-04T13:14:27Z</time>
      </trkpt>
      <trkpt lat="46.3692" lon="5.38348">
        <ele>473.4</ele>
        <time>2022-05-04T13:14:29Z</time>
      </trkpt>
      <trkpt lat="46.369" lon="5.38382">
        <ele>473.6</ele>
        <time>2022-05-04T13:14:34Z</time>
      </trkpt>
      <trkpt lat="46.36864" lon="5.38444">
        <ele>473.6</ele>
        <time>2022-05-04T13:14:43Z</time>
      </trkpt>
      <trkpt lat="46.3686" lon="5.38449">
        <ele>473.6</ele>
        <time>2022-05-04T13:14:44Z</time>
      </trkpt>
      <trkpt lat="46.36853" lon="5.38458">
        <ele>473.6</ele>
        <time>2022-05-04T13:14:46Z</time>
      </trkpt>
      <trkpt lat="46.3685" lon="5.38463">
        <ele>473.8</ele>
        <time>2022-05-04T13:14:47Z</time>
      </trkpt>
      <trkpt lat="46.36826" lon="5.38497">
        <ele>474.4</ele>
        <time>2022-05-04T13:14:52Z</time>
      </trkpt>
      <trkpt lat="46.36797" lon="5.38531">
        <ele>474.6</ele>
        <time>2022-05-04T13:14:57Z</time>
      </trkpt>
      <trkpt lat="46.36753" lon="5.38561">
        <ele>473.8</ele>
        <time>2022-05-04T13:15:03Z</time>
      </trkpt>
      <trkpt lat="46.36729" lon="5.38573">
        <ele>473</ele>
        <time>2022-05-04T13:15:06Z</time>
      </trkpt>
      <trkpt lat="46.36702" lon="5.3858">
        <ele>472.2</ele>
        <time>2022-05-04T13:15:09Z</time>
      </trkpt>
      <trkpt lat="46.36693" lon="5.38581">
        <ele>472</ele>
        <time>2022-05-04T13:15:10Z</time>
      </trkpt>
      <trkpt lat="46.36664" lon="5.38584">
        <ele>471</ele>
        <time>2022-05-04T13:15:13Z</time>
      </trkpt>
      <trkpt lat="46.36654" lon="5.38585">
        <ele>470.6</ele>
        <time>2022-05-04T13:15:14Z</time>
      </trkpt>
      <trkpt lat="46.36635" lon="5.38589">
        <ele>469.6</ele>
        <time>2022-05-04T13:15:16Z</time>
      </trkpt>
      <trkpt lat="46.36606" lon="5.38599">
        <ele>468.4</ele>
        <time>2022-05-04T13:15:19Z</time>
      </trkpt>
      <trkpt lat="46.36575" lon="5.38616">
        <ele>467</ele>
        <time>2022-05-04T13:15:22Z</time>
      </trkpt>
      <trkpt lat="46.36555" lon="5.38627">
        <ele>465.8</ele>
        <time>2022-05-04T13:15:24Z</time>
      </trkpt>
      <trkpt lat="46.36544" lon="5.38633">
        <ele>465</ele>
        <time>2022-05-04T13:15:25Z</time>
      </trkpt>
      <trkpt lat="46.36533" lon="5.38638">
        <ele>464.6</ele>
        <time>2022-05-04T13:15:26Z</time>
      </trkpt>
      <trkpt lat="46.36501" lon="5.38654">
        <ele>463.2</ele>
        <time>2022-05-04T13:15:29Z</time>
      </trkpt>
      <trkpt lat="46.36478" lon="5.38665">
        <ele>461.8</ele>
        <time>2022-05-04T13:15:31Z</time>
      </trkpt>
      <trkpt lat="46.36456" lon="5.38677">
        <ele>460.6</ele>
        <time>2022-05-04T13:15:33Z</time>
      </trkpt>
      <trkpt lat="46.36444" lon="5.38683">
        <ele>459.6</ele>
        <time>2022-05-04T13:15:34Z</time>
      </trkpt>
      <trkpt lat="46.36409" lon="5.38699">
        <ele>458</ele>
        <time>2022-05-04T13:15:37Z</time>
      </trkpt>
      <trkpt lat="46.36385" lon="5.38707">
        <ele>456.8</ele>
        <time>2022-05-04T13:15:39Z</time>
      </trkpt>
      <trkpt lat="46.36349" lon="5.38713">
        <ele>455.4</ele>
        <time>2022-05-04T13:15:42Z</time>
      </trkpt>
      <trkpt lat="46.36324" lon="5.38714">
        <ele>454</ele>
        <time>2022-05-04T13:15:44Z</time>
      </trkpt>
      <trkpt lat="46.36299" lon="5.38714">
        <ele>452.6</ele>
        <time>2022-05-04T13:15:46Z</time>
      </trkpt>
      <trkpt lat="46.36274" lon="5.38713">
        <ele>451.4</ele>
        <time>2022-05-04T13:15:48Z</time>
      </trkpt>
      <trkpt lat="46.36249" lon="5.38714">
        <ele>450</ele>
        <time>2022-05-04T13:15:50Z</time>
      </trkpt>
      <trkpt lat="46.36223" lon="5.38714">
        <ele>448.6</ele>
        <time>2022-05-04T13:15:52Z</time>
      </trkpt>
      <trkpt lat="46.3621" lon="5.38714">
        <ele>447.4</ele>
        <time>2022-05-04T13:15:53Z</time>
      </trkpt>
      <trkpt lat="46.36184" lon="5.38714">
        <ele>445.4</ele>
        <time>2022-05-04T13:15:55Z</time>
      </trkpt>
      <trkpt lat="46.36157" lon="5.38714">
        <ele>444</ele>
        <time>2022-05-04T13:15:57Z</time>
      </trkpt>
      <trkpt lat="46.3613" lon="5.38714">
        <ele>442.2</ele>
        <time>2022-05-04T13:15:59Z</time>
      </trkpt>
      <trkpt lat="46.36116" lon="5.38715">
        <ele>441.2</ele>
        <time>2022-05-04T13:16:00Z</time>
      </trkpt>
      <trkpt lat="46.36103" lon="5.38715">
        <ele>440.6</ele>
        <time>2022-05-04T13:16:01Z</time>
      </trkpt>
      <trkpt lat="46.36089" lon="5.38716">
        <ele>439.6</ele>
        <time>2022-05-04T13:16:02Z</time>
      </trkpt>
      <trkpt lat="46.3606" lon="5.38715">
        <ele>438.2</ele>
        <time>2022-05-04T13:16:04Z</time>
      </trkpt>
      <trkpt lat="46.36032" lon="5.38715">
        <ele>437</ele>
        <time>2022-05-04T13:16:06Z</time>
      </trkpt>
      <trkpt lat="46.36017" lon="5.38715">
        <ele>436.2</ele>
        <time>2022-05-04T13:16:07Z</time>
      </trkpt>
      <trkpt lat="46.36003" lon="5.38715">
        <ele>435.4</ele>
        <time>2022-05-04T13:16:08Z</time>
      </trkpt>
      <trkpt lat="46.35975" lon="5.38715">
        <ele>434</ele>
        <time>2022-05-04T13:16:10Z</time>
      </trkpt>
      <trkpt lat="46.35947" lon="5.38715">
        <ele>432.8</ele>
        <time>2022-05-04T13:16:12Z</time>
      </trkpt>
      <trkpt lat="46.35919" lon="5.38716">
        <ele>430.8</ele>
        <time>2022-05-04T13:16:14Z</time>
      </trkpt>
      <trkpt lat="46.35905" lon="5.38716">
        <ele>430.6</ele>
        <time>2022-05-04T13:16:15Z</time>
      </trkpt>
      <trkpt lat="46.35891" lon="5.38717">
        <ele>428.8</ele>
        <time>2022-05-04T13:16:16Z</time>
      </trkpt>
      <trkpt lat="46.35863" lon="5.38717">
        <ele>427.4</ele>
        <time>2022-05-04T13:16:18Z</time>
      </trkpt>
      <trkpt lat="46.35836" lon="5.38717">
        <ele>425.6</ele>
        <time>2022-05-04T13:16:20Z</time>
      </trkpt>
      <trkpt lat="46.35821" lon="5.38718">
        <ele>424.6</ele>
        <time>2022-05-04T13:16:21Z</time>
      </trkpt>
      <trkpt lat="46.35793" lon="5.38717">
        <ele>423.4</ele>
        <time>2022-05-04T13:16:23Z</time>
      </trkpt>
      <trkpt lat="46.35764" lon="5.38715">
        <ele>421.8</ele>
        <time>2022-05-04T13:16:25Z</time>
      </trkpt>
      <trkpt lat="46.35749" lon="5.38714">
        <ele>421</ele>
        <time>2022-05-04T13:16:26Z</time>
      </trkpt>
      <trkpt lat="46.35735" lon="5.38713">
        <ele>420</ele>
        <time>2022-05-04T13:16:27Z</time>
      </trkpt>
      <trkpt lat="46.3572" lon="5.38711">
        <ele>418.8</ele>
        <time>2022-05-04T13:16:28Z</time>
      </trkpt>
      <trkpt lat="46.35691" lon="5.38709">
        <ele>417</ele>
        <time>2022-05-04T13:16:30Z</time>
      </trkpt>
      <trkpt lat="46.35677" lon="5.38709">
        <ele>416.4</ele>
        <time>2022-05-04T13:16:31Z</time>
      </trkpt>
      <trkpt lat="46.35662" lon="5.38711">
        <ele>415.2</ele>
        <time>2022-05-04T13:16:32Z</time>
      </trkpt>
      <trkpt lat="46.35632" lon="5.38715">
        <ele>413.8</ele>
        <time>2022-05-04T13:16:34Z</time>
      </trkpt>
      <trkpt lat="46.35617" lon="5.38718">
        <ele>412.8</ele>
        <time>2022-05-04T13:16:35Z</time>
      </trkpt>
      <trkpt lat="46.35603" lon="5.38721">
        <ele>412</ele>
        <time>2022-05-04T13:16:36Z</time>
      </trkpt>
      <trkpt lat="46.35588" lon="5.38724">
        <ele>411</ele>
        <time>2022-05-04T13:16:37Z</time>
      </trkpt>
      <trkpt lat="46.35559" lon="5.38728">
        <ele>409.4</ele>
        <time>2022-05-04T13:16:39Z</time>
      </trkpt>
      <trkpt lat="46.3553" lon="5.38729">
        <ele>407.4</ele>
        <time>2022-05-04T13:16:41Z</time>
      </trkpt>
      <trkpt lat="46.35501" lon="5.38729">
        <ele>406.4</ele>
        <time>2022-05-04T13:16:43Z</time>
      </trkpt>
      <trkpt lat="46.35458" lon="5.3873">
        <ele>404.8</ele>
        <time>2022-05-04T13:16:46Z</time>
      </trkpt>
      <trkpt lat="46.35431" lon="5.38731">
        <ele>404</ele>
        <time>2022-05-04T13:16:48Z</time>
      </trkpt>
      <trkpt lat="46.35417" lon="5.38732">
        <ele>403.4</ele>
        <time>2022-05-04T13:16:49Z</time>
      </trkpt>
      <trkpt lat="46.35391" lon="5.38738">
        <ele>401.4</ele>
        <time>2022-05-04T13:16:51Z</time>
      </trkpt>
      <trkpt lat="46.35378" lon="5.38743">
        <ele>400.8</ele>
        <time>2022-05-04T13:16:52Z</time>
      </trkpt>
      <trkpt lat="46.35365" lon="5.38747">
        <ele>399.8</ele>
        <time>2022-05-04T13:16:53Z</time>
      </trkpt>
      <trkpt lat="46.35339" lon="5.38756">
        <ele>398.4</ele>
        <time>2022-05-04T13:16:55Z</time>
      </trkpt>
      <trkpt lat="46.35314" lon="5.38769">
        <ele>397.2</ele>
        <time>2022-05-04T13:16:57Z</time>
      </trkpt>
      <trkpt lat="46.35302" lon="5.38777">
        <ele>396.2</ele>
        <time>2022-05-04T13:16:58Z</time>
      </trkpt>
      <trkpt lat="46.35279" lon="5.38795">
        <ele>395</ele>
        <time>2022-05-04T13:17:00Z</time>
      </trkpt>
      <trkpt lat="46.35255" lon="5.38814">
        <ele>393.8</ele>
        <time>2022-05-04T13:17:02Z</time>
      </trkpt>
      <trkpt lat="46.35231" lon="5.38833">
        <ele>392.2</ele>
        <time>2022-05-04T13:17:04Z</time>
      </trkpt>
      <trkpt lat="46.35209" lon="5.38854">
        <ele>390.6</ele>
        <time>2022-05-04T13:17:06Z</time>
      </trkpt>
      <trkpt lat="46.35198" lon="5.38866">
        <ele>389.6</ele>
        <time>2022-05-04T13:17:07Z</time>
      </trkpt>
      <trkpt lat="46.35178" lon="5.3889">
        <ele>388.2</ele>
        <time>2022-05-04T13:17:09Z</time>
      </trkpt>
      <trkpt lat="46.35159" lon="5.38913">
        <ele>386.6</ele>
        <time>2022-05-04T13:17:11Z</time>
      </trkpt>
      <trkpt lat="46.3514" lon="5.38935">
        <ele>385.6</ele>
        <time>2022-05-04T13:17:13Z</time>
      </trkpt>
      <trkpt lat="46.35131" lon="5.38946">
        <ele>385</ele>
        <time>2022-05-04T13:17:14Z</time>
      </trkpt>
      <trkpt lat="46.35114" lon="5.38966">
        <ele>384</ele>
        <time>2022-05-04T13:17:16Z</time>
      </trkpt>
      <trkpt lat="46.35105" lon="5.38975">
        <ele>383.6</ele>
        <time>2022-05-04T13:17:17Z</time>
      </trkpt>
      <trkpt lat="46.35097" lon="5.38981">
        <ele>382.8</ele>
        <time>2022-05-04T13:17:18Z</time>
      </trkpt>
      <trkpt lat="46.35084" lon="5.38987">
        <ele>382.4</ele>
        <time>2022-05-04T13:17:20Z</time>
      </trkpt>
      <trkpt lat="46.3508" lon="5.38989">
        <ele>382</ele>
        <time>2022-05-04T13:17:21Z</time>
      </trkpt>
      <trkpt lat="46.35077" lon="5.38989">
        <ele>381.8</ele>
        <time>2022-05-04T13:17:22Z</time>
      </trkpt>
      <trkpt lat="46.35076" lon="5.38992">
        <ele>381.4</ele>
        <time>2022-05-04T13:17:23Z</time>
      </trkpt>
      <trkpt lat="46.35075" lon="5.38998">
        <ele>381.4</ele>
        <time>2022-05-04T13:17:24Z</time>
      </trkpt>
      <trkpt lat="46.35076" lon="5.39016">
        <ele>381</ele>
        <time>2022-05-04T13:17:26Z</time>
      </trkpt>
      <trkpt lat="46.35076" lon="5.39028">
        <ele>380.8</ele>
        <time>2022-05-04T13:17:27Z</time>
      </trkpt>
      <trkpt lat="46.35077" lon="5.3904">
        <ele>380.6</ele>
        <time>2022-05-04T13:17:28Z</time>
      </trkpt>
      <trkpt lat="46.35075" lon="5.39082">
        <ele>380.2</ele>
        <time>2022-05-04T13:17:31Z</time>
      </trkpt>
      <trkpt lat="46.35074" lon="5.39097">
        <ele>379.6</ele>
        <time>2022-05-04T13:17:32Z</time>
      </trkpt>
      <trkpt lat="46.35072" lon="5.39143">
        <ele>378.2</ele>
        <time>2022-05-04T13:17:35Z</time>
      </trkpt>
      <trkpt lat="46.35072" lon="5.39174">
        <ele>376.8</ele>
        <time>2022-05-04T13:17:37Z</time>
      </trkpt>
      <trkpt lat="46.35074" lon="5.3922">
        <ele>375.4</ele>
        <time>2022-05-04T13:17:40Z</time>
      </trkpt>
      <trkpt lat="46.35078" lon="5.39265">
        <ele>374.4</ele>
        <time>2022-05-04T13:17:43Z</time>
      </trkpt>
      <trkpt lat="46.35081" lon="5.39311">
        <ele>373.4</ele>
        <time>2022-05-04T13:17:46Z</time>
      </trkpt>
      <trkpt lat="46.35083" lon="5.39341">
        <ele>372.4</ele>
        <time>2022-05-04T13:17:48Z</time>
      </trkpt>
      <trkpt lat="46.35081" lon="5.39371">
        <ele>371.6</ele>
        <time>2022-05-04T13:17:50Z</time>
      </trkpt>
      <trkpt lat="46.3508" lon="5.39385">
        <ele>371.2</ele>
        <time>2022-05-04T13:17:51Z</time>
      </trkpt>
      <trkpt lat="46.35077" lon="5.39441">
        <ele>370.4</ele>
        <time>2022-05-04T13:17:55Z</time>
      </trkpt>
      <trkpt lat="46.35077" lon="5.39454">
        <ele>370.2</ele>
        <time>2022-05-04T13:17:56Z</time>
      </trkpt>
      <trkpt lat="46.35077" lon="5.39516">
        <ele>370</ele>
        <time>2022-05-04T13:18:01Z</time>
      </trkpt>
      <trkpt lat="46.35083" lon="5.39606">
        <ele>370</ele>
        <time>2022-05-04T13:18:08Z</time>
      </trkpt>
      <trkpt lat="46.35083" lon="5.39618">
        <ele>370</ele>
        <time>2022-05-04T13:18:09Z</time>
      </trkpt>
      <trkpt lat="46.35078" lon="5.39704">
        <ele>369.6</ele>
        <time>2022-05-04T13:18:16Z</time>
      </trkpt>
      <trkpt lat="46.35081" lon="5.39728">
        <ele>369.4</ele>
        <time>2022-05-04T13:18:18Z</time>
      </trkpt>
      <trkpt lat="46.35086" lon="5.3975">
        <ele>369.4</ele>
        <time>2022-05-04T13:18:20Z</time>
      </trkpt>
      <trkpt lat="46.35108" lon="5.39825">
        <ele>369</ele>
        <time>2022-05-04T13:18:27Z</time>
      </trkpt>
      <trkpt lat="46.35112" lon="5.39835">
        <ele>369</ele>
        <time>2022-05-04T13:18:28Z</time>
      </trkpt>
      <trkpt lat="46.35142" lon="5.39903">
        <ele>368.8</ele>
        <time>2022-05-04T13:18:35Z</time>
      </trkpt>
      <trkpt lat="46.35172" lon="5.39959">
        <ele>368.8</ele>
        <time>2022-05-04T13:18:41Z</time>
      </trkpt>
      <trkpt lat="46.35183" lon="5.39976">
        <ele>368.4</ele>
        <time>2022-05-04T13:18:43Z</time>
      </trkpt>
      <trkpt lat="46.35209" lon="5.40023">
        <ele>367.8</ele>
        <time>2022-05-04T13:18:48Z</time>
      </trkpt>
      <trkpt lat="46.35222" lon="5.40051">
        <ele>367.4</ele>
        <time>2022-05-04T13:18:51Z</time>
      </trkpt>
      <trkpt lat="46.35237" lon="5.40076">
        <ele>367</ele>
        <time>2022-05-04T13:18:54Z</time>
      </trkpt>
      <trkpt lat="46.35264" lon="5.40115">
        <ele>366.8</ele>
        <time>2022-05-04T13:18:59Z</time>
      </trkpt>
      <trkpt lat="46.35268" lon="5.40124">
        <ele>366.8</ele>
        <time>2022-05-04T13:19:00Z</time>
      </trkpt>
      <trkpt lat="46.35275" lon="5.40143">
        <ele>367</ele>
        <time>2022-05-04T13:19:02Z</time>
      </trkpt>
      <trkpt lat="46.35278" lon="5.40165">
        <ele>367</ele>
        <time>2022-05-04T13:19:04Z</time>
      </trkpt>
      <trkpt lat="46.3528" lon="5.40239">
        <ele>366.8</ele>
        <time>2022-05-04T13:19:10Z</time>
      </trkpt>
      <trkpt lat="46.35283" lon="5.4029">
        <ele>366.2</ele>
        <time>2022-05-04T13:19:14Z</time>
      </trkpt>
      <trkpt lat="46.35285" lon="5.40315">
        <ele>365.6</ele>
        <time>2022-05-04T13:19:16Z</time>
      </trkpt>
      <trkpt lat="46.35289" lon="5.4035">
        <ele>365.2</ele>
        <time>2022-05-04T13:19:19Z</time>
      </trkpt>
      <trkpt lat="46.35296" lon="5.4037">
        <ele>365.2</ele>
        <time>2022-05-04T13:19:21Z</time>
      </trkpt>
      <trkpt lat="46.35308" lon="5.40385">
        <ele>364.8</ele>
        <time>2022-05-04T13:19:23Z</time>
      </trkpt>
      <trkpt lat="46.35315" lon="5.40389">
        <ele>364.8</ele>
        <time>2022-05-04T13:19:24Z</time>
      </trkpt>
      <trkpt lat="46.35322" lon="5.40393">
        <ele>364.8</ele>
        <time>2022-05-04T13:19:25Z</time>
      </trkpt>
      <trkpt lat="46.35351" lon="5.40403">
        <ele>364.8</ele>
        <time>2022-05-04T13:19:29Z</time>
      </trkpt>
      <trkpt lat="46.35381" lon="5.40416">
        <ele>364.8</ele>
        <time>2022-05-04T13:19:34Z</time>
      </trkpt>
      <trkpt lat="46.35389" lon="5.40427">
        <ele>365.2</ele>
        <time>2022-05-04T13:19:36Z</time>
      </trkpt>
      <trkpt lat="46.35392" lon="5.40433">
        <ele>365.2</ele>
        <time>2022-05-04T13:19:37Z</time>
      </trkpt>
      <trkpt lat="46.35394" lon="5.4044">
        <ele>365.4</ele>
        <time>2022-05-04T13:19:38Z</time>
      </trkpt>
      <trkpt lat="46.35397" lon="5.40458">
        <ele>366</ele>
        <time>2022-05-04T13:19:40Z</time>
      </trkpt>
      <trkpt lat="46.35399" lon="5.40477">
        <ele>366.4</ele>
        <time>2022-05-04T13:19:42Z</time>
      </trkpt>
      <trkpt lat="46.35404" lon="5.40517">
        <ele>366.4</ele>
        <time>2022-05-04T13:19:46Z</time>
      </trkpt>
      <trkpt lat="46.35405" lon="5.40527">
        <ele>366.4</ele>
        <time>2022-05-04T13:19:47Z</time>
      </trkpt>
      <trkpt lat="46.35406" lon="5.40537">
        <ele>366.6</ele>
        <time>2022-05-04T13:19:48Z</time>
      </trkpt>
      <trkpt lat="46.35403" lon="5.40565">
        <ele>366.6</ele>
        <time>2022-05-04T13:19:51Z</time>
      </trkpt>
      <trkpt lat="46.35396" lon="5.40613">
        <ele>367</ele>
        <time>2022-05-04T13:19:57Z</time>
      </trkpt>
      <trkpt lat="46.35394" lon="5.40628">
        <ele>367.4</ele>
        <time>2022-05-04T13:19:59Z</time>
      </trkpt>
      <trkpt lat="46.35389" lon="5.40657">
        <ele>368</ele>
        <time>2022-05-04T13:20:03Z</time>
      </trkpt>
      <trkpt lat="46.35386" lon="5.40664">
        <ele>368.2</ele>
        <time>2022-05-04T13:20:04Z</time>
      </trkpt>
      <trkpt lat="46.3538" lon="5.40676">
        <ele>368.4</ele>
        <time>2022-05-04T13:20:06Z</time>
      </trkpt>
      <trkpt lat="46.35373" lon="5.40684">
        <ele>368.8</ele>
        <time>2022-05-04T13:20:08Z</time>
      </trkpt>
      <trkpt lat="46.35369" lon="5.40687">
        <ele>369</ele>
        <time>2022-05-04T13:20:09Z</time>
      </trkpt>
      <trkpt lat="46.35357" lon="5.40696">
        <ele>369.6</ele>
        <time>2022-05-04T13:20:12Z</time>
      </trkpt>
      <trkpt lat="46.35346" lon="5.40704">
        <ele>370.8</ele>
        <time>2022-05-04T13:20:15Z</time>
      </trkpt>
      <trkpt lat="46.35338" lon="5.4071">
        <ele>371.2</ele>
        <time>2022-05-04T13:20:17Z</time>
      </trkpt>
      <trkpt lat="46.35331" lon="5.40717">
        <ele>371.8</ele>
        <time>2022-05-04T13:20:19Z</time>
      </trkpt>
      <trkpt lat="46.35324" lon="5.40725">
        <ele>372.4</ele>
        <time>2022-05-04T13:20:21Z</time>
      </trkpt>
      <trkpt lat="46.35319" lon="5.40734">
        <ele>373</ele>
        <time>2022-05-04T13:20:23Z</time>
      </trkpt>
      <trkpt lat="46.35316" lon="5.40739">
        <ele>373.4</ele>
        <time>2022-05-04T13:20:24Z</time>
      </trkpt>
      <trkpt lat="46.35309" lon="5.40753">
        <ele>374.2</ele>
        <time>2022-05-04T13:20:27Z</time>
      </trkpt>
      <trkpt lat="46.35307" lon="5.40758">
        <ele>374.4</ele>
        <time>2022-05-04T13:20:28Z</time>
      </trkpt>
      <trkpt lat="46.35301" lon="5.40769">
        <ele>375.2</ele>
        <time>2022-05-04T13:20:30Z</time>
      </trkpt>
      <trkpt lat="46.35299" lon="5.40775">
        <ele>375.6</ele>
        <time>2022-05-04T13:20:31Z</time>
      </trkpt>
      <trkpt lat="46.35282" lon="5.40807">
        <ele>376.2</ele>
        <time>2022-05-04T13:20:36Z</time>
      </trkpt>
      <trkpt lat="46.35258" lon="5.40858">
        <ele>376</ele>
        <time>2022-05-04T13:20:43Z</time>
      </trkpt>
      <trkpt lat="46.35247" lon="5.40881">
        <ele>375.8</ele>
        <time>2022-05-04T13:20:46Z</time>
      </trkpt>
      <trkpt lat="46.35236" lon="5.40892">
        <ele>375.8</ele>
        <time>2022-05-04T13:20:48Z</time>
      </trkpt>
      <trkpt lat="46.35223" lon="5.409">
        <ele>375.6</ele>
        <time>2022-05-04T13:20:50Z</time>
      </trkpt>
      <trkpt lat="46.35208" lon="5.40903">
        <ele>375.4</ele>
        <time>2022-05-04T13:20:52Z</time>
      </trkpt>
      <trkpt lat="46.35164" lon="5.40908">
        <ele>375</ele>
        <time>2022-05-04T13:20:57Z</time>
      </trkpt>
      <trkpt lat="46.35134" lon="5.40917">
        <ele>374</ele>
        <time>2022-05-04T13:21:00Z</time>
      </trkpt>
      <trkpt lat="46.35123" lon="5.40922">
        <ele>373.6</ele>
        <time>2022-05-04T13:21:01Z</time>
      </trkpt>
      <trkpt lat="46.35113" lon="5.40928">
        <ele>373</ele>
        <time>2022-05-04T13:21:02Z</time>
      </trkpt>
      <trkpt lat="46.35084" lon="5.40954">
        <ele>371.6</ele>
        <time>2022-05-04T13:21:05Z</time>
      </trkpt>
      <trkpt lat="46.35074" lon="5.40965">
        <ele>371</ele>
        <time>2022-05-04T13:21:06Z</time>
      </trkpt>
      <trkpt lat="46.35056" lon="5.40989">
        <ele>370.2</ele>
        <time>2022-05-04T13:21:08Z</time>
      </trkpt>
      <trkpt lat="46.35038" lon="5.41014">
        <ele>369</ele>
        <time>2022-05-04T13:21:10Z</time>
      </trkpt>
      <trkpt lat="46.3503" lon="5.41029">
        <ele>368</ele>
        <time>2022-05-04T13:21:11Z</time>
      </trkpt>
      <trkpt lat="46.35023" lon="5.41044">
        <ele>367.8</ele>
        <time>2022-05-04T13:21:12Z</time>
      </trkpt>
      <trkpt lat="46.35011" lon="5.41075">
        <ele>366.6</ele>
        <time>2022-05-04T13:21:14Z</time>
      </trkpt>
      <trkpt lat="46.35004" lon="5.41091">
        <ele>365.4</ele>
        <time>2022-05-04T13:21:15Z</time>
      </trkpt>
      <trkpt lat="46.34997" lon="5.41106">
        <ele>365</ele>
        <time>2022-05-04T13:21:16Z</time>
      </trkpt>
      <trkpt lat="46.34991" lon="5.41122">
        <ele>364.4</ele>
        <time>2022-05-04T13:21:17Z</time>
      </trkpt>
      <trkpt lat="46.34984" lon="5.41137">
        <ele>363.8</ele>
        <time>2022-05-04T13:21:18Z</time>
      </trkpt>
      <trkpt lat="46.34966" lon="5.41162">
        <ele>363.2</ele>
        <time>2022-05-04T13:21:20Z</time>
      </trkpt>
      <trkpt lat="46.34931" lon="5.41209">
        <ele>361.8</ele>
        <time>2022-05-04T13:21:24Z</time>
      </trkpt>
      <trkpt lat="46.34915" lon="5.41235">
        <ele>361.2</ele>
        <time>2022-05-04T13:21:26Z</time>
      </trkpt>
      <trkpt lat="46.34894" lon="5.41273">
        <ele>360.8</ele>
        <time>2022-05-04T13:21:29Z</time>
      </trkpt>
      <trkpt lat="46.34871" lon="5.41309">
        <ele>360.2</ele>
        <time>2022-05-04T13:21:32Z</time>
      </trkpt>
      <trkpt lat="46.34829" lon="5.41361">
        <ele>359.8</ele>
        <time>2022-05-04T13:21:37Z</time>
      </trkpt>
      <trkpt lat="46.3482" lon="5.4137">
        <ele>359.8</ele>
        <time>2022-05-04T13:21:38Z</time>
      </trkpt>
      <trkpt lat="46.34778" lon="5.41416">
        <ele>359.6</ele>
        <time>2022-05-04T13:21:43Z</time>
      </trkpt>
      <trkpt lat="46.3477" lon="5.41425">
        <ele>359.6</ele>
        <time>2022-05-04T13:21:44Z</time>
      </trkpt>
      <trkpt lat="46.34728" lon="5.41483">
        <ele>359.6</ele>
        <time>2022-05-04T13:21:50Z</time>
      </trkpt>
      <trkpt lat="46.34691" lon="5.41542">
        <ele>359.4</ele>
        <time>2022-05-04T13:21:56Z</time>
      </trkpt>
      <trkpt lat="46.34679" lon="5.41561">
        <ele>359.4</ele>
        <time>2022-05-04T13:21:58Z</time>
      </trkpt>
      <trkpt lat="46.34639" lon="5.41629">
        <ele>359.4</ele>
        <time>2022-05-04T13:22:05Z</time>
      </trkpt>
      <trkpt lat="46.34606" lon="5.41673">
        <ele>359</ele>
        <time>2022-05-04T13:22:10Z</time>
      </trkpt>
      <trkpt lat="46.34566" lon="5.417">
        <ele>359</ele>
        <time>2022-05-04T13:22:15Z</time>
      </trkpt>
      <trkpt lat="46.34557" lon="5.41706">
        <ele>359</ele>
        <time>2022-05-04T13:22:16Z</time>
      </trkpt>
      <trkpt lat="46.34533" lon="5.41727">
        <ele>358.8</ele>
        <time>2022-05-04T13:22:19Z</time>
      </trkpt>
      <trkpt lat="46.34517" lon="5.41741">
        <ele>358.4</ele>
        <time>2022-05-04T13:22:21Z</time>
      </trkpt>
      <trkpt lat="46.34479" lon="5.41778">
        <ele>357.8</ele>
        <time>2022-05-04T13:22:26Z</time>
      </trkpt>
      <trkpt lat="46.34465" lon="5.41793">
        <ele>357.6</ele>
        <time>2022-05-04T13:22:28Z</time>
      </trkpt>
      <trkpt lat="46.34416" lon="5.4184">
        <ele>357.6</ele>
        <time>2022-05-04T13:22:35Z</time>
      </trkpt>
      <trkpt lat="46.34409" lon="5.41846">
        <ele>357.4</ele>
        <time>2022-05-04T13:22:36Z</time>
      </trkpt>
      <trkpt lat="46.34371" lon="5.41877">
        <ele>357.2</ele>
        <time>2022-05-04T13:22:41Z</time>
      </trkpt>
      <trkpt lat="46.34364" lon="5.41885">
        <ele>357.2</ele>
        <time>2022-05-04T13:22:42Z</time>
      </trkpt>
      <trkpt lat="46.34359" lon="5.41895">
        <ele>357.2</ele>
        <time>2022-05-04T13:22:43Z</time>
      </trkpt>
      <trkpt lat="46.34351" lon="5.41917">
        <ele>357.2</ele>
        <time>2022-05-04T13:22:45Z</time>
      </trkpt>
      <trkpt lat="46.34341" lon="5.41977">
        <ele>356.6</ele>
        <time>2022-05-04T13:22:50Z</time>
      </trkpt>
      <trkpt lat="46.34332" lon="5.41998">
        <ele>356.6</ele>
        <time>2022-05-04T13:22:52Z</time>
      </trkpt>
      <trkpt lat="46.34321" lon="5.42016">
        <ele>356.6</ele>
        <time>2022-05-04T13:22:54Z</time>
      </trkpt>
      <trkpt lat="46.34283" lon="5.42068">
        <ele>356.4</ele>
        <time>2022-05-04T13:23:00Z</time>
      </trkpt>
      <trkpt lat="46.34271" lon="5.42086">
        <ele>356.2</ele>
        <time>2022-05-04T13:23:02Z</time>
      </trkpt>
      <trkpt lat="46.34225" lon="5.42143">
        <ele>356</ele>
        <time>2022-05-04T13:23:09Z</time>
      </trkpt>
      <trkpt lat="46.34178" lon="5.42197">
        <ele>355.6</ele>
        <time>2022-05-04T13:23:16Z</time>
      </trkpt>
      <trkpt lat="46.34165" lon="5.42212">
        <ele>355.4</ele>
        <time>2022-05-04T13:23:18Z</time>
      </trkpt>
      <trkpt lat="46.34159" lon="5.42219">
        <ele>355.2</ele>
        <time>2022-05-04T13:23:19Z</time>
      </trkpt>
      <trkpt lat="46.34123" lon="5.42259">
        <ele>355.2</ele>
        <time>2022-05-04T13:23:25Z</time>
      </trkpt>
      <trkpt lat="46.34078" lon="5.42308">
        <ele>356.2</ele>
        <time>2022-05-04T13:23:33Z</time>
      </trkpt>
      <trkpt lat="46.3406" lon="5.42322">
        <ele>356.4</ele>
        <time>2022-05-04T13:23:36Z</time>
      </trkpt>
      <trkpt lat="46.34047" lon="5.4233">
        <ele>356.8</ele>
        <time>2022-05-04T13:23:38Z</time>
      </trkpt>
      <trkpt lat="46.34004" lon="5.42354">
        <ele>357.2</ele>
        <time>2022-05-04T13:23:44Z</time>
      </trkpt>
      <trkpt lat="46.33953" lon="5.42395">
        <ele>356.6</ele>
        <time>2022-05-04T13:23:51Z</time>
      </trkpt>
      <trkpt lat="46.339" lon="5.42439">
        <ele>355.4</ele>
        <time>2022-05-04T13:23:58Z</time>
      </trkpt>
      <trkpt lat="46.33885" lon="5.42452">
        <ele>355</ele>
        <time>2022-05-04T13:24:00Z</time>
      </trkpt>
      <trkpt lat="46.33863" lon="5.42475">
        <ele>354.4</ele>
        <time>2022-05-04T13:24:03Z</time>
      </trkpt>
      <trkpt lat="46.33848" lon="5.42492">
        <ele>354.2</ele>
        <time>2022-05-04T13:24:05Z</time>
      </trkpt>
      <trkpt lat="46.33819" lon="5.42525">
        <ele>353.6</ele>
        <time>2022-05-04T13:24:09Z</time>
      </trkpt>
      <trkpt lat="46.33797" lon="5.42551">
        <ele>353</ele>
        <time>2022-05-04T13:24:12Z</time>
      </trkpt>
      <trkpt lat="46.33762" lon="5.426">
        <ele>351.8</ele>
        <time>2022-05-04T13:24:17Z</time>
      </trkpt>
      <trkpt lat="46.3374" lon="5.42648">
        <ele>351.4</ele>
        <time>2022-05-04T13:24:21Z</time>
      </trkpt>
      <trkpt lat="46.33721" lon="5.42713">
        <ele>350.8</ele>
        <time>2022-05-04T13:24:26Z</time>
      </trkpt>
      <trkpt lat="46.33709" lon="5.42736">
        <ele>350.6</ele>
        <time>2022-05-04T13:24:28Z</time>
      </trkpt>
      <trkpt lat="46.33702" lon="5.42746">
        <ele>350.4</ele>
        <time>2022-05-04T13:24:29Z</time>
      </trkpt>
      <trkpt lat="46.33694" lon="5.42755">
        <ele>350.4</ele>
        <time>2022-05-04T13:24:30Z</time>
      </trkpt>
      <trkpt lat="46.33675" lon="5.42769">
        <ele>350.4</ele>
        <time>2022-05-04T13:24:32Z</time>
      </trkpt>
      <trkpt lat="46.33628" lon="5.4279">
        <ele>349.8</ele>
        <time>2022-05-04T13:24:37Z</time>
      </trkpt>
      <trkpt lat="46.33618" lon="5.42793">
        <ele>349.4</ele>
        <time>2022-05-04T13:24:38Z</time>
      </trkpt>
      <trkpt lat="46.33577" lon="5.42818">
        <ele>349</ele>
        <time>2022-05-04T13:24:43Z</time>
      </trkpt>
      <trkpt lat="46.33569" lon="5.42825">
        <ele>348.8</ele>
        <time>2022-05-04T13:24:44Z</time>
      </trkpt>
      <trkpt lat="46.33549" lon="5.42847">
        <ele>348.4</ele>
        <time>2022-05-04T13:24:47Z</time>
      </trkpt>
      <trkpt lat="46.33544" lon="5.42855">
        <ele>348.4</ele>
        <time>2022-05-04T13:24:48Z</time>
      </trkpt>
      <trkpt lat="46.33526" lon="5.42891">
        <ele>348.2</ele>
        <time>2022-05-04T13:24:52Z</time>
      </trkpt>
      <trkpt lat="46.33521" lon="5.42898">
        <ele>348.2</ele>
        <time>2022-05-04T13:24:53Z</time>
      </trkpt>
      <trkpt lat="46.335" lon="5.42927">
        <ele>348.6</ele>
        <time>2022-05-04T13:24:57Z</time>
      </trkpt>
      <trkpt lat="46.33491" lon="5.42945">
        <ele>349</ele>
        <time>2022-05-04T13:24:59Z</time>
      </trkpt>
      <trkpt lat="46.33488" lon="5.42954">
        <ele>349</ele>
        <time>2022-05-04T13:25:00Z</time>
      </trkpt>
      <trkpt lat="46.33481" lon="5.42985">
        <ele>349.2</ele>
        <time>2022-05-04T13:25:03Z</time>
      </trkpt>
      <trkpt lat="46.33464" lon="5.43048">
        <ele>349</ele>
        <time>2022-05-04T13:25:09Z</time>
      </trkpt>
      <trkpt lat="46.33443" lon="5.43112">
        <ele>348.6</ele>
        <time>2022-05-04T13:25:15Z</time>
      </trkpt>
      <trkpt lat="46.33432" lon="5.43173">
        <ele>348.6</ele>
        <time>2022-05-04T13:25:21Z</time>
      </trkpt>
      <trkpt lat="46.33418" lon="5.43228">
        <ele>349</ele>
        <time>2022-05-04T13:25:27Z</time>
      </trkpt>
      <trkpt lat="46.33417" lon="5.43238">
        <ele>349.2</ele>
        <time>2022-05-04T13:25:28Z</time>
      </trkpt>
      <trkpt lat="46.33419" lon="5.43256">
        <ele>349.2</ele>
        <time>2022-05-04T13:25:30Z</time>
      </trkpt>
      <trkpt lat="46.33426" lon="5.43269">
        <ele>349.2</ele>
        <time>2022-05-04T13:25:32Z</time>
      </trkpt>
      <trkpt lat="46.3344" lon="5.43276">
        <ele>349</ele>
        <time>2022-05-04T13:25:34Z</time>
      </trkpt>
      <trkpt lat="46.33461" lon="5.43286">
        <ele>348.8</ele>
        <time>2022-05-04T13:25:36Z</time>
      </trkpt>
      <trkpt lat="46.33469" lon="5.43293">
        <ele>348.6</ele>
        <time>2022-05-04T13:25:37Z</time>
      </trkpt>
      <trkpt lat="46.33511" lon="5.43336">
        <ele>347.6</ele>
        <time>2022-05-04T13:25:43Z</time>
      </trkpt>
      <trkpt lat="46.33517" lon="5.43343">
        <ele>347.4</ele>
        <time>2022-05-04T13:25:44Z</time>
      </trkpt>
      <trkpt lat="46.33567" lon="5.43384">
        <ele>347.2</ele>
        <time>2022-05-04T13:25:51Z</time>
      </trkpt>
      <trkpt lat="46.33607" lon="5.43428">
        <ele>347</ele>
        <time>2022-05-04T13:25:57Z</time>
      </trkpt>
      <trkpt lat="46.33628" lon="5.43459">
        <ele>347.2</ele>
        <time>2022-05-04T13:26:01Z</time>
      </trkpt>
      <trkpt lat="46.33631" lon="5.43468">
        <ele>347.4</ele>
        <time>2022-05-04T13:26:02Z</time>
      </trkpt>
      <trkpt lat="46.33633" lon="5.43476">
        <ele>347.4</ele>
        <time>2022-05-04T13:26:03Z</time>
      </trkpt>
      <trkpt lat="46.33634" lon="5.43494">
        <ele>347.8</ele>
        <time>2022-05-04T13:26:05Z</time>
      </trkpt>
      <trkpt lat="46.33632" lon="5.43555">
        <ele>348.6</ele>
        <time>2022-05-04T13:26:11Z</time>
      </trkpt>
      <trkpt lat="46.33632" lon="5.43565">
        <ele>348.6</ele>
        <time>2022-05-04T13:26:12Z</time>
      </trkpt>
      <trkpt lat="46.33635" lon="5.43642">
        <ele>348.2</ele>
        <time>2022-05-04T13:26:19Z</time>
      </trkpt>
      <trkpt lat="46.33636" lon="5.43663">
        <ele>347.6</ele>
        <time>2022-05-04T13:26:21Z</time>
      </trkpt>
      <trkpt lat="46.33636" lon="5.43671">
        <ele>347</ele>
        <time>2022-05-04T13:26:22Z</time>
      </trkpt>
      <trkpt lat="46.33634" lon="5.43676">
        <ele>346.8</ele>
        <time>2022-05-04T13:26:23Z</time>
      </trkpt>
      <trkpt lat="46.33633" lon="5.43679">
        <ele>346.4</ele>
        <time>2022-05-04T13:26:24Z</time>
      </trkpt>
      <trkpt lat="46.33632" lon="5.43681">
        <ele>346.2</ele>
        <time>2022-05-04T13:26:26Z</time>
      </trkpt>
      <trkpt lat="46.33632" lon="5.43681">
        <ele>345.8</ele>
        <time>2022-05-04T13:26:28Z</time>
      </trkpt>
      <trkpt lat="46.33633" lon="5.43686">
        <ele>344.8</ele>
        <time>2022-05-04T13:26:34Z</time>
      </trkpt>
      <trkpt lat="46.33635" lon="5.43688">
        <ele>344.8</ele>
        <time>2022-05-04T13:26:35Z</time>
      </trkpt>
      <trkpt lat="46.3365" lon="5.43695">
        <ele>344.8</ele>
        <time>2022-05-04T13:26:39Z</time>
      </trkpt>
      <trkpt lat="46.33677" lon="5.43706">
        <ele>345</ele>
        <time>2022-05-04T13:26:44Z</time>
      </trkpt>
      <trkpt lat="46.33712" lon="5.43724">
        <ele>345.2</ele>
        <time>2022-05-04T13:26:50Z</time>
      </trkpt>
      <trkpt lat="46.33723" lon="5.43732">
        <ele>345.4</ele>
        <time>2022-05-04T13:26:52Z</time>
      </trkpt>
      <trkpt lat="46.33744" lon="5.43749">
        <ele>346</ele>
        <time>2022-05-04T13:26:56Z</time>
      </trkpt>
      <trkpt lat="46.33749" lon="5.43754">
        <ele>346</ele>
        <time>2022-05-04T13:26:57Z</time>
      </trkpt>
      <trkpt lat="46.33786" lon="5.43789">
        <ele>346.4</ele>
        <time>2022-05-04T13:27:04Z</time>
      </trkpt>
      <trkpt lat="46.33832" lon="5.43835">
        <ele>346.6</ele>
        <time>2022-05-04T13:27:13Z</time>
      </trkpt>
      <trkpt lat="46.33878" lon="5.4388">
        <ele>346</ele>
        <time>2022-05-04T13:27:22Z</time>
      </trkpt>
      <trkpt lat="46.33889" lon="5.43891">
        <ele>346</ele>
        <time>2022-05-04T13:27:24Z</time>
      </trkpt>
      <trkpt lat="46.33934" lon="5.43939">
        <ele>345.8</ele>
        <time>2022-05-04T13:27:33Z</time>
      </trkpt>
      <trkpt lat="46.3395" lon="5.4396">
        <ele>346.2</ele>
        <time>2022-05-04T13:27:37Z</time>
      </trkpt>
      <trkpt lat="46.33956" lon="5.43969">
        <ele>346.4</ele>
        <time>2022-05-04T13:27:39Z</time>
      </trkpt>
      <trkpt lat="46.3397" lon="5.4399">
        <ele>347.2</ele>
        <time>2022-05-04T13:27:44Z</time>
      </trkpt>
      <trkpt lat="46.33981" lon="5.44005">
        <ele>347.8</ele>
        <time>2022-05-04T13:27:48Z</time>
      </trkpt>
      <trkpt lat="46.3399" lon="5.44014">
        <ele>348.2</ele>
        <time>2022-05-04T13:27:51Z</time>
      </trkpt>
      <trkpt lat="46.34002" lon="5.44024">
        <ele>349.4</ele>
        <time>2022-05-04T13:27:55Z</time>
      </trkpt>
      <trkpt lat="46.34008" lon="5.44029">
        <ele>349.8</ele>
        <time>2022-05-04T13:27:57Z</time>
      </trkpt>
      <trkpt lat="46.34015" lon="5.44032">
        <ele>350.4</ele>
        <time>2022-05-04T13:27:59Z</time>
      </trkpt>
      <trkpt lat="46.34025" lon="5.44037">
        <ele>351.4</ele>
        <time>2022-05-04T13:28:02Z</time>
      </trkpt>
      <trkpt lat="46.34033" lon="5.44041">
        <ele>352</ele>
        <time>2022-05-04T13:28:04Z</time>
      </trkpt>
      <trkpt lat="46.3404" lon="5.44045">
        <ele>352.6</ele>
        <time>2022-05-04T13:28:06Z</time>
      </trkpt>
      <trkpt lat="46.34062" lon="5.44058">
        <ele>353.8</ele>
        <time>2022-05-04T13:28:12Z</time>
      </trkpt>
      <trkpt lat="46.34069" lon="5.44062">
        <ele>354.2</ele>
        <time>2022-05-04T13:28:14Z</time>
      </trkpt>
      <trkpt lat="46.34082" lon="5.44074">
        <ele>355.2</ele>
        <time>2022-05-04T13:28:18Z</time>
      </trkpt>
      <trkpt lat="46.34091" lon="5.44083">
        <ele>355.8</ele>
        <time>2022-05-04T13:28:21Z</time>
      </trkpt>
      <trkpt lat="46.34101" lon="5.44093">
        <ele>356.2</ele>
        <time>2022-05-04T13:28:24Z</time>
      </trkpt>
      <trkpt lat="46.34104" lon="5.44097">
        <ele>356.4</ele>
        <time>2022-05-04T13:28:25Z</time>
      </trkpt>
      <trkpt lat="46.34115" lon="5.44114">
        <ele>357</ele>
        <time>2022-05-04T13:28:29Z</time>
      </trkpt>
      <trkpt lat="46.34117" lon="5.44118">
        <ele>357.2</ele>
        <time>2022-05-04T13:28:30Z</time>
      </trkpt>
      <trkpt lat="46.34126" lon="5.44131">
        <ele>357.8</ele>
        <time>2022-05-04T13:28:33Z</time>
      </trkpt>
      <trkpt lat="46.34135" lon="5.44142">
        <ele>358.2</ele>
        <time>2022-05-04T13:28:36Z</time>
      </trkpt>
      <trkpt lat="46.34138" lon="5.44146">
        <ele>358.6</ele>
        <time>2022-05-04T13:28:37Z</time>
      </trkpt>
      <trkpt lat="46.34152" lon="5.44168">
        <ele>359.4</ele>
        <time>2022-05-04T13:28:42Z</time>
      </trkpt>
      <trkpt lat="46.34163" lon="5.44182">
        <ele>360</ele>
        <time>2022-05-04T13:28:46Z</time>
      </trkpt>
      <trkpt lat="46.34168" lon="5.44189">
        <ele>360.6</ele>
        <time>2022-05-04T13:28:48Z</time>
      </trkpt>
      <trkpt lat="46.3418" lon="5.442">
        <ele>361.8</ele>
        <time>2022-05-04T13:28:52Z</time>
      </trkpt>
      <trkpt lat="46.34185" lon="5.44204">
        <ele>362.2</ele>
        <time>2022-05-04T13:28:54Z</time>
      </trkpt>
      <trkpt lat="46.34191" lon="5.44209">
        <ele>362.8</ele>
        <time>2022-05-04T13:28:56Z</time>
      </trkpt>
      <trkpt lat="46.34204" lon="5.44216">
        <ele>363.8</ele>
        <time>2022-05-04T13:29:00Z</time>
      </trkpt>
      <trkpt lat="46.3421" lon="5.44219">
        <ele>364.2</ele>
        <time>2022-05-04T13:29:02Z</time>
      </trkpt>
      <trkpt lat="46.34224" lon="5.44226">
        <ele>365</ele>
        <time>2022-05-04T13:29:06Z</time>
      </trkpt>
      <trkpt lat="46.34234" lon="5.4423">
        <ele>366</ele>
        <time>2022-05-04T13:29:09Z</time>
      </trkpt>
      <trkpt lat="46.34251" lon="5.44236">
        <ele>367</ele>
        <time>2022-05-04T13:29:14Z</time>
      </trkpt>
      <trkpt lat="46.34261" lon="5.4424">
        <ele>367.6</ele>
        <time>2022-05-04T13:29:17Z</time>
      </trkpt>
      <trkpt lat="46.34267" lon="5.44243">
        <ele>368.2</ele>
        <time>2022-05-04T13:29:19Z</time>
      </trkpt>
      <trkpt lat="46.34285" lon="5.44258">
        <ele>369</ele>
        <time>2022-05-04T13:29:25Z</time>
      </trkpt>
      <trkpt lat="46.34289" lon="5.44261">
        <ele>369.4</ele>
        <time>2022-05-04T13:29:26Z</time>
      </trkpt>
      <trkpt lat="46.34301" lon="5.44277">
        <ele>370.4</ele>
        <time>2022-05-04T13:29:30Z</time>
      </trkpt>
      <trkpt lat="46.34308" lon="5.44286">
        <ele>370.8</ele>
        <time>2022-05-04T13:29:32Z</time>
      </trkpt>
      <trkpt lat="46.34332" lon="5.44313">
        <ele>371.4</ele>
        <time>2022-05-04T13:29:37Z</time>
      </trkpt>
      <trkpt lat="46.34337" lon="5.44318">
        <ele>371.4</ele>
        <time>2022-05-04T13:29:38Z</time>
      </trkpt>
      <trkpt lat="46.34343" lon="5.44322">
        <ele>371.6</ele>
        <time>2022-05-04T13:29:39Z</time>
      </trkpt>
      <trkpt lat="46.3436" lon="5.44338">
        <ele>371.6</ele>
        <time>2022-05-04T13:29:42Z</time>
      </trkpt>
      <trkpt lat="46.34402" lon="5.44367">
        <ele>370.6</ele>
        <time>2022-05-04T13:29:49Z</time>
      </trkpt>
      <trkpt lat="46.34408" lon="5.4437">
        <ele>370.4</ele>
        <time>2022-05-04T13:29:50Z</time>
      </trkpt>
      <trkpt lat="46.34445" lon="5.44377">
        <ele>369.6</ele>
        <time>2022-05-04T13:29:55Z</time>
      </trkpt>
      <trkpt lat="46.34453" lon="5.44379">
        <ele>369.4</ele>
        <time>2022-05-04T13:29:56Z</time>
      </trkpt>
      <trkpt lat="46.34477" lon="5.44385">
        <ele>369.4</ele>
        <time>2022-05-04T13:29:59Z</time>
      </trkpt>
      <trkpt lat="46.34518" lon="5.44402">
        <ele>368.6</ele>
        <time>2022-05-04T13:30:04Z</time>
      </trkpt>
      <trkpt lat="46.34534" lon="5.44409">
        <ele>367.8</ele>
        <time>2022-05-04T13:30:06Z</time>
      </trkpt>
      <trkpt lat="46.34543" lon="5.44413">
        <ele>367.4</ele>
        <time>2022-05-04T13:30:07Z</time>
      </trkpt>
      <trkpt lat="46.34569" lon="5.44425">
        <ele>366.2</ele>
        <time>2022-05-04T13:30:10Z</time>
      </trkpt>
      <trkpt lat="46.34595" lon="5.44437">
        <ele>365</ele>
        <time>2022-05-04T13:30:13Z</time>
      </trkpt>
      <trkpt lat="46.34629" lon="5.44456">
        <ele>363.4</ele>
        <time>2022-05-04T13:30:17Z</time>
      </trkpt>
      <trkpt lat="46.34644" lon="5.44466">
        <ele>362.8</ele>
        <time>2022-05-04T13:30:19Z</time>
      </trkpt>
      <trkpt lat="46.34658" lon="5.44476">
        <ele>362.4</ele>
        <time>2022-05-04T13:30:21Z</time>
      </trkpt>
      <trkpt lat="46.34678" lon="5.44492">
        <ele>361.6</ele>
        <time>2022-05-04T13:30:24Z</time>
      </trkpt>
      <trkpt lat="46.34692" lon="5.44502">
        <ele>361.2</ele>
        <time>2022-05-04T13:30:26Z</time>
      </trkpt>
      <trkpt lat="46.34716" lon="5.44526">
        <ele>360.8</ele>
        <time>2022-05-04T13:30:30Z</time>
      </trkpt>
      <trkpt lat="46.34761" lon="5.44568">
        <ele>360.2</ele>
        <time>2022-05-04T13:30:37Z</time>
      </trkpt>
      <trkpt lat="46.34799" lon="5.44592">
        <ele>358.6</ele>
        <time>2022-05-04T13:30:42Z</time>
      </trkpt>
      <trkpt lat="46.34806" lon="5.44597">
        <ele>358</ele>
        <time>2022-05-04T13:30:43Z</time>
      </trkpt>
      <trkpt lat="46.34813" lon="5.44602">
        <ele>357.4</ele>
        <time>2022-05-04T13:30:44Z</time>
      </trkpt>
      <trkpt lat="46.34834" lon="5.4462">
        <ele>356</ele>
        <time>2022-05-04T13:30:47Z</time>
      </trkpt>
      <trkpt lat="46.34847" lon="5.44632">
        <ele>356</ele>
        <time>2022-05-04T13:30:49Z</time>
      </trkpt>
      <trkpt lat="46.34889" lon="5.44678">
        <ele>355.4</ele>
        <time>2022-05-04T13:30:56Z</time>
      </trkpt>
      <trkpt lat="46.34932" lon="5.44722">
        <ele>355.4</ele>
        <time>2022-05-04T13:31:03Z</time>
      </trkpt>
      <trkpt lat="46.34962" lon="5.44753">
        <ele>355.4</ele>
        <time>2022-05-04T13:31:08Z</time>
      </trkpt>
      <trkpt lat="46.34973" lon="5.44766">
        <ele>355.4</ele>
        <time>2022-05-04T13:31:10Z</time>
      </trkpt>
      <trkpt lat="46.34978" lon="5.44773">
        <ele>355.4</ele>
        <time>2022-05-04T13:31:11Z</time>
      </trkpt>
      <trkpt lat="46.35008" lon="5.44812">
        <ele>355.6</ele>
        <time>2022-05-04T13:31:17Z</time>
      </trkpt>
      <trkpt lat="46.35014" lon="5.44817">
        <ele>355.6</ele>
        <time>2022-05-04T13:31:18Z</time>
      </trkpt>
      <trkpt lat="46.35032" lon="5.44826">
        <ele>355.8</ele>
        <time>2022-05-04T13:31:21Z</time>
      </trkpt>
      <trkpt lat="46.35067" lon="5.44838">
        <ele>356.6</ele>
        <time>2022-05-04T13:31:27Z</time>
      </trkpt>
      <trkpt lat="46.35084" lon="5.44844">
        <ele>357.2</ele>
        <time>2022-05-04T13:31:30Z</time>
      </trkpt>
      <trkpt lat="46.35111" lon="5.44858">
        <ele>358.2</ele>
        <time>2022-05-04T13:31:35Z</time>
      </trkpt>
      <trkpt lat="46.35122" lon="5.44865">
        <ele>358.4</ele>
        <time>2022-05-04T13:31:37Z</time>
      </trkpt>
      <trkpt lat="46.35151" lon="5.44882">
        <ele>359.6</ele>
        <time>2022-05-04T13:31:43Z</time>
      </trkpt>
      <trkpt lat="46.35155" lon="5.44884">
        <ele>359.8</ele>
        <time>2022-05-04T13:31:44Z</time>
      </trkpt>
      <trkpt lat="46.35178" lon="5.44895">
        <ele>360.6</ele>
        <time>2022-05-04T13:31:49Z</time>
      </trkpt>
      <trkpt lat="46.35192" lon="5.44898">
        <ele>361.6</ele>
        <time>2022-05-04T13:31:52Z</time>
      </trkpt>
      <trkpt lat="46.35197" lon="5.44898">
        <ele>361.8</ele>
        <time>2022-05-04T13:31:53Z</time>
      </trkpt>
      <trkpt lat="46.35211" lon="5.44898">
        <ele>362.2</ele>
        <time>2022-05-04T13:31:56Z</time>
      </trkpt>
      <trkpt lat="46.35221" lon="5.44897">
        <ele>362.4</ele>
        <time>2022-05-04T13:31:58Z</time>
      </trkpt>
      <trkpt lat="46.35235" lon="5.44895">
        <ele>363</ele>
        <time>2022-05-04T13:32:01Z</time>
      </trkpt>
      <trkpt lat="46.35259" lon="5.44893">
        <ele>364</ele>
        <time>2022-05-04T13:32:06Z</time>
      </trkpt>
      <trkpt lat="46.35268" lon="5.44892">
        <ele>364.2</ele>
        <time>2022-05-04T13:32:08Z</time>
      </trkpt>
      <trkpt lat="46.35292" lon="5.44891">
        <ele>364.6</ele>
        <time>2022-05-04T13:32:13Z</time>
      </trkpt>
      <trkpt lat="46.35302" lon="5.44895">
        <ele>365</ele>
        <time>2022-05-04T13:32:15Z</time>
      </trkpt>
      <trkpt lat="46.35309" lon="5.44904">
        <ele>365.2</ele>
        <time>2022-05-04T13:32:17Z</time>
      </trkpt>
      <trkpt lat="46.35314" lon="5.44916">
        <ele>365.6</ele>
        <time>2022-05-04T13:32:19Z</time>
      </trkpt>
      <trkpt lat="46.35316" lon="5.44922">
        <ele>365.8</ele>
        <time>2022-05-04T13:32:20Z</time>
      </trkpt>
      <trkpt lat="46.3532" lon="5.44937">
        <ele>366</ele>
        <time>2022-05-04T13:32:22Z</time>
      </trkpt>
      <trkpt lat="46.35323" lon="5.44953">
        <ele>366.2</ele>
        <time>2022-05-04T13:32:24Z</time>
      </trkpt>
      <trkpt lat="46.35324" lon="5.44961">
        <ele>366.4</ele>
        <time>2022-05-04T13:32:25Z</time>
      </trkpt>
      <trkpt lat="46.35324" lon="5.44969">
        <ele>366.6</ele>
        <time>2022-05-04T13:32:26Z</time>
      </trkpt>
      <trkpt lat="46.35323" lon="5.45005">
        <ele>366.8</ele>
        <time>2022-05-04T13:32:30Z</time>
      </trkpt>
      <trkpt lat="46.35324" lon="5.4506">
        <ele>367</ele>
        <time>2022-05-04T13:32:36Z</time>
      </trkpt>
      <trkpt lat="46.35325" lon="5.45069">
        <ele>367</ele>
        <time>2022-05-04T13:32:37Z</time>
      </trkpt>
      <trkpt lat="46.35334" lon="5.45106">
        <ele>367.2</ele>
        <time>2022-05-04T13:32:41Z</time>
      </trkpt>
      <trkpt lat="46.35346" lon="5.45161">
        <ele>367.4</ele>
        <time>2022-05-04T13:32:48Z</time>
      </trkpt>
      <trkpt lat="46.35348" lon="5.4517">
        <ele>367.6</ele>
        <time>2022-05-04T13:32:49Z</time>
      </trkpt>
      <trkpt lat="46.35363" lon="5.45232">
        <ele>368</ele>
        <time>2022-05-04T13:32:56Z</time>
      </trkpt>
      <trkpt lat="46.35364" lon="5.45256">
        <ele>368.6</ele>
        <time>2022-05-04T13:32:59Z</time>
      </trkpt>
      <trkpt lat="46.35363" lon="5.4527">
        <ele>368.8</ele>
        <time>2022-05-04T13:33:01Z</time>
      </trkpt>
      <trkpt lat="46.35362" lon="5.45277">
        <ele>369</ele>
        <time>2022-05-04T13:33:02Z</time>
      </trkpt>
      <trkpt lat="46.35361" lon="5.4529">
        <ele>369.6</ele>
        <time>2022-05-04T13:33:04Z</time>
      </trkpt>
      <trkpt lat="46.3536" lon="5.45304">
        <ele>370.4</ele>
        <time>2022-05-04T13:33:06Z</time>
      </trkpt>
      <trkpt lat="46.35359" lon="5.4531">
        <ele>370.6</ele>
        <time>2022-05-04T13:33:07Z</time>
      </trkpt>
      <trkpt lat="46.3536" lon="5.45317">
        <ele>370.8</ele>
        <time>2022-05-04T13:33:08Z</time>
      </trkpt>
      <trkpt lat="46.35363" lon="5.45345">
        <ele>372.2</ele>
        <time>2022-05-04T13:33:12Z</time>
      </trkpt>
      <trkpt lat="46.35364" lon="5.45351">
        <ele>372.4</ele>
        <time>2022-05-04T13:33:13Z</time>
      </trkpt>
      <trkpt lat="46.35371" lon="5.45378">
        <ele>373.2</ele>
        <time>2022-05-04T13:33:17Z</time>
      </trkpt>
      <trkpt lat="46.35374" lon="5.45385">
        <ele>373.6</ele>
        <time>2022-05-04T13:33:18Z</time>
      </trkpt>
      <trkpt lat="46.35377" lon="5.45391">
        <ele>373.8</ele>
        <time>2022-05-04T13:33:19Z</time>
      </trkpt>
      <trkpt lat="46.35385" lon="5.45403">
        <ele>374.2</ele>
        <time>2022-05-04T13:33:21Z</time>
      </trkpt>
      <trkpt lat="46.35393" lon="5.45415">
        <ele>374.6</ele>
        <time>2022-05-04T13:33:23Z</time>
      </trkpt>
      <trkpt lat="46.35398" lon="5.4542">
        <ele>374.6</ele>
        <time>2022-05-04T13:33:24Z</time>
      </trkpt>
      <trkpt lat="46.35403" lon="5.45424">
        <ele>374.6</ele>
        <time>2022-05-04T13:33:25Z</time>
      </trkpt>
      <trkpt lat="46.35408" lon="5.45428">
        <ele>374.8</ele>
        <time>2022-05-04T13:33:26Z</time>
      </trkpt>
      <trkpt lat="46.35429" lon="5.4544">
        <ele>375</ele>
        <time>2022-05-04T13:33:30Z</time>
      </trkpt>
      <trkpt lat="46.35442" lon="5.45444">
        <ele>375</ele>
        <time>2022-05-04T13:33:32Z</time>
      </trkpt>
      <trkpt lat="46.35471" lon="5.45445">
        <ele>374.6</ele>
        <time>2022-05-04T13:33:36Z</time>
      </trkpt>
      <trkpt lat="46.35525" lon="5.45448">
        <ele>373.6</ele>
        <time>2022-05-04T13:33:43Z</time>
      </trkpt>
      <trkpt lat="46.35576" lon="5.45458">
        <ele>372.8</ele>
        <time>2022-05-04T13:33:50Z</time>
      </trkpt>
      <trkpt lat="46.35591" lon="5.45463">
        <ele>372.8</ele>
        <time>2022-05-04T13:33:52Z</time>
      </trkpt>
      <trkpt lat="46.35648" lon="5.45485">
        <ele>373</ele>
        <time>2022-05-04T13:34:00Z</time>
      </trkpt>
      <trkpt lat="46.35662" lon="5.45493">
        <ele>373</ele>
        <time>2022-05-04T13:34:02Z</time>
      </trkpt>
      <trkpt lat="46.35675" lon="5.45507">
        <ele>372.8</ele>
        <time>2022-05-04T13:34:04Z</time>
      </trkpt>
      <trkpt lat="46.35681" lon="5.45515">
        <ele>372.6</ele>
        <time>2022-05-04T13:34:05Z</time>
      </trkpt>
      <trkpt lat="46.35686" lon="5.45525">
        <ele>372.4</ele>
        <time>2022-05-04T13:34:06Z</time>
      </trkpt>
      <trkpt lat="46.35704" lon="5.45557">
        <ele>371.6</ele>
        <time>2022-05-04T13:34:09Z</time>
      </trkpt>
      <trkpt lat="46.35711" lon="5.45565">
        <ele>371.2</ele>
        <time>2022-05-04T13:34:10Z</time>
      </trkpt>
      <trkpt lat="46.35743" lon="5.456">
        <ele>369.6</ele>
        <time>2022-05-04T13:34:14Z</time>
      </trkpt>
      <trkpt lat="46.35757" lon="5.45618">
        <ele>368.8</ele>
        <time>2022-05-04T13:34:16Z</time>
      </trkpt>
      <trkpt lat="46.35763" lon="5.45628">
        <ele>368.2</ele>
        <time>2022-05-04T13:34:17Z</time>
      </trkpt>
      <trkpt lat="46.35782" lon="5.45656">
        <ele>367.8</ele>
        <time>2022-05-04T13:34:20Z</time>
      </trkpt>
      <trkpt lat="46.35789" lon="5.45663">
        <ele>367.4</ele>
        <time>2022-05-04T13:34:21Z</time>
      </trkpt>
      <trkpt lat="46.35797" lon="5.45667">
        <ele>367.4</ele>
        <time>2022-05-04T13:34:22Z</time>
      </trkpt>
      <trkpt lat="46.35813" lon="5.45672">
        <ele>367.2</ele>
        <time>2022-05-04T13:34:24Z</time>
      </trkpt>
      <trkpt lat="46.35828" lon="5.45673">
        <ele>367.2</ele>
        <time>2022-05-04T13:34:26Z</time>
      </trkpt>
      <trkpt lat="46.35842" lon="5.45671">
        <ele>367.4</ele>
        <time>2022-05-04T13:34:28Z</time>
      </trkpt>
      <trkpt lat="46.35871" lon="5.45661">
        <ele>368.4</ele>
        <time>2022-05-04T13:34:33Z</time>
      </trkpt>
      <trkpt lat="46.35877" lon="5.45659">
        <ele>368.6</ele>
        <time>2022-05-04T13:34:34Z</time>
      </trkpt>
      <trkpt lat="46.35894" lon="5.45654">
        <ele>369.6</ele>
        <time>2022-05-04T13:34:37Z</time>
      </trkpt>
      <trkpt lat="46.35913" lon="5.45646">
        <ele>371</ele>
        <time>2022-05-04T13:34:40Z</time>
      </trkpt>
      <trkpt lat="46.35959" lon="5.45638">
        <ele>372</ele>
        <time>2022-05-04T13:34:47Z</time>
      </trkpt>
      <trkpt lat="46.35966" lon="5.45638">
        <ele>372.2</ele>
        <time>2022-05-04T13:34:48Z</time>
      </trkpt>
      <trkpt lat="46.36021" lon="5.45642">
        <ele>372.6</ele>
        <time>2022-05-04T13:34:56Z</time>
      </trkpt>
      <trkpt lat="46.36063" lon="5.45645">
        <ele>372.6</ele>
        <time>2022-05-04T13:35:02Z</time>
      </trkpt>
      <trkpt lat="46.36121" lon="5.45645">
        <ele>373.2</ele>
        <time>2022-05-04T13:35:10Z</time>
      </trkpt>
      <trkpt lat="46.36134" lon="5.45645">
        <ele>373</ele>
        <time>2022-05-04T13:35:12Z</time>
      </trkpt>
      <trkpt lat="46.36161" lon="5.45646">
        <ele>373.4</ele>
        <time>2022-05-04T13:35:16Z</time>
      </trkpt>
      <trkpt lat="46.36186" lon="5.45645">
        <ele>373.4</ele>
        <time>2022-05-04T13:35:20Z</time>
      </trkpt>
      <trkpt lat="46.36223" lon="5.45645">
        <ele>374</ele>
        <time>2022-05-04T13:35:26Z</time>
      </trkpt>
      <trkpt lat="46.36248" lon="5.45647">
        <ele>374.2</ele>
        <time>2022-05-04T13:35:30Z</time>
      </trkpt>
      <trkpt lat="46.36273" lon="5.45649">
        <ele>374.6</ele>
        <time>2022-05-04T13:35:34Z</time>
      </trkpt>
      <trkpt lat="46.36323" lon="5.45653">
        <ele>375.4</ele>
        <time>2022-05-04T13:35:42Z</time>
      </trkpt>
      <trkpt lat="46.3633" lon="5.45653">
        <ele>375.8</ele>
        <time>2022-05-04T13:35:43Z</time>
      </trkpt>
      <trkpt lat="46.36342" lon="5.45654">
        <ele>376.8</ele>
        <time>2022-05-04T13:35:45Z</time>
      </trkpt>
      <trkpt lat="46.36381" lon="5.45652">
        <ele>377.6</ele>
        <time>2022-05-04T13:35:51Z</time>
      </trkpt>
      <trkpt lat="46.36394" lon="5.45648">
        <ele>377.6</ele>
        <time>2022-05-04T13:35:53Z</time>
      </trkpt>
      <trkpt lat="46.36415" lon="5.45636">
        <ele>377.2</ele>
        <time>2022-05-04T13:35:56Z</time>
      </trkpt>
      <trkpt lat="46.36459" lon="5.4562">
        <ele>377</ele>
        <time>2022-05-04T13:36:02Z</time>
      </trkpt>
      <trkpt lat="46.3651" lon="5.45613">
        <ele>376.8</ele>
        <time>2022-05-04T13:36:09Z</time>
      </trkpt>
      <trkpt lat="46.36556" lon="5.45617">
        <ele>377.4</ele>
        <time>2022-05-04T13:36:16Z</time>
      </trkpt>
      <trkpt lat="46.36607" lon="5.45617">
        <ele>378</ele>
        <time>2022-05-04T13:36:24Z</time>
      </trkpt>
      <trkpt lat="46.36613" lon="5.45616">
        <ele>378.2</ele>
        <time>2022-05-04T13:36:25Z</time>
      </trkpt>
      <trkpt lat="46.3666" lon="5.45606">
        <ele>378.8</ele>
        <time>2022-05-04T13:36:33Z</time>
      </trkpt>
      <trkpt lat="46.36671" lon="5.45604">
        <ele>379</ele>
        <time>2022-05-04T13:36:35Z</time>
      </trkpt>
      <trkpt lat="46.36676" lon="5.45603">
        <ele>379.2</ele>
        <time>2022-05-04T13:36:36Z</time>
      </trkpt>
      <trkpt lat="46.36708" lon="5.45598">
        <ele>380</ele>
        <time>2022-05-04T13:36:42Z</time>
      </trkpt>
      <trkpt lat="46.36719" lon="5.45595">
        <ele>380.4</ele>
        <time>2022-05-04T13:36:44Z</time>
      </trkpt>
      <trkpt lat="46.36744" lon="5.45593">
        <ele>381.6</ele>
        <time>2022-05-04T13:36:48Z</time>
      </trkpt>
      <trkpt lat="46.36757" lon="5.45593">
        <ele>382</ele>
        <time>2022-05-04T13:36:50Z</time>
      </trkpt>
      <trkpt lat="46.36788" lon="5.45592">
        <ele>382.6</ele>
        <time>2022-05-04T13:36:55Z</time>
      </trkpt>
      <trkpt lat="46.36795" lon="5.45592">
        <ele>382.8</ele>
        <time>2022-05-04T13:36:56Z</time>
      </trkpt>
      <trkpt lat="46.368" lon="5.45592">
        <ele>382.8</ele>
        <time>2022-05-04T13:36:57Z</time>
      </trkpt>
      <trkpt lat="46.36835" lon="5.45593">
        <ele>383.8</ele>
        <time>2022-05-04T13:37:03Z</time>
      </trkpt>
      <trkpt lat="46.36846" lon="5.45594">
        <ele>384</ele>
        <time>2022-05-04T13:37:05Z</time>
      </trkpt>
      <trkpt lat="46.36894" lon="5.456">
        <ele>384.8</ele>
        <time>2022-05-04T13:37:13Z</time>
      </trkpt>
      <trkpt lat="46.36912" lon="5.45601">
        <ele>384.8</ele>
        <time>2022-05-04T13:37:16Z</time>
      </trkpt>
      <trkpt lat="46.36958" lon="5.4561">
        <ele>384.8</ele>
        <time>2022-05-04T13:37:24Z</time>
      </trkpt>
      <trkpt lat="46.36996" lon="5.45625">
        <ele>385.4</ele>
        <time>2022-05-04T13:37:31Z</time>
      </trkpt>
      <trkpt lat="46.37036" lon="5.45643">
        <ele>385.6</ele>
        <time>2022-05-04T13:37:39Z</time>
      </trkpt>
      <trkpt lat="46.37063" lon="5.45649">
        <ele>385.8</ele>
        <time>2022-05-04T13:37:44Z</time>
      </trkpt>
      <trkpt lat="46.37081" lon="5.4565">
        <ele>386</ele>
        <time>2022-05-04T13:37:47Z</time>
      </trkpt>
      <trkpt lat="46.37128" lon="5.4565">
        <ele>386</ele>
        <time>2022-05-04T13:37:55Z</time>
      </trkpt>
      <trkpt lat="46.37166" lon="5.45647">
        <ele>387</ele>
        <time>2022-05-04T13:38:02Z</time>
      </trkpt>
      <trkpt lat="46.37172" lon="5.45646">
        <ele>387.2</ele>
        <time>2022-05-04T13:38:03Z</time>
      </trkpt>
      <trkpt lat="46.37214" lon="5.45643">
        <ele>388.2</ele>
        <time>2022-05-04T13:38:11Z</time>
      </trkpt>
      <trkpt lat="46.37225" lon="5.45642">
        <ele>388.4</ele>
        <time>2022-05-04T13:38:13Z</time>
      </trkpt>
      <trkpt lat="46.37251" lon="5.4564">
        <ele>389.2</ele>
        <time>2022-05-04T13:38:18Z</time>
      </trkpt>
      <trkpt lat="46.37276" lon="5.45638">
        <ele>389.8</ele>
        <time>2022-05-04T13:38:23Z</time>
      </trkpt>
      <trkpt lat="46.37304" lon="5.45636">
        <ele>390.2</ele>
        <time>2022-05-04T13:38:29Z</time>
      </trkpt>
      <trkpt lat="46.37318" lon="5.45636">
        <ele>390.8</ele>
        <time>2022-05-04T13:38:32Z</time>
      </trkpt>
      <trkpt lat="46.37336" lon="5.45636">
        <ele>391.4</ele>
        <time>2022-05-04T13:38:36Z</time>
      </trkpt>
      <trkpt lat="46.37361" lon="5.45637">
        <ele>391.8</ele>
        <time>2022-05-04T13:38:41Z</time>
      </trkpt>
      <trkpt lat="46.37375" lon="5.45639">
        <ele>392.4</ele>
        <time>2022-05-04T13:38:44Z</time>
      </trkpt>
      <trkpt lat="46.37406" lon="5.45641">
        <ele>393.4</ele>
        <time>2022-05-04T13:38:51Z</time>
      </trkpt>
      <trkpt lat="46.3741" lon="5.45641">
        <ele>393.6</ele>
        <time>2022-05-04T13:38:52Z</time>
      </trkpt>
      <trkpt lat="46.37447" lon="5.45636">
        <ele>394.4</ele>
        <time>2022-05-04T13:39:00Z</time>
      </trkpt>
      <trkpt lat="46.37455" lon="5.45633">
        <ele>394.8</ele>
        <time>2022-05-04T13:39:02Z</time>
      </trkpt>
      <trkpt lat="46.37477" lon="5.45624">
        <ele>395.6</ele>
        <time>2022-05-04T13:39:07Z</time>
      </trkpt>
      <trkpt lat="46.37485" lon="5.4562">
        <ele>395.8</ele>
        <time>2022-05-04T13:39:09Z</time>
      </trkpt>
      <trkpt lat="46.37496" lon="5.45613">
        <ele>396.2</ele>
        <time>2022-05-04T13:39:12Z</time>
      </trkpt>
      <trkpt lat="46.37508" lon="5.45608">
        <ele>396.8</ele>
        <time>2022-05-04T13:39:15Z</time>
      </trkpt>
      <trkpt lat="46.37512" lon="5.45606">
        <ele>397.2</ele>
        <time>2022-05-04T13:39:16Z</time>
      </trkpt>
      <trkpt lat="46.37533" lon="5.45598">
        <ele>398</ele>
        <time>2022-05-04T13:39:21Z</time>
      </trkpt>
      <trkpt lat="46.37541" lon="5.45594">
        <ele>398.4</ele>
        <time>2022-05-04T13:39:23Z</time>
      </trkpt>
      <trkpt lat="46.37546" lon="5.45592">
        <ele>398.6</ele>
        <time>2022-05-04T13:39:24Z</time>
      </trkpt>
      <trkpt lat="46.37554" lon="5.4559">
        <ele>399.4</ele>
        <time>2022-05-04T13:39:26Z</time>
      </trkpt>
      <trkpt lat="46.37572" lon="5.45585">
        <ele>400.4</ele>
        <time>2022-05-04T13:39:31Z</time>
      </trkpt>
      <trkpt lat="46.37575" lon="5.45585">
        <ele>400.6</ele>
        <time>2022-05-04T13:39:32Z</time>
      </trkpt>
      <trkpt lat="46.37594" lon="5.45587">
        <ele>401.6</ele>
        <time>2022-05-04T13:39:36Z</time>
      </trkpt>
      <trkpt lat="46.37599" lon="5.45587">
        <ele>402</ele>
        <time>2022-05-04T13:39:37Z</time>
      </trkpt>
      <trkpt lat="46.37623" lon="5.45587">
        <ele>403</ele>
        <time>2022-05-04T13:39:42Z</time>
      </trkpt>
      <trkpt lat="46.37627" lon="5.45587">
        <ele>403</ele>
        <time>2022-05-04T13:39:43Z</time>
      </trkpt>
      <trkpt lat="46.37665" lon="5.45589">
        <ele>404</ele>
        <time>2022-05-04T13:39:51Z</time>
      </trkpt>
      <trkpt lat="46.3767" lon="5.45589">
        <ele>404</ele>
        <time>2022-05-04T13:39:52Z</time>
      </trkpt>
      <trkpt lat="46.37706" lon="5.45591">
        <ele>405</ele>
        <time>2022-05-04T13:40:00Z</time>
      </trkpt>
      <trkpt lat="46.37738" lon="5.45592">
        <ele>405.6</ele>
        <time>2022-05-04T13:40:07Z</time>
      </trkpt>
      <trkpt lat="46.37745" lon="5.45592">
        <ele>406</ele>
        <time>2022-05-04T13:40:09Z</time>
      </trkpt>
      <trkpt lat="46.37767" lon="5.45593">
        <ele>407</ele>
        <time>2022-05-04T13:40:14Z</time>
      </trkpt>
      <trkpt lat="46.37771" lon="5.45594">
        <ele>407</ele>
        <time>2022-05-04T13:40:15Z</time>
      </trkpt>
      <trkpt lat="46.37777" lon="5.45594">
        <ele>407.4</ele>
        <time>2022-05-04T13:40:16Z</time>
      </trkpt>
      <trkpt lat="46.37803" lon="5.45596">
        <ele>408.6</ele>
        <time>2022-05-04T13:40:22Z</time>
      </trkpt>
      <trkpt lat="46.37816" lon="5.45596">
        <ele>410</ele>
        <time>2022-05-04T13:40:25Z</time>
      </trkpt>
      <trkpt lat="46.37839" lon="5.45598">
        <ele>411</ele>
        <time>2022-05-04T13:40:30Z</time>
      </trkpt>
      <trkpt lat="46.37848" lon="5.45598">
        <ele>411.6</ele>
        <time>2022-05-04T13:40:32Z</time>
      </trkpt>
      <trkpt lat="46.37862" lon="5.45599">
        <ele>412</ele>
        <time>2022-05-04T13:40:35Z</time>
      </trkpt>
      <trkpt lat="46.37888" lon="5.45599">
        <ele>413.4</ele>
        <time>2022-05-04T13:40:41Z</time>
      </trkpt>
      <trkpt lat="46.37891" lon="5.45598">
        <ele>413.8</ele>
        <time>2022-05-04T13:40:42Z</time>
      </trkpt>
      <trkpt lat="46.37901" lon="5.45595">
        <ele>414.4</ele>
        <time>2022-05-04T13:40:44Z</time>
      </trkpt>
      <trkpt lat="46.37922" lon="5.4559">
        <ele>415</ele>
        <time>2022-05-04T13:40:48Z</time>
      </trkpt>
      <trkpt lat="46.37932" lon="5.45588">
        <ele>415.4</ele>
        <time>2022-05-04T13:40:50Z</time>
      </trkpt>
      <trkpt lat="46.37969" lon="5.45583">
        <ele>416.2</ele>
        <time>2022-05-04T13:40:56Z</time>
      </trkpt>
      <trkpt lat="46.38015" lon="5.45587">
        <ele>416</ele>
        <time>2022-05-04T13:41:03Z</time>
      </trkpt>
      <trkpt lat="46.38067" lon="5.45601">
        <ele>416</ele>
        <time>2022-05-04T13:41:11Z</time>
      </trkpt>
      <trkpt lat="46.38121" lon="5.45615">
        <ele>416</ele>
        <time>2022-05-04T13:41:19Z</time>
      </trkpt>
      <trkpt lat="46.38137" lon="5.45617">
        <ele>415.8</ele>
        <time>2022-05-04T13:41:21Z</time>
      </trkpt>
      <trkpt lat="46.38154" lon="5.45619">
        <ele>415.4</ele>
        <time>2022-05-04T13:41:23Z</time>
      </trkpt>
      <trkpt lat="46.38181" lon="5.45621">
        <ele>414.4</ele>
        <time>2022-05-04T13:41:26Z</time>
      </trkpt>
      <trkpt lat="46.382" lon="5.45623">
        <ele>413</ele>
        <time>2022-05-04T13:41:28Z</time>
      </trkpt>
      <trkpt lat="46.38211" lon="5.45624">
        <ele>412.6</ele>
        <time>2022-05-04T13:41:29Z</time>
      </trkpt>
      <trkpt lat="46.38236" lon="5.45626">
        <ele>412</ele>
        <time>2022-05-04T13:41:32Z</time>
      </trkpt>
      <trkpt lat="46.38282" lon="5.4563">
        <ele>411.2</ele>
        <time>2022-05-04T13:41:37Z</time>
      </trkpt>
      <trkpt lat="46.383" lon="5.45632">
        <ele>410.8</ele>
        <time>2022-05-04T13:41:39Z</time>
      </trkpt>
      <trkpt lat="46.38345" lon="5.45638">
        <ele>409.2</ele>
        <time>2022-05-04T13:41:44Z</time>
      </trkpt>
      <trkpt lat="46.38382" lon="5.45645">
        <ele>408.6</ele>
        <time>2022-05-04T13:41:48Z</time>
      </trkpt>
      <trkpt lat="46.38391" lon="5.45648">
        <ele>408</ele>
        <time>2022-05-04T13:41:49Z</time>
      </trkpt>
      <trkpt lat="46.384" lon="5.4565">
        <ele>407.8</ele>
        <time>2022-05-04T13:41:50Z</time>
      </trkpt>
      <trkpt lat="46.38426" lon="5.45656">
        <ele>406.8</ele>
        <time>2022-05-04T13:41:53Z</time>
      </trkpt>
      <trkpt lat="46.38454" lon="5.45659">
        <ele>405.8</ele>
        <time>2022-05-04T13:41:56Z</time>
      </trkpt>
      <trkpt lat="46.38506" lon="5.45661">
        <ele>404.8</ele>
        <time>2022-05-04T13:42:01Z</time>
      </trkpt>
      <trkpt lat="46.38514" lon="5.45661">
        <ele>404.6</ele>
        <time>2022-05-04T13:42:02Z</time>
      </trkpt>
      <trkpt lat="46.38524" lon="5.45661">
        <ele>403.6</ele>
        <time>2022-05-04T13:42:03Z</time>
      </trkpt>
      <trkpt lat="46.38544" lon="5.45657">
        <ele>402.4</ele>
        <time>2022-05-04T13:42:05Z</time>
      </trkpt>
      <trkpt lat="46.38567" lon="5.45653">
        <ele>401.2</ele>
        <time>2022-05-04T13:42:07Z</time>
      </trkpt>
      <trkpt lat="46.38585" lon="5.45649">
        <ele>400.2</ele>
        <time>2022-05-04T13:42:09Z</time>
      </trkpt>
      <trkpt lat="46.38615" lon="5.45645">
        <ele>398.6</ele>
        <time>2022-05-04T13:42:12Z</time>
      </trkpt>
      <trkpt lat="46.38634" lon="5.45641">
        <ele>397.6</ele>
        <time>2022-05-04T13:42:14Z</time>
      </trkpt>
      <trkpt lat="46.38678" lon="5.45635">
        <ele>397.2</ele>
        <time>2022-05-04T13:42:19Z</time>
      </trkpt>
      <trkpt lat="46.38721" lon="5.4564">
        <ele>397</ele>
        <time>2022-05-04T13:42:24Z</time>
      </trkpt>
      <trkpt lat="46.38738" lon="5.45641">
        <ele>397</ele>
        <time>2022-05-04T13:42:26Z</time>
      </trkpt>
      <trkpt lat="46.38781" lon="5.45646">
        <ele>396.6</ele>
        <time>2022-05-04T13:42:31Z</time>
      </trkpt>
      <trkpt lat="46.38805" lon="5.45651">
        <ele>396.2</ele>
        <time>2022-05-04T13:42:34Z</time>
      </trkpt>
      <trkpt lat="46.38814" lon="5.45652">
        <ele>396.4</ele>
        <time>2022-05-04T13:42:35Z</time>
      </trkpt>
      <trkpt lat="46.38843" lon="5.45652">
        <ele>396.4</ele>
        <time>2022-05-04T13:42:39Z</time>
      </trkpt>
      <trkpt lat="46.38888" lon="5.45647">
        <ele>397</ele>
        <time>2022-05-04T13:42:45Z</time>
      </trkpt>
      <trkpt lat="46.38933" lon="5.4565">
        <ele>398</ele>
        <time>2022-05-04T13:42:51Z</time>
      </trkpt>
      <trkpt lat="46.38941" lon="5.45652">
        <ele>398.2</ele>
        <time>2022-05-04T13:42:52Z</time>
      </trkpt>
      <trkpt lat="46.39001" lon="5.45656">
        <ele>397.6</ele>
        <time>2022-05-04T13:43:00Z</time>
      </trkpt>
      <trkpt lat="46.39041" lon="5.45651">
        <ele>396.6</ele>
        <time>2022-05-04T13:43:05Z</time>
      </trkpt>
      <trkpt lat="46.39065" lon="5.45646">
        <ele>396.4</ele>
        <time>2022-05-04T13:43:08Z</time>
      </trkpt>
      <trkpt lat="46.3912" lon="5.4563">
        <ele>395.8</ele>
        <time>2022-05-04T13:43:15Z</time>
      </trkpt>
      <trkpt lat="46.39127" lon="5.45627">
        <ele>395.8</ele>
        <time>2022-05-04T13:43:16Z</time>
      </trkpt>
      <trkpt lat="46.39134" lon="5.45625">
        <ele>395.6</ele>
        <time>2022-05-04T13:43:17Z</time>
      </trkpt>
      <trkpt lat="46.39166" lon="5.45612">
        <ele>394.6</ele>
        <time>2022-05-04T13:43:21Z</time>
      </trkpt>
      <trkpt lat="46.3919" lon="5.45606">
        <ele>394</ele>
        <time>2022-05-04T13:43:24Z</time>
      </trkpt>
      <trkpt lat="46.39205" lon="5.45603">
        <ele>393.6</ele>
        <time>2022-05-04T13:43:26Z</time>
      </trkpt>
      <trkpt lat="46.39221" lon="5.45599">
        <ele>393.4</ele>
        <time>2022-05-04T13:43:28Z</time>
      </trkpt>
      <trkpt lat="46.39228" lon="5.45596">
        <ele>393.4</ele>
        <time>2022-05-04T13:43:29Z</time>
      </trkpt>
      <trkpt lat="46.39282" lon="5.45571">
        <ele>393</ele>
        <time>2022-05-04T13:43:37Z</time>
      </trkpt>
      <trkpt lat="46.39318" lon="5.45554">
        <ele>392.6</ele>
        <time>2022-05-04T13:43:43Z</time>
      </trkpt>
      <trkpt lat="46.39328" lon="5.4555">
        <ele>392.8</ele>
        <time>2022-05-04T13:43:45Z</time>
      </trkpt>
      <trkpt lat="46.39333" lon="5.45551">
        <ele>392.8</ele>
        <time>2022-05-04T13:43:46Z</time>
      </trkpt>
      <trkpt lat="46.39335" lon="5.45555">
        <ele>392.8</ele>
        <time>2022-05-04T13:43:47Z</time>
      </trkpt>
      <trkpt lat="46.39335" lon="5.45565">
        <ele>392.8</ele>
        <time>2022-05-04T13:43:48Z</time>
      </trkpt>
      <trkpt lat="46.39331" lon="5.45588">
        <ele>392.6</ele>
        <time>2022-05-04T13:43:50Z</time>
      </trkpt>
      <trkpt lat="46.39329" lon="5.456">
        <ele>392.6</ele>
        <time>2022-05-04T13:43:51Z</time>
      </trkpt>
      <trkpt lat="46.39325" lon="5.45653">
        <ele>391.4</ele>
        <time>2022-05-04T13:43:55Z</time>
      </trkpt>
      <trkpt lat="46.39325" lon="5.45667">
        <ele>390.8</ele>
        <time>2022-05-04T13:43:56Z</time>
      </trkpt>
      <trkpt lat="46.39324" lon="5.45694">
        <ele>390</ele>
        <time>2022-05-04T13:43:58Z</time>
      </trkpt>
      <trkpt lat="46.39329" lon="5.45718">
        <ele>389.2</ele>
        <time>2022-05-04T13:44:00Z</time>
      </trkpt>
      <trkpt lat="46.39333" lon="5.45727">
        <ele>389</ele>
        <time>2022-05-04T13:44:01Z</time>
      </trkpt>
      <trkpt lat="46.39342" lon="5.45734">
        <ele>388.8</ele>
        <time>2022-05-04T13:44:02Z</time>
      </trkpt>
      <trkpt lat="46.39373" lon="5.4574">
        <ele>388.2</ele>
        <time>2022-05-04T13:44:06Z</time>
      </trkpt>
      <trkpt lat="46.3943" lon="5.4575">
        <ele>388.2</ele>
        <time>2022-05-04T13:44:13Z</time>
      </trkpt>
      <trkpt lat="46.39447" lon="5.45753">
        <ele>388</ele>
        <time>2022-05-04T13:44:15Z</time>
      </trkpt>
      <trkpt lat="46.39485" lon="5.45761">
        <ele>387.8</ele>
        <time>2022-05-04T13:44:20Z</time>
      </trkpt>
      <trkpt lat="46.39519" lon="5.45771">
        <ele>387.6</ele>
        <time>2022-05-04T13:44:25Z</time>
      </trkpt>
      <trkpt lat="46.39561" lon="5.4579">
        <ele>388.2</ele>
        <time>2022-05-04T13:44:32Z</time>
      </trkpt>
      <trkpt lat="46.39568" lon="5.45791">
        <ele>388.2</ele>
        <time>2022-05-04T13:44:33Z</time>
      </trkpt>
      <trkpt lat="46.39591" lon="5.45791">
        <ele>388.2</ele>
        <time>2022-05-04T13:44:36Z</time>
      </trkpt>
      <trkpt lat="46.39644" lon="5.4579">
        <ele>387.4</ele>
        <time>2022-05-04T13:44:42Z</time>
      </trkpt>
      <trkpt lat="46.39653" lon="5.45788">
        <ele>386.6</ele>
        <time>2022-05-04T13:44:43Z</time>
      </trkpt>
      <trkpt lat="46.39698" lon="5.45775">
        <ele>385.6</ele>
        <time>2022-05-04T13:44:48Z</time>
      </trkpt>
      <trkpt lat="46.39716" lon="5.45769">
        <ele>384.2</ele>
        <time>2022-05-04T13:44:50Z</time>
      </trkpt>
      <trkpt lat="46.39762" lon="5.45756">
        <ele>383.2</ele>
        <time>2022-05-04T13:44:55Z</time>
      </trkpt>
      <trkpt lat="46.39771" lon="5.45752">
        <ele>383</ele>
        <time>2022-05-04T13:44:56Z</time>
      </trkpt>
      <trkpt lat="46.39801" lon="5.45739">
        <ele>382</ele>
        <time>2022-05-04T13:44:59Z</time>
      </trkpt>
      <trkpt lat="46.39821" lon="5.4573">
        <ele>380.8</ele>
        <time>2022-05-04T13:45:01Z</time>
      </trkpt>
      <trkpt lat="46.39853" lon="5.45723">
        <ele>379.4</ele>
        <time>2022-05-04T13:45:04Z</time>
      </trkpt>
      <trkpt lat="46.39873" lon="5.4572">
        <ele>378.4</ele>
        <time>2022-05-04T13:45:06Z</time>
      </trkpt>
      <trkpt lat="46.39902" lon="5.45721">
        <ele>377.2</ele>
        <time>2022-05-04T13:45:09Z</time>
      </trkpt>
      <trkpt lat="46.3992" lon="5.45723">
        <ele>376.6</ele>
        <time>2022-05-04T13:45:11Z</time>
      </trkpt>
      <trkpt lat="46.39938" lon="5.45724">
        <ele>376</ele>
        <time>2022-05-04T13:45:13Z</time>
      </trkpt>
      <trkpt lat="46.39973" lon="5.45727">
        <ele>375.4</ele>
        <time>2022-05-04T13:45:17Z</time>
      </trkpt>
      <trkpt lat="46.39991" lon="5.45728">
        <ele>375</ele>
        <time>2022-05-04T13:45:19Z</time>
      </trkpt>
      <trkpt lat="46.39999" lon="5.45727">
        <ele>374.8</ele>
        <time>2022-05-04T13:45:20Z</time>
      </trkpt>
      <trkpt lat="46.40017" lon="5.45722">
        <ele>374.2</ele>
        <time>2022-05-04T13:45:22Z</time>
      </trkpt>
      <trkpt lat="46.40034" lon="5.45715">
        <ele>373.8</ele>
        <time>2022-05-04T13:45:24Z</time>
      </trkpt>
      <trkpt lat="46.40071" lon="5.45708">
        <ele>373</ele>
        <time>2022-05-04T13:45:28Z</time>
      </trkpt>
      <trkpt lat="46.40081" lon="5.4571">
        <ele>372.6</ele>
        <time>2022-05-04T13:45:29Z</time>
      </trkpt>
      <trkpt lat="46.40109" lon="5.45721">
        <ele>371.2</ele>
        <time>2022-05-04T13:45:32Z</time>
      </trkpt>
      <trkpt lat="46.40128" lon="5.45728">
        <ele>370.2</ele>
        <time>2022-05-04T13:45:34Z</time>
      </trkpt>
      <trkpt lat="46.40148" lon="5.45734">
        <ele>369.4</ele>
        <time>2022-05-04T13:45:36Z</time>
      </trkpt>
      <trkpt lat="46.40165" lon="5.45725">
        <ele>368.8</ele>
        <time>2022-05-04T13:45:38Z</time>
      </trkpt>
      <trkpt lat="46.40171" lon="5.45701">
        <ele>367.4</ele>
        <time>2022-05-04T13:45:40Z</time>
      </trkpt>
      <trkpt lat="46.40171" lon="5.45662">
        <ele>366.2</ele>
        <time>2022-05-04T13:45:43Z</time>
      </trkpt>
      <trkpt lat="46.4017" lon="5.45637">
        <ele>365.8</ele>
        <time>2022-05-04T13:45:45Z</time>
      </trkpt>
      <trkpt lat="46.40166" lon="5.45589">
        <ele>365</ele>
        <time>2022-05-04T13:45:49Z</time>
      </trkpt>
      <trkpt lat="46.40163" lon="5.45554">
        <ele>364.8</ele>
        <time>2022-05-04T13:45:52Z</time>
      </trkpt>
      <trkpt lat="46.40163" lon="5.45543">
        <ele>364.6</ele>
        <time>2022-05-04T13:45:53Z</time>
      </trkpt>
      <trkpt lat="46.40164" lon="5.4552">
        <ele>364.6</ele>
        <time>2022-05-04T13:45:55Z</time>
      </trkpt>
      <trkpt lat="46.40167" lon="5.45509">
        <ele>364.6</ele>
        <time>2022-05-04T13:45:56Z</time>
      </trkpt>
      <trkpt lat="46.4017" lon="5.455">
        <ele>364.8</ele>
        <time>2022-05-04T13:45:57Z</time>
      </trkpt>
      <trkpt lat="46.40183" lon="5.45473">
        <ele>364.8</ele>
        <time>2022-05-04T13:46:00Z</time>
      </trkpt>
      <trkpt lat="46.40196" lon="5.45448">
        <ele>364.8</ele>
        <time>2022-05-04T13:46:03Z</time>
      </trkpt>
      <trkpt lat="46.40202" lon="5.45443">
        <ele>364.8</ele>
        <time>2022-05-04T13:46:04Z</time>
      </trkpt>
      <trkpt lat="46.40209" lon="5.45442">
        <ele>364.8</ele>
        <time>2022-05-04T13:46:05Z</time>
      </trkpt>
      <trkpt lat="46.40216" lon="5.45444">
        <ele>364.8</ele>
        <time>2022-05-04T13:46:06Z</time>
      </trkpt>
      <trkpt lat="46.40223" lon="5.45448">
        <ele>364.8</ele>
        <time>2022-05-04T13:46:07Z</time>
      </trkpt>
      <trkpt lat="46.40237" lon="5.45457">
        <ele>364.6</ele>
        <time>2022-05-04T13:46:09Z</time>
      </trkpt>
      <trkpt lat="46.40246" lon="5.4546">
        <ele>364.6</ele>
        <time>2022-05-04T13:46:10Z</time>
      </trkpt>
      <trkpt lat="46.403" lon="5.45483">
        <ele>364</ele>
        <time>2022-05-04T13:46:17Z</time>
      </trkpt>
      <trkpt lat="46.40307" lon="5.45487">
        <ele>364</ele>
        <time>2022-05-04T13:46:18Z</time>
      </trkpt>
      <trkpt lat="46.40364" lon="5.45512">
        <ele>364.4</ele>
        <time>2022-05-04T13:46:26Z</time>
      </trkpt>
      <trkpt lat="46.40371" lon="5.45514">
        <ele>364.6</ele>
        <time>2022-05-04T13:46:27Z</time>
      </trkpt>
      <trkpt lat="46.4042" lon="5.45533">
        <ele>364.2</ele>
        <time>2022-05-04T13:46:34Z</time>
      </trkpt>
      <trkpt lat="46.40455" lon="5.45547">
        <ele>364</ele>
        <time>2022-05-04T13:46:39Z</time>
      </trkpt>
      <trkpt lat="46.40489" lon="5.45562">
        <ele>363.8</ele>
        <time>2022-05-04T13:46:44Z</time>
      </trkpt>
      <trkpt lat="46.40545" lon="5.45586">
        <ele>363.8</ele>
        <time>2022-05-04T13:46:52Z</time>
      </trkpt>
      <trkpt lat="46.40559" lon="5.45592">
        <ele>363.6</ele>
        <time>2022-05-04T13:46:54Z</time>
      </trkpt>
      <trkpt lat="46.40615" lon="5.45617">
        <ele>363.6</ele>
        <time>2022-05-04T13:47:02Z</time>
      </trkpt>
      <trkpt lat="46.4063" lon="5.45622">
        <ele>363.6</ele>
        <time>2022-05-04T13:47:04Z</time>
      </trkpt>
      <trkpt lat="46.40687" lon="5.45645">
        <ele>363.8</ele>
        <time>2022-05-04T13:47:12Z</time>
      </trkpt>
      <trkpt lat="46.407" lon="5.45655">
        <ele>363.8</ele>
        <time>2022-05-04T13:47:14Z</time>
      </trkpt>
      <trkpt lat="46.40712" lon="5.45668">
        <ele>363.8</ele>
        <time>2022-05-04T13:47:16Z</time>
      </trkpt>
      <trkpt lat="46.40718" lon="5.45675">
        <ele>363.8</ele>
        <time>2022-05-04T13:47:17Z</time>
      </trkpt>
      <trkpt lat="46.40758" lon="5.45736">
        <ele>364.4</ele>
        <time>2022-05-04T13:47:25Z</time>
      </trkpt>
      <trkpt lat="46.40776" lon="5.45762">
        <ele>365</ele>
        <time>2022-05-04T13:47:29Z</time>
      </trkpt>
      <trkpt lat="46.40781" lon="5.45767">
        <ele>365.2</ele>
        <time>2022-05-04T13:47:30Z</time>
      </trkpt>
      <trkpt lat="46.40787" lon="5.45771">
        <ele>365.2</ele>
        <time>2022-05-04T13:47:31Z</time>
      </trkpt>
      <trkpt lat="46.40805" lon="5.45775">
        <ele>365.8</ele>
        <time>2022-05-04T13:47:34Z</time>
      </trkpt>
      <trkpt lat="46.4083" lon="5.45781">
        <ele>366.6</ele>
        <time>2022-05-04T13:47:38Z</time>
      </trkpt>
      <trkpt lat="46.40836" lon="5.45783">
        <ele>367</ele>
        <time>2022-05-04T13:47:39Z</time>
      </trkpt>
      <trkpt lat="46.40842" lon="5.45787">
        <ele>367</ele>
        <time>2022-05-04T13:47:40Z</time>
      </trkpt>
      <trkpt lat="46.40891" lon="5.45821">
        <ele>367.6</ele>
        <time>2022-05-04T13:47:49Z</time>
      </trkpt>
      <trkpt lat="46.40896" lon="5.45825">
        <ele>367.8</ele>
        <time>2022-05-04T13:47:50Z</time>
      </trkpt>
      <trkpt lat="46.40922" lon="5.45843">
        <ele>368.8</ele>
        <time>2022-05-04T13:47:55Z</time>
      </trkpt>
      <trkpt lat="46.40932" lon="5.45849">
        <ele>369.2</ele>
        <time>2022-05-04T13:47:57Z</time>
      </trkpt>
      <trkpt lat="46.40968" lon="5.45867">
        <ele>370</ele>
        <time>2022-05-04T13:48:04Z</time>
      </trkpt>
      <trkpt lat="46.40988" lon="5.45876">
        <ele>370.6</ele>
        <time>2022-05-04T13:48:08Z</time>
      </trkpt>
      <trkpt lat="46.4102" lon="5.45888">
        <ele>371</ele>
        <time>2022-05-04T13:48:14Z</time>
      </trkpt>
      <trkpt lat="46.41025" lon="5.4589">
        <ele>371</ele>
        <time>2022-05-04T13:48:15Z</time>
      </trkpt>
      <trkpt lat="46.41035" lon="5.45895">
        <ele>371.4</ele>
        <time>2022-05-04T13:48:17Z</time>
      </trkpt>
      <trkpt lat="46.41046" lon="5.45898">
        <ele>371.4</ele>
        <time>2022-05-04T13:48:19Z</time>
      </trkpt>
      <trkpt lat="46.41051" lon="5.45901">
        <ele>371.6</ele>
        <time>2022-05-04T13:48:20Z</time>
      </trkpt>
      <trkpt lat="46.41077" lon="5.45912">
        <ele>372.2</ele>
        <time>2022-05-04T13:48:25Z</time>
      </trkpt>
      <trkpt lat="46.41098" lon="5.4592">
        <ele>372.2</ele>
        <time>2022-05-04T13:48:29Z</time>
      </trkpt>
      <trkpt lat="46.41146" lon="5.45941">
        <ele>372.8</ele>
        <time>2022-05-04T13:48:38Z</time>
      </trkpt>
      <trkpt lat="46.41163" lon="5.45947">
        <ele>373.2</ele>
        <time>2022-05-04T13:48:41Z</time>
      </trkpt>
      <trkpt lat="46.41206" lon="5.4596">
        <ele>373.2</ele>
        <time>2022-05-04T13:48:48Z</time>
      </trkpt>
      <trkpt lat="46.41261" lon="5.45979">
        <ele>373.4</ele>
        <time>2022-05-04T13:48:57Z</time>
      </trkpt>
      <trkpt lat="46.41316" lon="5.46004">
        <ele>373.6</ele>
        <time>2022-05-04T13:49:06Z</time>
      </trkpt>
      <trkpt lat="46.41342" lon="5.46018">
        <ele>373.6</ele>
        <time>2022-05-04T13:49:10Z</time>
      </trkpt>
      <trkpt lat="46.4136" lon="5.46035">
        <ele>373.6</ele>
        <time>2022-05-04T13:49:13Z</time>
      </trkpt>
      <trkpt lat="46.4137" lon="5.46048">
        <ele>373.6</ele>
        <time>2022-05-04T13:49:15Z</time>
      </trkpt>
      <trkpt lat="46.41383" lon="5.46072">
        <ele>373.6</ele>
        <time>2022-05-04T13:49:18Z</time>
      </trkpt>
      <trkpt lat="46.41404" lon="5.46115">
        <ele>373.8</ele>
        <time>2022-05-04T13:49:24Z</time>
      </trkpt>
      <trkpt lat="46.41413" lon="5.46127">
        <ele>374</ele>
        <time>2022-05-04T13:49:26Z</time>
      </trkpt>
      <trkpt lat="46.41424" lon="5.46136">
        <ele>374.4</ele>
        <time>2022-05-04T13:49:28Z</time>
      </trkpt>
      <trkpt lat="46.41456" lon="5.4615">
        <ele>374.6</ele>
        <time>2022-05-04T13:49:33Z</time>
      </trkpt>
      <trkpt lat="46.41503" lon="5.46165">
        <ele>374.6</ele>
        <time>2022-05-04T13:49:40Z</time>
      </trkpt>
      <trkpt lat="46.4156" lon="5.46183">
        <ele>374.4</ele>
        <time>2022-05-04T13:49:48Z</time>
      </trkpt>
      <trkpt lat="46.41617" lon="5.46204">
        <ele>374</ele>
        <time>2022-05-04T13:49:56Z</time>
      </trkpt>
      <trkpt lat="46.4163" lon="5.46214">
        <ele>374</ele>
        <time>2022-05-04T13:49:58Z</time>
      </trkpt>
      <trkpt lat="46.4164" lon="5.46228">
        <ele>374</ele>
        <time>2022-05-04T13:50:00Z</time>
      </trkpt>
      <trkpt lat="46.41663" lon="5.46278">
        <ele>374.6</ele>
        <time>2022-05-04T13:50:06Z</time>
      </trkpt>
      <trkpt lat="46.41691" lon="5.46345">
        <ele>375.4</ele>
        <time>2022-05-04T13:50:14Z</time>
      </trkpt>
      <trkpt lat="46.41702" lon="5.46369">
        <ele>375.6</ele>
        <time>2022-05-04T13:50:17Z</time>
      </trkpt>
      <trkpt lat="46.41705" lon="5.46377">
        <ele>375.8</ele>
        <time>2022-05-04T13:50:18Z</time>
      </trkpt>
      <trkpt lat="46.41728" lon="5.4643">
        <ele>376.8</ele>
        <time>2022-05-04T13:50:25Z</time>
      </trkpt>
      <trkpt lat="46.41732" lon="5.46437">
        <ele>377</ele>
        <time>2022-05-04T13:50:26Z</time>
      </trkpt>
      <trkpt lat="46.41758" lon="5.46498">
        <ele>377.8</ele>
        <time>2022-05-04T13:50:34Z</time>
      </trkpt>
      <trkpt lat="46.41762" lon="5.46506">
        <ele>378</ele>
        <time>2022-05-04T13:50:35Z</time>
      </trkpt>
      <trkpt lat="46.41781" lon="5.46551">
        <ele>378.6</ele>
        <time>2022-05-04T13:50:41Z</time>
      </trkpt>
      <trkpt lat="46.41798" lon="5.46587">
        <ele>379.2</ele>
        <time>2022-05-04T13:50:46Z</time>
      </trkpt>
      <trkpt lat="46.41806" lon="5.46598">
        <ele>379.2</ele>
        <time>2022-05-04T13:50:48Z</time>
      </trkpt>
      <trkpt lat="46.41815" lon="5.46606">
        <ele>379.6</ele>
        <time>2022-05-04T13:50:50Z</time>
      </trkpt>
      <trkpt lat="46.41826" lon="5.46611">
        <ele>380</ele>
        <time>2022-05-04T13:50:52Z</time>
      </trkpt>
      <trkpt lat="46.41833" lon="5.46611">
        <ele>380.2</ele>
        <time>2022-05-04T13:50:53Z</time>
      </trkpt>
      <trkpt lat="46.41846" lon="5.46611">
        <ele>380.4</ele>
        <time>2022-05-04T13:50:55Z</time>
      </trkpt>
      <trkpt lat="46.41852" lon="5.46611">
        <ele>380.4</ele>
        <time>2022-05-04T13:50:56Z</time>
      </trkpt>
      <trkpt lat="46.41892" lon="5.46622">
        <ele>380.8</ele>
        <time>2022-05-04T13:51:02Z</time>
      </trkpt>
      <trkpt lat="46.41948" lon="5.46651">
        <ele>380.6</ele>
        <time>2022-05-04T13:51:11Z</time>
      </trkpt>
      <trkpt lat="46.4196" lon="5.46659">
        <ele>380.6</ele>
        <time>2022-05-04T13:51:13Z</time>
      </trkpt>
      <trkpt lat="46.41994" lon="5.46688">
        <ele>380.4</ele>
        <time>2022-05-04T13:51:19Z</time>
      </trkpt>
      <trkpt lat="46.42014" lon="5.46708">
        <ele>379.2</ele>
        <time>2022-05-04T13:51:24Z</time>
      </trkpt>
      <trkpt lat="46.42017" lon="5.46708">
        <ele>379</ele>
        <time>2022-05-04T13:51:25Z</time>
      </trkpt>
      <trkpt lat="46.42024" lon="5.467">
        <ele>378.4</ele>
        <time>2022-05-04T13:51:27Z</time>
      </trkpt>
      <trkpt lat="46.42029" lon="5.46687">
        <ele>378</ele>
        <time>2022-05-04T13:51:29Z</time>
      </trkpt>
      <trkpt lat="46.42033" lon="5.46672">
        <ele>377.6</ele>
        <time>2022-05-04T13:51:31Z</time>
      </trkpt>
      <trkpt lat="46.42044" lon="5.46632">
        <ele>377.4</ele>
        <time>2022-05-04T13:51:36Z</time>
      </trkpt>
      <trkpt lat="46.4206" lon="5.46563">
        <ele>378</ele>
        <time>2022-05-04T13:51:43Z</time>
      </trkpt>
      <trkpt lat="46.42063" lon="5.46543">
        <ele>378</ele>
        <time>2022-05-04T13:51:45Z</time>
      </trkpt>
      <trkpt lat="46.42061" lon="5.46524">
        <ele>378.2</ele>
        <time>2022-05-04T13:51:47Z</time>
      </trkpt>
      <trkpt lat="46.42046" lon="5.46448">
        <ele>378.2</ele>
        <time>2022-05-04T13:51:55Z</time>
      </trkpt>
      <trkpt lat="46.42042" lon="5.46363">
        <ele>378.8</ele>
        <time>2022-05-04T13:52:04Z</time>
      </trkpt>
      <trkpt lat="46.42042" lon="5.46353">
        <ele>378.8</ele>
        <time>2022-05-04T13:52:05Z</time>
      </trkpt>
      <trkpt lat="46.4204" lon="5.46274">
        <ele>378.8</ele>
        <time>2022-05-04T13:52:13Z</time>
      </trkpt>
      <trkpt lat="46.42046" lon="5.46214">
        <ele>378.4</ele>
        <time>2022-05-04T13:52:19Z</time>
      </trkpt>
      <trkpt lat="46.42064" lon="5.46152">
        <ele>378.2</ele>
        <time>2022-05-04T13:52:26Z</time>
      </trkpt>
      <trkpt lat="46.42092" lon="5.46081">
        <ele>377.6</ele>
        <time>2022-05-04T13:52:34Z</time>
      </trkpt>
      <trkpt lat="46.42097" lon="5.4606">
        <ele>377.4</ele>
        <time>2022-05-04T13:52:36Z</time>
      </trkpt>
      <trkpt lat="46.42099" lon="5.46036">
        <ele>377</ele>
        <time>2022-05-04T13:52:38Z</time>
      </trkpt>
      <trkpt lat="46.42096" lon="5.46009">
        <ele>376.6</ele>
        <time>2022-05-04T13:52:40Z</time>
      </trkpt>
      <trkpt lat="46.4209" lon="5.45982">
        <ele>376</ele>
        <time>2022-05-04T13:52:42Z</time>
      </trkpt>
      <trkpt lat="46.42079" lon="5.4594">
        <ele>374.4</ele>
        <time>2022-05-04T13:52:45Z</time>
      </trkpt>
      <trkpt lat="46.4207" lon="5.45914">
        <ele>373.2</ele>
        <time>2022-05-04T13:52:47Z</time>
      </trkpt>
      <trkpt lat="46.42059" lon="5.45876">
        <ele>371.4</ele>
        <time>2022-05-04T13:52:50Z</time>
      </trkpt>
      <trkpt lat="46.42047" lon="5.45842">
        <ele>370.8</ele>
        <time>2022-05-04T13:52:53Z</time>
      </trkpt>
      <trkpt lat="46.42033" lon="5.45797">
        <ele>370.4</ele>
        <time>2022-05-04T13:52:57Z</time>
      </trkpt>
      <trkpt lat="46.42027" lon="5.45774">
        <ele>370.2</ele>
        <time>2022-05-04T13:52:59Z</time>
      </trkpt>
      <trkpt lat="46.42022" lon="5.45751">
        <ele>370</ele>
        <time>2022-05-04T13:53:01Z</time>
      </trkpt>
      <trkpt lat="46.42021" lon="5.45728">
        <ele>369.8</ele>
        <time>2022-05-04T13:53:03Z</time>
      </trkpt>
      <trkpt lat="46.42025" lon="5.45672">
        <ele>369.8</ele>
        <time>2022-05-04T13:53:08Z</time>
      </trkpt>
      <trkpt lat="46.42034" lon="5.4563">
        <ele>369.8</ele>
        <time>2022-05-04T13:53:12Z</time>
      </trkpt>
      <trkpt lat="46.42042" lon="5.45612">
        <ele>369.8</ele>
        <time>2022-05-04T13:53:14Z</time>
      </trkpt>
      <trkpt lat="46.42052" lon="5.45598">
        <ele>369.8</ele>
        <time>2022-05-04T13:53:16Z</time>
      </trkpt>
      <trkpt lat="46.42058" lon="5.45593">
        <ele>369.8</ele>
        <time>2022-05-04T13:53:17Z</time>
      </trkpt>
      <trkpt lat="46.42065" lon="5.4559">
        <ele>369.8</ele>
        <time>2022-05-04T13:53:18Z</time>
      </trkpt>
      <trkpt lat="46.42077" lon="5.4559">
        <ele>370</ele>
        <time>2022-05-04T13:53:20Z</time>
      </trkpt>
      <trkpt lat="46.42092" lon="5.45598">
        <ele>370.4</ele>
        <time>2022-05-04T13:53:23Z</time>
      </trkpt>
      <trkpt lat="46.42096" lon="5.45602">
        <ele>371</ele>
        <time>2022-05-04T13:53:24Z</time>
      </trkpt>
      <trkpt lat="46.42101" lon="5.45606">
        <ele>371</ele>
        <time>2022-05-04T13:53:25Z</time>
      </trkpt>
      <trkpt lat="46.42109" lon="5.45617">
        <ele>371.8</ele>
        <time>2022-05-04T13:53:27Z</time>
      </trkpt>
      <trkpt lat="46.42112" lon="5.45621">
        <ele>372</ele>
        <time>2022-05-04T13:53:28Z</time>
      </trkpt>
      <trkpt lat="46.4213" lon="5.45639">
        <ele>373</ele>
        <time>2022-05-04T13:53:33Z</time>
      </trkpt>
      <trkpt lat="46.42134" lon="5.45642">
        <ele>373.4</ele>
        <time>2022-05-04T13:53:34Z</time>
      </trkpt>
      <trkpt lat="46.42141" lon="5.45648">
        <ele>374.2</ele>
        <time>2022-05-04T13:53:36Z</time>
      </trkpt>
      <trkpt lat="46.42154" lon="5.45657">
        <ele>375.2</ele>
        <time>2022-05-04T13:53:39Z</time>
      </trkpt>
      <trkpt lat="46.42164" lon="5.45662">
        <ele>375.8</ele>
        <time>2022-05-04T13:53:41Z</time>
      </trkpt>
      <trkpt lat="46.42179" lon="5.45668">
        <ele>376.4</ele>
        <time>2022-05-04T13:53:44Z</time>
      </trkpt>
      <trkpt lat="46.42194" lon="5.45671">
        <ele>376.8</ele>
        <time>2022-05-04T13:53:47Z</time>
      </trkpt>
      <trkpt lat="46.42199" lon="5.45671">
        <ele>377</ele>
        <time>2022-05-04T13:53:48Z</time>
      </trkpt>
      <trkpt lat="46.42203" lon="5.4567">
        <ele>377.2</ele>
        <time>2022-05-04T13:53:49Z</time>
      </trkpt>
      <trkpt lat="46.42208" lon="5.45669">
        <ele>377.4</ele>
        <time>2022-05-04T13:53:50Z</time>
      </trkpt>
      <trkpt lat="46.42216" lon="5.45665">
        <ele>377.8</ele>
        <time>2022-05-04T13:53:52Z</time>
      </trkpt>
      <trkpt lat="46.42219" lon="5.45662">
        <ele>377.8</ele>
        <time>2022-05-04T13:53:53Z</time>
      </trkpt>
      <trkpt lat="46.42226" lon="5.45655">
        <ele>378.6</ele>
        <time>2022-05-04T13:53:55Z</time>
      </trkpt>
      <trkpt lat="46.42237" lon="5.45641">
        <ele>379.6</ele>
        <time>2022-05-04T13:53:59Z</time>
      </trkpt>
      <trkpt lat="46.4224" lon="5.45637">
        <ele>379.8</ele>
        <time>2022-05-04T13:54:00Z</time>
      </trkpt>
      <trkpt lat="46.42248" lon="5.45626">
        <ele>380.8</ele>
        <time>2022-05-04T13:54:03Z</time>
      </trkpt>
      <trkpt lat="46.42255" lon="5.4562">
        <ele>381.2</ele>
        <time>2022-05-04T13:54:05Z</time>
      </trkpt>
      <trkpt lat="46.42262" lon="5.45613">
        <ele>381.8</ele>
        <time>2022-05-04T13:54:07Z</time>
      </trkpt>
      <trkpt lat="46.4228" lon="5.45599">
        <ele>383</ele>
        <time>2022-05-04T13:54:12Z</time>
      </trkpt>
      <trkpt lat="46.42286" lon="5.45593">
        <ele>383.6</ele>
        <time>2022-05-04T13:54:14Z</time>
      </trkpt>
      <trkpt lat="46.42289" lon="5.4559">
        <ele>384.2</ele>
        <time>2022-05-04T13:54:15Z</time>
      </trkpt>
      <trkpt lat="46.42304" lon="5.45564">
        <ele>384.8</ele>
        <time>2022-05-04T13:54:21Z</time>
      </trkpt>
      <trkpt lat="46.42309" lon="5.45554">
        <ele>385.2</ele>
        <time>2022-05-04T13:54:23Z</time>
      </trkpt>
      <trkpt lat="46.42318" lon="5.45541">
        <ele>385.6</ele>
        <time>2022-05-04T13:54:26Z</time>
      </trkpt>
      <trkpt lat="46.42322" lon="5.45539">
        <ele>385.6</ele>
        <time>2022-05-04T13:54:27Z</time>
      </trkpt>
      <trkpt lat="46.42327" lon="5.45539">
        <ele>385.6</ele>
        <time>2022-05-04T13:54:28Z</time>
      </trkpt>
      <trkpt lat="46.42343" lon="5.45542">
        <ele>385.8</ele>
        <time>2022-05-04T13:54:31Z</time>
      </trkpt>
      <trkpt lat="46.42385" lon="5.45556">
        <ele>386</ele>
        <time>2022-05-04T13:54:38Z</time>
      </trkpt>
      <trkpt lat="46.42438" lon="5.45573">
        <ele>384.4</ele>
        <time>2022-05-04T13:54:45Z</time>
      </trkpt>
      <trkpt lat="46.42447" lon="5.45576">
        <ele>384</ele>
        <time>2022-05-04T13:54:46Z</time>
      </trkpt>
      <trkpt lat="46.42504" lon="5.45595">
        <ele>382.8</ele>
        <time>2022-05-04T13:54:53Z</time>
      </trkpt>
      <trkpt lat="46.42559" lon="5.45613">
        <ele>382</ele>
        <time>2022-05-04T13:55:00Z</time>
      </trkpt>
      <trkpt lat="46.42588" lon="5.45622">
        <ele>382</ele>
        <time>2022-05-04T13:55:04Z</time>
      </trkpt>
      <trkpt lat="46.42643" lon="5.45639">
        <ele>382</ele>
        <time>2022-05-04T13:55:12Z</time>
      </trkpt>
      <trkpt lat="46.42649" lon="5.45641">
        <ele>382.2</ele>
        <time>2022-05-04T13:55:13Z</time>
      </trkpt>
      <trkpt lat="46.42692" lon="5.45655">
        <ele>382.8</ele>
        <time>2022-05-04T13:55:20Z</time>
      </trkpt>
      <trkpt lat="46.42699" lon="5.45657">
        <ele>382.8</ele>
        <time>2022-05-04T13:55:21Z</time>
      </trkpt>
      <trkpt lat="46.42754" lon="5.45673">
        <ele>383.6</ele>
        <time>2022-05-04T13:55:30Z</time>
      </trkpt>
      <trkpt lat="46.42761" lon="5.45674">
        <ele>383.6</ele>
        <time>2022-05-04T13:55:31Z</time>
      </trkpt>
      <trkpt lat="46.42815" lon="5.45681">
        <ele>383.2</ele>
        <time>2022-05-04T13:55:39Z</time>
      </trkpt>
      <trkpt lat="46.42871" lon="5.45682">
        <ele>382.8</ele>
        <time>2022-05-04T13:55:47Z</time>
      </trkpt>
      <trkpt lat="46.42925" lon="5.45683">
        <ele>381.8</ele>
        <time>2022-05-04T13:55:54Z</time>
      </trkpt>
      <trkpt lat="46.42933" lon="5.45684">
        <ele>381.6</ele>
        <time>2022-05-04T13:55:55Z</time>
      </trkpt>
      <trkpt lat="46.42941" lon="5.45684">
        <ele>381.4</ele>
        <time>2022-05-04T13:55:56Z</time>
      </trkpt>
      <trkpt lat="46.42958" lon="5.45685">
        <ele>380.4</ele>
        <time>2022-05-04T13:55:58Z</time>
      </trkpt>
      <trkpt lat="46.42991" lon="5.45685">
        <ele>379.6</ele>
        <time>2022-05-04T13:56:02Z</time>
      </trkpt>
      <trkpt lat="46.42999" lon="5.45686">
        <ele>379.4</ele>
        <time>2022-05-04T13:56:03Z</time>
      </trkpt>
      <trkpt lat="46.43007" lon="5.45686">
        <ele>379</ele>
        <time>2022-05-04T13:56:04Z</time>
      </trkpt>
      <trkpt lat="46.43068" lon="5.45687">
        <ele>378.2</ele>
        <time>2022-05-04T13:56:11Z</time>
      </trkpt>
      <trkpt lat="46.43105" lon="5.45688">
        <ele>378</ele>
        <time>2022-05-04T13:56:15Z</time>
      </trkpt>
      <trkpt lat="46.43143" lon="5.45688">
        <ele>377.2</ele>
        <time>2022-05-04T13:56:19Z</time>
      </trkpt>
      <trkpt lat="46.4318" lon="5.45689">
        <ele>376.2</ele>
        <time>2022-05-04T13:56:23Z</time>
      </trkpt>
      <trkpt lat="46.43189" lon="5.45689">
        <ele>376</ele>
        <time>2022-05-04T13:56:24Z</time>
      </trkpt>
      <trkpt lat="46.43225" lon="5.4569">
        <ele>375</ele>
        <time>2022-05-04T13:56:28Z</time>
      </trkpt>
      <trkpt lat="46.43266" lon="5.45691">
        <ele>374.4</ele>
        <time>2022-05-04T13:56:33Z</time>
      </trkpt>
      <trkpt lat="46.43321" lon="5.45692">
        <ele>374.2</ele>
        <time>2022-05-04T13:56:40Z</time>
      </trkpt>
      <trkpt lat="46.43329" lon="5.45692">
        <ele>374.2</ele>
        <time>2022-05-04T13:56:41Z</time>
      </trkpt>
      <trkpt lat="46.43351" lon="5.45692">
        <ele>374.2</ele>
        <time>2022-05-04T13:56:44Z</time>
      </trkpt>
      <trkpt lat="46.43389" lon="5.45694">
        <ele>374.2</ele>
        <time>2022-05-04T13:56:49Z</time>
      </trkpt>
      <trkpt lat="46.43446" lon="5.45695">
        <ele>374.4</ele>
        <time>2022-05-04T13:56:57Z</time>
      </trkpt>
      <trkpt lat="46.43454" lon="5.45695">
        <ele>374.2</ele>
        <time>2022-05-04T13:56:58Z</time>
      </trkpt>
      <trkpt lat="46.43509" lon="5.45697">
        <ele>374.2</ele>
        <time>2022-05-04T13:57:06Z</time>
      </trkpt>
      <trkpt lat="46.43516" lon="5.45697">
        <ele>374</ele>
        <time>2022-05-04T13:57:07Z</time>
      </trkpt>
      <trkpt lat="46.43523" lon="5.45697">
        <ele>374</ele>
        <time>2022-05-04T13:57:08Z</time>
      </trkpt>
      <trkpt lat="46.43578" lon="5.45699">
        <ele>374</ele>
        <time>2022-05-04T13:57:16Z</time>
      </trkpt>
      <trkpt lat="46.43599" lon="5.45699">
        <ele>373.8</ele>
        <time>2022-05-04T13:57:19Z</time>
      </trkpt>
      <trkpt lat="46.43654" lon="5.457">
        <ele>373.4</ele>
        <time>2022-05-04T13:57:27Z</time>
      </trkpt>
      <trkpt lat="46.43661" lon="5.457">
        <ele>373.4</ele>
        <time>2022-05-04T13:57:28Z</time>
      </trkpt>
      <trkpt lat="46.43696" lon="5.457">
        <ele>373.2</ele>
        <time>2022-05-04T13:57:33Z</time>
      </trkpt>
      <trkpt lat="46.43723" lon="5.45701">
        <ele>373.2</ele>
        <time>2022-05-04T13:57:37Z</time>
      </trkpt>
      <trkpt lat="46.43775" lon="5.45703">
        <ele>373.6</ele>
        <time>2022-05-04T13:57:45Z</time>
      </trkpt>
      <trkpt lat="46.43812" lon="5.45703">
        <ele>373.8</ele>
        <time>2022-05-04T13:57:51Z</time>
      </trkpt>
      <trkpt lat="46.43867" lon="5.457">
        <ele>374</ele>
        <time>2022-05-04T13:58:00Z</time>
      </trkpt>
      <trkpt lat="46.43873" lon="5.457">
        <ele>374</ele>
        <time>2022-05-04T13:58:01Z</time>
      </trkpt>
      <trkpt lat="46.4393" lon="5.45691">
        <ele>374.2</ele>
        <time>2022-05-04T13:58:10Z</time>
      </trkpt>
      <trkpt lat="46.43955" lon="5.45686">
        <ele>374.2</ele>
        <time>2022-05-04T13:58:14Z</time>
      </trkpt>
      <trkpt lat="46.44004" lon="5.45677">
        <ele>374.2</ele>
        <time>2022-05-04T13:58:22Z</time>
      </trkpt>
      <trkpt lat="46.44034" lon="5.45672">
        <ele>374.4</ele>
        <time>2022-05-04T13:58:27Z</time>
      </trkpt>
      <trkpt lat="46.44053" lon="5.45668">
        <ele>374.6</ele>
        <time>2022-05-04T13:58:30Z</time>
      </trkpt>
      <trkpt lat="46.44088" lon="5.45662">
        <ele>375.2</ele>
        <time>2022-05-04T13:58:36Z</time>
      </trkpt>
      <trkpt lat="46.44094" lon="5.45661">
        <ele>375.6</ele>
        <time>2022-05-04T13:58:37Z</time>
      </trkpt>
      <trkpt lat="46.4413" lon="5.45655">
        <ele>376.2</ele>
        <time>2022-05-04T13:58:43Z</time>
      </trkpt>
      <trkpt lat="46.44186" lon="5.45643">
        <ele>376.4</ele>
        <time>2022-05-04T13:58:52Z</time>
      </trkpt>
      <trkpt lat="46.44198" lon="5.45641">
        <ele>376.4</ele>
        <time>2022-05-04T13:58:54Z</time>
      </trkpt>
      <trkpt lat="46.44216" lon="5.45637">
        <ele>376.6</ele>
        <time>2022-05-04T13:58:57Z</time>
      </trkpt>
      <trkpt lat="46.44257" lon="5.45631">
        <ele>377</ele>
        <time>2022-05-04T13:59:04Z</time>
      </trkpt>
      <trkpt lat="46.44303" lon="5.45632">
        <ele>377.6</ele>
        <time>2022-05-04T13:59:12Z</time>
      </trkpt>
      <trkpt lat="46.44308" lon="5.45633">
        <ele>377.6</ele>
        <time>2022-05-04T13:59:13Z</time>
      </trkpt>
      <trkpt lat="46.44353" lon="5.45638">
        <ele>378.4</ele>
        <time>2022-05-04T13:59:21Z</time>
      </trkpt>
      <trkpt lat="46.4438" lon="5.45642">
        <ele>378.6</ele>
        <time>2022-05-04T13:59:26Z</time>
      </trkpt>
      <trkpt lat="46.44401" lon="5.45644">
        <ele>379.2</ele>
        <time>2022-05-04T13:59:30Z</time>
      </trkpt>
      <trkpt lat="46.44417" lon="5.45645">
        <ele>379.8</ele>
        <time>2022-05-04T13:59:33Z</time>
      </trkpt>
      <trkpt lat="46.44443" lon="5.45648">
        <ele>380.8</ele>
        <time>2022-05-04T13:59:38Z</time>
      </trkpt>
      <trkpt lat="46.44448" lon="5.45648">
        <ele>381</ele>
        <time>2022-05-04T13:59:39Z</time>
      </trkpt>
      <trkpt lat="46.44474" lon="5.45652">
        <ele>382</ele>
        <time>2022-05-04T13:59:44Z</time>
      </trkpt>
      <trkpt lat="46.4449" lon="5.45653">
        <ele>382.4</ele>
        <time>2022-05-04T13:59:47Z</time>
      </trkpt>
      <trkpt lat="46.4452" lon="5.45661">
        <ele>382.8</ele>
        <time>2022-05-04T13:59:52Z</time>
      </trkpt>
      <trkpt lat="46.44565" lon="5.45674">
        <ele>382.6</ele>
        <time>2022-05-04T13:59:59Z</time>
      </trkpt>
      <trkpt lat="46.4462" lon="5.45692">
        <ele>382</ele>
        <time>2022-05-04T14:00:07Z</time>
      </trkpt>
      <trkpt lat="46.44627" lon="5.45694">
        <ele>382</ele>
        <time>2022-05-04T14:00:08Z</time>
      </trkpt>
      <trkpt lat="46.4468" lon="5.45714">
        <ele>382</ele>
        <time>2022-05-04T14:00:16Z</time>
      </trkpt>
      <trkpt lat="46.44687" lon="5.45716">
        <ele>382.2</ele>
        <time>2022-05-04T14:00:17Z</time>
      </trkpt>
      <trkpt lat="46.44741" lon="5.4574">
        <ele>382.4</ele>
        <time>2022-05-04T14:00:26Z</time>
      </trkpt>
      <trkpt lat="46.44792" lon="5.45768">
        <ele>383</ele>
        <time>2022-05-04T14:00:35Z</time>
      </trkpt>
      <trkpt lat="46.44811" lon="5.45779">
        <ele>383.4</ele>
        <time>2022-05-04T14:00:38Z</time>
      </trkpt>
      <trkpt lat="46.44853" lon="5.45803">
        <ele>384.2</ele>
        <time>2022-05-04T14:00:45Z</time>
      </trkpt>
      <trkpt lat="46.44909" lon="5.45834">
        <ele>384</ele>
        <time>2022-05-04T14:00:54Z</time>
      </trkpt>
      <trkpt lat="46.44956" lon="5.45862">
        <ele>383.4</ele>
        <time>2022-05-04T14:01:01Z</time>
      </trkpt>
      <trkpt lat="46.44964" lon="5.45867">
        <ele>383.4</ele>
        <time>2022-05-04T14:01:02Z</time>
      </trkpt>
      <trkpt lat="46.45008" lon="5.45893">
        <ele>382.2</ele>
        <time>2022-05-04T14:01:08Z</time>
      </trkpt>
      <trkpt lat="46.45024" lon="5.45903">
        <ele>382</ele>
        <time>2022-05-04T14:01:10Z</time>
      </trkpt>
      <trkpt lat="46.45047" lon="5.45917">
        <ele>381.2</ele>
        <time>2022-05-04T14:01:13Z</time>
      </trkpt>
      <trkpt lat="46.45085" lon="5.45937">
        <ele>380.2</ele>
        <time>2022-05-04T14:01:18Z</time>
      </trkpt>
      <trkpt lat="46.45133" lon="5.45965">
        <ele>379.8</ele>
        <time>2022-05-04T14:01:25Z</time>
      </trkpt>
      <trkpt lat="46.45167" lon="5.45991">
        <ele>380.2</ele>
        <time>2022-05-04T14:01:31Z</time>
      </trkpt>
      <trkpt lat="46.45188" lon="5.46006">
        <ele>380.6</ele>
        <time>2022-05-04T14:01:35Z</time>
      </trkpt>
      <trkpt lat="46.45198" lon="5.46014">
        <ele>380.8</ele>
        <time>2022-05-04T14:01:37Z</time>
      </trkpt>
      <trkpt lat="46.45207" lon="5.46023">
        <ele>381.4</ele>
        <time>2022-05-04T14:01:39Z</time>
      </trkpt>
      <trkpt lat="46.45227" lon="5.46039">
        <ele>382</ele>
        <time>2022-05-04T14:01:43Z</time>
      </trkpt>
      <trkpt lat="46.45237" lon="5.46045">
        <ele>382.4</ele>
        <time>2022-05-04T14:01:45Z</time>
      </trkpt>
      <trkpt lat="46.45254" lon="5.4605">
        <ele>383</ele>
        <time>2022-05-04T14:01:48Z</time>
      </trkpt>
      <trkpt lat="46.45267" lon="5.46053">
        <ele>383.6</ele>
        <time>2022-05-04T14:01:50Z</time>
      </trkpt>
      <trkpt lat="46.45294" lon="5.46058">
        <ele>384.4</ele>
        <time>2022-05-04T14:01:54Z</time>
      </trkpt>
      <trkpt lat="46.45314" lon="5.46061">
        <ele>384.8</ele>
        <time>2022-05-04T14:01:57Z</time>
      </trkpt>
      <trkpt lat="46.45355" lon="5.46068">
        <ele>385</ele>
        <time>2022-05-04T14:02:03Z</time>
      </trkpt>
      <trkpt lat="46.45412" lon="5.46077">
        <ele>385</ele>
        <time>2022-05-04T14:02:11Z</time>
      </trkpt>
      <trkpt lat="46.45474" lon="5.46089">
        <ele>384.4</ele>
        <time>2022-05-04T14:02:19Z</time>
      </trkpt>
      <trkpt lat="46.45482" lon="5.4609">
        <ele>384.4</ele>
        <time>2022-05-04T14:02:20Z</time>
      </trkpt>
      <trkpt lat="46.45517" lon="5.46096">
        <ele>383.8</ele>
        <time>2022-05-04T14:02:24Z</time>
      </trkpt>
      <trkpt lat="46.45526" lon="5.46098">
        <ele>383.6</ele>
        <time>2022-05-04T14:02:25Z</time>
      </trkpt>
      <trkpt lat="46.45563" lon="5.46105">
        <ele>383.2</ele>
        <time>2022-05-04T14:02:29Z</time>
      </trkpt>
      <trkpt lat="46.45582" lon="5.46108">
        <ele>382.6</ele>
        <time>2022-05-04T14:02:31Z</time>
      </trkpt>
      <trkpt lat="46.45591" lon="5.46109">
        <ele>382.4</ele>
        <time>2022-05-04T14:02:32Z</time>
      </trkpt>
      <trkpt lat="46.45625" lon="5.46113">
        <ele>381.4</ele>
        <time>2022-05-04T14:02:36Z</time>
      </trkpt>
      <trkpt lat="46.45664" lon="5.4612">
        <ele>381</ele>
        <time>2022-05-04T14:02:40Z</time>
      </trkpt>
      <trkpt lat="46.45699" lon="5.46129">
        <ele>380.2</ele>
        <time>2022-05-04T14:02:44Z</time>
      </trkpt>
      <trkpt lat="46.45752" lon="5.46139">
        <ele>379.4</ele>
        <time>2022-05-04T14:02:50Z</time>
      </trkpt>
      <trkpt lat="46.45778" lon="5.46143">
        <ele>379.2</ele>
        <time>2022-05-04T14:02:53Z</time>
      </trkpt>
      <trkpt lat="46.45827" lon="5.46152">
        <ele>379</ele>
        <time>2022-05-04T14:02:59Z</time>
      </trkpt>
      <trkpt lat="46.45883" lon="5.46162">
        <ele>378.8</ele>
        <time>2022-05-04T14:03:06Z</time>
      </trkpt>
      <trkpt lat="46.45899" lon="5.46165">
        <ele>379</ele>
        <time>2022-05-04T14:03:08Z</time>
      </trkpt>
      <trkpt lat="46.45954" lon="5.46175">
        <ele>379</ele>
        <time>2022-05-04T14:03:15Z</time>
      </trkpt>
      <trkpt lat="46.45986" lon="5.46181">
        <ele>378.8</ele>
        <time>2022-05-04T14:03:19Z</time>
      </trkpt>
      <trkpt lat="46.46042" lon="5.4619">
        <ele>378.8</ele>
        <time>2022-05-04T14:03:26Z</time>
      </trkpt>
      <trkpt lat="46.46066" lon="5.46194">
        <ele>378.8</ele>
        <time>2022-05-04T14:03:29Z</time>
      </trkpt>
      <trkpt lat="46.46121" lon="5.46204">
        <ele>378.8</ele>
        <time>2022-05-04T14:03:36Z</time>
      </trkpt>
      <trkpt lat="46.46152" lon="5.4621">
        <ele>378.6</ele>
        <time>2022-05-04T14:03:40Z</time>
      </trkpt>
      <trkpt lat="46.46175" lon="5.46214">
        <ele>378.4</ele>
        <time>2022-05-04T14:03:43Z</time>
      </trkpt>
      <trkpt lat="46.46221" lon="5.46222">
        <ele>378.2</ele>
        <time>2022-05-04T14:03:49Z</time>
      </trkpt>
      <trkpt lat="46.46282" lon="5.46233">
        <ele>378.2</ele>
        <time>2022-05-04T14:03:57Z</time>
      </trkpt>
      <trkpt lat="46.46313" lon="5.46239">
        <ele>378.4</ele>
        <time>2022-05-04T14:04:01Z</time>
      </trkpt>
      <trkpt lat="46.46368" lon="5.46249">
        <ele>378.4</ele>
        <time>2022-05-04T14:04:08Z</time>
      </trkpt>
      <trkpt lat="46.46399" lon="5.46254">
        <ele>378.6</ele>
        <time>2022-05-04T14:04:12Z</time>
      </trkpt>
      <trkpt lat="46.46446" lon="5.46262">
        <ele>378.6</ele>
        <time>2022-05-04T14:04:18Z</time>
      </trkpt>
      <trkpt lat="46.4647" lon="5.46266">
        <ele>378.6</ele>
        <time>2022-05-04T14:04:21Z</time>
      </trkpt>
      <trkpt lat="46.46523" lon="5.46276">
        <ele>379</ele>
        <time>2022-05-04T14:04:28Z</time>
      </trkpt>
      <trkpt lat="46.46531" lon="5.46277">
        <ele>379</ele>
        <time>2022-05-04T14:04:29Z</time>
      </trkpt>
      <trkpt lat="46.4659" lon="5.46288">
        <ele>379</ele>
        <time>2022-05-04T14:04:37Z</time>
      </trkpt>
      <trkpt lat="46.46604" lon="5.4629">
        <ele>379</ele>
        <time>2022-05-04T14:04:39Z</time>
      </trkpt>
      <trkpt lat="46.46663" lon="5.46301">
        <ele>378.8</ele>
        <time>2022-05-04T14:04:47Z</time>
      </trkpt>
      <trkpt lat="46.46671" lon="5.46302">
        <ele>378.8</ele>
        <time>2022-05-04T14:04:48Z</time>
      </trkpt>
      <trkpt lat="46.46727" lon="5.46313">
        <ele>378.8</ele>
        <time>2022-05-04T14:04:56Z</time>
      </trkpt>
      <trkpt lat="46.46782" lon="5.46322">
        <ele>379</ele>
        <time>2022-05-04T14:05:04Z</time>
      </trkpt>
      <trkpt lat="46.46789" lon="5.46323">
        <ele>379</ele>
        <time>2022-05-04T14:05:05Z</time>
      </trkpt>
      <trkpt lat="46.46846" lon="5.46333">
        <ele>379.2</ele>
        <time>2022-05-04T14:05:13Z</time>
      </trkpt>
      <trkpt lat="46.46861" lon="5.46336">
        <ele>379.2</ele>
        <time>2022-05-04T14:05:15Z</time>
      </trkpt>
      <trkpt lat="46.46918" lon="5.46346">
        <ele>379.6</ele>
        <time>2022-05-04T14:05:23Z</time>
      </trkpt>
      <trkpt lat="46.46946" lon="5.46351">
        <ele>379.6</ele>
        <time>2022-05-04T14:05:27Z</time>
      </trkpt>
      <trkpt lat="46.47003" lon="5.46361">
        <ele>379.4</ele>
        <time>2022-05-04T14:05:35Z</time>
      </trkpt>
      <trkpt lat="46.47025" lon="5.46365">
        <ele>379.2</ele>
        <time>2022-05-04T14:05:38Z</time>
      </trkpt>
      <trkpt lat="46.47081" lon="5.46375">
        <ele>379</ele>
        <time>2022-05-04T14:05:46Z</time>
      </trkpt>
      <trkpt lat="46.47095" lon="5.46378">
        <ele>379</ele>
        <time>2022-05-04T14:05:48Z</time>
      </trkpt>
      <trkpt lat="46.47152" lon="5.46388">
        <ele>379.4</ele>
        <time>2022-05-04T14:05:56Z</time>
      </trkpt>
      <trkpt lat="46.47173" lon="5.46392">
        <ele>379.6</ele>
        <time>2022-05-04T14:05:59Z</time>
      </trkpt>
      <trkpt lat="46.47229" lon="5.46402">
        <ele>379.6</ele>
        <time>2022-05-04T14:06:07Z</time>
      </trkpt>
      <trkpt lat="46.47242" lon="5.46404">
        <ele>379.8</ele>
        <time>2022-05-04T14:06:09Z</time>
      </trkpt>
      <trkpt lat="46.47294" lon="5.46416">
        <ele>379.8</ele>
        <time>2022-05-04T14:06:17Z</time>
      </trkpt>
      <trkpt lat="46.47334" lon="5.46422">
        <ele>380.8</ele>
        <time>2022-05-04T14:06:23Z</time>
      </trkpt>
      <trkpt lat="46.47373" lon="5.46428">
        <ele>381.4</ele>
        <time>2022-05-04T14:06:29Z</time>
      </trkpt>
      <trkpt lat="46.47393" lon="5.46431">
        <ele>381.8</ele>
        <time>2022-05-04T14:06:32Z</time>
      </trkpt>
      <trkpt lat="46.47425" lon="5.46437">
        <ele>382.6</ele>
        <time>2022-05-04T14:06:37Z</time>
      </trkpt>
      <trkpt lat="46.47437" lon="5.46439">
        <ele>383</ele>
        <time>2022-05-04T14:06:39Z</time>
      </trkpt>
      <trkpt lat="46.4748" lon="5.46447">
        <ele>383.8</ele>
        <time>2022-05-04T14:06:46Z</time>
      </trkpt>
      <trkpt lat="46.47498" lon="5.46451">
        <ele>384</ele>
        <time>2022-05-04T14:06:49Z</time>
      </trkpt>
      <trkpt lat="46.47546" lon="5.46459">
        <ele>384.4</ele>
        <time>2022-05-04T14:06:57Z</time>
      </trkpt>
      <trkpt lat="46.47601" lon="5.46468">
        <ele>385</ele>
        <time>2022-05-04T14:07:06Z</time>
      </trkpt>
      <trkpt lat="46.47607" lon="5.4647">
        <ele>385.2</ele>
        <time>2022-05-04T14:07:07Z</time>
      </trkpt>
      <trkpt lat="46.47638" lon="5.46475">
        <ele>385.8</ele>
        <time>2022-05-04T14:07:12Z</time>
      </trkpt>
      <trkpt lat="46.47664" lon="5.46479">
        <ele>385.8</ele>
        <time>2022-05-04T14:07:16Z</time>
      </trkpt>
      <trkpt lat="46.47696" lon="5.46485">
        <ele>386.4</ele>
        <time>2022-05-04T14:07:21Z</time>
      </trkpt>
      <trkpt lat="46.4773" lon="5.46492">
        <ele>386.8</ele>
        <time>2022-05-04T14:07:26Z</time>
      </trkpt>
      <trkpt lat="46.47788" lon="5.46502">
        <ele>387.4</ele>
        <time>2022-05-04T14:07:34Z</time>
      </trkpt>
      <trkpt lat="46.47816" lon="5.46508">
        <ele>387.6</ele>
        <time>2022-05-04T14:07:38Z</time>
      </trkpt>
      <trkpt lat="46.47853" lon="5.46514">
        <ele>387.6</ele>
        <time>2022-05-04T14:07:43Z</time>
      </trkpt>
      <trkpt lat="46.4789" lon="5.46521">
        <ele>387.4</ele>
        <time>2022-05-04T14:07:48Z</time>
      </trkpt>
      <trkpt lat="46.47932" lon="5.46528">
        <ele>387.8</ele>
        <time>2022-05-04T14:07:54Z</time>
      </trkpt>
      <trkpt lat="46.47989" lon="5.46539">
        <ele>388</ele>
        <time>2022-05-04T14:08:02Z</time>
      </trkpt>
      <trkpt lat="46.48019" lon="5.46544">
        <ele>388</ele>
        <time>2022-05-04T14:08:06Z</time>
      </trkpt>
      <trkpt lat="46.48078" lon="5.46555">
        <ele>388.2</ele>
        <time>2022-05-04T14:08:14Z</time>
      </trkpt>
      <trkpt lat="46.48094" lon="5.46558">
        <ele>388.2</ele>
        <time>2022-05-04T14:08:16Z</time>
      </trkpt>
      <trkpt lat="46.48155" lon="5.46569">
        <ele>388</ele>
        <time>2022-05-04T14:08:24Z</time>
      </trkpt>
      <trkpt lat="46.48169" lon="5.46571">
        <ele>387.8</ele>
        <time>2022-05-04T14:08:26Z</time>
      </trkpt>
      <trkpt lat="46.48199" lon="5.46577">
        <ele>387.6</ele>
        <time>2022-05-04T14:08:30Z</time>
      </trkpt>
      <trkpt lat="46.4825" lon="5.46585">
        <ele>387.2</ele>
        <time>2022-05-04T14:08:37Z</time>
      </trkpt>
      <trkpt lat="46.48308" lon="5.46596">
        <ele>387</ele>
        <time>2022-05-04T14:08:45Z</time>
      </trkpt>
      <trkpt lat="46.48322" lon="5.46599">
        <ele>387</ele>
        <time>2022-05-04T14:08:47Z</time>
      </trkpt>
      <trkpt lat="46.48342" lon="5.46605">
        <ele>387</ele>
        <time>2022-05-04T14:08:50Z</time>
      </trkpt>
      <trkpt lat="46.48349" lon="5.46605">
        <ele>387</ele>
        <time>2022-05-04T14:08:51Z</time>
      </trkpt>
      <trkpt lat="46.48354" lon="5.46601">
        <ele>387</ele>
        <time>2022-05-04T14:08:52Z</time>
      </trkpt>
      <trkpt lat="46.48358" lon="5.46594">
        <ele>386.8</ele>
        <time>2022-05-04T14:08:53Z</time>
      </trkpt>
      <trkpt lat="46.48362" lon="5.46586">
        <ele>386.8</ele>
        <time>2022-05-04T14:08:54Z</time>
      </trkpt>
      <trkpt lat="46.48371" lon="5.46557">
        <ele>386.8</ele>
        <time>2022-05-04T14:08:57Z</time>
      </trkpt>
      <trkpt lat="46.48388" lon="5.46511">
        <ele>386.6</ele>
        <time>2022-05-04T14:09:02Z</time>
      </trkpt>
      <trkpt lat="46.4839" lon="5.46502">
        <ele>386.6</ele>
        <time>2022-05-04T14:09:03Z</time>
      </trkpt>
      <trkpt lat="46.48392" lon="5.46492">
        <ele>386.6</ele>
        <time>2022-05-04T14:09:04Z</time>
      </trkpt>
      <trkpt lat="46.48392" lon="5.4647">
        <ele>386.8</ele>
        <time>2022-05-04T14:09:06Z</time>
      </trkpt>
      <trkpt lat="46.48392" lon="5.46437">
        <ele>387.2</ele>
        <time>2022-05-04T14:09:09Z</time>
      </trkpt>
      <trkpt lat="46.48395" lon="5.46415">
        <ele>387.2</ele>
        <time>2022-05-04T14:09:11Z</time>
      </trkpt>
      <trkpt lat="46.48397" lon="5.46405">
        <ele>387.2</ele>
        <time>2022-05-04T14:09:12Z</time>
      </trkpt>
      <trkpt lat="46.48407" lon="5.46377">
        <ele>387</ele>
        <time>2022-05-04T14:09:15Z</time>
      </trkpt>
      <trkpt lat="46.48432" lon="5.4632">
        <ele>387</ele>
        <time>2022-05-04T14:09:22Z</time>
      </trkpt>
      <trkpt lat="46.48446" lon="5.46284">
        <ele>387.6</ele>
        <time>2022-05-04T14:09:27Z</time>
      </trkpt>
      <trkpt lat="46.48447" lon="5.46277">
        <ele>387.8</ele>
        <time>2022-05-04T14:09:28Z</time>
      </trkpt>
      <trkpt lat="46.48447" lon="5.4627">
        <ele>388</ele>
        <time>2022-05-04T14:09:29Z</time>
      </trkpt>
      <trkpt lat="46.48442" lon="5.46257">
        <ele>388.2</ele>
        <time>2022-05-04T14:09:31Z</time>
      </trkpt>
      <trkpt lat="46.48436" lon="5.46245">
        <ele>388.4</ele>
        <time>2022-05-04T14:09:33Z</time>
      </trkpt>
      <trkpt lat="46.48433" lon="5.46231">
        <ele>388.8</ele>
        <time>2022-05-04T14:09:35Z</time>
      </trkpt>
      <trkpt lat="46.48423" lon="5.46183">
        <ele>389.8</ele>
        <time>2022-05-04T14:09:42Z</time>
      </trkpt>
      <trkpt lat="46.48421" lon="5.46177">
        <ele>390</ele>
        <time>2022-05-04T14:09:43Z</time>
      </trkpt>
      <trkpt lat="46.48411" lon="5.46152">
        <ele>391</ele>
        <time>2022-05-04T14:09:47Z</time>
      </trkpt>
      <trkpt lat="46.48405" lon="5.46141">
        <ele>391.4</ele>
        <time>2022-05-04T14:09:49Z</time>
      </trkpt>
      <trkpt lat="46.48394" lon="5.46117">
        <ele>392</ele>
        <time>2022-05-04T14:09:53Z</time>
      </trkpt>
      <trkpt lat="46.48385" lon="5.46099">
        <ele>392.2</ele>
        <time>2022-05-04T14:09:56Z</time>
      </trkpt>
      <trkpt lat="46.48379" lon="5.46087">
        <ele>392.8</ele>
        <time>2022-05-04T14:09:58Z</time>
      </trkpt>
      <trkpt lat="46.4837" lon="5.46069">
        <ele>392.8</ele>
        <time>2022-05-04T14:10:01Z</time>
      </trkpt>
      <trkpt lat="46.48367" lon="5.46063">
        <ele>393</ele>
        <time>2022-05-04T14:10:02Z</time>
      </trkpt>
      <trkpt lat="46.48339" lon="5.4601">
        <ele>393.2</ele>
        <time>2022-05-04T14:10:10Z</time>
      </trkpt>
      <trkpt lat="46.48328" lon="5.45991">
        <ele>393.6</ele>
        <time>2022-05-04T14:10:13Z</time>
      </trkpt>
      <trkpt lat="46.483" lon="5.45947">
        <ele>393.6</ele>
        <time>2022-05-04T14:10:20Z</time>
      </trkpt>
      <trkpt lat="46.48277" lon="5.45912">
        <ele>393.2</ele>
        <time>2022-05-04T14:10:25Z</time>
      </trkpt>
      <trkpt lat="46.48239" lon="5.45859">
        <ele>391.8</ele>
        <time>2022-05-04T14:10:32Z</time>
      </trkpt>
      <trkpt lat="46.48209" lon="5.4582">
        <ele>390.8</ele>
        <time>2022-05-04T14:10:37Z</time>
      </trkpt>
      <trkpt lat="46.48189" lon="5.45797">
        <ele>390</ele>
        <time>2022-05-04T14:10:40Z</time>
      </trkpt>
      <trkpt lat="46.4817" lon="5.45773">
        <ele>389.6</ele>
        <time>2022-05-04T14:10:43Z</time>
      </trkpt>
      <trkpt lat="46.48137" lon="5.45731">
        <ele>388.6</ele>
        <time>2022-05-04T14:10:48Z</time>
      </trkpt>
      <trkpt lat="46.4813" lon="5.45722">
        <ele>388.4</ele>
        <time>2022-05-04T14:10:49Z</time>
      </trkpt>
      <trkpt lat="46.48109" lon="5.45699">
        <ele>387.2</ele>
        <time>2022-05-04T14:10:52Z</time>
      </trkpt>
      <trkpt lat="46.48081" lon="5.4567">
        <ele>386.2</ele>
        <time>2022-05-04T14:10:56Z</time>
      </trkpt>
      <trkpt lat="46.48073" lon="5.45664">
        <ele>386</ele>
        <time>2022-05-04T14:10:57Z</time>
      </trkpt>
      <trkpt lat="46.48036" lon="5.45641">
        <ele>385.8</ele>
        <time>2022-05-04T14:11:02Z</time>
      </trkpt>
      <trkpt lat="46.48" lon="5.45626">
        <ele>385.6</ele>
        <time>2022-05-04T14:11:07Z</time>
      </trkpt>
      <trkpt lat="46.47968" lon="5.45612">
        <ele>385.8</ele>
        <time>2022-05-04T14:11:12Z</time>
      </trkpt>
      <trkpt lat="46.47932" lon="5.45598">
        <ele>387.2</ele>
        <time>2022-05-04T14:11:18Z</time>
      </trkpt>
      <trkpt lat="46.4789" lon="5.45582">
        <ele>388.4</ele>
        <time>2022-05-04T14:11:25Z</time>
      </trkpt>
      <trkpt lat="46.47878" lon="5.45578">
        <ele>388.8</ele>
        <time>2022-05-04T14:11:27Z</time>
      </trkpt>
      <trkpt lat="46.47862" lon="5.45572">
        <ele>389.4</ele>
        <time>2022-05-04T14:11:30Z</time>
      </trkpt>
      <trkpt lat="46.47845" lon="5.45567">
        <ele>389.8</ele>
        <time>2022-05-04T14:11:33Z</time>
      </trkpt>
      <trkpt lat="46.47835" lon="5.45564">
        <ele>390.2</ele>
        <time>2022-05-04T14:11:35Z</time>
      </trkpt>
      <trkpt lat="46.47825" lon="5.4556">
        <ele>390.6</ele>
        <time>2022-05-04T14:11:37Z</time>
      </trkpt>
      <trkpt lat="46.47806" lon="5.45556">
        <ele>391.6</ele>
        <time>2022-05-04T14:11:41Z</time>
      </trkpt>
      <trkpt lat="46.47772" lon="5.45547">
        <ele>392.6</ele>
        <time>2022-05-04T14:11:48Z</time>
      </trkpt>
      <trkpt lat="46.47761" lon="5.45542">
        <ele>392.6</ele>
        <time>2022-05-04T14:11:50Z</time>
      </trkpt>
      <trkpt lat="46.47745" lon="5.45531">
        <ele>392.6</ele>
        <time>2022-05-04T14:11:53Z</time>
      </trkpt>
      <trkpt lat="46.47734" lon="5.4552">
        <ele>392.6</ele>
        <time>2022-05-04T14:11:55Z</time>
      </trkpt>
      <trkpt lat="46.47724" lon="5.45509">
        <ele>392.6</ele>
        <time>2022-05-04T14:11:57Z</time>
      </trkpt>
      <trkpt lat="46.47701" lon="5.45489">
        <ele>392.4</ele>
        <time>2022-05-04T14:12:01Z</time>
      </trkpt>
      <trkpt lat="46.47665" lon="5.45462">
        <ele>391.6</ele>
        <time>2022-05-04T14:12:07Z</time>
      </trkpt>
      <trkpt lat="46.47647" lon="5.45453">
        <ele>391.6</ele>
        <time>2022-05-04T14:12:10Z</time>
      </trkpt>
      <trkpt lat="46.47623" lon="5.45442">
        <ele>391.4</ele>
        <time>2022-05-04T14:12:14Z</time>
      </trkpt>
      <trkpt lat="46.47598" lon="5.45425">
        <ele>391.4</ele>
        <time>2022-05-04T14:12:18Z</time>
      </trkpt>
      <trkpt lat="46.47547" lon="5.45385">
        <ele>390.8</ele>
        <time>2022-05-04T14:12:26Z</time>
      </trkpt>
      <trkpt lat="46.47532" lon="5.45375">
        <ele>390.6</ele>
        <time>2022-05-04T14:12:28Z</time>
      </trkpt>
      <trkpt lat="46.47525" lon="5.4537">
        <ele>390.6</ele>
        <time>2022-05-04T14:12:29Z</time>
      </trkpt>
      <trkpt lat="46.47509" lon="5.45363">
        <ele>390.6</ele>
        <time>2022-05-04T14:12:31Z</time>
      </trkpt>
      <trkpt lat="46.47476" lon="5.45352">
        <ele>389.6</ele>
        <time>2022-05-04T14:12:35Z</time>
      </trkpt>
      <trkpt lat="46.4746" lon="5.45348">
        <ele>388.8</ele>
        <time>2022-05-04T14:12:37Z</time>
      </trkpt>
      <trkpt lat="46.47443" lon="5.45344">
        <ele>388.6</ele>
        <time>2022-05-04T14:12:39Z</time>
      </trkpt>
      <trkpt lat="46.47389" lon="5.45328">
        <ele>387.8</ele>
        <time>2022-05-04T14:12:46Z</time>
      </trkpt>
      <trkpt lat="46.47374" lon="5.45323">
        <ele>387.8</ele>
        <time>2022-05-04T14:12:48Z</time>
      </trkpt>
      <trkpt lat="46.47351" lon="5.45315">
        <ele>387.4</ele>
        <time>2022-05-04T14:12:51Z</time>
      </trkpt>
      <trkpt lat="46.47314" lon="5.45299">
        <ele>387.2</ele>
        <time>2022-05-04T14:12:56Z</time>
      </trkpt>
      <trkpt lat="46.47256" lon="5.45272">
        <ele>386.8</ele>
        <time>2022-05-04T14:13:04Z</time>
      </trkpt>
      <trkpt lat="46.47249" lon="5.45269">
        <ele>386.8</ele>
        <time>2022-05-04T14:13:05Z</time>
      </trkpt>
      <trkpt lat="46.47205" lon="5.45249">
        <ele>386.4</ele>
        <time>2022-05-04T14:13:11Z</time>
      </trkpt>
      <trkpt lat="46.47191" lon="5.45242">
        <ele>386.2</ele>
        <time>2022-05-04T14:13:13Z</time>
      </trkpt>
      <trkpt lat="46.47135" lon="5.45215">
        <ele>385.8</ele>
        <time>2022-05-04T14:13:21Z</time>
      </trkpt>
      <trkpt lat="46.47129" lon="5.45211">
        <ele>385.8</ele>
        <time>2022-05-04T14:13:22Z</time>
      </trkpt>
      <trkpt lat="46.47083" lon="5.45184">
        <ele>385.8</ele>
        <time>2022-05-04T14:13:29Z</time>
      </trkpt>
      <trkpt lat="46.47033" lon="5.45144">
        <ele>385.8</ele>
        <time>2022-05-04T14:13:37Z</time>
      </trkpt>
      <trkpt lat="46.4698" lon="5.45101">
        <ele>385.2</ele>
        <time>2022-05-04T14:13:45Z</time>
      </trkpt>
      <trkpt lat="46.46973" lon="5.45096">
        <ele>385.2</ele>
        <time>2022-05-04T14:13:46Z</time>
      </trkpt>
      <trkpt lat="46.46922" lon="5.45054">
        <ele>384.4</ele>
        <time>2022-05-04T14:13:53Z</time>
      </trkpt>
      <trkpt lat="46.46914" lon="5.45048">
        <ele>384</ele>
        <time>2022-05-04T14:13:54Z</time>
      </trkpt>
      <trkpt lat="46.46862" lon="5.45005">
        <ele>383.6</ele>
        <time>2022-05-04T14:14:01Z</time>
      </trkpt>
      <trkpt lat="46.46841" lon="5.44987">
        <ele>383.2</ele>
        <time>2022-05-04T14:14:04Z</time>
      </trkpt>
      <trkpt lat="46.46834" lon="5.44981">
        <ele>383</ele>
        <time>2022-05-04T14:14:05Z</time>
      </trkpt>
      <trkpt lat="46.46787" lon="5.44944">
        <ele>382.4</ele>
        <time>2022-05-04T14:14:12Z</time>
      </trkpt>
      <trkpt lat="46.46742" lon="5.44918">
        <ele>382.2</ele>
        <time>2022-05-04T14:14:18Z</time>
      </trkpt>
      <trkpt lat="46.46728" lon="5.44907">
        <ele>382.2</ele>
        <time>2022-05-04T14:14:20Z</time>
      </trkpt>
      <trkpt lat="46.46705" lon="5.44894">
        <ele>382.4</ele>
        <time>2022-05-04T14:14:23Z</time>
      </trkpt>
      <trkpt lat="46.46649" lon="5.44864">
        <ele>383.2</ele>
        <time>2022-05-04T14:14:31Z</time>
      </trkpt>
      <trkpt lat="46.46642" lon="5.44861">
        <ele>383.2</ele>
        <time>2022-05-04T14:14:32Z</time>
      </trkpt>
      <trkpt lat="46.46591" lon="5.44834">
        <ele>383.4</ele>
        <time>2022-05-04T14:14:40Z</time>
      </trkpt>
      <trkpt lat="46.46546" lon="5.44811">
        <ele>383.8</ele>
        <time>2022-05-04T14:14:48Z</time>
      </trkpt>
      <trkpt lat="46.46529" lon="5.44803">
        <ele>384</ele>
        <time>2022-05-04T14:14:51Z</time>
      </trkpt>
      <trkpt lat="46.46498" lon="5.44787">
        <ele>385</ele>
        <time>2022-05-04T14:14:57Z</time>
      </trkpt>
      <trkpt lat="46.46492" lon="5.44784">
        <ele>385.2</ele>
        <time>2022-05-04T14:14:58Z</time>
      </trkpt>
      <trkpt lat="46.46452" lon="5.44763">
        <ele>385.8</ele>
        <time>2022-05-04T14:15:06Z</time>
      </trkpt>
      <trkpt lat="46.46431" lon="5.44753">
        <ele>386.2</ele>
        <time>2022-05-04T14:15:10Z</time>
      </trkpt>
      <trkpt lat="46.46406" lon="5.4474">
        <ele>387</ele>
        <time>2022-05-04T14:15:15Z</time>
      </trkpt>
      <trkpt lat="46.46395" lon="5.44734">
        <ele>387.4</ele>
        <time>2022-05-04T14:15:17Z</time>
      </trkpt>
      <trkpt lat="46.4636" lon="5.44716">
        <ele>388.4</ele>
        <time>2022-05-04T14:15:24Z</time>
      </trkpt>
      <trkpt lat="46.4635" lon="5.44712">
        <ele>388.8</ele>
        <time>2022-05-04T14:15:26Z</time>
      </trkpt>
      <trkpt lat="46.46335" lon="5.44704">
        <ele>389.6</ele>
        <time>2022-05-04T14:15:29Z</time>
      </trkpt>
      <trkpt lat="46.46307" lon="5.44691">
        <ele>390.2</ele>
        <time>2022-05-04T14:15:35Z</time>
      </trkpt>
      <trkpt lat="46.46295" lon="5.44685">
        <ele>390.6</ele>
        <time>2022-05-04T14:15:38Z</time>
      </trkpt>
      <trkpt lat="46.4628" lon="5.44677">
        <ele>391.4</ele>
        <time>2022-05-04T14:15:42Z</time>
      </trkpt>
      <trkpt lat="46.46277" lon="5.44676">
        <ele>391.6</ele>
        <time>2022-05-04T14:15:43Z</time>
      </trkpt>
      <trkpt lat="46.46251" lon="5.44663">
        <ele>392.8</ele>
        <time>2022-05-04T14:15:50Z</time>
      </trkpt>
      <trkpt lat="46.46248" lon="5.44661">
        <ele>393</ele>
        <time>2022-05-04T14:15:51Z</time>
      </trkpt>
      <trkpt lat="46.46234" lon="5.44651">
        <ele>393.8</ele>
        <time>2022-05-04T14:15:55Z</time>
      </trkpt>
      <trkpt lat="46.46227" lon="5.44645">
        <ele>394.8</ele>
        <time>2022-05-04T14:15:57Z</time>
      </trkpt>
      <trkpt lat="46.46221" lon="5.44638">
        <ele>395.4</ele>
        <time>2022-05-04T14:15:59Z</time>
      </trkpt>
      <trkpt lat="46.46216" lon="5.4463">
        <ele>395.8</ele>
        <time>2022-05-04T14:16:01Z</time>
      </trkpt>
      <trkpt lat="46.46205" lon="5.44607">
        <ele>397</ele>
        <time>2022-05-04T14:16:06Z</time>
      </trkpt>
      <trkpt lat="46.46198" lon="5.44568">
        <ele>398.2</ele>
        <time>2022-05-04T14:16:13Z</time>
      </trkpt>
      <trkpt lat="46.46196" lon="5.4454">
        <ele>399.4</ele>
        <time>2022-05-04T14:16:18Z</time>
      </trkpt>
      <trkpt lat="46.46195" lon="5.44529">
        <ele>399.8</ele>
        <time>2022-05-04T14:16:20Z</time>
      </trkpt>
      <trkpt lat="46.46194" lon="5.44518">
        <ele>400.4</ele>
        <time>2022-05-04T14:16:22Z</time>
      </trkpt>
      <trkpt lat="46.46193" lon="5.4449">
        <ele>401.6</ele>
        <time>2022-05-04T14:16:27Z</time>
      </trkpt>
      <trkpt lat="46.46193" lon="5.44479">
        <ele>401.8</ele>
        <time>2022-05-04T14:16:29Z</time>
      </trkpt>
      <trkpt lat="46.46192" lon="5.44456">
        <ele>402.6</ele>
        <time>2022-05-04T14:16:33Z</time>
      </trkpt>
      <trkpt lat="46.46192" lon="5.44434">
        <ele>403.8</ele>
        <time>2022-05-04T14:16:37Z</time>
      </trkpt>
      <trkpt lat="46.46192" lon="5.44411">
        <ele>404.6</ele>
        <time>2022-05-04T14:16:41Z</time>
      </trkpt>
      <trkpt lat="46.46193" lon="5.444">
        <ele>405</ele>
        <time>2022-05-04T14:16:43Z</time>
      </trkpt>
      <trkpt lat="46.46193" lon="5.44374">
        <ele>406</ele>
        <time>2022-05-04T14:16:48Z</time>
      </trkpt>
      <trkpt lat="46.46193" lon="5.44368">
        <ele>406</ele>
        <time>2022-05-04T14:16:49Z</time>
      </trkpt>
      <trkpt lat="46.46194" lon="5.4434">
        <ele>406.8</ele>
        <time>2022-05-04T14:16:54Z</time>
      </trkpt>
      <trkpt lat="46.46194" lon="5.44319">
        <ele>408</ele>
        <time>2022-05-04T14:16:58Z</time>
      </trkpt>
      <trkpt lat="46.46194" lon="5.44292">
        <ele>408.8</ele>
        <time>2022-05-04T14:17:03Z</time>
      </trkpt>
      <trkpt lat="46.46193" lon="5.44287">
        <ele>409</ele>
        <time>2022-05-04T14:17:04Z</time>
      </trkpt>
      <trkpt lat="46.46189" lon="5.44264">
        <ele>410.2</ele>
        <time>2022-05-04T14:17:08Z</time>
      </trkpt>
      <trkpt lat="46.46184" lon="5.44242">
        <ele>411</ele>
        <time>2022-05-04T14:17:12Z</time>
      </trkpt>
      <trkpt lat="46.4618" lon="5.44231">
        <ele>411.2</ele>
        <time>2022-05-04T14:17:14Z</time>
      </trkpt>
      <trkpt lat="46.46177" lon="5.44214">
        <ele>411.6</ele>
        <time>2022-05-04T14:17:17Z</time>
      </trkpt>
      <trkpt lat="46.4617" lon="5.44193">
        <ele>412.2</ele>
        <time>2022-05-04T14:17:21Z</time>
      </trkpt>
      <trkpt lat="46.46164" lon="5.44177">
        <ele>412.8</ele>
        <time>2022-05-04T14:17:24Z</time>
      </trkpt>
      <trkpt lat="46.4616" lon="5.44166">
        <ele>413.4</ele>
        <time>2022-05-04T14:17:26Z</time>
      </trkpt>
      <trkpt lat="46.4615" lon="5.44138">
        <ele>414.4</ele>
        <time>2022-05-04T14:17:31Z</time>
      </trkpt>
      <trkpt lat="46.46148" lon="5.44132">
        <ele>414.6</ele>
        <time>2022-05-04T14:17:32Z</time>
      </trkpt>
      <trkpt lat="46.46142" lon="5.44105">
        <ele>415.4</ele>
        <time>2022-05-04T14:17:37Z</time>
      </trkpt>
      <trkpt lat="46.46139" lon="5.44094">
        <ele>416</ele>
        <time>2022-05-04T14:17:39Z</time>
      </trkpt>
      <trkpt lat="46.46138" lon="5.44084">
        <ele>416.6</ele>
        <time>2022-05-04T14:17:41Z</time>
      </trkpt>
      <trkpt lat="46.46135" lon="5.44074">
        <ele>417</ele>
        <time>2022-05-04T14:17:43Z</time>
      </trkpt>
      <trkpt lat="46.46131" lon="5.44052">
        <ele>418.2</ele>
        <time>2022-05-04T14:17:47Z</time>
      </trkpt>
      <trkpt lat="46.4613" lon="5.4404">
        <ele>418.4</ele>
        <time>2022-05-04T14:17:49Z</time>
      </trkpt>
      <trkpt lat="46.46127" lon="5.44011">
        <ele>419.4</ele>
        <time>2022-05-04T14:17:54Z</time>
      </trkpt>
      <trkpt lat="46.46128" lon="5.43999">
        <ele>420</ele>
        <time>2022-05-04T14:17:56Z</time>
      </trkpt>
      <trkpt lat="46.46131" lon="5.43977">
        <ele>420.8</ele>
        <time>2022-05-04T14:18:00Z</time>
      </trkpt>
      <trkpt lat="46.46137" lon="5.43951">
        <ele>422.2</ele>
        <time>2022-05-04T14:18:05Z</time>
      </trkpt>
      <trkpt lat="46.46145" lon="5.43924">
        <ele>423.2</ele>
        <time>2022-05-04T14:18:10Z</time>
      </trkpt>
      <trkpt lat="46.46154" lon="5.43891">
        <ele>424.4</ele>
        <time>2022-05-04T14:18:16Z</time>
      </trkpt>
      <trkpt lat="46.46157" lon="5.4388">
        <ele>424.8</ele>
        <time>2022-05-04T14:18:18Z</time>
      </trkpt>
      <trkpt lat="46.46161" lon="5.43864">
        <ele>425.2</ele>
        <time>2022-05-04T14:18:21Z</time>
      </trkpt>
      <trkpt lat="46.46169" lon="5.43838">
        <ele>426.6</ele>
        <time>2022-05-04T14:18:26Z</time>
      </trkpt>
      <trkpt lat="46.4617" lon="5.43833">
        <ele>426.8</ele>
        <time>2022-05-04T14:18:27Z</time>
      </trkpt>
      <trkpt lat="46.46178" lon="5.43807">
        <ele>427.6</ele>
        <time>2022-05-04T14:18:32Z</time>
      </trkpt>
      <trkpt lat="46.46182" lon="5.43792">
        <ele>428.4</ele>
        <time>2022-05-04T14:18:35Z</time>
      </trkpt>
      <trkpt lat="46.46184" lon="5.43782">
        <ele>429</ele>
        <time>2022-05-04T14:18:37Z</time>
      </trkpt>
      <trkpt lat="46.46189" lon="5.43755">
        <ele>430.2</ele>
        <time>2022-05-04T14:18:42Z</time>
      </trkpt>
      <trkpt lat="46.46192" lon="5.43726">
        <ele>431.6</ele>
        <time>2022-05-04T14:18:47Z</time>
      </trkpt>
      <trkpt lat="46.46191" lon="5.43708">
        <ele>432.2</ele>
        <time>2022-05-04T14:18:50Z</time>
      </trkpt>
      <trkpt lat="46.46189" lon="5.43696">
        <ele>432.6</ele>
        <time>2022-05-04T14:18:52Z</time>
      </trkpt>
      <trkpt lat="46.46187" lon="5.43678">
        <ele>433.6</ele>
        <time>2022-05-04T14:18:55Z</time>
      </trkpt>
      <trkpt lat="46.46179" lon="5.43652">
        <ele>434.4</ele>
        <time>2022-05-04T14:18:59Z</time>
      </trkpt>
      <trkpt lat="46.46172" lon="5.43634">
        <ele>434.8</ele>
        <time>2022-05-04T14:19:02Z</time>
      </trkpt>
      <trkpt lat="46.46159" lon="5.43611">
        <ele>435</ele>
        <time>2022-05-04T14:19:06Z</time>
      </trkpt>
      <trkpt lat="46.46155" lon="5.43605">
        <ele>435</ele>
        <time>2022-05-04T14:19:07Z</time>
      </trkpt>
      <trkpt lat="46.46146" lon="5.43595">
        <ele>435.2</ele>
        <time>2022-05-04T14:19:09Z</time>
      </trkpt>
      <trkpt lat="46.46135" lon="5.43586">
        <ele>435</ele>
        <time>2022-05-04T14:19:11Z</time>
      </trkpt>
      <trkpt lat="46.46103" lon="5.4357">
        <ele>435</ele>
        <time>2022-05-04T14:19:16Z</time>
      </trkpt>
      <trkpt lat="46.46064" lon="5.43565">
        <ele>434.6</ele>
        <time>2022-05-04T14:19:21Z</time>
      </trkpt>
      <trkpt lat="46.46021" lon="5.43558">
        <ele>433.8</ele>
        <time>2022-05-04T14:19:26Z</time>
      </trkpt>
      <trkpt lat="46.46012" lon="5.43555">
        <ele>433.2</ele>
        <time>2022-05-04T14:19:27Z</time>
      </trkpt>
      <trkpt lat="46.45995" lon="5.43547">
        <ele>432.6</ele>
        <time>2022-05-04T14:19:29Z</time>
      </trkpt>
      <trkpt lat="46.45977" lon="5.43535">
        <ele>432</ele>
        <time>2022-05-04T14:19:31Z</time>
      </trkpt>
      <trkpt lat="46.45943" lon="5.43509">
        <ele>430.8</ele>
        <time>2022-05-04T14:19:35Z</time>
      </trkpt>
      <trkpt lat="46.45917" lon="5.43489">
        <ele>429.4</ele>
        <time>2022-05-04T14:19:38Z</time>
      </trkpt>
      <trkpt lat="46.45882" lon="5.43462">
        <ele>428.2</ele>
        <time>2022-05-04T14:19:42Z</time>
      </trkpt>
      <trkpt lat="46.45837" lon="5.43428">
        <ele>427</ele>
        <time>2022-05-04T14:19:47Z</time>
      </trkpt>
      <trkpt lat="46.45819" lon="5.43414">
        <ele>426.2</ele>
        <time>2022-05-04T14:19:49Z</time>
      </trkpt>
      <trkpt lat="46.4581" lon="5.43407">
        <ele>425.4</ele>
        <time>2022-05-04T14:19:50Z</time>
      </trkpt>
      <trkpt lat="46.45783" lon="5.43385">
        <ele>424.4</ele>
        <time>2022-05-04T14:19:53Z</time>
      </trkpt>
      <trkpt lat="46.45766" lon="5.4337">
        <ele>423.2</ele>
        <time>2022-05-04T14:19:55Z</time>
      </trkpt>
      <trkpt lat="46.45749" lon="5.43353">
        <ele>422</ele>
        <time>2022-05-04T14:19:57Z</time>
      </trkpt>
      <trkpt lat="46.45726" lon="5.43322">
        <ele>420.8</ele>
        <time>2022-05-04T14:20:00Z</time>
      </trkpt>
      <trkpt lat="46.45713" lon="5.433">
        <ele>420.4</ele>
        <time>2022-05-04T14:20:02Z</time>
      </trkpt>
      <trkpt lat="46.45695" lon="5.43264">
        <ele>419.8</ele>
        <time>2022-05-04T14:20:05Z</time>
      </trkpt>
      <trkpt lat="46.45679" lon="5.43228">
        <ele>418.6</ele>
        <time>2022-05-04T14:20:08Z</time>
      </trkpt>
      <trkpt lat="46.45669" lon="5.43205">
        <ele>418</ele>
        <time>2022-05-04T14:20:10Z</time>
      </trkpt>
      <trkpt lat="46.45659" lon="5.43182">
        <ele>417.8</ele>
        <time>2022-05-04T14:20:12Z</time>
      </trkpt>
      <trkpt lat="46.45639" lon="5.43136">
        <ele>416.6</ele>
        <time>2022-05-04T14:20:16Z</time>
      </trkpt>
      <trkpt lat="46.45634" lon="5.43125">
        <ele>416.2</ele>
        <time>2022-05-04T14:20:17Z</time>
      </trkpt>
      <trkpt lat="46.45628" lon="5.43114">
        <ele>416.2</ele>
        <time>2022-05-04T14:20:18Z</time>
      </trkpt>
      <trkpt lat="46.45598" lon="5.43048">
        <ele>415.8</ele>
        <time>2022-05-04T14:20:24Z</time>
      </trkpt>
      <trkpt lat="46.45588" lon="5.43028">
        <ele>415.6</ele>
        <time>2022-05-04T14:20:26Z</time>
      </trkpt>
      <trkpt lat="46.45563" lon="5.42985">
        <ele>415.6</ele>
        <time>2022-05-04T14:20:31Z</time>
      </trkpt>
      <trkpt lat="46.45532" lon="5.42946">
        <ele>416.8</ele>
        <time>2022-05-04T14:20:37Z</time>
      </trkpt>
      <trkpt lat="46.45495" lon="5.42897">
        <ele>417.6</ele>
        <time>2022-05-04T14:20:45Z</time>
      </trkpt>
      <trkpt lat="46.45491" lon="5.42891">
        <ele>417.6</ele>
        <time>2022-05-04T14:20:46Z</time>
      </trkpt>
      <trkpt lat="46.45478" lon="5.42875">
        <ele>418.6</ele>
        <time>2022-05-04T14:20:49Z</time>
      </trkpt>
      <trkpt lat="46.45456" lon="5.42851">
        <ele>419.8</ele>
        <time>2022-05-04T14:20:54Z</time>
      </trkpt>
      <trkpt lat="46.45435" lon="5.42831">
        <ele>420.8</ele>
        <time>2022-05-04T14:20:59Z</time>
      </trkpt>
      <trkpt lat="46.45418" lon="5.42814">
        <ele>421.4</ele>
        <time>2022-05-04T14:21:03Z</time>
      </trkpt>
      <trkpt lat="46.45397" lon="5.42792">
        <ele>421.8</ele>
        <time>2022-05-04T14:21:08Z</time>
      </trkpt>
      <trkpt lat="46.45374" lon="5.42763">
        <ele>422.8</ele>
        <time>2022-05-04T14:21:14Z</time>
      </trkpt>
      <trkpt lat="46.45361" lon="5.42742">
        <ele>423.2</ele>
        <time>2022-05-04T14:21:18Z</time>
      </trkpt>
      <trkpt lat="46.45351" lon="5.42726">
        <ele>423.8</ele>
        <time>2022-05-04T14:21:21Z</time>
      </trkpt>
      <trkpt lat="46.45342" lon="5.42709">
        <ele>424.2</ele>
        <time>2022-05-04T14:21:24Z</time>
      </trkpt>
      <trkpt lat="46.45326" lon="5.42681">
        <ele>425</ele>
        <time>2022-05-04T14:21:29Z</time>
      </trkpt>
      <trkpt lat="46.45314" lon="5.42659">
        <ele>425.4</ele>
        <time>2022-05-04T14:21:33Z</time>
      </trkpt>
      <trkpt lat="46.45305" lon="5.42643">
        <ele>426</ele>
        <time>2022-05-04T14:21:36Z</time>
      </trkpt>
      <trkpt lat="46.45291" lon="5.42617">
        <ele>427.2</ele>
        <time>2022-05-04T14:21:41Z</time>
      </trkpt>
      <trkpt lat="46.45288" lon="5.42612">
        <ele>427.2</ele>
        <time>2022-05-04T14:21:42Z</time>
      </trkpt>
      <trkpt lat="46.45266" lon="5.4257">
        <ele>428.4</ele>
        <time>2022-05-04T14:21:50Z</time>
      </trkpt>
      <trkpt lat="46.45257" lon="5.42554">
        <ele>428.6</ele>
        <time>2022-05-04T14:21:53Z</time>
      </trkpt>
      <trkpt lat="46.45248" lon="5.42538">
        <ele>429.4</ele>
        <time>2022-05-04T14:21:56Z</time>
      </trkpt>
      <trkpt lat="46.45227" lon="5.42502">
        <ele>430.4</ele>
        <time>2022-05-04T14:22:03Z</time>
      </trkpt>
      <trkpt lat="46.45224" lon="5.42497">
        <ele>430.4</ele>
        <time>2022-05-04T14:22:04Z</time>
      </trkpt>
      <trkpt lat="46.45211" lon="5.4247">
        <ele>431.4</ele>
        <time>2022-05-04T14:22:09Z</time>
      </trkpt>
      <trkpt lat="46.45199" lon="5.42448">
        <ele>432.2</ele>
        <time>2022-05-04T14:22:13Z</time>
      </trkpt>
      <trkpt lat="46.45184" lon="5.42422">
        <ele>432.6</ele>
        <time>2022-05-04T14:22:18Z</time>
      </trkpt>
      <trkpt lat="46.45166" lon="5.42392">
        <ele>433.6</ele>
        <time>2022-05-04T14:22:24Z</time>
      </trkpt>
      <trkpt lat="46.45163" lon="5.42387">
        <ele>433.8</ele>
        <time>2022-05-04T14:22:25Z</time>
      </trkpt>
      <trkpt lat="46.4516" lon="5.42382">
        <ele>434</ele>
        <time>2022-05-04T14:22:26Z</time>
      </trkpt>
      <trkpt lat="46.45154" lon="5.42373">
        <ele>434.2</ele>
        <time>2022-05-04T14:22:28Z</time>
      </trkpt>
      <trkpt lat="46.45151" lon="5.42369">
        <ele>434.4</ele>
        <time>2022-05-04T14:22:29Z</time>
      </trkpt>
      <trkpt lat="46.45139" lon="5.42356">
        <ele>435</ele>
        <time>2022-05-04T14:22:32Z</time>
      </trkpt>
      <trkpt lat="46.45125" lon="5.42337">
        <ele>435.6</ele>
        <time>2022-05-04T14:22:36Z</time>
      </trkpt>
      <trkpt lat="46.45122" lon="5.42332">
        <ele>435.8</ele>
        <time>2022-05-04T14:22:37Z</time>
      </trkpt>
      <trkpt lat="46.45119" lon="5.42327">
        <ele>435.8</ele>
        <time>2022-05-04T14:22:38Z</time>
      </trkpt>
      <trkpt lat="46.45116" lon="5.42322">
        <ele>436</ele>
        <time>2022-05-04T14:22:39Z</time>
      </trkpt>
      <trkpt lat="46.45101" lon="5.42305">
        <ele>436.8</ele>
        <time>2022-05-04T14:22:43Z</time>
      </trkpt>
      <trkpt lat="46.45097" lon="5.423">
        <ele>436.8</ele>
        <time>2022-05-04T14:22:44Z</time>
      </trkpt>
      <trkpt lat="46.45094" lon="5.42295">
        <ele>437</ele>
        <time>2022-05-04T14:22:45Z</time>
      </trkpt>
      <trkpt lat="46.45091" lon="5.42289">
        <ele>437.2</ele>
        <time>2022-05-04T14:22:46Z</time>
      </trkpt>
      <trkpt lat="46.45089" lon="5.42283">
        <ele>437.2</ele>
        <time>2022-05-04T14:22:47Z</time>
      </trkpt>
      <trkpt lat="46.45087" lon="5.42269">
        <ele>437.6</ele>
        <time>2022-05-04T14:22:49Z</time>
      </trkpt>
      <trkpt lat="46.45085" lon="5.42249">
        <ele>438</ele>
        <time>2022-05-04T14:22:52Z</time>
      </trkpt>
      <trkpt lat="46.45083" lon="5.42229">
        <ele>438.6</ele>
        <time>2022-05-04T14:22:55Z</time>
      </trkpt>
      <trkpt lat="46.45081" lon="5.42209">
        <ele>439</ele>
        <time>2022-05-04T14:22:58Z</time>
      </trkpt>
      <trkpt lat="46.45074" lon="5.4217">
        <ele>440.2</ele>
        <time>2022-05-04T14:23:04Z</time>
      </trkpt>
      <trkpt lat="46.45072" lon="5.42164">
        <ele>440.4</ele>
        <time>2022-05-04T14:23:05Z</time>
      </trkpt>
      <trkpt lat="46.45067" lon="5.42151">
        <ele>440.8</ele>
        <time>2022-05-04T14:23:07Z</time>
      </trkpt>
      <trkpt lat="46.45062" lon="5.42139">
        <ele>441</ele>
        <time>2022-05-04T14:23:09Z</time>
      </trkpt>
      <trkpt lat="46.4506" lon="5.42133">
        <ele>441.2</ele>
        <time>2022-05-04T14:23:10Z</time>
      </trkpt>
      <trkpt lat="46.45042" lon="5.42088">
        <ele>441.6</ele>
        <time>2022-05-04T14:23:17Z</time>
      </trkpt>
      <trkpt lat="46.45019" lon="5.42049">
        <ele>442.2</ele>
        <time>2022-05-04T14:23:24Z</time>
      </trkpt>
      <trkpt lat="46.45016" lon="5.42043">
        <ele>442.2</ele>
        <time>2022-05-04T14:23:25Z</time>
      </trkpt>
      <trkpt lat="46.44994" lon="5.42009">
        <ele>442.8</ele>
        <time>2022-05-04T14:23:32Z</time>
      </trkpt>
      <trkpt lat="46.44985" lon="5.41994">
        <ele>443.4</ele>
        <time>2022-05-04T14:23:35Z</time>
      </trkpt>
      <trkpt lat="46.44971" lon="5.4197">
        <ele>444.4</ele>
        <time>2022-05-04T14:23:40Z</time>
      </trkpt>
      <trkpt lat="46.44968" lon="5.41966">
        <ele>444.4</ele>
        <time>2022-05-04T14:23:41Z</time>
      </trkpt>
      <trkpt lat="46.4496" lon="5.41956">
        <ele>444.8</ele>
        <time>2022-05-04T14:23:44Z</time>
      </trkpt>
      <trkpt lat="46.44957" lon="5.41956">
        <ele>445</ele>
        <time>2022-05-04T14:23:45Z</time>
      </trkpt>
      <trkpt lat="46.44955" lon="5.41956">
        <ele>445.4</ele>
        <time>2022-05-04T14:23:47Z</time>
      </trkpt>
      <trkpt lat="46.44953" lon="5.41957">
        <ele>445.6</ele>
        <time>2022-05-04T14:23:49Z</time>
      </trkpt>
      <trkpt lat="46.44953" lon="5.41957">
        <ele>445.6</ele>
        <time>2022-05-04T14:23:50Z</time>
      </trkpt>
      <trkpt lat="46.44954" lon="5.41953">
        <ele>446</ele>
        <time>2022-05-04T14:25:04Z</time>
      </trkpt>
      <trkpt lat="46.44956" lon="5.41944">
        <ele>446</ele>
        <time>2022-05-04T14:25:06Z</time>
      </trkpt>
      <trkpt lat="46.44957" lon="5.41916">
        <ele>446.2</ele>
        <time>2022-05-04T14:25:10Z</time>
      </trkpt>
      <trkpt lat="46.44964" lon="5.41878">
        <ele>446.8</ele>
        <time>2022-05-04T14:25:15Z</time>
      </trkpt>
      <trkpt lat="46.44967" lon="5.41871">
        <ele>447</ele>
        <time>2022-05-04T14:25:16Z</time>
      </trkpt>
      <trkpt lat="46.44979" lon="5.41841">
        <ele>447.4</ele>
        <time>2022-05-04T14:25:21Z</time>
      </trkpt>
      <trkpt lat="46.44982" lon="5.41835">
        <ele>447.6</ele>
        <time>2022-05-04T14:25:22Z</time>
      </trkpt>
      <trkpt lat="46.44986" lon="5.4183">
        <ele>447.8</ele>
        <time>2022-05-04T14:25:23Z</time>
      </trkpt>
      <trkpt lat="46.44998" lon="5.41817">
        <ele>448.2</ele>
        <time>2022-05-04T14:25:26Z</time>
      </trkpt>
      <trkpt lat="46.45002" lon="5.41813">
        <ele>448.4</ele>
        <time>2022-05-04T14:25:27Z</time>
      </trkpt>
      <trkpt lat="46.45007" lon="5.4181">
        <ele>448.4</ele>
        <time>2022-05-04T14:25:28Z</time>
      </trkpt>
      <trkpt lat="46.45012" lon="5.41808">
        <ele>448.6</ele>
        <time>2022-05-04T14:25:29Z</time>
      </trkpt>
      <trkpt lat="46.45022" lon="5.41806">
        <ele>448.8</ele>
        <time>2022-05-04T14:25:31Z</time>
      </trkpt>
      <trkpt lat="46.45038" lon="5.41807">
        <ele>449.4</ele>
        <time>2022-05-04T14:25:34Z</time>
      </trkpt>
      <trkpt lat="46.45048" lon="5.4181">
        <ele>449.4</ele>
        <time>2022-05-04T14:25:36Z</time>
      </trkpt>
      <trkpt lat="46.45064" lon="5.41815">
        <ele>449.6</ele>
        <time>2022-05-04T14:25:39Z</time>
      </trkpt>
      <trkpt lat="46.45076" lon="5.41816">
        <ele>449.8</ele>
        <time>2022-05-04T14:25:41Z</time>
      </trkpt>
      <trkpt lat="46.45117" lon="5.41812">
        <ele>449.4</ele>
        <time>2022-05-04T14:25:47Z</time>
      </trkpt>
      <trkpt lat="46.45137" lon="5.41805">
        <ele>449.4</ele>
        <time>2022-05-04T14:25:50Z</time>
      </trkpt>
      <trkpt lat="46.45156" lon="5.41794">
        <ele>449.6</ele>
        <time>2022-05-04T14:25:53Z</time>
      </trkpt>
      <trkpt lat="46.45182" lon="5.41766">
        <ele>449.8</ele>
        <time>2022-05-04T14:25:58Z</time>
      </trkpt>
      <trkpt lat="46.45205" lon="5.41721">
        <ele>450</ele>
        <time>2022-05-04T14:26:04Z</time>
      </trkpt>
      <trkpt lat="46.45224" lon="5.41664">
        <ele>450.4</ele>
        <time>2022-05-04T14:26:11Z</time>
      </trkpt>
      <trkpt lat="46.45236" lon="5.41613">
        <ele>451.6</ele>
        <time>2022-05-04T14:26:18Z</time>
      </trkpt>
      <trkpt lat="46.45242" lon="5.41583">
        <ele>452.4</ele>
        <time>2022-05-04T14:26:22Z</time>
      </trkpt>
      <trkpt lat="46.45244" lon="5.41576">
        <ele>452.6</ele>
        <time>2022-05-04T14:26:23Z</time>
      </trkpt>
      <trkpt lat="46.45247" lon="5.41568">
        <ele>452.8</ele>
        <time>2022-05-04T14:26:24Z</time>
      </trkpt>
      <trkpt lat="46.45258" lon="5.4155">
        <ele>453.2</ele>
        <time>2022-05-04T14:26:27Z</time>
      </trkpt>
      <trkpt lat="46.45268" lon="5.4154">
        <ele>453.6</ele>
        <time>2022-05-04T14:26:29Z</time>
      </trkpt>
      <trkpt lat="46.45273" lon="5.41536">
        <ele>453.8</ele>
        <time>2022-05-04T14:26:30Z</time>
      </trkpt>
      <trkpt lat="46.45288" lon="5.4153">
        <ele>454</ele>
        <time>2022-05-04T14:26:33Z</time>
      </trkpt>
      <trkpt lat="46.45308" lon="5.4153">
        <ele>454.4</ele>
        <time>2022-05-04T14:26:37Z</time>
      </trkpt>
      <trkpt lat="46.45318" lon="5.41533">
        <ele>454.4</ele>
        <time>2022-05-04T14:26:39Z</time>
      </trkpt>
      <trkpt lat="46.45338" lon="5.41537">
        <ele>455</ele>
        <time>2022-05-04T14:26:43Z</time>
      </trkpt>
      <trkpt lat="46.45362" lon="5.4154">
        <ele>456</ele>
        <time>2022-05-04T14:26:48Z</time>
      </trkpt>
      <trkpt lat="46.45367" lon="5.4154">
        <ele>456</ele>
        <time>2022-05-04T14:26:49Z</time>
      </trkpt>
      <trkpt lat="46.45377" lon="5.41539">
        <ele>456.2</ele>
        <time>2022-05-04T14:26:51Z</time>
      </trkpt>
      <trkpt lat="46.45382" lon="5.41539">
        <ele>456.2</ele>
        <time>2022-05-04T14:26:52Z</time>
      </trkpt>
      <trkpt lat="46.45387" lon="5.41537">
        <ele>456.4</ele>
        <time>2022-05-04T14:26:53Z</time>
      </trkpt>
      <trkpt lat="46.45429" lon="5.41523">
        <ele>457.2</ele>
        <time>2022-05-04T14:27:02Z</time>
      </trkpt>
      <trkpt lat="46.45458" lon="5.41511">
        <ele>458.2</ele>
        <time>2022-05-04T14:27:09Z</time>
      </trkpt>
      <trkpt lat="46.45467" lon="5.41507">
        <ele>458.8</ele>
        <time>2022-05-04T14:27:11Z</time>
      </trkpt>
      <trkpt lat="46.45479" lon="5.41502">
        <ele>459.4</ele>
        <time>2022-05-04T14:27:14Z</time>
      </trkpt>
      <trkpt lat="46.45512" lon="5.41486">
        <ele>460.6</ele>
        <time>2022-05-04T14:27:21Z</time>
      </trkpt>
      <trkpt lat="46.45538" lon="5.41472">
        <ele>461.6</ele>
        <time>2022-05-04T14:27:27Z</time>
      </trkpt>
      <trkpt lat="46.45551" lon="5.41464">
        <ele>461.2</ele>
        <time>2022-05-04T14:27:30Z</time>
      </trkpt>
      <trkpt lat="46.4556" lon="5.41458">
        <ele>461.2</ele>
        <time>2022-05-04T14:27:32Z</time>
      </trkpt>
      <trkpt lat="46.4559" lon="5.4143">
        <ele>461.2</ele>
        <time>2022-05-04T14:27:39Z</time>
      </trkpt>
      <trkpt lat="46.45613" lon="5.41391">
        <ele>461.6</ele>
        <time>2022-05-04T14:27:46Z</time>
      </trkpt>
      <trkpt lat="46.45639" lon="5.41338">
        <ele>462.4</ele>
        <time>2022-05-04T14:27:55Z</time>
      </trkpt>
      <trkpt lat="46.45642" lon="5.41332">
        <ele>462.6</ele>
        <time>2022-05-04T14:27:56Z</time>
      </trkpt>
      <trkpt lat="46.45673" lon="5.41289">
        <ele>463</ele>
        <time>2022-05-04T14:28:04Z</time>
      </trkpt>
      <trkpt lat="46.45706" lon="5.4125">
        <ele>462.8</ele>
        <time>2022-05-04T14:28:11Z</time>
      </trkpt>
      <trkpt lat="46.45739" lon="5.41211">
        <ele>462.2</ele>
        <time>2022-05-04T14:28:18Z</time>
      </trkpt>
      <trkpt lat="46.45762" lon="5.41171">
        <ele>462</ele>
        <time>2022-05-04T14:28:24Z</time>
      </trkpt>
      <trkpt lat="46.45765" lon="5.41163">
        <ele>462</ele>
        <time>2022-05-04T14:28:25Z</time>
      </trkpt>
      <trkpt lat="46.45778" lon="5.41116">
        <ele>462.8</ele>
        <time>2022-05-04T14:28:31Z</time>
      </trkpt>
      <trkpt lat="46.45785" lon="5.41084">
        <ele>463.6</ele>
        <time>2022-05-04T14:28:35Z</time>
      </trkpt>
      <trkpt lat="46.45796" lon="5.41038">
        <ele>464.2</ele>
        <time>2022-05-04T14:28:41Z</time>
      </trkpt>
      <trkpt lat="46.45803" lon="5.41016">
        <ele>464.6</ele>
        <time>2022-05-04T14:28:44Z</time>
      </trkpt>
      <trkpt lat="46.45813" lon="5.40981">
        <ele>465</ele>
        <time>2022-05-04T14:28:49Z</time>
      </trkpt>
      <trkpt lat="46.45828" lon="5.40916">
        <ele>465.6</ele>
        <time>2022-05-04T14:28:58Z</time>
      </trkpt>
      <trkpt lat="46.4584" lon="5.40852">
        <ele>466</ele>
        <time>2022-05-04T14:29:06Z</time>
      </trkpt>
      <trkpt lat="46.45848" lon="5.40776">
        <ele>466.2</ele>
        <time>2022-05-04T14:29:15Z</time>
      </trkpt>
      <trkpt lat="46.45858" lon="5.40711">
        <ele>466.2</ele>
        <time>2022-05-04T14:29:23Z</time>
      </trkpt>
      <trkpt lat="46.45868" lon="5.40679">
        <ele>467</ele>
        <time>2022-05-04T14:29:28Z</time>
      </trkpt>
      <trkpt lat="46.45871" lon="5.40674">
        <ele>467.2</ele>
        <time>2022-05-04T14:29:29Z</time>
      </trkpt>
      <trkpt lat="46.45876" lon="5.40662">
        <ele>467.6</ele>
        <time>2022-05-04T14:29:31Z</time>
      </trkpt>
      <trkpt lat="46.45882" lon="5.40647">
        <ele>468</ele>
        <time>2022-05-04T14:29:34Z</time>
      </trkpt>
      <trkpt lat="46.45886" lon="5.40637">
        <ele>468.8</ele>
        <time>2022-05-04T14:29:36Z</time>
      </trkpt>
      <trkpt lat="46.4589" lon="5.40629">
        <ele>469.2</ele>
        <time>2022-05-04T14:29:38Z</time>
      </trkpt>
      <trkpt lat="46.45894" lon="5.40621">
        <ele>469.8</ele>
        <time>2022-05-04T14:29:40Z</time>
      </trkpt>
      <trkpt lat="46.45898" lon="5.40612">
        <ele>470.6</ele>
        <time>2022-05-04T14:29:42Z</time>
      </trkpt>
      <trkpt lat="46.45904" lon="5.40596">
        <ele>471.6</ele>
        <time>2022-05-04T14:29:46Z</time>
      </trkpt>
      <trkpt lat="46.45907" lon="5.40587">
        <ele>472.4</ele>
        <time>2022-05-04T14:29:48Z</time>
      </trkpt>
      <trkpt lat="46.45909" lon="5.40583">
        <ele>472.6</ele>
        <time>2022-05-04T14:29:49Z</time>
      </trkpt>
      <trkpt lat="46.45918" lon="5.40561">
        <ele>474</ele>
        <time>2022-05-04T14:29:54Z</time>
      </trkpt>
      <trkpt lat="46.45924" lon="5.40549">
        <ele>475</ele>
        <time>2022-05-04T14:29:57Z</time>
      </trkpt>
      <trkpt lat="46.45935" lon="5.4053">
        <ele>476.2</ele>
        <time>2022-05-04T14:30:02Z</time>
      </trkpt>
      <trkpt lat="46.45942" lon="5.40519">
        <ele>477.2</ele>
        <time>2022-05-04T14:30:05Z</time>
      </trkpt>
      <trkpt lat="46.45944" lon="5.40515">
        <ele>477.6</ele>
        <time>2022-05-04T14:30:06Z</time>
      </trkpt>
      <trkpt lat="46.45957" lon="5.40498">
        <ele>478.8</ele>
        <time>2022-05-04T14:30:11Z</time>
      </trkpt>
      <trkpt lat="46.45969" lon="5.40479">
        <ele>479.8</ele>
        <time>2022-05-04T14:30:16Z</time>
      </trkpt>
      <trkpt lat="46.45979" lon="5.40464">
        <ele>481</ele>
        <time>2022-05-04T14:30:20Z</time>
      </trkpt>
      <trkpt lat="46.45981" lon="5.40461">
        <ele>481.2</ele>
        <time>2022-05-04T14:30:21Z</time>
      </trkpt>
      <trkpt lat="46.45989" lon="5.40445">
        <ele>482.2</ele>
        <time>2022-05-04T14:30:25Z</time>
      </trkpt>
      <trkpt lat="46.46001" lon="5.40419">
        <ele>483.4</ele>
        <time>2022-05-04T14:30:31Z</time>
      </trkpt>
      <trkpt lat="46.46003" lon="5.40415">
        <ele>483.6</ele>
        <time>2022-05-04T14:30:32Z</time>
      </trkpt>
      <trkpt lat="46.46008" lon="5.40402">
        <ele>484.4</ele>
        <time>2022-05-04T14:30:35Z</time>
      </trkpt>
      <trkpt lat="46.46015" lon="5.40386">
        <ele>485.6</ele>
        <time>2022-05-04T14:30:39Z</time>
      </trkpt>
      <trkpt lat="46.46018" lon="5.40378">
        <ele>486.2</ele>
        <time>2022-05-04T14:30:41Z</time>
      </trkpt>
      <trkpt lat="46.46022" lon="5.40369">
        <ele>486.6</ele>
        <time>2022-05-04T14:30:43Z</time>
      </trkpt>
      <trkpt lat="46.46032" lon="5.40349">
        <ele>488</ele>
        <time>2022-05-04T14:30:48Z</time>
      </trkpt>
      <trkpt lat="46.46035" lon="5.40345">
        <ele>488.2</ele>
        <time>2022-05-04T14:30:49Z</time>
      </trkpt>
      <trkpt lat="46.46046" lon="5.40334">
        <ele>488.8</ele>
        <time>2022-05-04T14:30:53Z</time>
      </trkpt>
      <trkpt lat="46.4606" lon="5.40326">
        <ele>489.8</ele>
        <time>2022-05-04T14:30:57Z</time>
      </trkpt>
      <trkpt lat="46.46073" lon="5.40319">
        <ele>491.2</ele>
        <time>2022-05-04T14:31:01Z</time>
      </trkpt>
      <trkpt lat="46.4609" lon="5.40312">
        <ele>492.2</ele>
        <time>2022-05-04T14:31:06Z</time>
      </trkpt>
      <trkpt lat="46.461" lon="5.40307">
        <ele>493</ele>
        <time>2022-05-04T14:31:09Z</time>
      </trkpt>
      <trkpt lat="46.46103" lon="5.40305">
        <ele>493.2</ele>
        <time>2022-05-04T14:31:10Z</time>
      </trkpt>
      <trkpt lat="46.46119" lon="5.40294">
        <ele>494.4</ele>
        <time>2022-05-04T14:31:15Z</time>
      </trkpt>
      <trkpt lat="46.46125" lon="5.40287">
        <ele>494.8</ele>
        <time>2022-05-04T14:31:17Z</time>
      </trkpt>
      <trkpt lat="46.46134" lon="5.40274">
        <ele>495.6</ele>
        <time>2022-05-04T14:31:20Z</time>
      </trkpt>
      <trkpt lat="46.46146" lon="5.40255">
        <ele>496.4</ele>
        <time>2022-05-04T14:31:24Z</time>
      </trkpt>
      <trkpt lat="46.46149" lon="5.40249">
        <ele>496.6</ele>
        <time>2022-05-04T14:31:25Z</time>
      </trkpt>
      <trkpt lat="46.46168" lon="5.40216">
        <ele>497.6</ele>
        <time>2022-05-04T14:31:32Z</time>
      </trkpt>
      <trkpt lat="46.4617" lon="5.40212">
        <ele>497.8</ele>
        <time>2022-05-04T14:31:33Z</time>
      </trkpt>
      <trkpt lat="46.46184" lon="5.40184">
        <ele>499</ele>
        <time>2022-05-04T14:31:39Z</time>
      </trkpt>
      <trkpt lat="46.46191" lon="5.4017">
        <ele>499.4</ele>
        <time>2022-05-04T14:31:42Z</time>
      </trkpt>
      <trkpt lat="46.46201" lon="5.40151">
        <ele>500</ele>
        <time>2022-05-04T14:31:46Z</time>
      </trkpt>
      <trkpt lat="46.46212" lon="5.40137">
        <ele>500.4</ele>
        <time>2022-05-04T14:31:49Z</time>
      </trkpt>
      <trkpt lat="46.46237" lon="5.40109">
        <ele>501</ele>
        <time>2022-05-04T14:31:55Z</time>
      </trkpt>
      <trkpt lat="46.46246" lon="5.40102">
        <ele>501.2</ele>
        <time>2022-05-04T14:31:57Z</time>
      </trkpt>
      <trkpt lat="46.46261" lon="5.40093">
        <ele>501.4</ele>
        <time>2022-05-04T14:32:00Z</time>
      </trkpt>
      <trkpt lat="46.46266" lon="5.40092">
        <ele>501.6</ele>
        <time>2022-05-04T14:32:01Z</time>
      </trkpt>
      <trkpt lat="46.4628" lon="5.40092">
        <ele>502.2</ele>
        <time>2022-05-04T14:32:04Z</time>
      </trkpt>
      <trkpt lat="46.46298" lon="5.40094">
        <ele>502.8</ele>
        <time>2022-05-04T14:32:08Z</time>
      </trkpt>
      <trkpt lat="46.4631" lon="5.40096">
        <ele>503.4</ele>
        <time>2022-05-04T14:32:11Z</time>
      </trkpt>
      <trkpt lat="46.46327" lon="5.40097">
        <ele>504.4</ele>
        <time>2022-05-04T14:32:15Z</time>
      </trkpt>
      <trkpt lat="46.46346" lon="5.40095">
        <ele>505.6</ele>
        <time>2022-05-04T14:32:19Z</time>
      </trkpt>
      <trkpt lat="46.46375" lon="5.4009">
        <ele>506.6</ele>
        <time>2022-05-04T14:32:25Z</time>
      </trkpt>
      <trkpt lat="46.46384" lon="5.40088">
        <ele>507</ele>
        <time>2022-05-04T14:32:27Z</time>
      </trkpt>
      <trkpt lat="46.46407" lon="5.40084">
        <ele>507.8</ele>
        <time>2022-05-04T14:32:32Z</time>
      </trkpt>
      <trkpt lat="46.46434" lon="5.40079">
        <ele>508.4</ele>
        <time>2022-05-04T14:32:38Z</time>
      </trkpt>
      <trkpt lat="46.46443" lon="5.40076">
        <ele>508.8</ele>
        <time>2022-05-04T14:32:40Z</time>
      </trkpt>
      <trkpt lat="46.46476" lon="5.40072">
        <ele>510</ele>
        <time>2022-05-04T14:32:47Z</time>
      </trkpt>
      <trkpt lat="46.46481" lon="5.40072">
        <ele>510.2</ele>
        <time>2022-05-04T14:32:48Z</time>
      </trkpt>
      <trkpt lat="46.46515" lon="5.40077">
        <ele>510.8</ele>
        <time>2022-05-04T14:32:55Z</time>
      </trkpt>
      <trkpt lat="46.46528" lon="5.40084">
        <ele>511</ele>
        <time>2022-05-04T14:32:58Z</time>
      </trkpt>
      <trkpt lat="46.46551" lon="5.40096">
        <ele>512</ele>
        <time>2022-05-04T14:33:03Z</time>
      </trkpt>
      <trkpt lat="46.46555" lon="5.40098">
        <ele>512.2</ele>
        <time>2022-05-04T14:33:04Z</time>
      </trkpt>
      <trkpt lat="46.46574" lon="5.40107">
        <ele>513</ele>
        <time>2022-05-04T14:33:08Z</time>
      </trkpt>
      <trkpt lat="46.46596" lon="5.40119">
        <ele>513.8</ele>
        <time>2022-05-04T14:33:13Z</time>
      </trkpt>
      <trkpt lat="46.466" lon="5.40121">
        <ele>514</ele>
        <time>2022-05-04T14:33:14Z</time>
      </trkpt>
      <trkpt lat="46.46622" lon="5.40132">
        <ele>515</ele>
        <time>2022-05-04T14:33:19Z</time>
      </trkpt>
      <trkpt lat="46.46642" lon="5.40142">
        <ele>516</ele>
        <time>2022-05-04T14:33:24Z</time>
      </trkpt>
      <trkpt lat="46.46645" lon="5.40144">
        <ele>516.4</ele>
        <time>2022-05-04T14:33:25Z</time>
      </trkpt>
      <trkpt lat="46.46656" lon="5.4015">
        <ele>517.4</ele>
        <time>2022-05-04T14:33:28Z</time>
      </trkpt>
      <trkpt lat="46.46667" lon="5.40156">
        <ele>517.8</ele>
        <time>2022-05-04T14:33:31Z</time>
      </trkpt>
      <trkpt lat="46.46682" lon="5.40163">
        <ele>518.8</ele>
        <time>2022-05-04T14:33:35Z</time>
      </trkpt>
      <trkpt lat="46.46696" lon="5.4017">
        <ele>519.8</ele>
        <time>2022-05-04T14:33:39Z</time>
      </trkpt>
      <trkpt lat="46.46715" lon="5.40179">
        <ele>521</ele>
        <time>2022-05-04T14:33:44Z</time>
      </trkpt>
      <trkpt lat="46.46738" lon="5.40191">
        <ele>522</ele>
        <time>2022-05-04T14:33:50Z</time>
      </trkpt>
      <trkpt lat="46.46745" lon="5.40193">
        <ele>522.4</ele>
        <time>2022-05-04T14:33:52Z</time>
      </trkpt>
      <trkpt lat="46.46761" lon="5.40201">
        <ele>523.2</ele>
        <time>2022-05-04T14:33:56Z</time>
      </trkpt>
      <trkpt lat="46.46776" lon="5.40209">
        <ele>524.6</ele>
        <time>2022-05-04T14:34:00Z</time>
      </trkpt>
      <trkpt lat="46.4679" lon="5.40216">
        <ele>525.6</ele>
        <time>2022-05-04T14:34:04Z</time>
      </trkpt>
      <trkpt lat="46.46805" lon="5.40225">
        <ele>526.4</ele>
        <time>2022-05-04T14:34:08Z</time>
      </trkpt>
      <trkpt lat="46.46809" lon="5.40227">
        <ele>526.8</ele>
        <time>2022-05-04T14:34:09Z</time>
      </trkpt>
      <trkpt lat="46.46832" lon="5.40239">
        <ele>527.8</ele>
        <time>2022-05-04T14:34:15Z</time>
      </trkpt>
      <trkpt lat="46.46836" lon="5.40241">
        <ele>528</ele>
        <time>2022-05-04T14:34:16Z</time>
      </trkpt>
      <trkpt lat="46.46848" lon="5.40246">
        <ele>529</ele>
        <time>2022-05-04T14:34:19Z</time>
      </trkpt>
      <trkpt lat="46.46867" lon="5.40255">
        <ele>530.2</ele>
        <time>2022-05-04T14:34:24Z</time>
      </trkpt>
      <trkpt lat="46.4688" lon="5.40262">
        <ele>530.6</ele>
        <time>2022-05-04T14:34:27Z</time>
      </trkpt>
      <trkpt lat="46.46898" lon="5.40271">
        <ele>531.4</ele>
        <time>2022-05-04T14:34:31Z</time>
      </trkpt>
      <trkpt lat="46.46908" lon="5.40275">
        <ele>531.6</ele>
        <time>2022-05-04T14:34:33Z</time>
      </trkpt>
      <trkpt lat="46.46927" lon="5.40286">
        <ele>532.4</ele>
        <time>2022-05-04T14:34:37Z</time>
      </trkpt>
      <trkpt lat="46.4694" lon="5.40292">
        <ele>533</ele>
        <time>2022-05-04T14:34:40Z</time>
      </trkpt>
      <trkpt lat="46.46944" lon="5.40295">
        <ele>533.2</ele>
        <time>2022-05-04T14:34:41Z</time>
      </trkpt>
      <trkpt lat="46.46953" lon="5.40299">
        <ele>533.4</ele>
        <time>2022-05-04T14:34:43Z</time>
      </trkpt>
      <trkpt lat="46.46962" lon="5.40303">
        <ele>534</ele>
        <time>2022-05-04T14:34:45Z</time>
      </trkpt>
      <trkpt lat="46.4697" lon="5.40307">
        <ele>534.6</ele>
        <time>2022-05-04T14:34:47Z</time>
      </trkpt>
      <trkpt lat="46.46975" lon="5.40308">
        <ele>534.8</ele>
        <time>2022-05-04T14:34:48Z</time>
      </trkpt>
      <trkpt lat="46.46999" lon="5.40317">
        <ele>535.8</ele>
        <time>2022-05-04T14:34:53Z</time>
      </trkpt>
      <trkpt lat="46.47013" lon="5.40319">
        <ele>536.4</ele>
        <time>2022-05-04T14:34:56Z</time>
      </trkpt>
      <trkpt lat="46.47018" lon="5.40318">
        <ele>536.6</ele>
        <time>2022-05-04T14:34:57Z</time>
      </trkpt>
      <trkpt lat="46.47023" lon="5.40319">
        <ele>536.8</ele>
        <time>2022-05-04T14:34:58Z</time>
      </trkpt>
      <trkpt lat="46.47027" lon="5.4032">
        <ele>537</ele>
        <time>2022-05-04T14:34:59Z</time>
      </trkpt>
      <trkpt lat="46.47043" lon="5.40322">
        <ele>537.4</ele>
        <time>2022-05-04T14:35:02Z</time>
      </trkpt>
      <trkpt lat="46.47049" lon="5.40322">
        <ele>537.4</ele>
        <time>2022-05-04T14:35:03Z</time>
      </trkpt>
      <trkpt lat="46.47087" lon="5.40325">
        <ele>537</ele>
        <time>2022-05-04T14:35:08Z</time>
      </trkpt>
      <trkpt lat="46.47115" lon="5.40328">
        <ele>535.8</ele>
        <time>2022-05-04T14:35:11Z</time>
      </trkpt>
      <trkpt lat="46.47144" lon="5.40334">
        <ele>535</ele>
        <time>2022-05-04T14:35:14Z</time>
      </trkpt>
      <trkpt lat="46.47154" lon="5.40338">
        <ele>534.4</ele>
        <time>2022-05-04T14:35:15Z</time>
      </trkpt>
      <trkpt lat="46.47174" lon="5.40347">
        <ele>533.4</ele>
        <time>2022-05-04T14:35:17Z</time>
      </trkpt>
      <trkpt lat="46.47184" lon="5.40352">
        <ele>533.2</ele>
        <time>2022-05-04T14:35:18Z</time>
      </trkpt>
      <trkpt lat="46.47194" lon="5.40359">
        <ele>532.8</ele>
        <time>2022-05-04T14:35:19Z</time>
      </trkpt>
      <trkpt lat="46.47212" lon="5.40381">
        <ele>532.4</ele>
        <time>2022-05-04T14:35:21Z</time>
      </trkpt>
      <trkpt lat="46.4722" lon="5.40393">
        <ele>531.8</ele>
        <time>2022-05-04T14:35:22Z</time>
      </trkpt>
      <trkpt lat="46.47229" lon="5.40404">
        <ele>531.2</ele>
        <time>2022-05-04T14:35:23Z</time>
      </trkpt>
      <trkpt lat="46.47239" lon="5.40414">
        <ele>530.4</ele>
        <time>2022-05-04T14:35:24Z</time>
      </trkpt>
      <trkpt lat="46.47251" lon="5.40423">
        <ele>530.2</ele>
        <time>2022-05-04T14:35:25Z</time>
      </trkpt>
      <trkpt lat="46.47272" lon="5.40433">
        <ele>529.2</ele>
        <time>2022-05-04T14:35:27Z</time>
      </trkpt>
      <trkpt lat="46.47294" lon="5.40439">
        <ele>527.6</ele>
        <time>2022-05-04T14:35:29Z</time>
      </trkpt>
      <trkpt lat="46.47306" lon="5.40441">
        <ele>527.2</ele>
        <time>2022-05-04T14:35:30Z</time>
      </trkpt>
      <trkpt lat="46.47318" lon="5.40443">
        <ele>526.2</ele>
        <time>2022-05-04T14:35:31Z</time>
      </trkpt>
      <trkpt lat="46.47342" lon="5.40447">
        <ele>525</ele>
        <time>2022-05-04T14:35:33Z</time>
      </trkpt>
      <trkpt lat="46.47365" lon="5.40449">
        <ele>523.8</ele>
        <time>2022-05-04T14:35:35Z</time>
      </trkpt>
      <trkpt lat="46.47377" lon="5.40449">
        <ele>523</ele>
        <time>2022-05-04T14:35:36Z</time>
      </trkpt>
      <trkpt lat="46.47389" lon="5.40449">
        <ele>522.8</ele>
        <time>2022-05-04T14:35:37Z</time>
      </trkpt>
      <trkpt lat="46.47412" lon="5.40447">
        <ele>521.6</ele>
        <time>2022-05-04T14:35:39Z</time>
      </trkpt>
      <trkpt lat="46.47435" lon="5.40446">
        <ele>520.6</ele>
        <time>2022-05-04T14:35:41Z</time>
      </trkpt>
      <trkpt lat="46.47447" lon="5.40446">
        <ele>519.8</ele>
        <time>2022-05-04T14:35:42Z</time>
      </trkpt>
      <trkpt lat="46.47459" lon="5.40447">
        <ele>518.6</ele>
        <time>2022-05-04T14:35:43Z</time>
      </trkpt>
      <trkpt lat="46.47493" lon="5.40457">
        <ele>517.8</ele>
        <time>2022-05-04T14:35:46Z</time>
      </trkpt>
      <trkpt lat="46.47504" lon="5.40462">
        <ele>517.2</ele>
        <time>2022-05-04T14:35:47Z</time>
      </trkpt>
      <trkpt lat="46.47519" lon="5.40478">
        <ele>516.2</ele>
        <time>2022-05-04T14:35:49Z</time>
      </trkpt>
      <trkpt lat="46.47526" lon="5.40482">
        <ele>515.4</ele>
        <time>2022-05-04T14:35:50Z</time>
      </trkpt>
      <trkpt lat="46.47531" lon="5.40479">
        <ele>515</ele>
        <time>2022-05-04T14:35:51Z</time>
      </trkpt>
      <trkpt lat="46.4754" lon="5.40462">
        <ele>513.8</ele>
        <time>2022-05-04T14:35:53Z</time>
      </trkpt>
      <trkpt lat="46.47539" lon="5.40427">
        <ele>512.6</ele>
        <time>2022-05-04T14:35:55Z</time>
      </trkpt>
      <trkpt lat="46.47536" lon="5.40409">
        <ele>511.8</ele>
        <time>2022-05-04T14:35:56Z</time>
      </trkpt>
      <trkpt lat="46.47532" lon="5.40393">
        <ele>510.8</ele>
        <time>2022-05-04T14:35:57Z</time>
      </trkpt>
      <trkpt lat="46.47519" lon="5.40347">
        <ele>509.4</ele>
        <time>2022-05-04T14:36:00Z</time>
      </trkpt>
      <trkpt lat="46.47526" lon="5.40315">
        <ele>508.6</ele>
        <time>2022-05-04T14:36:02Z</time>
      </trkpt>
      <trkpt lat="46.47532" lon="5.40301">
        <ele>508</ele>
        <time>2022-05-04T14:36:03Z</time>
      </trkpt>
      <trkpt lat="46.47543" lon="5.40289">
        <ele>507</ele>
        <time>2022-05-04T14:36:04Z</time>
      </trkpt>
      <trkpt lat="46.47553" lon="5.40277">
        <ele>506.6</ele>
        <time>2022-05-04T14:36:05Z</time>
      </trkpt>
      <trkpt lat="46.47565" lon="5.40268">
        <ele>506</ele>
        <time>2022-05-04T14:36:06Z</time>
      </trkpt>
      <trkpt lat="46.47577" lon="5.40261">
        <ele>505.4</ele>
        <time>2022-05-04T14:36:07Z</time>
      </trkpt>
      <trkpt lat="46.47589" lon="5.40256">
        <ele>504.4</ele>
        <time>2022-05-04T14:36:08Z</time>
      </trkpt>
      <trkpt lat="46.47614" lon="5.40251">
        <ele>502.8</ele>
        <time>2022-05-04T14:36:10Z</time>
      </trkpt>
      <trkpt lat="46.47639" lon="5.40246">
        <ele>501.8</ele>
        <time>2022-05-04T14:36:12Z</time>
      </trkpt>
      <trkpt lat="46.47663" lon="5.40245">
        <ele>500.8</ele>
        <time>2022-05-04T14:36:14Z</time>
      </trkpt>
      <trkpt lat="46.47686" lon="5.40246">
        <ele>499.8</ele>
        <time>2022-05-04T14:36:16Z</time>
      </trkpt>
      <trkpt lat="46.47697" lon="5.40243">
        <ele>498.6</ele>
        <time>2022-05-04T14:36:17Z</time>
      </trkpt>
      <trkpt lat="46.47706" lon="5.40236">
        <ele>498</ele>
        <time>2022-05-04T14:36:18Z</time>
      </trkpt>
      <trkpt lat="46.47712" lon="5.40224">
        <ele>497.4</ele>
        <time>2022-05-04T14:36:19Z</time>
      </trkpt>
      <trkpt lat="46.47717" lon="5.4021">
        <ele>496.8</ele>
        <time>2022-05-04T14:36:20Z</time>
      </trkpt>
      <trkpt lat="46.47725" lon="5.4018">
        <ele>496.2</ele>
        <time>2022-05-04T14:36:22Z</time>
      </trkpt>
      <trkpt lat="46.47741" lon="5.40159">
        <ele>495</ele>
        <time>2022-05-04T14:36:24Z</time>
      </trkpt>
      <trkpt lat="46.47749" lon="5.40148">
        <ele>494.8</ele>
        <time>2022-05-04T14:36:25Z</time>
      </trkpt>
      <trkpt lat="46.47762" lon="5.4012">
        <ele>493.8</ele>
        <time>2022-05-04T14:36:27Z</time>
      </trkpt>
      <trkpt lat="46.47767" lon="5.40087">
        <ele>492.8</ele>
        <time>2022-05-04T14:36:29Z</time>
      </trkpt>
      <trkpt lat="46.47767" lon="5.40069">
        <ele>492.4</ele>
        <time>2022-05-04T14:36:30Z</time>
      </trkpt>
      <trkpt lat="46.47766" lon="5.40036">
        <ele>491.6</ele>
        <time>2022-05-04T14:36:32Z</time>
      </trkpt>
      <trkpt lat="46.47768" lon="5.40019">
        <ele>490.6</ele>
        <time>2022-05-04T14:36:33Z</time>
      </trkpt>
      <trkpt lat="46.47771" lon="5.40007">
        <ele>489.8</ele>
        <time>2022-05-04T14:36:34Z</time>
      </trkpt>
      <trkpt lat="46.47787" lon="5.39992">
        <ele>489</ele>
        <time>2022-05-04T14:36:36Z</time>
      </trkpt>
      <trkpt lat="46.47809" lon="5.39981">
        <ele>487.8</ele>
        <time>2022-05-04T14:36:38Z</time>
      </trkpt>
      <trkpt lat="46.47833" lon="5.3997">
        <ele>486.4</ele>
        <time>2022-05-04T14:36:40Z</time>
      </trkpt>
      <trkpt lat="46.47845" lon="5.39964">
        <ele>485.4</ele>
        <time>2022-05-04T14:36:41Z</time>
      </trkpt>
      <trkpt lat="46.4788" lon="5.39946">
        <ele>484.4</ele>
        <time>2022-05-04T14:36:44Z</time>
      </trkpt>
      <trkpt lat="46.47892" lon="5.3994">
        <ele>483.4</ele>
        <time>2022-05-04T14:36:45Z</time>
      </trkpt>
      <trkpt lat="46.47914" lon="5.39927">
        <ele>481.4</ele>
        <time>2022-05-04T14:36:47Z</time>
      </trkpt>
      <trkpt lat="46.47938" lon="5.39914">
        <ele>479.8</ele>
        <time>2022-05-04T14:36:49Z</time>
      </trkpt>
      <trkpt lat="46.47972" lon="5.39898">
        <ele>478.8</ele>
        <time>2022-05-04T14:36:52Z</time>
      </trkpt>
      <trkpt lat="46.47982" lon="5.39893">
        <ele>478.4</ele>
        <time>2022-05-04T14:36:53Z</time>
      </trkpt>
      <trkpt lat="46.48004" lon="5.39885">
        <ele>477</ele>
        <time>2022-05-04T14:36:55Z</time>
      </trkpt>
      <trkpt lat="46.48014" lon="5.39882">
        <ele>476.6</ele>
        <time>2022-05-04T14:36:56Z</time>
      </trkpt>
      <trkpt lat="46.48025" lon="5.39882">
        <ele>476.2</ele>
        <time>2022-05-04T14:36:57Z</time>
      </trkpt>
      <trkpt lat="46.48036" lon="5.39886">
        <ele>476</ele>
        <time>2022-05-04T14:36:58Z</time>
      </trkpt>
      <trkpt lat="46.48055" lon="5.39898">
        <ele>475.8</ele>
        <time>2022-05-04T14:37:00Z</time>
      </trkpt>
      <trkpt lat="46.48065" lon="5.39903">
        <ele>475.6</ele>
        <time>2022-05-04T14:37:01Z</time>
      </trkpt>
      <trkpt lat="46.48085" lon="5.39908">
        <ele>475.4</ele>
        <time>2022-05-04T14:37:03Z</time>
      </trkpt>
      <trkpt lat="46.48124" lon="5.39904">
        <ele>475.4</ele>
        <time>2022-05-04T14:37:07Z</time>
      </trkpt>
      <trkpt lat="46.48133" lon="5.399">
        <ele>475.2</ele>
        <time>2022-05-04T14:37:08Z</time>
      </trkpt>
      <trkpt lat="46.4817" lon="5.39882">
        <ele>475.2</ele>
        <time>2022-05-04T14:37:12Z</time>
      </trkpt>
      <trkpt lat="46.48186" lon="5.3987">
        <ele>475.2</ele>
        <time>2022-05-04T14:37:14Z</time>
      </trkpt>
      <trkpt lat="46.48199" lon="5.39853">
        <ele>475.2</ele>
        <time>2022-05-04T14:37:16Z</time>
      </trkpt>
      <trkpt lat="46.48199" lon="5.39828">
        <ele>475</ele>
        <time>2022-05-04T14:37:18Z</time>
      </trkpt>
      <trkpt lat="46.48186" lon="5.39754">
        <ele>474.4</ele>
        <time>2022-05-04T14:37:24Z</time>
      </trkpt>
      <trkpt lat="46.48179" lon="5.39691">
        <ele>473.8</ele>
        <time>2022-05-04T14:37:29Z</time>
      </trkpt>
      <trkpt lat="46.48179" lon="5.39678">
        <ele>473.6</ele>
        <time>2022-05-04T14:37:30Z</time>
      </trkpt>
      <trkpt lat="46.48181" lon="5.39652">
        <ele>473</ele>
        <time>2022-05-04T14:37:32Z</time>
      </trkpt>
      <trkpt lat="46.48189" lon="5.39625">
        <ele>472.6</ele>
        <time>2022-05-04T14:37:34Z</time>
      </trkpt>
      <trkpt lat="46.48205" lon="5.39585">
        <ele>471.8</ele>
        <time>2022-05-04T14:37:37Z</time>
      </trkpt>
      <trkpt lat="46.4821" lon="5.3957">
        <ele>470.4</ele>
        <time>2022-05-04T14:37:38Z</time>
      </trkpt>
      <trkpt lat="46.48214" lon="5.39554">
        <ele>469.6</ele>
        <time>2022-05-04T14:37:39Z</time>
      </trkpt>
      <trkpt lat="46.48217" lon="5.39538">
        <ele>468.6</ele>
        <time>2022-05-04T14:37:40Z</time>
      </trkpt>
      <trkpt lat="46.4822" lon="5.39523">
        <ele>467.4</ele>
        <time>2022-05-04T14:37:41Z</time>
      </trkpt>
      <trkpt lat="46.48223" lon="5.39507">
        <ele>467</ele>
        <time>2022-05-04T14:37:42Z</time>
      </trkpt>
      <trkpt lat="46.48228" lon="5.39494">
        <ele>466.4</ele>
        <time>2022-05-04T14:37:43Z</time>
      </trkpt>
      <trkpt lat="46.48235" lon="5.39482">
        <ele>466</ele>
        <time>2022-05-04T14:37:44Z</time>
      </trkpt>
      <trkpt lat="46.48242" lon="5.39472">
        <ele>464.6</ele>
        <time>2022-05-04T14:37:45Z</time>
      </trkpt>
      <trkpt lat="46.48249" lon="5.39466">
        <ele>463.6</ele>
        <time>2022-05-04T14:37:46Z</time>
      </trkpt>
      <trkpt lat="46.48257" lon="5.39462">
        <ele>462.2</ele>
        <time>2022-05-04T14:37:47Z</time>
      </trkpt>
      <trkpt lat="46.48266" lon="5.3946">
        <ele>460.2</ele>
        <time>2022-05-04T14:37:48Z</time>
      </trkpt>
      <trkpt lat="46.48282" lon="5.39458">
        <ele>458.4</ele>
        <time>2022-05-04T14:37:50Z</time>
      </trkpt>
      <trkpt lat="46.48289" lon="5.39455">
        <ele>458.2</ele>
        <time>2022-05-04T14:37:51Z</time>
      </trkpt>
      <trkpt lat="46.48294" lon="5.39448">
        <ele>457.6</ele>
        <time>2022-05-04T14:37:52Z</time>
      </trkpt>
      <trkpt lat="46.48298" lon="5.39437">
        <ele>457</ele>
        <time>2022-05-04T14:37:53Z</time>
      </trkpt>
      <trkpt lat="46.48305" lon="5.39409">
        <ele>455.2</ele>
        <time>2022-05-04T14:37:55Z</time>
      </trkpt>
      <trkpt lat="46.48309" lon="5.39394">
        <ele>454.8</ele>
        <time>2022-05-04T14:37:56Z</time>
      </trkpt>
      <trkpt lat="46.48315" lon="5.39378">
        <ele>454</ele>
        <time>2022-05-04T14:37:57Z</time>
      </trkpt>
      <trkpt lat="46.48321" lon="5.39364">
        <ele>453.8</ele>
        <time>2022-05-04T14:37:58Z</time>
      </trkpt>
      <trkpt lat="46.48329" lon="5.39351">
        <ele>452.8</ele>
        <time>2022-05-04T14:37:59Z</time>
      </trkpt>
      <trkpt lat="46.48346" lon="5.39331">
        <ele>451.6</ele>
        <time>2022-05-04T14:38:01Z</time>
      </trkpt>
      <trkpt lat="46.48355" lon="5.39323">
        <ele>450.4</ele>
        <time>2022-05-04T14:38:02Z</time>
      </trkpt>
      <trkpt lat="46.48364" lon="5.39318">
        <ele>450</ele>
        <time>2022-05-04T14:38:03Z</time>
      </trkpt>
      <trkpt lat="46.48376" lon="5.39316">
        <ele>449</ele>
        <time>2022-05-04T14:38:04Z</time>
      </trkpt>
      <trkpt lat="46.48388" lon="5.39317">
        <ele>448.8</ele>
        <time>2022-05-04T14:38:05Z</time>
      </trkpt>
      <trkpt lat="46.48399" lon="5.39319">
        <ele>447.8</ele>
        <time>2022-05-04T14:38:06Z</time>
      </trkpt>
      <trkpt lat="46.48412" lon="5.39321">
        <ele>447</ele>
        <time>2022-05-04T14:38:07Z</time>
      </trkpt>
      <trkpt lat="46.48424" lon="5.3932">
        <ele>445</ele>
        <time>2022-05-04T14:38:08Z</time>
      </trkpt>
      <trkpt lat="46.48438" lon="5.39319">
        <ele>443.6</ele>
        <time>2022-05-04T14:38:09Z</time>
      </trkpt>
      <trkpt lat="46.48452" lon="5.39316">
        <ele>442.8</ele>
        <time>2022-05-04T14:38:10Z</time>
      </trkpt>
      <trkpt lat="46.48466" lon="5.39313">
        <ele>441.8</ele>
        <time>2022-05-04T14:38:11Z</time>
      </trkpt>
      <trkpt lat="46.48493" lon="5.39305">
        <ele>440.6</ele>
        <time>2022-05-04T14:38:13Z</time>
      </trkpt>
      <trkpt lat="46.4852" lon="5.39298">
        <ele>438.4</ele>
        <time>2022-05-04T14:38:15Z</time>
      </trkpt>
      <trkpt lat="46.48534" lon="5.39294">
        <ele>436.6</ele>
        <time>2022-05-04T14:38:16Z</time>
      </trkpt>
      <trkpt lat="46.48563" lon="5.39289">
        <ele>435</ele>
        <time>2022-05-04T14:38:18Z</time>
      </trkpt>
      <trkpt lat="46.48591" lon="5.39283">
        <ele>433.4</ele>
        <time>2022-05-04T14:38:20Z</time>
      </trkpt>
      <trkpt lat="46.48605" lon="5.39279">
        <ele>432.6</ele>
        <time>2022-05-04T14:38:21Z</time>
      </trkpt>
      <trkpt lat="46.4862" lon="5.39276">
        <ele>431.6</ele>
        <time>2022-05-04T14:38:22Z</time>
      </trkpt>
      <trkpt lat="46.48634" lon="5.39274">
        <ele>430</ele>
        <time>2022-05-04T14:38:23Z</time>
      </trkpt>
      <trkpt lat="46.48662" lon="5.39275">
        <ele>426.8</ele>
        <time>2022-05-04T14:38:25Z</time>
      </trkpt>
      <trkpt lat="46.48687" lon="5.3928">
        <ele>424.6</ele>
        <time>2022-05-04T14:38:27Z</time>
      </trkpt>
      <trkpt lat="46.48699" lon="5.39285">
        <ele>424.2</ele>
        <time>2022-05-04T14:38:28Z</time>
      </trkpt>
      <trkpt lat="46.48709" lon="5.39291">
        <ele>423</ele>
        <time>2022-05-04T14:38:29Z</time>
      </trkpt>
      <trkpt lat="46.48725" lon="5.39301">
        <ele>421.8</ele>
        <time>2022-05-04T14:38:31Z</time>
      </trkpt>
      <trkpt lat="46.48735" lon="5.39298">
        <ele>420</ele>
        <time>2022-05-04T14:38:33Z</time>
      </trkpt>
      <trkpt lat="46.48736" lon="5.39289">
        <ele>418</ele>
        <time>2022-05-04T14:38:34Z</time>
      </trkpt>
      <trkpt lat="46.48736" lon="5.39279">
        <ele>417.4</ele>
        <time>2022-05-04T14:38:35Z</time>
      </trkpt>
      <trkpt lat="46.48734" lon="5.3927">
        <ele>416.2</ele>
        <time>2022-05-04T14:38:36Z</time>
      </trkpt>
      <trkpt lat="46.48728" lon="5.39262">
        <ele>415</ele>
        <time>2022-05-04T14:38:37Z</time>
      </trkpt>
      <trkpt lat="46.48718" lon="5.39252">
        <ele>414.4</ele>
        <time>2022-05-04T14:38:38Z</time>
      </trkpt>
      <trkpt lat="46.48709" lon="5.39239">
        <ele>413.4</ele>
        <time>2022-05-04T14:38:39Z</time>
      </trkpt>
      <trkpt lat="46.48699" lon="5.39226">
        <ele>413.2</ele>
        <time>2022-05-04T14:38:40Z</time>
      </trkpt>
      <trkpt lat="46.48689" lon="5.39212">
        <ele>412</ele>
        <time>2022-05-04T14:38:41Z</time>
      </trkpt>
      <trkpt lat="46.4867" lon="5.39184">
        <ele>410.2</ele>
        <time>2022-05-04T14:38:43Z</time>
      </trkpt>
      <trkpt lat="46.4866" lon="5.39171">
        <ele>409.4</ele>
        <time>2022-05-04T14:38:44Z</time>
      </trkpt>
      <trkpt lat="46.48651" lon="5.39157">
        <ele>408.6</ele>
        <time>2022-05-04T14:38:45Z</time>
      </trkpt>
      <trkpt lat="46.4864" lon="5.39145">
        <ele>407.4</ele>
        <time>2022-05-04T14:38:46Z</time>
      </trkpt>
      <trkpt lat="46.48629" lon="5.39134">
        <ele>406.8</ele>
        <time>2022-05-04T14:38:47Z</time>
      </trkpt>
      <trkpt lat="46.48617" lon="5.39124">
        <ele>406.4</ele>
        <time>2022-05-04T14:38:48Z</time>
      </trkpt>
      <trkpt lat="46.48579" lon="5.39095">
        <ele>404.2</ele>
        <time>2022-05-04T14:38:51Z</time>
      </trkpt>
      <trkpt lat="46.48566" lon="5.39086">
        <ele>403.2</ele>
        <time>2022-05-04T14:38:52Z</time>
      </trkpt>
      <trkpt lat="46.48553" lon="5.39077">
        <ele>401.4</ele>
        <time>2022-05-04T14:38:53Z</time>
      </trkpt>
      <trkpt lat="46.48527" lon="5.39061">
        <ele>399.6</ele>
        <time>2022-05-04T14:38:55Z</time>
      </trkpt>
      <trkpt lat="46.48503" lon="5.39036">
        <ele>396.8</ele>
        <time>2022-05-04T14:38:57Z</time>
      </trkpt>
      <trkpt lat="46.48496" lon="5.39018">
        <ele>395.4</ele>
        <time>2022-05-04T14:38:58Z</time>
      </trkpt>
      <trkpt lat="46.48492" lon="5.38998">
        <ele>394.2</ele>
        <time>2022-05-04T14:38:59Z</time>
      </trkpt>
      <trkpt lat="46.48487" lon="5.38978">
        <ele>392.2</ele>
        <time>2022-05-04T14:39:00Z</time>
      </trkpt>
      <trkpt lat="46.48481" lon="5.3896">
        <ele>390.8</ele>
        <time>2022-05-04T14:39:01Z</time>
      </trkpt>
      <trkpt lat="46.48473" lon="5.38944">
        <ele>389.2</ele>
        <time>2022-05-04T14:39:02Z</time>
      </trkpt>
      <trkpt lat="46.48459" lon="5.38917">
        <ele>387</ele>
        <time>2022-05-04T14:39:04Z</time>
      </trkpt>
      <trkpt lat="46.48454" lon="5.38903">
        <ele>385.8</ele>
        <time>2022-05-04T14:39:05Z</time>
      </trkpt>
      <trkpt lat="46.48453" lon="5.38873">
        <ele>384.4</ele>
        <time>2022-05-04T14:39:07Z</time>
      </trkpt>
      <trkpt lat="46.48464" lon="5.38849">
        <ele>382.6</ele>
        <time>2022-05-04T14:39:09Z</time>
      </trkpt>
      <trkpt lat="46.48483" lon="5.38834">
        <ele>381</ele>
        <time>2022-05-04T14:39:11Z</time>
      </trkpt>
      <trkpt lat="46.48493" lon="5.38828">
        <ele>380.6</ele>
        <time>2022-05-04T14:39:12Z</time>
      </trkpt>
      <trkpt lat="46.48515" lon="5.38814">
        <ele>380</ele>
        <time>2022-05-04T14:39:14Z</time>
      </trkpt>
      <trkpt lat="46.48548" lon="5.38794">
        <ele>378.8</ele>
        <time>2022-05-04T14:39:17Z</time>
      </trkpt>
      <trkpt lat="46.48559" lon="5.38787">
        <ele>377.6</ele>
        <time>2022-05-04T14:39:18Z</time>
      </trkpt>
      <trkpt lat="46.48569" lon="5.38781">
        <ele>376.4</ele>
        <time>2022-05-04T14:39:19Z</time>
      </trkpt>
      <trkpt lat="46.48578" lon="5.38775">
        <ele>376</ele>
        <time>2022-05-04T14:39:20Z</time>
      </trkpt>
      <trkpt lat="46.48586" lon="5.38773">
        <ele>375.2</ele>
        <time>2022-05-04T14:39:21Z</time>
      </trkpt>
      <trkpt lat="46.48594" lon="5.38774">
        <ele>374.8</ele>
        <time>2022-05-04T14:39:22Z</time>
      </trkpt>
      <trkpt lat="46.48602" lon="5.38775">
        <ele>373.8</ele>
        <time>2022-05-04T14:39:23Z</time>
      </trkpt>
      <trkpt lat="46.48609" lon="5.38774">
        <ele>373</ele>
        <time>2022-05-04T14:39:24Z</time>
      </trkpt>
      <trkpt lat="46.48616" lon="5.38769">
        <ele>372.2</ele>
        <time>2022-05-04T14:39:25Z</time>
      </trkpt>
      <trkpt lat="46.48623" lon="5.38761">
        <ele>371.6</ele>
        <time>2022-05-04T14:39:26Z</time>
      </trkpt>
      <trkpt lat="46.48628" lon="5.3875">
        <ele>370.2</ele>
        <time>2022-05-04T14:39:27Z</time>
      </trkpt>
      <trkpt lat="46.48633" lon="5.38738">
        <ele>368.6</ele>
        <time>2022-05-04T14:39:28Z</time>
      </trkpt>
      <trkpt lat="46.48638" lon="5.38725">
        <ele>368</ele>
        <time>2022-05-04T14:39:29Z</time>
      </trkpt>
      <trkpt lat="46.48641" lon="5.3871">
        <ele>367</ele>
        <time>2022-05-04T14:39:30Z</time>
      </trkpt>
      <trkpt lat="46.48642" lon="5.38695">
        <ele>366.4</ele>
        <time>2022-05-04T14:39:31Z</time>
      </trkpt>
      <trkpt lat="46.48643" lon="5.3868">
        <ele>365.6</ele>
        <time>2022-05-04T14:39:32Z</time>
      </trkpt>
      <trkpt lat="46.48642" lon="5.38664">
        <ele>365</ele>
        <time>2022-05-04T14:39:33Z</time>
      </trkpt>
      <trkpt lat="46.4864" lon="5.38647">
        <ele>364.4</ele>
        <time>2022-05-04T14:39:34Z</time>
      </trkpt>
      <trkpt lat="46.48637" lon="5.38631">
        <ele>363.6</ele>
        <time>2022-05-04T14:39:35Z</time>
      </trkpt>
      <trkpt lat="46.48633" lon="5.38616">
        <ele>363.2</ele>
        <time>2022-05-04T14:39:36Z</time>
      </trkpt>
      <trkpt lat="46.48624" lon="5.38585">
        <ele>362</ele>
        <time>2022-05-04T14:39:38Z</time>
      </trkpt>
      <trkpt lat="46.48611" lon="5.38538">
        <ele>360.2</ele>
        <time>2022-05-04T14:39:41Z</time>
      </trkpt>
      <trkpt lat="46.48602" lon="5.38508">
        <ele>359.2</ele>
        <time>2022-05-04T14:39:43Z</time>
      </trkpt>
    </trkseg>
  </trk>
</gpx>